<?xml version="1.0" encoding="UTF-8" standalone="no" ?>
<gpx xmlns="http://www.topografix.com/GPX/1/1" xmlns:xsi="http://www.w3.org/2001/XMLSchema-instance" xsi:schemaLocation="http://www.topografix.com/GPX/1/1 http://www.topografix.com/GPX/1/1/gpx.xsd" version="1.1" creator="VisuGPX - https://www.visugpx.com">
  <metadata>
    <name>LANGOGNE-LE PUY Route</name>
    <desc><![CDATA[Road trip de Langogne (48)à Ganges (34)en 4 jours]]></desc>
  </metadata>
  <trk>
    <name><![CDATA[V2 2025 J1 road trip Le puy - Chateauneuf]]></name>
    <extensions>
      <line xmlns="http://www.topografix.com/GPX/gpx_style/0/2">
        <color>000088</color>
        <width>4</width>
      </line>
    </extensions>
    <trkseg>
      <trkpt lat="45.01235" lon="3.8959">
        <ele>805.74</ele>
        <time>2025-04-15T15:06:02.000Z</time>
      </trkpt>
      <trkpt lat="45.01251" lon="3.89577">
        <ele>805.72</ele>
        <time>2025-04-15T15:06:02.003Z</time>
      </trkpt>
      <trkpt lat="45.01255" lon="3.89577">
        <ele>805.67</ele>
        <time>2025-04-15T15:06:02.007Z</time>
      </trkpt>
      <trkpt lat="45.01269" lon="3.89613">
        <ele>805.41</ele>
        <time>2025-04-15T15:06:02.015Z</time>
      </trkpt>
      <trkpt lat="45.01283" lon="3.8965">
        <ele>805.05</ele>
        <time>2025-04-15T15:06:02.028Z</time>
      </trkpt>
      <trkpt lat="45.01261" lon="3.89653">
        <ele>804.86</ele>
        <time>2025-04-15T15:06:02.045Z</time>
      </trkpt>
      <trkpt lat="45.01239" lon="3.89657">
        <ele>804.66</ele>
        <time>2025-04-15T15:06:02.065Z</time>
      </trkpt>
      <trkpt lat="45.01217" lon="3.89661">
        <ele>804.54</ele>
        <time>2025-04-15T15:06:02.089Z</time>
      </trkpt>
      <trkpt lat="45.012" lon="3.89663">
        <ele>804.48</ele>
        <time>2025-04-15T15:06:02.116Z</time>
      </trkpt>
      <trkpt lat="45.01182" lon="3.89665">
        <ele>804.45</ele>
        <time>2025-04-15T15:06:02.145Z</time>
      </trkpt>
      <trkpt lat="45.01157" lon="3.89676">
        <ele>804.27</ele>
        <time>2025-04-15T15:06:02.179Z</time>
      </trkpt>
      <trkpt lat="45.01137" lon="3.89659">
        <ele>804.27</ele>
        <time>2025-04-15T15:06:02.216Z</time>
      </trkpt>
      <trkpt lat="45.0112" lon="3.89652">
        <ele>804.24</ele>
        <time>2025-04-15T15:06:02.256Z</time>
      </trkpt>
      <trkpt lat="45.01109" lon="3.89648">
        <ele>804.23</ele>
        <time>2025-04-15T15:06:02.298Z</time>
      </trkpt>
      <trkpt lat="45.01091" lon="3.89635">
        <ele>804.28</ele>
        <time>2025-04-15T15:06:02.343Z</time>
      </trkpt>
      <trkpt lat="45.01073" lon="3.89622">
        <ele>804.27</ele>
        <time>2025-04-15T15:06:02.391Z</time>
      </trkpt>
      <trkpt lat="45.01057" lon="3.89597">
        <ele>804.34</ele>
        <time>2025-04-15T15:06:02.443Z</time>
      </trkpt>
      <trkpt lat="45.01041" lon="3.89573">
        <ele>804.37</ele>
        <time>2025-04-15T15:06:02.499Z</time>
      </trkpt>
      <trkpt lat="45.01024" lon="3.89545">
        <ele>804.3</ele>
        <time>2025-04-15T15:06:02.559Z</time>
      </trkpt>
      <trkpt lat="45.01012" lon="3.89518">
        <ele>804.26</ele>
        <time>2025-04-15T15:06:02.623Z</time>
      </trkpt>
      <trkpt lat="45.01" lon="3.89491">
        <ele>804.24</ele>
        <time>2025-04-15T15:06:02.690Z</time>
      </trkpt>
      <trkpt lat="45.00985" lon="3.89455">
        <ele>804.35</ele>
        <time>2025-04-15T15:06:02.762Z</time>
      </trkpt>
      <trkpt lat="45.0097" lon="3.89418">
        <ele>804.2</ele>
        <time>2025-04-15T15:06:02.839Z</time>
      </trkpt>
      <trkpt lat="45.00957" lon="3.89384">
        <ele>803.99</ele>
        <time>2025-04-15T15:06:02.920Z</time>
      </trkpt>
      <trkpt lat="45.00946" lon="3.89367">
        <ele>803.64</ele>
        <time>2025-04-15T15:06:03.004Z</time>
      </trkpt>
      <trkpt lat="45.00936" lon="3.8935">
        <ele>803.16</ele>
        <time>2025-04-15T15:06:03.091Z</time>
      </trkpt>
      <trkpt lat="45.00936" lon="3.8935">
        <ele>802.78</ele>
        <time>2025-04-15T15:06:03.178Z</time>
      </trkpt>
      <trkpt lat="45.00921" lon="3.89327">
        <ele>802.28</ele>
        <time>2025-04-15T15:06:03.268Z</time>
      </trkpt>
      <trkpt lat="45.00907" lon="3.89304">
        <ele>801.76</ele>
        <time>2025-04-15T15:06:03.362Z</time>
      </trkpt>
      <trkpt lat="45.00893" lon="3.89281">
        <ele>801.16</ele>
        <time>2025-04-15T15:06:03.459Z</time>
      </trkpt>
      <trkpt lat="45.00886" lon="3.89253">
        <ele>800.73</ele>
        <time>2025-04-15T15:06:03.559Z</time>
      </trkpt>
      <trkpt lat="45.00881" lon="3.89216">
        <ele>800.43</ele>
        <time>2025-04-15T15:06:03.664Z</time>
      </trkpt>
      <trkpt lat="45.00876" lon="3.8918">
        <ele>800.14</ele>
        <time>2025-04-15T15:06:03.773Z</time>
      </trkpt>
      <trkpt lat="45.00861" lon="3.89141">
        <ele>799.76</ele>
        <time>2025-04-15T15:06:03.887Z</time>
      </trkpt>
      <trkpt lat="45.00848" lon="3.89116">
        <ele>799.44</ele>
        <time>2025-04-15T15:06:04.004Z</time>
      </trkpt>
      <trkpt lat="45.00835" lon="3.8909">
        <ele>798.98</ele>
        <time>2025-04-15T15:06:04.125Z</time>
      </trkpt>
      <trkpt lat="45.00822" lon="3.89064">
        <ele>798.33</ele>
        <time>2025-04-15T15:06:04.249Z</time>
      </trkpt>
      <trkpt lat="45.00806" lon="3.8904">
        <ele>797.71</ele>
        <time>2025-04-15T15:06:04.377Z</time>
      </trkpt>
      <trkpt lat="45.0079" lon="3.89015">
        <ele>797</ele>
        <time>2025-04-15T15:06:04.509Z</time>
      </trkpt>
      <trkpt lat="45.00775" lon="3.88991">
        <ele>796.26</ele>
        <time>2025-04-15T15:06:04.645Z</time>
      </trkpt>
      <trkpt lat="45.00764" lon="3.88965">
        <ele>795.53</ele>
        <time>2025-04-15T15:06:04.784Z</time>
      </trkpt>
      <trkpt lat="45.00762" lon="3.88942">
        <ele>794.83</ele>
        <time>2025-04-15T15:06:04.926Z</time>
      </trkpt>
      <trkpt lat="45.0077" lon="3.88918">
        <ele>794.36</ele>
        <time>2025-04-15T15:06:05.071Z</time>
      </trkpt>
      <trkpt lat="45.00779" lon="3.88895">
        <ele>794.11</ele>
        <time>2025-04-15T15:06:05.219Z</time>
      </trkpt>
      <trkpt lat="45.00783" lon="3.88875">
        <ele>793.81</ele>
        <time>2025-04-15T15:06:05.369Z</time>
      </trkpt>
      <trkpt lat="45.00781" lon="3.88852">
        <ele>793.36</ele>
        <time>2025-04-15T15:06:05.522Z</time>
      </trkpt>
      <trkpt lat="45.0077" lon="3.88813">
        <ele>792.67</ele>
        <time>2025-04-15T15:06:05.680Z</time>
      </trkpt>
      <trkpt lat="45.00753" lon="3.88777">
        <ele>791.92</ele>
        <time>2025-04-15T15:06:05.842Z</time>
      </trkpt>
      <trkpt lat="45.00736" lon="3.88741">
        <ele>791.04</ele>
        <time>2025-04-15T15:06:06.009Z</time>
      </trkpt>
      <trkpt lat="45.00719" lon="3.88705">
        <ele>790.34</ele>
        <time>2025-04-15T15:06:06.181Z</time>
      </trkpt>
      <trkpt lat="45.00702" lon="3.88669">
        <ele>789.94</ele>
        <time>2025-04-15T15:06:06.358Z</time>
      </trkpt>
      <trkpt lat="45.00682" lon="3.88635">
        <ele>789.36</ele>
        <time>2025-04-15T15:06:06.540Z</time>
      </trkpt>
      <trkpt lat="45.00667" lon="3.8862">
        <ele>788.52</ele>
        <time>2025-04-15T15:06:06.725Z</time>
      </trkpt>
      <trkpt lat="45.00652" lon="3.88605">
        <ele>787.6</ele>
        <time>2025-04-15T15:06:06.913Z</time>
      </trkpt>
      <trkpt lat="45.0063" lon="3.88603">
        <ele>786.51</ele>
        <time>2025-04-15T15:06:07.105Z</time>
      </trkpt>
      <trkpt lat="45.00608" lon="3.88601">
        <ele>785.32</ele>
        <time>2025-04-15T15:06:07.300Z</time>
      </trkpt>
      <trkpt lat="45.00586" lon="3.88598">
        <ele>784.08</ele>
        <time>2025-04-15T15:06:07.499Z</time>
      </trkpt>
      <trkpt lat="45.00568" lon="3.88586">
        <ele>783.03</ele>
        <time>2025-04-15T15:06:07.701Z</time>
      </trkpt>
      <trkpt lat="45.00549" lon="3.88573">
        <ele>782.01</ele>
        <time>2025-04-15T15:06:07.906Z</time>
      </trkpt>
      <trkpt lat="45.00519" lon="3.88562">
        <ele>780.83</ele>
        <time>2025-04-15T15:06:08.116Z</time>
      </trkpt>
      <trkpt lat="45.0049" lon="3.88554">
        <ele>779.65</ele>
        <time>2025-04-15T15:06:08.331Z</time>
      </trkpt>
      <trkpt lat="45.00461" lon="3.88546">
        <ele>778.42</ele>
        <time>2025-04-15T15:06:08.551Z</time>
      </trkpt>
      <trkpt lat="45.00431" lon="3.88538">
        <ele>777.23</ele>
        <time>2025-04-15T15:06:08.776Z</time>
      </trkpt>
      <trkpt lat="45.00431" lon="3.88538">
        <ele>776.22</ele>
        <time>2025-04-15T15:06:09.001Z</time>
      </trkpt>
      <trkpt lat="45.00407" lon="3.88529">
        <ele>775.38</ele>
        <time>2025-04-15T15:06:09.230Z</time>
      </trkpt>
      <trkpt lat="45.00382" lon="3.8852">
        <ele>774.61</ele>
        <time>2025-04-15T15:06:09.463Z</time>
      </trkpt>
      <trkpt lat="45.00358" lon="3.88511">
        <ele>773.88</ele>
        <time>2025-04-15T15:06:09.700Z</time>
      </trkpt>
      <trkpt lat="45.00334" lon="3.88502">
        <ele>773.15</ele>
        <time>2025-04-15T15:06:09.941Z</time>
      </trkpt>
      <trkpt lat="45.00309" lon="3.88493">
        <ele>772.39</ele>
        <time>2025-04-15T15:06:10.186Z</time>
      </trkpt>
      <trkpt lat="45.00292" lon="3.88478">
        <ele>771.71</ele>
        <time>2025-04-15T15:06:10.434Z</time>
      </trkpt>
      <trkpt lat="45.00279" lon="3.88442">
        <ele>771.38</ele>
        <time>2025-04-15T15:06:10.687Z</time>
      </trkpt>
      <trkpt lat="45.00266" lon="3.88405">
        <ele>771.12</ele>
        <time>2025-04-15T15:06:10.944Z</time>
      </trkpt>
      <trkpt lat="45.00258" lon="3.88392">
        <ele>770.79</ele>
        <time>2025-04-15T15:06:11.203Z</time>
      </trkpt>
      <trkpt lat="45.00249" lon="3.88386">
        <ele>770.45</ele>
        <time>2025-04-15T15:06:11.464Z</time>
      </trkpt>
      <trkpt lat="45.00229" lon="3.88377">
        <ele>770.04</ele>
        <time>2025-04-15T15:06:11.728Z</time>
      </trkpt>
      <trkpt lat="45.00209" lon="3.88367">
        <ele>769.64</ele>
        <time>2025-04-15T15:06:11.996Z</time>
      </trkpt>
      <trkpt lat="45.00189" lon="3.88358">
        <ele>769.3</ele>
        <time>2025-04-15T15:06:12.267Z</time>
      </trkpt>
      <trkpt lat="45.00162" lon="3.88353">
        <ele>768.87</ele>
        <time>2025-04-15T15:06:12.542Z</time>
      </trkpt>
      <trkpt lat="45.00135" lon="3.88347">
        <ele>768.41</ele>
        <time>2025-04-15T15:06:12.822Z</time>
      </trkpt>
      <trkpt lat="45.00118" lon="3.88339">
        <ele>768.02</ele>
        <time>2025-04-15T15:06:13.105Z</time>
      </trkpt>
      <trkpt lat="45.00099" lon="3.8832">
        <ele>767.73</ele>
        <time>2025-04-15T15:06:13.391Z</time>
      </trkpt>
      <trkpt lat="45.00079" lon="3.883">
        <ele>767.47</ele>
        <time>2025-04-15T15:06:13.681Z</time>
      </trkpt>
      <trkpt lat="45.00079" lon="3.883">
        <ele>767.13</ele>
        <time>2025-04-15T15:06:13.971Z</time>
      </trkpt>
      <trkpt lat="45.00056" lon="3.88294">
        <ele>766.76</ele>
        <time>2025-04-15T15:06:14.265Z</time>
      </trkpt>
      <trkpt lat="45.00028" lon="3.88298">
        <ele>766.27</ele>
        <time>2025-04-15T15:06:14.563Z</time>
      </trkpt>
      <trkpt lat="45.00012" lon="3.88306">
        <ele>766.01</ele>
        <time>2025-04-15T15:06:14.864Z</time>
      </trkpt>
      <trkpt lat="44.99996" lon="3.88313">
        <ele>765.69</ele>
        <time>2025-04-15T15:06:15.168Z</time>
      </trkpt>
      <trkpt lat="44.99983" lon="3.88326">
        <ele>765.28</ele>
        <time>2025-04-15T15:06:15.474Z</time>
      </trkpt>
      <trkpt lat="44.9997" lon="3.88339">
        <ele>764.87</ele>
        <time>2025-04-15T15:06:15.783Z</time>
      </trkpt>
      <trkpt lat="44.99949" lon="3.88371">
        <ele>764.39</ele>
        <time>2025-04-15T15:06:16.097Z</time>
      </trkpt>
      <trkpt lat="44.99934" lon="3.884">
        <ele>763.66</ele>
        <time>2025-04-15T15:06:16.415Z</time>
      </trkpt>
      <trkpt lat="44.9992" lon="3.88428">
        <ele>762.88</ele>
        <time>2025-04-15T15:06:16.737Z</time>
      </trkpt>
      <trkpt lat="44.99906" lon="3.88457">
        <ele>761.99</ele>
        <time>2025-04-15T15:06:17.063Z</time>
      </trkpt>
      <trkpt lat="44.99882" lon="3.88474">
        <ele>761.05</ele>
        <time>2025-04-15T15:06:17.393Z</time>
      </trkpt>
      <trkpt lat="44.99854" lon="3.8848">
        <ele>760.05</ele>
        <time>2025-04-15T15:06:17.728Z</time>
      </trkpt>
      <trkpt lat="44.99832" lon="3.8848">
        <ele>759.09</ele>
        <time>2025-04-15T15:06:18.066Z</time>
      </trkpt>
      <trkpt lat="44.99809" lon="3.8848">
        <ele>758.09</ele>
        <time>2025-04-15T15:06:18.408Z</time>
      </trkpt>
      <trkpt lat="44.99793" lon="3.88485">
        <ele>756.98</ele>
        <time>2025-04-15T15:06:18.752Z</time>
      </trkpt>
      <trkpt lat="44.99777" lon="3.88489">
        <ele>755.79</ele>
        <time>2025-04-15T15:06:19.099Z</time>
      </trkpt>
      <trkpt lat="44.99754" lon="3.88504">
        <ele>754.5</ele>
        <time>2025-04-15T15:06:19.450Z</time>
      </trkpt>
      <trkpt lat="44.99732" lon="3.88519">
        <ele>753.28</ele>
        <time>2025-04-15T15:06:19.805Z</time>
      </trkpt>
      <trkpt lat="44.99719" lon="3.88536">
        <ele>752</ele>
        <time>2025-04-15T15:06:20.163Z</time>
      </trkpt>
      <trkpt lat="44.99706" lon="3.88553">
        <ele>750.63</ele>
        <time>2025-04-15T15:06:20.524Z</time>
      </trkpt>
      <trkpt lat="44.99678" lon="3.88574">
        <ele>749.27</ele>
        <time>2025-04-15T15:06:20.890Z</time>
      </trkpt>
      <trkpt lat="44.9965" lon="3.88594">
        <ele>747.95</ele>
        <time>2025-04-15T15:06:21.261Z</time>
      </trkpt>
      <trkpt lat="44.99635" lon="3.88616">
        <ele>746.45</ele>
        <time>2025-04-15T15:06:21.635Z</time>
      </trkpt>
      <trkpt lat="44.9962" lon="3.88639">
        <ele>744.9</ele>
        <time>2025-04-15T15:06:22.013Z</time>
      </trkpt>
      <trkpt lat="44.99605" lon="3.88661">
        <ele>743.23</ele>
        <time>2025-04-15T15:06:22.394Z</time>
      </trkpt>
      <trkpt lat="44.9959" lon="3.88669">
        <ele>741.61</ele>
        <time>2025-04-15T15:06:22.778Z</time>
      </trkpt>
      <trkpt lat="44.99577" lon="3.88669">
        <ele>739.98</ele>
        <time>2025-04-15T15:06:23.164Z</time>
      </trkpt>
      <trkpt lat="44.99562" lon="3.88665">
        <ele>738.31</ele>
        <time>2025-04-15T15:06:23.552Z</time>
      </trkpt>
      <trkpt lat="44.99541" lon="3.88652">
        <ele>736.6</ele>
        <time>2025-04-15T15:06:23.944Z</time>
      </trkpt>
      <trkpt lat="44.99519" lon="3.88639">
        <ele>734.81</ele>
        <time>2025-04-15T15:06:24.340Z</time>
      </trkpt>
      <trkpt lat="44.995" lon="3.88637">
        <ele>732.93</ele>
        <time>2025-04-15T15:06:24.739Z</time>
      </trkpt>
      <trkpt lat="44.99481" lon="3.88635">
        <ele>731.02</ele>
        <time>2025-04-15T15:06:25.141Z</time>
      </trkpt>
      <trkpt lat="44.9947" lon="3.88629">
        <ele>729.22</ele>
        <time>2025-04-15T15:06:25.545Z</time>
      </trkpt>
      <trkpt lat="44.99446" lon="3.88603">
        <ele>727.39</ele>
        <time>2025-04-15T15:06:25.954Z</time>
      </trkpt>
      <trkpt lat="44.99431" lon="3.88576">
        <ele>725.64</ele>
        <time>2025-04-15T15:06:26.367Z</time>
      </trkpt>
      <trkpt lat="44.99415" lon="3.8855">
        <ele>723.94</ele>
        <time>2025-04-15T15:06:26.784Z</time>
      </trkpt>
      <trkpt lat="44.99399" lon="3.88523">
        <ele>722.26</ele>
        <time>2025-04-15T15:06:27.204Z</time>
      </trkpt>
      <trkpt lat="44.99386" lon="3.88507">
        <ele>720.57</ele>
        <time>2025-04-15T15:06:27.627Z</time>
      </trkpt>
      <trkpt lat="44.99373" lon="3.88491">
        <ele>718.93</ele>
        <time>2025-04-15T15:06:28.053Z</time>
      </trkpt>
      <trkpt lat="44.99346" lon="3.88472">
        <ele>717.32</ele>
        <time>2025-04-15T15:06:28.484Z</time>
      </trkpt>
      <trkpt lat="44.99319" lon="3.88453">
        <ele>715.74</ele>
        <time>2025-04-15T15:06:28.920Z</time>
      </trkpt>
      <trkpt lat="44.99292" lon="3.88434">
        <ele>714.23</ele>
        <time>2025-04-15T15:06:29.360Z</time>
      </trkpt>
      <trkpt lat="44.99265" lon="3.88415">
        <ele>712.69</ele>
        <time>2025-04-15T15:06:29.805Z</time>
      </trkpt>
      <trkpt lat="44.99238" lon="3.88396">
        <ele>711.18</ele>
        <time>2025-04-15T15:06:30.255Z</time>
      </trkpt>
      <trkpt lat="44.9921" lon="3.88377">
        <ele>709.74</ele>
        <time>2025-04-15T15:06:30.710Z</time>
      </trkpt>
      <trkpt lat="44.99193" lon="3.88367">
        <ele>708.25</ele>
        <time>2025-04-15T15:06:31.168Z</time>
      </trkpt>
      <trkpt lat="44.99176" lon="3.88356">
        <ele>706.76</ele>
        <time>2025-04-15T15:06:31.629Z</time>
      </trkpt>
      <trkpt lat="44.99156" lon="3.88332">
        <ele>705.39</ele>
        <time>2025-04-15T15:06:32.094Z</time>
      </trkpt>
      <trkpt lat="44.99136" lon="3.88307">
        <ele>704.1</ele>
        <time>2025-04-15T15:06:32.564Z</time>
      </trkpt>
      <trkpt lat="44.99116" lon="3.88283">
        <ele>702.9</ele>
        <time>2025-04-15T15:06:33.038Z</time>
      </trkpt>
      <trkpt lat="44.99103" lon="3.88272">
        <ele>701.76</ele>
        <time>2025-04-15T15:06:33.514Z</time>
      </trkpt>
      <trkpt lat="44.9909" lon="3.88264">
        <ele>700.67</ele>
        <time>2025-04-15T15:06:33.992Z</time>
      </trkpt>
      <trkpt lat="44.99074" lon="3.88262">
        <ele>699.55</ele>
        <time>2025-04-15T15:06:34.473Z</time>
      </trkpt>
      <trkpt lat="44.99058" lon="3.88259">
        <ele>698.54</ele>
        <time>2025-04-15T15:06:34.957Z</time>
      </trkpt>
      <trkpt lat="44.99034" lon="3.88265">
        <ele>697.52</ele>
        <time>2025-04-15T15:06:35.444Z</time>
      </trkpt>
      <trkpt lat="44.99011" lon="3.8827">
        <ele>696.53</ele>
        <time>2025-04-15T15:06:35.935Z</time>
      </trkpt>
      <trkpt lat="44.99011" lon="3.88274">
        <ele>695.68</ele>
        <time>2025-04-15T15:06:36.427Z</time>
      </trkpt>
      <trkpt lat="44.99022" lon="3.88279">
        <ele>694.92</ele>
        <time>2025-04-15T15:06:36.921Z</time>
      </trkpt>
      <trkpt lat="44.99028" lon="3.88287">
        <ele>694.18</ele>
        <time>2025-04-15T15:06:37.416Z</time>
      </trkpt>
      <trkpt lat="44.99028" lon="3.88287">
        <ele>693.54</ele>
        <time>2025-04-15T15:06:37.911Z</time>
      </trkpt>
      <trkpt lat="44.99022" lon="3.88279">
        <ele>694.92</ele>
        <time>2025-04-15T15:06:38.407Z</time>
      </trkpt>
      <trkpt lat="44.99011" lon="3.88274">
        <ele>695.68</ele>
        <time>2025-04-15T15:06:38.905Z</time>
      </trkpt>
      <trkpt lat="44.99011" lon="3.8827">
        <ele>692.05</ele>
        <time>2025-04-15T15:06:39.404Z</time>
      </trkpt>
      <trkpt lat="44.98987" lon="3.88278">
        <ele>691.56</ele>
        <time>2025-04-15T15:06:39.906Z</time>
      </trkpt>
      <trkpt lat="44.98964" lon="3.88285">
        <ele>691.13</ele>
        <time>2025-04-15T15:06:40.412Z</time>
      </trkpt>
      <trkpt lat="44.98944" lon="3.88285">
        <ele>690.81</ele>
        <time>2025-04-15T15:06:40.921Z</time>
      </trkpt>
      <trkpt lat="44.98925" lon="3.88285">
        <ele>690.55</ele>
        <time>2025-04-15T15:06:41.434Z</time>
      </trkpt>
      <trkpt lat="44.98901" lon="3.88281">
        <ele>690.36</ele>
        <time>2025-04-15T15:06:41.950Z</time>
      </trkpt>
      <trkpt lat="44.98876" lon="3.88274">
        <ele>690.23</ele>
        <time>2025-04-15T15:06:42.470Z</time>
      </trkpt>
      <trkpt lat="44.98851" lon="3.88268">
        <ele>690.14</ele>
        <time>2025-04-15T15:06:42.994Z</time>
      </trkpt>
      <trkpt lat="44.98826" lon="3.88262">
        <ele>690.15</ele>
        <time>2025-04-15T15:06:43.523Z</time>
      </trkpt>
      <trkpt lat="44.98813" lon="3.88266">
        <ele>690.16</ele>
        <time>2025-04-15T15:06:44.054Z</time>
      </trkpt>
      <trkpt lat="44.98794" lon="3.88281">
        <ele>690.22</ele>
        <time>2025-04-15T15:06:44.588Z</time>
      </trkpt>
      <trkpt lat="44.98782" lon="3.883">
        <ele>690.21</ele>
        <time>2025-04-15T15:06:45.125Z</time>
      </trkpt>
      <trkpt lat="44.98771" lon="3.8832">
        <ele>690.12</ele>
        <time>2025-04-15T15:06:45.665Z</time>
      </trkpt>
      <trkpt lat="44.98754" lon="3.88333">
        <ele>690.02</ele>
        <time>2025-04-15T15:06:46.208Z</time>
      </trkpt>
      <trkpt lat="44.98738" lon="3.88347">
        <ele>690.04</ele>
        <time>2025-04-15T15:06:46.754Z</time>
      </trkpt>
      <trkpt lat="44.9872" lon="3.88358">
        <ele>690.13</ele>
        <time>2025-04-15T15:06:47.303Z</time>
      </trkpt>
      <trkpt lat="44.98702" lon="3.88369">
        <ele>690.26</ele>
        <time>2025-04-15T15:06:47.855Z</time>
      </trkpt>
      <trkpt lat="44.98678" lon="3.88377">
        <ele>690.44</ele>
        <time>2025-04-15T15:06:48.411Z</time>
      </trkpt>
      <trkpt lat="44.98653" lon="3.88385">
        <ele>690.69</ele>
        <time>2025-04-15T15:06:48.971Z</time>
      </trkpt>
      <trkpt lat="44.98629" lon="3.88392">
        <ele>691.03</ele>
        <time>2025-04-15T15:06:49.535Z</time>
      </trkpt>
      <trkpt lat="44.98602" lon="3.88405">
        <ele>691.32</ele>
        <time>2025-04-15T15:06:50.104Z</time>
      </trkpt>
      <trkpt lat="44.98576" lon="3.88417">
        <ele>691.53</ele>
        <time>2025-04-15T15:06:50.677Z</time>
      </trkpt>
      <trkpt lat="44.9855" lon="3.88429">
        <ele>691.72</ele>
        <time>2025-04-15T15:06:51.255Z</time>
      </trkpt>
      <trkpt lat="44.98522" lon="3.88435">
        <ele>691.9</ele>
        <time>2025-04-15T15:06:51.837Z</time>
      </trkpt>
      <trkpt lat="44.98494" lon="3.88442">
        <ele>692.04</ele>
        <time>2025-04-15T15:06:52.424Z</time>
      </trkpt>
      <trkpt lat="44.98479" lon="3.88446">
        <ele>692.19</ele>
        <time>2025-04-15T15:06:53.013Z</time>
      </trkpt>
      <trkpt lat="44.98451" lon="3.88444">
        <ele>692.32</ele>
        <time>2025-04-15T15:06:53.607Z</time>
      </trkpt>
      <trkpt lat="44.98444" lon="3.88435">
        <ele>692.61</ele>
        <time>2025-04-15T15:06:54.202Z</time>
      </trkpt>
      <trkpt lat="44.98427" lon="3.88433">
        <ele>692.82</ele>
        <time>2025-04-15T15:06:54.800Z</time>
      </trkpt>
      <trkpt lat="44.98401" lon="3.88422">
        <ele>693.12</ele>
        <time>2025-04-15T15:06:55.402Z</time>
      </trkpt>
      <trkpt lat="44.98376" lon="3.8841">
        <ele>693.56</ele>
        <time>2025-04-15T15:06:56.009Z</time>
      </trkpt>
      <trkpt lat="44.9835" lon="3.88399">
        <ele>693.99</ele>
        <time>2025-04-15T15:06:56.620Z</time>
      </trkpt>
      <trkpt lat="44.98324" lon="3.88388">
        <ele>694.4</ele>
        <time>2025-04-15T15:06:57.235Z</time>
      </trkpt>
      <trkpt lat="44.98299" lon="3.88376">
        <ele>694.75</ele>
        <time>2025-04-15T15:06:57.854Z</time>
      </trkpt>
      <trkpt lat="44.98273" lon="3.88365">
        <ele>695.11</ele>
        <time>2025-04-15T15:06:58.478Z</time>
      </trkpt>
      <trkpt lat="44.98251" lon="3.88341">
        <ele>695.61</ele>
        <time>2025-04-15T15:06:59.106Z</time>
      </trkpt>
      <trkpt lat="44.98243" lon="3.88307">
        <ele>696.25</ele>
        <time>2025-04-15T15:06:59.738Z</time>
      </trkpt>
      <trkpt lat="44.98234" lon="3.88274">
        <ele>696.93</ele>
        <time>2025-04-15T15:07:00.374Z</time>
      </trkpt>
      <trkpt lat="44.98226" lon="3.8824">
        <ele>697.61</ele>
        <time>2025-04-15T15:07:01.014Z</time>
      </trkpt>
      <trkpt lat="44.98222" lon="3.88204">
        <ele>698.34</ele>
        <time>2025-04-15T15:07:01.659Z</time>
      </trkpt>
      <trkpt lat="44.98218" lon="3.88167">
        <ele>699.1</ele>
        <time>2025-04-15T15:07:02.308Z</time>
      </trkpt>
      <trkpt lat="44.98215" lon="3.88131">
        <ele>699.93</ele>
        <time>2025-04-15T15:07:02.961Z</time>
      </trkpt>
      <trkpt lat="44.98208" lon="3.88101">
        <ele>700.81</ele>
        <time>2025-04-15T15:07:03.617Z</time>
      </trkpt>
      <trkpt lat="44.98193" lon="3.88079">
        <ele>701.7</ele>
        <time>2025-04-15T15:07:04.277Z</time>
      </trkpt>
      <trkpt lat="44.98193" lon="3.88079">
        <ele>702.62</ele>
        <time>2025-04-15T15:07:04.937Z</time>
      </trkpt>
      <trkpt lat="44.98174" lon="3.88068">
        <ele>703.57</ele>
        <time>2025-04-15T15:07:05.600Z</time>
      </trkpt>
      <trkpt lat="44.98155" lon="3.88064">
        <ele>704.62</ele>
        <time>2025-04-15T15:07:06.266Z</time>
      </trkpt>
      <trkpt lat="44.98135" lon="3.88066">
        <ele>705.7</ele>
        <time>2025-04-15T15:07:06.935Z</time>
      </trkpt>
      <trkpt lat="44.9811" lon="3.88073">
        <ele>706.82</ele>
        <time>2025-04-15T15:07:07.609Z</time>
      </trkpt>
      <trkpt lat="44.9809" lon="3.88092">
        <ele>708.08</ele>
        <time>2025-04-15T15:07:08.286Z</time>
      </trkpt>
      <trkpt lat="44.98077" lon="3.88129">
        <ele>709.56</ele>
        <time>2025-04-15T15:07:08.968Z</time>
      </trkpt>
      <trkpt lat="44.98073" lon="3.88162">
        <ele>710.91</ele>
        <time>2025-04-15T15:07:09.654Z</time>
      </trkpt>
      <trkpt lat="44.98068" lon="3.88196">
        <ele>712.22</ele>
        <time>2025-04-15T15:07:10.344Z</time>
      </trkpt>
      <trkpt lat="44.98063" lon="3.8823">
        <ele>713.6</ele>
        <time>2025-04-15T15:07:11.038Z</time>
      </trkpt>
      <trkpt lat="44.98058" lon="3.88264">
        <ele>715.03</ele>
        <time>2025-04-15T15:07:11.736Z</time>
      </trkpt>
      <trkpt lat="44.98055" lon="3.88287">
        <ele>716.49</ele>
        <time>2025-04-15T15:07:12.436Z</time>
      </trkpt>
      <trkpt lat="44.98052" lon="3.88311">
        <ele>717.96</ele>
        <time>2025-04-15T15:07:13.139Z</time>
      </trkpt>
      <trkpt lat="44.98044" lon="3.88346">
        <ele>719.49</ele>
        <time>2025-04-15T15:07:13.846Z</time>
      </trkpt>
      <trkpt lat="44.98037" lon="3.88382">
        <ele>721.17</ele>
        <time>2025-04-15T15:07:14.558Z</time>
      </trkpt>
      <trkpt lat="44.98041" lon="3.88415">
        <ele>722.71</ele>
        <time>2025-04-15T15:07:15.273Z</time>
      </trkpt>
      <trkpt lat="44.98045" lon="3.88448">
        <ele>724.22</ele>
        <time>2025-04-15T15:07:15.992Z</time>
      </trkpt>
      <trkpt lat="44.98045" lon="3.88471">
        <ele>725.83</ele>
        <time>2025-04-15T15:07:16.714Z</time>
      </trkpt>
      <trkpt lat="44.98045" lon="3.88493">
        <ele>727.44</ele>
        <time>2025-04-15T15:07:17.438Z</time>
      </trkpt>
      <trkpt lat="44.98039" lon="3.88515">
        <ele>729.07</ele>
        <time>2025-04-15T15:07:18.165Z</time>
      </trkpt>
      <trkpt lat="44.98026" lon="3.88536">
        <ele>730.74</ele>
        <time>2025-04-15T15:07:18.895Z</time>
      </trkpt>
      <trkpt lat="44.98011" lon="3.88545">
        <ele>732.46</ele>
        <time>2025-04-15T15:07:19.628Z</time>
      </trkpt>
      <trkpt lat="44.97985" lon="3.88551">
        <ele>734.26</ele>
        <time>2025-04-15T15:07:20.365Z</time>
      </trkpt>
      <trkpt lat="44.97958" lon="3.88547">
        <ele>736.17</ele>
        <time>2025-04-15T15:07:21.106Z</time>
      </trkpt>
      <trkpt lat="44.9793" lon="3.88542">
        <ele>738.01</ele>
        <time>2025-04-15T15:07:21.852Z</time>
      </trkpt>
      <trkpt lat="44.97902" lon="3.88537">
        <ele>739.88</ele>
        <time>2025-04-15T15:07:22.602Z</time>
      </trkpt>
      <trkpt lat="44.97875" lon="3.88533">
        <ele>741.72</ele>
        <time>2025-04-15T15:07:23.357Z</time>
      </trkpt>
      <trkpt lat="44.97847" lon="3.88528">
        <ele>743.51</ele>
        <time>2025-04-15T15:07:24.116Z</time>
      </trkpt>
      <trkpt lat="44.9782" lon="3.88524">
        <ele>745.41</ele>
        <time>2025-04-15T15:07:24.880Z</time>
      </trkpt>
      <trkpt lat="44.97792" lon="3.88519">
        <ele>747.33</ele>
        <time>2025-04-15T15:07:25.648Z</time>
      </trkpt>
      <trkpt lat="44.97761" lon="3.88518">
        <ele>749.2</ele>
        <time>2025-04-15T15:07:26.421Z</time>
      </trkpt>
      <trkpt lat="44.97731" lon="3.88518">
        <ele>751.12</ele>
        <time>2025-04-15T15:07:27.199Z</time>
      </trkpt>
      <trkpt lat="44.977" lon="3.88517">
        <ele>753.12</ele>
        <time>2025-04-15T15:07:27.982Z</time>
      </trkpt>
      <trkpt lat="44.97683" lon="3.88521">
        <ele>755.09</ele>
        <time>2025-04-15T15:07:28.768Z</time>
      </trkpt>
      <trkpt lat="44.97665" lon="3.88532">
        <ele>757.03</ele>
        <time>2025-04-15T15:07:29.557Z</time>
      </trkpt>
      <trkpt lat="44.97646" lon="3.88552">
        <ele>758.97</ele>
        <time>2025-04-15T15:07:30.350Z</time>
      </trkpt>
      <trkpt lat="44.97626" lon="3.88573">
        <ele>760.88</ele>
        <time>2025-04-15T15:07:31.146Z</time>
      </trkpt>
      <trkpt lat="44.97606" lon="3.88593">
        <ele>762.77</ele>
        <time>2025-04-15T15:07:31.946Z</time>
      </trkpt>
      <trkpt lat="44.97586" lon="3.88614">
        <ele>764.61</ele>
        <time>2025-04-15T15:07:32.750Z</time>
      </trkpt>
      <trkpt lat="44.97569" lon="3.88629">
        <ele>766.42</ele>
        <time>2025-04-15T15:07:33.558Z</time>
      </trkpt>
      <trkpt lat="44.97547" lon="3.88639">
        <ele>768.41</ele>
        <time>2025-04-15T15:07:34.369Z</time>
      </trkpt>
      <trkpt lat="44.97517" lon="3.88649">
        <ele>770.31</ele>
        <time>2025-04-15T15:07:35.185Z</time>
      </trkpt>
      <trkpt lat="44.97487" lon="3.88658">
        <ele>772.06</ele>
        <time>2025-04-15T15:07:36.006Z</time>
      </trkpt>
      <trkpt lat="44.97457" lon="3.88667">
        <ele>773.7</ele>
        <time>2025-04-15T15:07:36.832Z</time>
      </trkpt>
      <trkpt lat="44.97427" lon="3.88676">
        <ele>775.55</ele>
        <time>2025-04-15T15:07:37.663Z</time>
      </trkpt>
      <trkpt lat="44.97397" lon="3.88686">
        <ele>777.47</ele>
        <time>2025-04-15T15:07:38.499Z</time>
      </trkpt>
      <trkpt lat="44.97367" lon="3.88695">
        <ele>779.25</ele>
        <time>2025-04-15T15:07:39.340Z</time>
      </trkpt>
      <trkpt lat="44.97341" lon="3.88697">
        <ele>781.04</ele>
        <time>2025-04-15T15:07:40.185Z</time>
      </trkpt>
      <trkpt lat="44.97314" lon="3.88699">
        <ele>782.89</ele>
        <time>2025-04-15T15:07:41.034Z</time>
      </trkpt>
      <trkpt lat="44.97287" lon="3.88701">
        <ele>784.65</ele>
        <time>2025-04-15T15:07:41.888Z</time>
      </trkpt>
      <trkpt lat="44.97261" lon="3.88704">
        <ele>786.41</ele>
        <time>2025-04-15T15:07:42.746Z</time>
      </trkpt>
      <trkpt lat="44.97234" lon="3.88706">
        <ele>788.14</ele>
        <time>2025-04-15T15:07:43.608Z</time>
      </trkpt>
      <trkpt lat="44.97215" lon="3.88713">
        <ele>789.88</ele>
        <time>2025-04-15T15:07:44.473Z</time>
      </trkpt>
      <trkpt lat="44.97196" lon="3.88721">
        <ele>791.66</ele>
        <time>2025-04-15T15:07:45.341Z</time>
      </trkpt>
      <trkpt lat="44.97178" lon="3.88736">
        <ele>793.42</ele>
        <time>2025-04-15T15:07:46.213Z</time>
      </trkpt>
      <trkpt lat="44.97174" lon="3.88747">
        <ele>795.09</ele>
        <time>2025-04-15T15:07:47.086Z</time>
      </trkpt>
      <trkpt lat="44.97176" lon="3.88768">
        <ele>796.64</ele>
        <time>2025-04-15T15:07:47.962Z</time>
      </trkpt>
      <trkpt lat="44.97188" lon="3.88803">
        <ele>798.2</ele>
        <time>2025-04-15T15:07:48.842Z</time>
      </trkpt>
      <trkpt lat="44.972" lon="3.88839">
        <ele>799.83</ele>
        <time>2025-04-15T15:07:49.726Z</time>
      </trkpt>
      <trkpt lat="44.97202" lon="3.88869">
        <ele>801.42</ele>
        <time>2025-04-15T15:07:50.614Z</time>
      </trkpt>
      <trkpt lat="44.97198" lon="3.88884">
        <ele>803</ele>
        <time>2025-04-15T15:07:51.504Z</time>
      </trkpt>
      <trkpt lat="44.97183" lon="3.88903">
        <ele>804.63</ele>
        <time>2025-04-15T15:07:52.397Z</time>
      </trkpt>
      <trkpt lat="44.97163" lon="3.88912">
        <ele>806.21</ele>
        <time>2025-04-15T15:07:53.293Z</time>
      </trkpt>
      <trkpt lat="44.9714" lon="3.8891">
        <ele>807.89</ele>
        <time>2025-04-15T15:07:54.193Z</time>
      </trkpt>
      <trkpt lat="44.9714" lon="3.8891">
        <ele>809.47</ele>
        <time>2025-04-15T15:07:55.093Z</time>
      </trkpt>
      <trkpt lat="44.97111" lon="3.889">
        <ele>811.21</ele>
        <time>2025-04-15T15:07:55.998Z</time>
      </trkpt>
      <trkpt lat="44.97083" lon="3.88891">
        <ele>812.94</ele>
        <time>2025-04-15T15:07:56.907Z</time>
      </trkpt>
      <trkpt lat="44.97054" lon="3.88882">
        <ele>814.57</ele>
        <time>2025-04-15T15:07:57.821Z</time>
      </trkpt>
      <trkpt lat="44.97029" lon="3.88875">
        <ele>816.14</ele>
        <time>2025-04-15T15:07:58.739Z</time>
      </trkpt>
      <trkpt lat="44.97005" lon="3.88869">
        <ele>817.74</ele>
        <time>2025-04-15T15:07:59.661Z</time>
      </trkpt>
      <trkpt lat="44.96981" lon="3.88867">
        <ele>819.36</ele>
        <time>2025-04-15T15:08:00.587Z</time>
      </trkpt>
      <trkpt lat="44.96957" lon="3.88865">
        <ele>820.97</ele>
        <time>2025-04-15T15:08:01.517Z</time>
      </trkpt>
      <trkpt lat="44.96934" lon="3.88862">
        <ele>822.58</ele>
        <time>2025-04-15T15:08:02.451Z</time>
      </trkpt>
      <trkpt lat="44.9691" lon="3.8886">
        <ele>824.29</ele>
        <time>2025-04-15T15:08:03.388Z</time>
      </trkpt>
      <trkpt lat="44.96891" lon="3.8886">
        <ele>825.9</ele>
        <time>2025-04-15T15:08:04.328Z</time>
      </trkpt>
      <trkpt lat="44.96862" lon="3.88867">
        <ele>827.47</ele>
        <time>2025-04-15T15:08:05.273Z</time>
      </trkpt>
      <trkpt lat="44.96833" lon="3.88873">
        <ele>829.02</ele>
        <time>2025-04-15T15:08:06.223Z</time>
      </trkpt>
      <trkpt lat="44.96804" lon="3.88877">
        <ele>830.53</ele>
        <time>2025-04-15T15:08:07.177Z</time>
      </trkpt>
      <trkpt lat="44.96775" lon="3.88882">
        <ele>832.12</ele>
        <time>2025-04-15T15:08:08.136Z</time>
      </trkpt>
      <trkpt lat="44.96748" lon="3.88899">
        <ele>833.54</ele>
        <time>2025-04-15T15:08:09.100Z</time>
      </trkpt>
      <trkpt lat="44.96722" lon="3.88916">
        <ele>834.95</ele>
        <time>2025-04-15T15:08:10.068Z</time>
      </trkpt>
      <trkpt lat="44.96695" lon="3.88933">
        <ele>836.34</ele>
        <time>2025-04-15T15:08:11.041Z</time>
      </trkpt>
      <trkpt lat="44.96669" lon="3.8895">
        <ele>837.69</ele>
        <time>2025-04-15T15:08:12.019Z</time>
      </trkpt>
      <trkpt lat="44.96642" lon="3.88968">
        <ele>839.1</ele>
        <time>2025-04-15T15:08:13.002Z</time>
      </trkpt>
      <trkpt lat="44.96628" lon="3.88979">
        <ele>840.38</ele>
        <time>2025-04-15T15:08:13.987Z</time>
      </trkpt>
      <trkpt lat="44.96614" lon="3.88991">
        <ele>841.65</ele>
        <time>2025-04-15T15:08:14.975Z</time>
      </trkpt>
      <trkpt lat="44.96597" lon="3.88995">
        <ele>842.9</ele>
        <time>2025-04-15T15:08:15.966Z</time>
      </trkpt>
      <trkpt lat="44.96618" lon="3.88968">
        <ele>844.14</ele>
        <time>2025-04-15T15:08:16.961Z</time>
      </trkpt>
      <trkpt lat="44.96643" lon="3.88944">
        <ele>845.29</ele>
        <time>2025-04-15T15:08:17.961Z</time>
      </trkpt>
      <trkpt lat="44.96667" lon="3.8892">
        <ele>846.44</ele>
        <time>2025-04-15T15:08:18.966Z</time>
      </trkpt>
      <trkpt lat="44.96691" lon="3.88897">
        <ele>847.56</ele>
        <time>2025-04-15T15:08:19.975Z</time>
      </trkpt>
      <trkpt lat="44.96713" lon="3.88871">
        <ele>848.71</ele>
        <time>2025-04-15T15:08:20.989Z</time>
      </trkpt>
      <trkpt lat="44.96734" lon="3.88845">
        <ele>849.78</ele>
        <time>2025-04-15T15:08:22.007Z</time>
      </trkpt>
      <trkpt lat="44.96756" lon="3.88832">
        <ele>850.71</ele>
        <time>2025-04-15T15:08:23.029Z</time>
      </trkpt>
      <trkpt lat="44.96778" lon="3.88818">
        <ele>851.65</ele>
        <time>2025-04-15T15:08:24.055Z</time>
      </trkpt>
      <trkpt lat="44.968" lon="3.88805">
        <ele>852.54</ele>
        <time>2025-04-15T15:08:25.085Z</time>
      </trkpt>
      <trkpt lat="44.96822" lon="3.88792">
        <ele>853.4</ele>
        <time>2025-04-15T15:08:26.119Z</time>
      </trkpt>
      <trkpt lat="44.96829" lon="3.88779">
        <ele>854.26</ele>
        <time>2025-04-15T15:08:27.155Z</time>
      </trkpt>
      <trkpt lat="44.96835" lon="3.88742">
        <ele>855.12</ele>
        <time>2025-04-15T15:08:28.195Z</time>
      </trkpt>
      <trkpt lat="44.96816" lon="3.88749">
        <ele>855.92</ele>
        <time>2025-04-15T15:08:29.238Z</time>
      </trkpt>
      <trkpt lat="44.96796" lon="3.88755">
        <ele>856.69</ele>
        <time>2025-04-15T15:08:30.284Z</time>
      </trkpt>
      <trkpt lat="44.9678" lon="3.88764">
        <ele>857.45</ele>
        <time>2025-04-15T15:08:31.333Z</time>
      </trkpt>
      <trkpt lat="44.96764" lon="3.88772">
        <ele>858.16</ele>
        <time>2025-04-15T15:08:32.385Z</time>
      </trkpt>
      <trkpt lat="44.96756" lon="3.88772">
        <ele>858.85</ele>
        <time>2025-04-15T15:08:33.438Z</time>
      </trkpt>
      <trkpt lat="44.96736" lon="3.88766">
        <ele>859.55</ele>
        <time>2025-04-15T15:08:34.494Z</time>
      </trkpt>
      <trkpt lat="44.9671" lon="3.88751">
        <ele>860.25</ele>
        <time>2025-04-15T15:08:35.555Z</time>
      </trkpt>
      <trkpt lat="44.96683" lon="3.88736">
        <ele>860.92</ele>
        <time>2025-04-15T15:08:36.620Z</time>
      </trkpt>
      <trkpt lat="44.96656" lon="3.88738">
        <ele>861.56</ele>
        <time>2025-04-15T15:08:37.690Z</time>
      </trkpt>
      <trkpt lat="44.9663" lon="3.8874">
        <ele>862.18</ele>
        <time>2025-04-15T15:08:38.764Z</time>
      </trkpt>
      <trkpt lat="44.96603" lon="3.88742">
        <ele>862.77</ele>
        <time>2025-04-15T15:08:39.842Z</time>
      </trkpt>
      <trkpt lat="44.96576" lon="3.88744">
        <ele>863.32</ele>
        <time>2025-04-15T15:08:40.924Z</time>
      </trkpt>
      <trkpt lat="44.9655" lon="3.88747">
        <ele>863.85</ele>
        <time>2025-04-15T15:08:42.011Z</time>
      </trkpt>
      <trkpt lat="44.96524" lon="3.88748">
        <ele>864.34</ele>
        <time>2025-04-15T15:08:43.102Z</time>
      </trkpt>
      <trkpt lat="44.96498" lon="3.8875">
        <ele>864.76</ele>
        <time>2025-04-15T15:08:44.197Z</time>
      </trkpt>
      <trkpt lat="44.96472" lon="3.88751">
        <ele>865.15</ele>
        <time>2025-04-15T15:08:45.296Z</time>
      </trkpt>
      <trkpt lat="44.96447" lon="3.88753">
        <ele>865.5</ele>
        <time>2025-04-15T15:08:46.399Z</time>
      </trkpt>
      <trkpt lat="44.96449" lon="3.88738">
        <ele>865.85</ele>
        <time>2025-04-15T15:08:47.504Z</time>
      </trkpt>
      <trkpt lat="44.96466" lon="3.88734">
        <ele>866.15</ele>
        <time>2025-04-15T15:08:48.612Z</time>
      </trkpt>
      <trkpt lat="44.96493" lon="3.8872">
        <ele>866.39</ele>
        <time>2025-04-15T15:08:49.724Z</time>
      </trkpt>
      <trkpt lat="44.9652" lon="3.88706">
        <ele>866.61</ele>
        <time>2025-04-15T15:08:50.841Z</time>
      </trkpt>
      <trkpt lat="44.96535" lon="3.88693">
        <ele>866.78</ele>
        <time>2025-04-15T15:08:51.961Z</time>
      </trkpt>
      <trkpt lat="44.9655" lon="3.8868">
        <ele>866.94</ele>
        <time>2025-04-15T15:08:53.084Z</time>
      </trkpt>
      <trkpt lat="44.9655" lon="3.8868">
        <ele>867.11</ele>
        <time>2025-04-15T15:08:54.207Z</time>
      </trkpt>
      <trkpt lat="44.9655" lon="3.8868">
        <ele>867.27</ele>
        <time>2025-04-15T15:08:55.330Z</time>
      </trkpt>
      <trkpt lat="44.96542" lon="3.88686">
        <ele>867.43</ele>
        <time>2025-04-15T15:08:56.454Z</time>
      </trkpt>
      <trkpt lat="44.96518" lon="3.88706">
        <ele>867.62</ele>
        <time>2025-04-15T15:08:57.583Z</time>
      </trkpt>
      <trkpt lat="44.96515" lon="3.88708">
        <ele>867.74</ele>
        <time>2025-04-15T15:08:58.712Z</time>
      </trkpt>
      <trkpt lat="44.96502" lon="3.88714">
        <ele>867.85</ele>
        <time>2025-04-15T15:08:59.843Z</time>
      </trkpt>
      <trkpt lat="44.96494" lon="3.88719">
        <ele>867.95</ele>
        <time>2025-04-15T15:09:00.976Z</time>
      </trkpt>
      <trkpt lat="44.96482" lon="3.88726">
        <ele>868.03</ele>
        <time>2025-04-15T15:09:02.111Z</time>
      </trkpt>
      <trkpt lat="44.96466" lon="3.88734">
        <ele>868.14</ele>
        <time>2025-04-15T15:09:03.249Z</time>
      </trkpt>
      <trkpt lat="44.96465" lon="3.88734">
        <ele>868.22</ele>
        <time>2025-04-15T15:09:04.387Z</time>
      </trkpt>
      <trkpt lat="44.96452" lon="3.88737">
        <ele>868.3</ele>
        <time>2025-04-15T15:09:05.527Z</time>
      </trkpt>
      <trkpt lat="44.96444" lon="3.88738">
        <ele>868.37</ele>
        <time>2025-04-15T15:09:06.668Z</time>
      </trkpt>
      <trkpt lat="44.96435" lon="3.8874">
        <ele>868.44</ele>
        <time>2025-04-15T15:09:07.811Z</time>
      </trkpt>
      <trkpt lat="44.96426" lon="3.88742">
        <ele>868.53</ele>
        <time>2025-04-15T15:09:08.955Z</time>
      </trkpt>
      <trkpt lat="44.96409" lon="3.88745">
        <ele>868.63</ele>
        <time>2025-04-15T15:09:10.102Z</time>
      </trkpt>
      <trkpt lat="44.96396" lon="3.88748">
        <ele>868.74</ele>
        <time>2025-04-15T15:09:11.251Z</time>
      </trkpt>
      <trkpt lat="44.96389" lon="3.88749">
        <ele>868.84</ele>
        <time>2025-04-15T15:09:12.401Z</time>
      </trkpt>
      <trkpt lat="44.96388" lon="3.88749">
        <ele>868.95</ele>
        <time>2025-04-15T15:09:13.551Z</time>
      </trkpt>
      <trkpt lat="44.96375" lon="3.88749">
        <ele>869.09</ele>
        <time>2025-04-15T15:09:14.703Z</time>
      </trkpt>
      <trkpt lat="44.96366" lon="3.88749">
        <ele>869.22</ele>
        <time>2025-04-15T15:09:15.857Z</time>
      </trkpt>
      <trkpt lat="44.96353" lon="3.88749">
        <ele>869.37</ele>
        <time>2025-04-15T15:09:17.013Z</time>
      </trkpt>
      <trkpt lat="44.96348" lon="3.88749">
        <ele>869.54</ele>
        <time>2025-04-15T15:09:18.170Z</time>
      </trkpt>
      <trkpt lat="44.96336" lon="3.88746">
        <ele>869.71</ele>
        <time>2025-04-15T15:09:19.329Z</time>
      </trkpt>
      <trkpt lat="44.96314" lon="3.88741">
        <ele>869.9</ele>
        <time>2025-04-15T15:09:20.491Z</time>
      </trkpt>
      <trkpt lat="44.96301" lon="3.88739">
        <ele>870.11</ele>
        <time>2025-04-15T15:09:21.655Z</time>
      </trkpt>
      <trkpt lat="44.96279" lon="3.88734">
        <ele>870.32</ele>
        <time>2025-04-15T15:09:22.823Z</time>
      </trkpt>
      <trkpt lat="44.96267" lon="3.88731">
        <ele>870.55</ele>
        <time>2025-04-15T15:09:23.993Z</time>
      </trkpt>
      <trkpt lat="44.96249" lon="3.88727">
        <ele>870.83</ele>
        <time>2025-04-15T15:09:25.166Z</time>
      </trkpt>
      <trkpt lat="44.96227" lon="3.88721">
        <ele>871.14</ele>
        <time>2025-04-15T15:09:26.342Z</time>
      </trkpt>
      <trkpt lat="44.96209" lon="3.88717">
        <ele>871.47</ele>
        <time>2025-04-15T15:09:27.521Z</time>
      </trkpt>
      <trkpt lat="44.96187" lon="3.88711">
        <ele>871.83</ele>
        <time>2025-04-15T15:09:28.704Z</time>
      </trkpt>
      <trkpt lat="44.9617" lon="3.88707">
        <ele>872.19</ele>
        <time>2025-04-15T15:09:29.890Z</time>
      </trkpt>
      <trkpt lat="44.96148" lon="3.88701">
        <ele>872.56</ele>
        <time>2025-04-15T15:09:31.079Z</time>
      </trkpt>
      <trkpt lat="44.96126" lon="3.88695">
        <ele>872.95</ele>
        <time>2025-04-15T15:09:32.272Z</time>
      </trkpt>
      <trkpt lat="44.96104" lon="3.8869">
        <ele>873.34</ele>
        <time>2025-04-15T15:09:33.468Z</time>
      </trkpt>
      <trkpt lat="44.96051" lon="3.88676">
        <ele>873.79</ele>
        <time>2025-04-15T15:09:34.673Z</time>
      </trkpt>
      <trkpt lat="44.9598" lon="3.88658">
        <ele>874.41</ele>
        <time>2025-04-15T15:09:35.889Z</time>
      </trkpt>
      <trkpt lat="44.95954" lon="3.88651">
        <ele>874.88</ele>
        <time>2025-04-15T15:09:37.110Z</time>
      </trkpt>
      <trkpt lat="44.95945" lon="3.88649">
        <ele>875.39</ele>
        <time>2025-04-15T15:09:38.332Z</time>
      </trkpt>
      <trkpt lat="44.95927" lon="3.88645">
        <ele>875.93</ele>
        <time>2025-04-15T15:09:39.557Z</time>
      </trkpt>
      <trkpt lat="44.95919" lon="3.88642">
        <ele>876.47</ele>
        <time>2025-04-15T15:09:40.783Z</time>
      </trkpt>
      <trkpt lat="44.95901" lon="3.88638">
        <ele>877.04</ele>
        <time>2025-04-15T15:09:42.012Z</time>
      </trkpt>
      <trkpt lat="44.95892" lon="3.88636">
        <ele>877.61</ele>
        <time>2025-04-15T15:09:43.243Z</time>
      </trkpt>
      <trkpt lat="44.95883" lon="3.88633">
        <ele>878.2</ele>
        <time>2025-04-15T15:09:44.475Z</time>
      </trkpt>
      <trkpt lat="44.95852" lon="3.88625">
        <ele>878.81</ele>
        <time>2025-04-15T15:09:45.712Z</time>
      </trkpt>
      <trkpt lat="44.95847" lon="3.88624">
        <ele>879.4</ele>
        <time>2025-04-15T15:09:46.950Z</time>
      </trkpt>
      <trkpt lat="44.95818" lon="3.88612">
        <ele>880</ele>
        <time>2025-04-15T15:09:48.193Z</time>
      </trkpt>
      <trkpt lat="44.95775" lon="3.88595">
        <ele>880.72</ele>
        <time>2025-04-15T15:09:49.443Z</time>
      </trkpt>
      <trkpt lat="44.95753" lon="3.88586">
        <ele>881.37</ele>
        <time>2025-04-15T15:09:50.697Z</time>
      </trkpt>
      <trkpt lat="44.95737" lon="3.88576">
        <ele>881.97</ele>
        <time>2025-04-15T15:09:51.953Z</time>
      </trkpt>
      <trkpt lat="44.95729" lon="3.8857">
        <ele>882.59</ele>
        <time>2025-04-15T15:09:53.211Z</time>
      </trkpt>
      <trkpt lat="44.95708" lon="3.88557">
        <ele>883.21</ele>
        <time>2025-04-15T15:09:54.473Z</time>
      </trkpt>
      <trkpt lat="44.95688" lon="3.88544">
        <ele>883.91</ele>
        <time>2025-04-15T15:09:55.738Z</time>
      </trkpt>
      <trkpt lat="44.95664" lon="3.88528">
        <ele>884.6</ele>
        <time>2025-04-15T15:09:57.007Z</time>
      </trkpt>
      <trkpt lat="44.95635" lon="3.88509">
        <ele>885.26</ele>
        <time>2025-04-15T15:09:58.281Z</time>
      </trkpt>
      <trkpt lat="44.95603" lon="3.88488">
        <ele>885.88</ele>
        <time>2025-04-15T15:09:59.561Z</time>
      </trkpt>
      <trkpt lat="44.95566" lon="3.88464">
        <ele>886.57</ele>
        <time>2025-04-15T15:10:00.848Z</time>
      </trkpt>
      <trkpt lat="44.9555" lon="3.88453">
        <ele>887.23</ele>
        <time>2025-04-15T15:10:02.138Z</time>
      </trkpt>
      <trkpt lat="44.95525" lon="3.88437">
        <ele>887.88</ele>
        <time>2025-04-15T15:10:03.432Z</time>
      </trkpt>
      <trkpt lat="44.95505" lon="3.88424">
        <ele>888.52</ele>
        <time>2025-04-15T15:10:04.729Z</time>
      </trkpt>
      <trkpt lat="44.95499" lon="3.8842">
        <ele>889.15</ele>
        <time>2025-04-15T15:10:06.027Z</time>
      </trkpt>
      <trkpt lat="44.95483" lon="3.88416">
        <ele>889.78</ele>
        <time>2025-04-15T15:10:07.328Z</time>
      </trkpt>
      <trkpt lat="44.95461" lon="3.88411">
        <ele>890.38</ele>
        <time>2025-04-15T15:10:08.633Z</time>
      </trkpt>
      <trkpt lat="44.95432" lon="3.88404">
        <ele>890.96</ele>
        <time>2025-04-15T15:10:09.942Z</time>
      </trkpt>
      <trkpt lat="44.9539" lon="3.88407">
        <ele>891.6</ele>
        <time>2025-04-15T15:10:11.258Z</time>
      </trkpt>
      <trkpt lat="44.95345" lon="3.8841">
        <ele>892.29</ele>
        <time>2025-04-15T15:10:12.581Z</time>
      </trkpt>
      <trkpt lat="44.95343" lon="3.8841">
        <ele>892.87</ele>
        <time>2025-04-15T15:10:13.905Z</time>
      </trkpt>
      <trkpt lat="44.95299" lon="3.88435">
        <ele>893.52</ele>
        <time>2025-04-15T15:10:15.236Z</time>
      </trkpt>
      <trkpt lat="44.95286" lon="3.88443">
        <ele>894.11</ele>
        <time>2025-04-15T15:10:16.569Z</time>
      </trkpt>
      <trkpt lat="44.95283" lon="3.88446">
        <ele>894.66</ele>
        <time>2025-04-15T15:10:17.903Z</time>
      </trkpt>
      <trkpt lat="44.95271" lon="3.88455">
        <ele>895.21</ele>
        <time>2025-04-15T15:10:19.239Z</time>
      </trkpt>
      <trkpt lat="44.95263" lon="3.88461">
        <ele>895.74</ele>
        <time>2025-04-15T15:10:20.577Z</time>
      </trkpt>
      <trkpt lat="44.95259" lon="3.88464">
        <ele>896.24</ele>
        <time>2025-04-15T15:10:21.915Z</time>
      </trkpt>
      <trkpt lat="44.95255" lon="3.88467">
        <ele>896.73</ele>
        <time>2025-04-15T15:10:23.254Z</time>
      </trkpt>
      <trkpt lat="44.95248" lon="3.88474">
        <ele>897.2</ele>
        <time>2025-04-15T15:10:24.594Z</time>
      </trkpt>
      <trkpt lat="44.95232" lon="3.88486">
        <ele>897.66</ele>
        <time>2025-04-15T15:10:25.937Z</time>
      </trkpt>
      <trkpt lat="44.95228" lon="3.88489">
        <ele>898.11</ele>
        <time>2025-04-15T15:10:27.281Z</time>
      </trkpt>
      <trkpt lat="44.95221" lon="3.88496">
        <ele>898.56</ele>
        <time>2025-04-15T15:10:28.627Z</time>
      </trkpt>
      <trkpt lat="44.95194" lon="3.8852">
        <ele>899</ele>
        <time>2025-04-15T15:10:29.978Z</time>
      </trkpt>
      <trkpt lat="44.95179" lon="3.88533">
        <ele>899.48</ele>
        <time>2025-04-15T15:10:31.331Z</time>
      </trkpt>
      <trkpt lat="44.95171" lon="3.8854">
        <ele>899.92</ele>
        <time>2025-04-15T15:10:32.686Z</time>
      </trkpt>
      <trkpt lat="44.95156" lon="3.88554">
        <ele>900.37</ele>
        <time>2025-04-15T15:10:34.044Z</time>
      </trkpt>
      <trkpt lat="44.95141" lon="3.88567">
        <ele>900.81</ele>
        <time>2025-04-15T15:10:35.405Z</time>
      </trkpt>
      <trkpt lat="44.95133" lon="3.88574">
        <ele>901.21</ele>
        <time>2025-04-15T15:10:36.767Z</time>
      </trkpt>
      <trkpt lat="44.95131" lon="3.88576">
        <ele>901.61</ele>
        <time>2025-04-15T15:10:38.129Z</time>
      </trkpt>
      <trkpt lat="44.95109" lon="3.88591">
        <ele>902.02</ele>
        <time>2025-04-15T15:10:39.495Z</time>
      </trkpt>
      <trkpt lat="44.95097" lon="3.88599">
        <ele>902.39</ele>
        <time>2025-04-15T15:10:40.864Z</time>
      </trkpt>
      <trkpt lat="44.9508" lon="3.8861">
        <ele>902.77</ele>
        <time>2025-04-15T15:10:42.235Z</time>
      </trkpt>
      <trkpt lat="44.95046" lon="3.88633">
        <ele>903.16</ele>
        <time>2025-04-15T15:10:43.613Z</time>
      </trkpt>
      <trkpt lat="44.95044" lon="3.88633">
        <ele>903.52</ele>
        <time>2025-04-15T15:10:44.991Z</time>
      </trkpt>
      <trkpt lat="44.95021" lon="3.88638">
        <ele>903.95</ele>
        <time>2025-04-15T15:10:46.373Z</time>
      </trkpt>
      <trkpt lat="44.94986" lon="3.88644">
        <ele>904.34</ele>
        <time>2025-04-15T15:10:47.760Z</time>
      </trkpt>
      <trkpt lat="44.94977" lon="3.88646">
        <ele>904.71</ele>
        <time>2025-04-15T15:10:49.149Z</time>
      </trkpt>
      <trkpt lat="44.94959" lon="3.88644">
        <ele>905.09</ele>
        <time>2025-04-15T15:10:50.541Z</time>
      </trkpt>
      <trkpt lat="44.94941" lon="3.88642">
        <ele>905.44</ele>
        <time>2025-04-15T15:10:51.935Z</time>
      </trkpt>
      <trkpt lat="44.94923" lon="3.8864">
        <ele>905.8</ele>
        <time>2025-04-15T15:10:53.332Z</time>
      </trkpt>
      <trkpt lat="44.9491" lon="3.88636">
        <ele>906.16</ele>
        <time>2025-04-15T15:10:54.731Z</time>
      </trkpt>
      <trkpt lat="44.94881" lon="3.88626">
        <ele>906.52</ele>
        <time>2025-04-15T15:10:56.135Z</time>
      </trkpt>
      <trkpt lat="44.9488" lon="3.88625">
        <ele>906.85</ele>
        <time>2025-04-15T15:10:57.540Z</time>
      </trkpt>
      <trkpt lat="44.94846" lon="3.88606">
        <ele>907.21</ele>
        <time>2025-04-15T15:10:58.950Z</time>
      </trkpt>
      <trkpt lat="44.94836" lon="3.886">
        <ele>907.54</ele>
        <time>2025-04-15T15:11:00.362Z</time>
      </trkpt>
      <trkpt lat="44.94827" lon="3.88592">
        <ele>907.88</ele>
        <time>2025-04-15T15:11:01.776Z</time>
      </trkpt>
      <trkpt lat="44.94814" lon="3.88581">
        <ele>908.22</ele>
        <time>2025-04-15T15:11:03.192Z</time>
      </trkpt>
      <trkpt lat="44.94805" lon="3.8857">
        <ele>908.55</ele>
        <time>2025-04-15T15:11:04.610Z</time>
      </trkpt>
      <trkpt lat="44.94798" lon="3.88562">
        <ele>908.89</ele>
        <time>2025-04-15T15:11:06.030Z</time>
      </trkpt>
      <trkpt lat="44.94781" lon="3.88541">
        <ele>909.22</ele>
        <time>2025-04-15T15:11:07.453Z</time>
      </trkpt>
      <trkpt lat="44.9477" lon="3.88528">
        <ele>909.55</ele>
        <time>2025-04-15T15:11:08.878Z</time>
      </trkpt>
      <trkpt lat="44.94768" lon="3.88524">
        <ele>909.9</ele>
        <time>2025-04-15T15:11:10.304Z</time>
      </trkpt>
      <trkpt lat="44.94762" lon="3.88514">
        <ele>910.25</ele>
        <time>2025-04-15T15:11:11.731Z</time>
      </trkpt>
      <trkpt lat="44.94757" lon="3.88503">
        <ele>910.61</ele>
        <time>2025-04-15T15:11:13.160Z</time>
      </trkpt>
      <trkpt lat="44.94746" lon="3.88483">
        <ele>910.98</ele>
        <time>2025-04-15T15:11:14.592Z</time>
      </trkpt>
      <trkpt lat="44.94728" lon="3.88448">
        <ele>911.31</ele>
        <time>2025-04-15T15:11:16.029Z</time>
      </trkpt>
      <trkpt lat="44.9472" lon="3.88432">
        <ele>911.66</ele>
        <time>2025-04-15T15:11:17.468Z</time>
      </trkpt>
      <trkpt lat="44.94684" lon="3.88365">
        <ele>911.97</ele>
        <time>2025-04-15T15:11:18.917Z</time>
      </trkpt>
      <trkpt lat="44.94676" lon="3.88344">
        <ele>912.39</ele>
        <time>2025-04-15T15:11:20.368Z</time>
      </trkpt>
      <trkpt lat="44.94667" lon="3.88322">
        <ele>912.86</ele>
        <time>2025-04-15T15:11:21.822Z</time>
      </trkpt>
      <trkpt lat="44.94655" lon="3.88295">
        <ele>913.3</ele>
        <time>2025-04-15T15:11:23.280Z</time>
      </trkpt>
      <trkpt lat="44.94649" lon="3.88278">
        <ele>913.73</ele>
        <time>2025-04-15T15:11:24.740Z</time>
      </trkpt>
      <trkpt lat="44.94638" lon="3.88251">
        <ele>914.18</ele>
        <time>2025-04-15T15:11:26.203Z</time>
      </trkpt>
      <trkpt lat="44.94629" lon="3.8823">
        <ele>914.62</ele>
        <time>2025-04-15T15:11:27.669Z</time>
      </trkpt>
      <trkpt lat="44.94627" lon="3.88216">
        <ele>915.06</ele>
        <time>2025-04-15T15:11:29.137Z</time>
      </trkpt>
      <trkpt lat="44.94624" lon="3.88198">
        <ele>915.53</ele>
        <time>2025-04-15T15:11:30.607Z</time>
      </trkpt>
      <trkpt lat="44.9462" lon="3.88167">
        <ele>916.03</ele>
        <time>2025-04-15T15:11:32.081Z</time>
      </trkpt>
      <trkpt lat="44.94617" lon="3.88148">
        <ele>916.49</ele>
        <time>2025-04-15T15:11:33.557Z</time>
      </trkpt>
      <trkpt lat="44.94615" lon="3.88131">
        <ele>916.95</ele>
        <time>2025-04-15T15:11:35.035Z</time>
      </trkpt>
      <trkpt lat="44.94615" lon="3.8811">
        <ele>917.4</ele>
        <time>2025-04-15T15:11:36.515Z</time>
      </trkpt>
      <trkpt lat="44.94617" lon="3.8806">
        <ele>917.88</ele>
        <time>2025-04-15T15:11:38.001Z</time>
      </trkpt>
      <trkpt lat="44.94617" lon="3.88047">
        <ele>918.33</ele>
        <time>2025-04-15T15:11:39.488Z</time>
      </trkpt>
      <trkpt lat="44.94617" lon="3.88033">
        <ele>918.78</ele>
        <time>2025-04-15T15:11:40.977Z</time>
      </trkpt>
      <trkpt lat="44.94621" lon="3.88017">
        <ele>919.24</ele>
        <time>2025-04-15T15:11:42.468Z</time>
      </trkpt>
      <trkpt lat="44.94632" lon="3.87975">
        <ele>919.7</ele>
        <time>2025-04-15T15:11:43.964Z</time>
      </trkpt>
      <trkpt lat="44.94644" lon="3.87927">
        <ele>920.18</ele>
        <time>2025-04-15T15:11:45.466Z</time>
      </trkpt>
      <trkpt lat="44.94645" lon="3.87925">
        <ele>920.62</ele>
        <time>2025-04-15T15:11:46.968Z</time>
      </trkpt>
      <trkpt lat="44.94655" lon="3.87899">
        <ele>921.06</ele>
        <time>2025-04-15T15:11:48.473Z</time>
      </trkpt>
      <trkpt lat="44.94661" lon="3.87883">
        <ele>921.48</ele>
        <time>2025-04-15T15:11:49.980Z</time>
      </trkpt>
      <trkpt lat="44.94668" lon="3.87866">
        <ele>921.95</ele>
        <time>2025-04-15T15:11:51.490Z</time>
      </trkpt>
      <trkpt lat="44.94681" lon="3.87832">
        <ele>922.45</ele>
        <time>2025-04-15T15:11:53.004Z</time>
      </trkpt>
      <trkpt lat="44.94685" lon="3.87821">
        <ele>922.92</ele>
        <time>2025-04-15T15:11:54.519Z</time>
      </trkpt>
      <trkpt lat="44.94689" lon="3.8781">
        <ele>923.37</ele>
        <time>2025-04-15T15:11:56.036Z</time>
      </trkpt>
      <trkpt lat="44.94695" lon="3.87793">
        <ele>923.82</ele>
        <time>2025-04-15T15:11:57.555Z</time>
      </trkpt>
      <trkpt lat="44.94699" lon="3.87782">
        <ele>924.26</ele>
        <time>2025-04-15T15:11:59.075Z</time>
      </trkpt>
      <trkpt lat="44.94707" lon="3.87759">
        <ele>924.64</ele>
        <time>2025-04-15T15:12:00.598Z</time>
      </trkpt>
      <trkpt lat="44.94711" lon="3.87747">
        <ele>925.08</ele>
        <time>2025-04-15T15:12:02.123Z</time>
      </trkpt>
      <trkpt lat="44.94712" lon="3.87743">
        <ele>925.52</ele>
        <time>2025-04-15T15:12:03.648Z</time>
      </trkpt>
      <trkpt lat="44.94723" lon="3.87683">
        <ele>926.01</ele>
        <time>2025-04-15T15:12:05.180Z</time>
      </trkpt>
      <trkpt lat="44.94723" lon="3.8768">
        <ele>926.45</ele>
        <time>2025-04-15T15:12:06.713Z</time>
      </trkpt>
      <trkpt lat="44.94724" lon="3.87655">
        <ele>926.9</ele>
        <time>2025-04-15T15:12:08.248Z</time>
      </trkpt>
      <trkpt lat="44.94725" lon="3.87585">
        <ele>927.37</ele>
        <time>2025-04-15T15:12:09.791Z</time>
      </trkpt>
      <trkpt lat="44.94725" lon="3.87576">
        <ele>927.82</ele>
        <time>2025-04-15T15:12:11.335Z</time>
      </trkpt>
      <trkpt lat="44.94722" lon="3.87541">
        <ele>928.33</ele>
        <time>2025-04-15T15:12:12.883Z</time>
      </trkpt>
      <trkpt lat="44.9472" lon="3.87519">
        <ele>928.82</ele>
        <time>2025-04-15T15:12:14.434Z</time>
      </trkpt>
      <trkpt lat="44.94718" lon="3.8751">
        <ele>929.27</ele>
        <time>2025-04-15T15:12:15.986Z</time>
      </trkpt>
      <trkpt lat="44.94697" lon="3.8744">
        <ele>929.72</ele>
        <time>2025-04-15T15:12:17.547Z</time>
      </trkpt>
      <trkpt lat="44.94694" lon="3.87429">
        <ele>930.16</ele>
        <time>2025-04-15T15:12:19.109Z</time>
      </trkpt>
      <trkpt lat="44.94694" lon="3.87429">
        <ele>930.58</ele>
        <time>2025-04-15T15:12:20.671Z</time>
      </trkpt>
      <trkpt lat="44.94683" lon="3.87408">
        <ele>931.06</ele>
        <time>2025-04-15T15:12:22.236Z</time>
      </trkpt>
      <trkpt lat="44.94669" lon="3.87383">
        <ele>931.57</ele>
        <time>2025-04-15T15:12:23.805Z</time>
      </trkpt>
      <trkpt lat="44.94654" lon="3.87356">
        <ele>932.05</ele>
        <time>2025-04-15T15:12:25.377Z</time>
      </trkpt>
      <trkpt lat="44.94645" lon="3.87346">
        <ele>932.47</ele>
        <time>2025-04-15T15:12:26.951Z</time>
      </trkpt>
      <trkpt lat="44.94631" lon="3.8733">
        <ele>932.88</ele>
        <time>2025-04-15T15:12:28.528Z</time>
      </trkpt>
      <trkpt lat="44.94607" lon="3.87301">
        <ele>933.25</ele>
        <time>2025-04-15T15:12:30.110Z</time>
      </trkpt>
      <trkpt lat="44.94595" lon="3.87293">
        <ele>933.63</ele>
        <time>2025-04-15T15:12:31.694Z</time>
      </trkpt>
      <trkpt lat="44.94576" lon="3.87278">
        <ele>933.96</ele>
        <time>2025-04-15T15:12:33.282Z</time>
      </trkpt>
      <trkpt lat="44.94564" lon="3.87269">
        <ele>934.33</ele>
        <time>2025-04-15T15:12:34.872Z</time>
      </trkpt>
      <trkpt lat="44.94555" lon="3.87263">
        <ele>934.71</ele>
        <time>2025-04-15T15:12:36.464Z</time>
      </trkpt>
      <trkpt lat="44.94547" lon="3.8726">
        <ele>935.08</ele>
        <time>2025-04-15T15:12:38.057Z</time>
      </trkpt>
      <trkpt lat="44.94538" lon="3.87257">
        <ele>935.45</ele>
        <time>2025-04-15T15:12:39.651Z</time>
      </trkpt>
      <trkpt lat="44.94525" lon="3.87252">
        <ele>935.84</ele>
        <time>2025-04-15T15:12:41.248Z</time>
      </trkpt>
      <trkpt lat="44.94508" lon="3.87246">
        <ele>936.24</ele>
        <time>2025-04-15T15:12:42.847Z</time>
      </trkpt>
      <trkpt lat="44.94499" lon="3.87242">
        <ele>936.65</ele>
        <time>2025-04-15T15:12:44.448Z</time>
      </trkpt>
      <trkpt lat="44.94496" lon="3.87241">
        <ele>937.05</ele>
        <time>2025-04-15T15:12:46.049Z</time>
      </trkpt>
      <trkpt lat="44.94482" lon="3.87241">
        <ele>937.48</ele>
        <time>2025-04-15T15:12:47.653Z</time>
      </trkpt>
      <trkpt lat="44.9445" lon="3.8724">
        <ele>937.96</ele>
        <time>2025-04-15T15:12:49.262Z</time>
      </trkpt>
      <trkpt lat="44.94432" lon="3.8724">
        <ele>938.4</ele>
        <time>2025-04-15T15:12:50.874Z</time>
      </trkpt>
      <trkpt lat="44.94417" lon="3.8724">
        <ele>938.8</ele>
        <time>2025-04-15T15:12:52.488Z</time>
      </trkpt>
      <trkpt lat="44.94415" lon="3.87241">
        <ele>939.2</ele>
        <time>2025-04-15T15:12:54.102Z</time>
      </trkpt>
      <trkpt lat="44.94368" lon="3.87262">
        <ele>939.6</ele>
        <time>2025-04-15T15:12:55.724Z</time>
      </trkpt>
      <trkpt lat="44.94361" lon="3.87265">
        <ele>940.02</ele>
        <time>2025-04-15T15:12:57.347Z</time>
      </trkpt>
      <trkpt lat="44.94355" lon="3.87268">
        <ele>940.45</ele>
        <time>2025-04-15T15:12:58.971Z</time>
      </trkpt>
      <trkpt lat="44.9433" lon="3.87282">
        <ele>940.88</ele>
        <time>2025-04-15T15:13:00.600Z</time>
      </trkpt>
      <trkpt lat="44.94313" lon="3.87291">
        <ele>941.28</ele>
        <time>2025-04-15T15:13:02.232Z</time>
      </trkpt>
      <trkpt lat="44.94296" lon="3.87301">
        <ele>941.7</ele>
        <time>2025-04-15T15:13:03.867Z</time>
      </trkpt>
      <trkpt lat="44.94284" lon="3.87308">
        <ele>942.13</ele>
        <time>2025-04-15T15:13:05.504Z</time>
      </trkpt>
      <trkpt lat="44.94267" lon="3.87317">
        <ele>942.56</ele>
        <time>2025-04-15T15:13:07.144Z</time>
      </trkpt>
      <trkpt lat="44.94261" lon="3.8732">
        <ele>942.99</ele>
        <time>2025-04-15T15:13:08.785Z</time>
      </trkpt>
      <trkpt lat="44.9425" lon="3.87323">
        <ele>943.43</ele>
        <time>2025-04-15T15:13:10.427Z</time>
      </trkpt>
      <trkpt lat="44.94219" lon="3.87331">
        <ele>943.87</ele>
        <time>2025-04-15T15:13:12.074Z</time>
      </trkpt>
      <trkpt lat="44.9421" lon="3.87333">
        <ele>944.3</ele>
        <time>2025-04-15T15:13:13.723Z</time>
      </trkpt>
      <trkpt lat="44.94174" lon="3.87333">
        <ele>944.8</ele>
        <time>2025-04-15T15:13:15.378Z</time>
      </trkpt>
      <trkpt lat="44.94151" lon="3.87333">
        <ele>945.32</ele>
        <time>2025-04-15T15:13:17.036Z</time>
      </trkpt>
      <trkpt lat="44.9413" lon="3.87328">
        <ele>945.77</ele>
        <time>2025-04-15T15:13:18.698Z</time>
      </trkpt>
      <trkpt lat="44.94094" lon="3.87321">
        <ele>946.27</ele>
        <time>2025-04-15T15:13:20.366Z</time>
      </trkpt>
      <trkpt lat="44.94072" lon="3.87316">
        <ele>946.75</ele>
        <time>2025-04-15T15:13:22.037Z</time>
      </trkpt>
      <trkpt lat="44.94037" lon="3.87308">
        <ele>947.19</ele>
        <time>2025-04-15T15:13:23.714Z</time>
      </trkpt>
      <trkpt lat="44.94023" lon="3.87306">
        <ele>947.65</ele>
        <time>2025-04-15T15:13:25.393Z</time>
      </trkpt>
      <trkpt lat="44.93997" lon="3.873">
        <ele>948.09</ele>
        <time>2025-04-15T15:13:27.076Z</time>
      </trkpt>
      <trkpt lat="44.93979" lon="3.87296">
        <ele>948.56</ele>
        <time>2025-04-15T15:13:28.762Z</time>
      </trkpt>
      <trkpt lat="44.93971" lon="3.87292">
        <ele>949.02</ele>
        <time>2025-04-15T15:13:30.450Z</time>
      </trkpt>
      <trkpt lat="44.93953" lon="3.87285">
        <ele>949.5</ele>
        <time>2025-04-15T15:13:32.140Z</time>
      </trkpt>
      <trkpt lat="44.93945" lon="3.87282">
        <ele>949.95</ele>
        <time>2025-04-15T15:13:33.832Z</time>
      </trkpt>
      <trkpt lat="44.93919" lon="3.87271">
        <ele>950.43</ele>
        <time>2025-04-15T15:13:35.528Z</time>
      </trkpt>
      <trkpt lat="44.93893" lon="3.8726">
        <ele>950.9</ele>
        <time>2025-04-15T15:13:37.229Z</time>
      </trkpt>
      <trkpt lat="44.9388" lon="3.87254">
        <ele>951.34</ele>
        <time>2025-04-15T15:13:38.932Z</time>
      </trkpt>
      <trkpt lat="44.93863" lon="3.87247">
        <ele>951.78</ele>
        <time>2025-04-15T15:13:40.638Z</time>
      </trkpt>
      <trkpt lat="44.93833" lon="3.87235">
        <ele>952.22</ele>
        <time>2025-04-15T15:13:42.349Z</time>
      </trkpt>
      <trkpt lat="44.93832" lon="3.87234">
        <ele>952.65</ele>
        <time>2025-04-15T15:13:44.060Z</time>
      </trkpt>
      <trkpt lat="44.93806" lon="3.87232">
        <ele>953.09</ele>
        <time>2025-04-15T15:13:45.775Z</time>
      </trkpt>
      <trkpt lat="44.93775" lon="3.87228">
        <ele>953.52</ele>
        <time>2025-04-15T15:13:47.495Z</time>
      </trkpt>
      <trkpt lat="44.93761" lon="3.87227">
        <ele>953.95</ele>
        <time>2025-04-15T15:13:49.217Z</time>
      </trkpt>
      <trkpt lat="44.93739" lon="3.87229">
        <ele>954.46</ele>
        <time>2025-04-15T15:13:50.943Z</time>
      </trkpt>
      <trkpt lat="44.9373" lon="3.8723">
        <ele>954.9</ele>
        <time>2025-04-15T15:13:52.670Z</time>
      </trkpt>
      <trkpt lat="44.93704" lon="3.87232">
        <ele>955.39</ele>
        <time>2025-04-15T15:13:54.401Z</time>
      </trkpt>
      <trkpt lat="44.93668" lon="3.87235">
        <ele>955.77</ele>
        <time>2025-04-15T15:13:56.138Z</time>
      </trkpt>
      <trkpt lat="44.93659" lon="3.87236">
        <ele>956.15</ele>
        <time>2025-04-15T15:13:57.877Z</time>
      </trkpt>
      <trkpt lat="44.93646" lon="3.87237">
        <ele>956.52</ele>
        <time>2025-04-15T15:13:59.618Z</time>
      </trkpt>
      <trkpt lat="44.93637" lon="3.87238">
        <ele>956.89</ele>
        <time>2025-04-15T15:14:01.360Z</time>
      </trkpt>
      <trkpt lat="44.93596" lon="3.87241">
        <ele>957.22</ele>
        <time>2025-04-15T15:14:03.109Z</time>
      </trkpt>
      <trkpt lat="44.93577" lon="3.87243">
        <ele>957.6</ele>
        <time>2025-04-15T15:14:04.861Z</time>
      </trkpt>
      <trkpt lat="44.93547" lon="3.87236">
        <ele>958.04</ele>
        <time>2025-04-15T15:14:06.617Z</time>
      </trkpt>
      <trkpt lat="44.93539" lon="3.87234">
        <ele>958.39</ele>
        <time>2025-04-15T15:14:08.375Z</time>
      </trkpt>
      <trkpt lat="44.93516" lon="3.87229">
        <ele>958.69</ele>
        <time>2025-04-15T15:14:10.136Z</time>
      </trkpt>
      <trkpt lat="44.93515" lon="3.87229">
        <ele>958.99</ele>
        <time>2025-04-15T15:14:11.898Z</time>
      </trkpt>
      <trkpt lat="44.93499" lon="3.87222">
        <ele>959.25</ele>
        <time>2025-04-15T15:14:13.662Z</time>
      </trkpt>
      <trkpt lat="44.93486" lon="3.87217">
        <ele>959.49</ele>
        <time>2025-04-15T15:14:15.428Z</time>
      </trkpt>
      <trkpt lat="44.93478" lon="3.87213">
        <ele>959.76</ele>
        <time>2025-04-15T15:14:17.196Z</time>
      </trkpt>
      <trkpt lat="44.93457" lon="3.87204">
        <ele>960.04</ele>
        <time>2025-04-15T15:14:18.967Z</time>
      </trkpt>
      <trkpt lat="44.93446" lon="3.87192">
        <ele>960.3</ele>
        <time>2025-04-15T15:14:20.741Z</time>
      </trkpt>
      <trkpt lat="44.93438" lon="3.87185">
        <ele>960.56</ele>
        <time>2025-04-15T15:14:22.516Z</time>
      </trkpt>
      <trkpt lat="44.93421" lon="3.87167">
        <ele>960.84</ele>
        <time>2025-04-15T15:14:24.295Z</time>
      </trkpt>
      <trkpt lat="44.93407" lon="3.87149">
        <ele>961.15</ele>
        <time>2025-04-15T15:14:26.077Z</time>
      </trkpt>
      <trkpt lat="44.93397" lon="3.87136">
        <ele>961.46</ele>
        <time>2025-04-15T15:14:27.861Z</time>
      </trkpt>
      <trkpt lat="44.93384" lon="3.87119">
        <ele>961.76</ele>
        <time>2025-04-15T15:14:29.648Z</time>
      </trkpt>
      <trkpt lat="44.93383" lon="3.87118">
        <ele>962.04</ele>
        <time>2025-04-15T15:14:31.435Z</time>
      </trkpt>
      <trkpt lat="44.93373" lon="3.87108">
        <ele>962.33</ele>
        <time>2025-04-15T15:14:33.224Z</time>
      </trkpt>
      <trkpt lat="44.93348" lon="3.87081">
        <ele>962.58</ele>
        <time>2025-04-15T15:14:35.018Z</time>
      </trkpt>
      <trkpt lat="44.93334" lon="3.87066">
        <ele>962.83</ele>
        <time>2025-04-15T15:14:36.815Z</time>
      </trkpt>
      <trkpt lat="44.93328" lon="3.8706">
        <ele>963.11</ele>
        <time>2025-04-15T15:14:38.613Z</time>
      </trkpt>
      <trkpt lat="44.93327" lon="3.87058">
        <ele>963.41</ele>
        <time>2025-04-15T15:14:40.411Z</time>
      </trkpt>
      <trkpt lat="44.9331" lon="3.87037">
        <ele>963.72</ele>
        <time>2025-04-15T15:14:42.213Z</time>
      </trkpt>
      <trkpt lat="44.93297" lon="3.8702">
        <ele>964.08</ele>
        <time>2025-04-15T15:14:44.017Z</time>
      </trkpt>
      <trkpt lat="44.9329" lon="3.87011">
        <ele>964.43</ele>
        <time>2025-04-15T15:14:45.823Z</time>
      </trkpt>
      <trkpt lat="44.93277" lon="3.86994">
        <ele>964.82</ele>
        <time>2025-04-15T15:14:47.632Z</time>
      </trkpt>
      <trkpt lat="44.93266" lon="3.8698">
        <ele>965.22</ele>
        <time>2025-04-15T15:14:49.443Z</time>
      </trkpt>
      <trkpt lat="44.9326" lon="3.86974">
        <ele>965.61</ele>
        <time>2025-04-15T15:14:51.255Z</time>
      </trkpt>
      <trkpt lat="44.93236" lon="3.86952">
        <ele>966.06</ele>
        <time>2025-04-15T15:14:53.072Z</time>
      </trkpt>
      <trkpt lat="44.93225" lon="3.86948">
        <ele>966.42</ele>
        <time>2025-04-15T15:14:54.891Z</time>
      </trkpt>
      <trkpt lat="44.9322" lon="3.86947">
        <ele>966.8</ele>
        <time>2025-04-15T15:14:56.711Z</time>
      </trkpt>
      <trkpt lat="44.93216" lon="3.86946">
        <ele>967.18</ele>
        <time>2025-04-15T15:14:58.531Z</time>
      </trkpt>
      <trkpt lat="44.93211" lon="3.86944">
        <ele>967.58</ele>
        <time>2025-04-15T15:15:00.352Z</time>
      </trkpt>
      <trkpt lat="44.93207" lon="3.86942">
        <ele>967.99</ele>
        <time>2025-04-15T15:15:02.174Z</time>
      </trkpt>
      <trkpt lat="44.93199" lon="3.86938">
        <ele>968.41</ele>
        <time>2025-04-15T15:15:03.997Z</time>
      </trkpt>
      <trkpt lat="44.93195" lon="3.86936">
        <ele>968.84</ele>
        <time>2025-04-15T15:15:05.821Z</time>
      </trkpt>
      <trkpt lat="44.9319" lon="3.86934">
        <ele>969.28</ele>
        <time>2025-04-15T15:15:07.646Z</time>
      </trkpt>
      <trkpt lat="44.93187" lon="3.86931">
        <ele>969.74</ele>
        <time>2025-04-15T15:15:09.471Z</time>
      </trkpt>
      <trkpt lat="44.93182" lon="3.86927">
        <ele>970.21</ele>
        <time>2025-04-15T15:15:11.297Z</time>
      </trkpt>
      <trkpt lat="44.93178" lon="3.86927">
        <ele>970.66</ele>
        <time>2025-04-15T15:15:13.124Z</time>
      </trkpt>
      <trkpt lat="44.93169" lon="3.86926">
        <ele>971.14</ele>
        <time>2025-04-15T15:15:14.952Z</time>
      </trkpt>
      <trkpt lat="44.93156" lon="3.86925">
        <ele>971.63</ele>
        <time>2025-04-15T15:15:16.782Z</time>
      </trkpt>
      <trkpt lat="44.93142" lon="3.86925">
        <ele>972.16</ele>
        <time>2025-04-15T15:15:18.614Z</time>
      </trkpt>
      <trkpt lat="44.93134" lon="3.86924">
        <ele>972.67</ele>
        <time>2025-04-15T15:15:20.448Z</time>
      </trkpt>
      <trkpt lat="44.9312" lon="3.86923">
        <ele>973.21</ele>
        <time>2025-04-15T15:15:22.284Z</time>
      </trkpt>
      <trkpt lat="44.93089" lon="3.86921">
        <ele>973.77</ele>
        <time>2025-04-15T15:15:24.125Z</time>
      </trkpt>
      <trkpt lat="44.9308" lon="3.86921">
        <ele>974.24</ele>
        <time>2025-04-15T15:15:25.968Z</time>
      </trkpt>
      <trkpt lat="44.93065" lon="3.8692">
        <ele>974.71</ele>
        <time>2025-04-15T15:15:27.813Z</time>
      </trkpt>
      <trkpt lat="44.93062" lon="3.8692">
        <ele>975.14</ele>
        <time>2025-04-15T15:15:29.658Z</time>
      </trkpt>
      <trkpt lat="44.93048" lon="3.86918">
        <ele>975.59</ele>
        <time>2025-04-15T15:15:31.506Z</time>
      </trkpt>
      <trkpt lat="44.93031" lon="3.86915">
        <ele>976.04</ele>
        <time>2025-04-15T15:15:33.356Z</time>
      </trkpt>
      <trkpt lat="44.93004" lon="3.86911">
        <ele>976.44</ele>
        <time>2025-04-15T15:15:35.211Z</time>
      </trkpt>
      <trkpt lat="44.92982" lon="3.86907">
        <ele>976.83</ele>
        <time>2025-04-15T15:15:37.069Z</time>
      </trkpt>
      <trkpt lat="44.92979" lon="3.86907">
        <ele>977.17</ele>
        <time>2025-04-15T15:15:38.928Z</time>
      </trkpt>
      <trkpt lat="44.92936" lon="3.86881">
        <ele>977.57</ele>
        <time>2025-04-15T15:15:40.794Z</time>
      </trkpt>
      <trkpt lat="44.92923" lon="3.86873">
        <ele>977.86</ele>
        <time>2025-04-15T15:15:42.662Z</time>
      </trkpt>
      <trkpt lat="44.92917" lon="3.86866">
        <ele>978.15</ele>
        <time>2025-04-15T15:15:44.532Z</time>
      </trkpt>
      <trkpt lat="44.92895" lon="3.86842">
        <ele>978.4</ele>
        <time>2025-04-15T15:15:46.406Z</time>
      </trkpt>
      <trkpt lat="44.92871" lon="3.86815">
        <ele>978.69</ele>
        <time>2025-04-15T15:15:48.285Z</time>
      </trkpt>
      <trkpt lat="44.92869" lon="3.86813">
        <ele>978.91</ele>
        <time>2025-04-15T15:15:50.164Z</time>
      </trkpt>
      <trkpt lat="44.92865" lon="3.86806">
        <ele>979.11</ele>
        <time>2025-04-15T15:15:52.045Z</time>
      </trkpt>
      <trkpt lat="44.92841" lon="3.86768">
        <ele>979.2</ele>
        <time>2025-04-15T15:15:53.931Z</time>
      </trkpt>
      <trkpt lat="44.92823" lon="3.8674">
        <ele>979.25</ele>
        <time>2025-04-15T15:15:55.822Z</time>
      </trkpt>
      <trkpt lat="44.92821" lon="3.86734">
        <ele>979.41</ele>
        <time>2025-04-15T15:15:57.713Z</time>
      </trkpt>
      <trkpt lat="44.92815" lon="3.86716">
        <ele>979.54</ele>
        <time>2025-04-15T15:15:59.607Z</time>
      </trkpt>
      <trkpt lat="44.92808" lon="3.86693">
        <ele>979.68</ele>
        <time>2025-04-15T15:16:01.503Z</time>
      </trkpt>
      <trkpt lat="44.92797" lon="3.86659">
        <ele>979.82</ele>
        <time>2025-04-15T15:16:03.404Z</time>
      </trkpt>
      <trkpt lat="44.92793" lon="3.86648">
        <ele>979.95</ele>
        <time>2025-04-15T15:16:05.306Z</time>
      </trkpt>
      <trkpt lat="44.92785" lon="3.86625">
        <ele>980.07</ele>
        <time>2025-04-15T15:16:07.211Z</time>
      </trkpt>
      <trkpt lat="44.92779" lon="3.86608">
        <ele>980.17</ele>
        <time>2025-04-15T15:16:09.118Z</time>
      </trkpt>
      <trkpt lat="44.92775" lon="3.86597">
        <ele>980.29</ele>
        <time>2025-04-15T15:16:11.027Z</time>
      </trkpt>
      <trkpt lat="44.9277" lon="3.86585">
        <ele>980.38</ele>
        <time>2025-04-15T15:16:12.937Z</time>
      </trkpt>
      <trkpt lat="44.92762" lon="3.86563">
        <ele>980.48</ele>
        <time>2025-04-15T15:16:14.850Z</time>
      </trkpt>
      <trkpt lat="44.92758" lon="3.86551">
        <ele>980.55</ele>
        <time>2025-04-15T15:16:16.764Z</time>
      </trkpt>
      <trkpt lat="44.92748" lon="3.86523">
        <ele>980.64</ele>
        <time>2025-04-15T15:16:18.682Z</time>
      </trkpt>
      <trkpt lat="44.92738" lon="3.86495">
        <ele>980.71</ele>
        <time>2025-04-15T15:16:20.604Z</time>
      </trkpt>
      <trkpt lat="44.92733" lon="3.86481">
        <ele>980.75</ele>
        <time>2025-04-15T15:16:22.527Z</time>
      </trkpt>
      <trkpt lat="44.9273" lon="3.86472">
        <ele>980.76</ele>
        <time>2025-04-15T15:16:24.451Z</time>
      </trkpt>
      <trkpt lat="44.92723" lon="3.86449">
        <ele>980.74</ele>
        <time>2025-04-15T15:16:26.378Z</time>
      </trkpt>
      <trkpt lat="44.92719" lon="3.86438">
        <ele>980.77</ele>
        <time>2025-04-15T15:16:28.307Z</time>
      </trkpt>
      <trkpt lat="44.92711" lon="3.86415">
        <ele>980.81</ele>
        <time>2025-04-15T15:16:30.239Z</time>
      </trkpt>
      <trkpt lat="44.92704" lon="3.86393">
        <ele>980.87</ele>
        <time>2025-04-15T15:16:32.173Z</time>
      </trkpt>
      <trkpt lat="44.92704" lon="3.86392">
        <ele>980.92</ele>
        <time>2025-04-15T15:16:34.108Z</time>
      </trkpt>
      <trkpt lat="44.92702" lon="3.86367">
        <ele>981.03</ele>
        <time>2025-04-15T15:16:36.045Z</time>
      </trkpt>
      <trkpt lat="44.92697" lon="3.86323">
        <ele>981.14</ele>
        <time>2025-04-15T15:16:37.987Z</time>
      </trkpt>
      <trkpt lat="44.92695" lon="3.86297">
        <ele>981.23</ele>
        <time>2025-04-15T15:16:39.932Z</time>
      </trkpt>
      <trkpt lat="44.92694" lon="3.86291">
        <ele>981.3</ele>
        <time>2025-04-15T15:16:41.878Z</time>
      </trkpt>
      <trkpt lat="44.92693" lon="3.86272">
        <ele>981.37</ele>
        <time>2025-04-15T15:16:43.826Z</time>
      </trkpt>
      <trkpt lat="44.92692" lon="3.86266">
        <ele>981.47</ele>
        <time>2025-04-15T15:16:45.775Z</time>
      </trkpt>
      <trkpt lat="44.92692" lon="3.8626">
        <ele>981.58</ele>
        <time>2025-04-15T15:16:47.725Z</time>
      </trkpt>
      <trkpt lat="44.9269" lon="3.86241">
        <ele>981.64</ele>
        <time>2025-04-15T15:16:49.677Z</time>
      </trkpt>
      <trkpt lat="44.92689" lon="3.86231">
        <ele>981.77</ele>
        <time>2025-04-15T15:16:51.630Z</time>
      </trkpt>
      <trkpt lat="44.92688" lon="3.86217">
        <ele>981.87</ele>
        <time>2025-04-15T15:16:53.585Z</time>
      </trkpt>
      <trkpt lat="44.92686" lon="3.862">
        <ele>981.99</ele>
        <time>2025-04-15T15:16:55.542Z</time>
      </trkpt>
      <trkpt lat="44.92685" lon="3.86191">
        <ele>982.17</ele>
        <time>2025-04-15T15:16:57.500Z</time>
      </trkpt>
      <trkpt lat="44.92682" lon="3.86164">
        <ele>982.35</ele>
        <time>2025-04-15T15:16:59.461Z</time>
      </trkpt>
      <trkpt lat="44.92678" lon="3.86141">
        <ele>982.56</ele>
        <time>2025-04-15T15:17:01.424Z</time>
      </trkpt>
      <trkpt lat="44.92669" lon="3.86099">
        <ele>982.93</ele>
        <time>2025-04-15T15:17:03.392Z</time>
      </trkpt>
      <trkpt lat="44.92666" lon="3.86083">
        <ele>983.2</ele>
        <time>2025-04-15T15:17:05.362Z</time>
      </trkpt>
      <trkpt lat="44.9266" lon="3.86056">
        <ele>983.5</ele>
        <time>2025-04-15T15:17:07.335Z</time>
      </trkpt>
      <trkpt lat="44.92653" lon="3.86026">
        <ele>983.76</ele>
        <time>2025-04-15T15:17:09.312Z</time>
      </trkpt>
      <trkpt lat="44.92647" lon="3.85995">
        <ele>984.07</ele>
        <time>2025-04-15T15:17:11.293Z</time>
      </trkpt>
      <trkpt lat="44.92645" lon="3.85989">
        <ele>984.39</ele>
        <time>2025-04-15T15:17:13.274Z</time>
      </trkpt>
      <trkpt lat="44.92644" lon="3.85983">
        <ele>984.73</ele>
        <time>2025-04-15T15:17:15.256Z</time>
      </trkpt>
      <trkpt lat="44.92643" lon="3.85979">
        <ele>985.07</ele>
        <time>2025-04-15T15:17:17.239Z</time>
      </trkpt>
      <trkpt lat="44.92641" lon="3.85958">
        <ele>985.46</ele>
        <time>2025-04-15T15:17:19.224Z</time>
      </trkpt>
      <trkpt lat="44.9264" lon="3.85952">
        <ele>985.86</ele>
        <time>2025-04-15T15:17:21.210Z</time>
      </trkpt>
      <trkpt lat="44.9264" lon="3.85946">
        <ele>986.27</ele>
        <time>2025-04-15T15:17:23.196Z</time>
      </trkpt>
      <trkpt lat="44.92638" lon="3.85933">
        <ele>986.68</ele>
        <time>2025-04-15T15:17:25.184Z</time>
      </trkpt>
      <trkpt lat="44.92637" lon="3.85921">
        <ele>987.12</ele>
        <time>2025-04-15T15:17:27.173Z</time>
      </trkpt>
      <trkpt lat="44.92635" lon="3.85901">
        <ele>987.57</ele>
        <time>2025-04-15T15:17:29.165Z</time>
      </trkpt>
      <trkpt lat="44.92635" lon="3.85896">
        <ele>988.04</ele>
        <time>2025-04-15T15:17:31.157Z</time>
      </trkpt>
      <trkpt lat="44.92634" lon="3.85877">
        <ele>988.57</ele>
        <time>2025-04-15T15:17:33.151Z</time>
      </trkpt>
      <trkpt lat="44.92633" lon="3.85864">
        <ele>989.07</ele>
        <time>2025-04-15T15:17:35.147Z</time>
      </trkpt>
      <trkpt lat="44.92632" lon="3.85839">
        <ele>989.6</ele>
        <time>2025-04-15T15:17:37.146Z</time>
      </trkpt>
      <trkpt lat="44.92629" lon="3.85782">
        <ele>990.18</ele>
        <time>2025-04-15T15:17:39.151Z</time>
      </trkpt>
      <trkpt lat="44.92628" lon="3.85763">
        <ele>990.76</ele>
        <time>2025-04-15T15:17:41.158Z</time>
      </trkpt>
      <trkpt lat="44.92628" lon="3.8576">
        <ele>991.3</ele>
        <time>2025-04-15T15:17:43.166Z</time>
      </trkpt>
      <trkpt lat="44.92622" lon="3.85732">
        <ele>991.86</ele>
        <time>2025-04-15T15:17:45.177Z</time>
      </trkpt>
      <trkpt lat="44.9262" lon="3.8572">
        <ele>992.43</ele>
        <time>2025-04-15T15:17:47.189Z</time>
      </trkpt>
      <trkpt lat="44.92617" lon="3.85708">
        <ele>993</ele>
        <time>2025-04-15T15:17:49.203Z</time>
      </trkpt>
      <trkpt lat="44.92611" lon="3.85677">
        <ele>993.63</ele>
        <time>2025-04-15T15:17:51.220Z</time>
      </trkpt>
      <trkpt lat="44.92607" lon="3.8566">
        <ele>994.22</ele>
        <time>2025-04-15T15:17:53.239Z</time>
      </trkpt>
      <trkpt lat="44.92607" lon="3.85659">
        <ele>994.74</ele>
        <time>2025-04-15T15:17:55.259Z</time>
      </trkpt>
      <trkpt lat="44.92592" lon="3.85627">
        <ele>995.29</ele>
        <time>2025-04-15T15:17:57.283Z</time>
      </trkpt>
      <trkpt lat="44.92583" lon="3.85606">
        <ele>995.81</ele>
        <time>2025-04-15T15:17:59.310Z</time>
      </trkpt>
      <trkpt lat="44.92575" lon="3.8559">
        <ele>996.32</ele>
        <time>2025-04-15T15:18:01.339Z</time>
      </trkpt>
      <trkpt lat="44.92569" lon="3.85576">
        <ele>996.82</ele>
        <time>2025-04-15T15:18:03.370Z</time>
      </trkpt>
      <trkpt lat="44.92552" lon="3.85552">
        <ele>997.35</ele>
        <time>2025-04-15T15:18:05.405Z</time>
      </trkpt>
      <trkpt lat="44.92536" lon="3.8553">
        <ele>997.85</ele>
        <time>2025-04-15T15:18:07.443Z</time>
      </trkpt>
      <trkpt lat="44.92529" lon="3.85521">
        <ele>998.31</ele>
        <time>2025-04-15T15:18:09.483Z</time>
      </trkpt>
      <trkpt lat="44.92525" lon="3.85518">
        <ele>998.73</ele>
        <time>2025-04-15T15:18:11.523Z</time>
      </trkpt>
      <trkpt lat="44.9251" lon="3.85504">
        <ele>999.15</ele>
        <time>2025-04-15T15:18:13.566Z</time>
      </trkpt>
      <trkpt lat="44.92487" lon="3.85485">
        <ele>999.55</ele>
        <time>2025-04-15T15:18:15.614Z</time>
      </trkpt>
      <trkpt lat="44.92476" lon="3.85475">
        <ele>999.92</ele>
        <time>2025-04-15T15:18:17.664Z</time>
      </trkpt>
      <trkpt lat="44.92475" lon="3.85475">
        <ele>1000.26</ele>
        <time>2025-04-15T15:18:19.714Z</time>
      </trkpt>
      <trkpt lat="44.92463" lon="3.85466">
        <ele>1000.58</ele>
        <time>2025-04-15T15:18:21.766Z</time>
      </trkpt>
      <trkpt lat="44.92439" lon="3.8545">
        <ele>1000.82</ele>
        <time>2025-04-15T15:18:23.822Z</time>
      </trkpt>
      <trkpt lat="44.92427" lon="3.85441">
        <ele>1001.06</ele>
        <time>2025-04-15T15:18:25.880Z</time>
      </trkpt>
      <trkpt lat="44.92415" lon="3.85433">
        <ele>1001.3</ele>
        <time>2025-04-15T15:18:27.941Z</time>
      </trkpt>
      <trkpt lat="44.92392" lon="3.85417">
        <ele>1001.53</ele>
        <time>2025-04-15T15:18:30.006Z</time>
      </trkpt>
      <trkpt lat="44.92391" lon="3.85416">
        <ele>1001.78</ele>
        <time>2025-04-15T15:18:32.071Z</time>
      </trkpt>
      <trkpt lat="44.92381" lon="3.85403">
        <ele>1002.03</ele>
        <time>2025-04-15T15:18:34.138Z</time>
      </trkpt>
      <trkpt lat="44.92374" lon="3.85395">
        <ele>1002.27</ele>
        <time>2025-04-15T15:18:36.207Z</time>
      </trkpt>
      <trkpt lat="44.9236" lon="3.85379">
        <ele>1002.54</ele>
        <time>2025-04-15T15:18:38.278Z</time>
      </trkpt>
      <trkpt lat="44.92354" lon="3.85371">
        <ele>1002.76</ele>
        <time>2025-04-15T15:18:40.351Z</time>
      </trkpt>
      <trkpt lat="44.92338" lon="3.85347">
        <ele>1003.05</ele>
        <time>2025-04-15T15:18:42.427Z</time>
      </trkpt>
      <trkpt lat="44.9232" lon="3.85318">
        <ele>1003.27</ele>
        <time>2025-04-15T15:18:44.508Z</time>
      </trkpt>
      <trkpt lat="44.92318" lon="3.85313">
        <ele>1003.44</ele>
        <time>2025-04-15T15:18:46.589Z</time>
      </trkpt>
      <trkpt lat="44.92311" lon="3.85297">
        <ele>1003.58</ele>
        <time>2025-04-15T15:18:48.673Z</time>
      </trkpt>
      <trkpt lat="44.92297" lon="3.85264">
        <ele>1003.69</ele>
        <time>2025-04-15T15:18:50.761Z</time>
      </trkpt>
      <trkpt lat="44.92295" lon="3.85258">
        <ele>1003.82</ele>
        <time>2025-04-15T15:18:52.850Z</time>
      </trkpt>
      <trkpt lat="44.92288" lon="3.85235">
        <ele>1003.94</ele>
        <time>2025-04-15T15:18:54.942Z</time>
      </trkpt>
      <trkpt lat="44.92285" lon="3.85223">
        <ele>1004.07</ele>
        <time>2025-04-15T15:18:57.035Z</time>
      </trkpt>
      <trkpt lat="44.92279" lon="3.85205">
        <ele>1004.2</ele>
        <time>2025-04-15T15:18:59.130Z</time>
      </trkpt>
      <trkpt lat="44.92276" lon="3.85187">
        <ele>1004.34</ele>
        <time>2025-04-15T15:19:01.227Z</time>
      </trkpt>
      <trkpt lat="44.92275" lon="3.85175">
        <ele>1004.46</ele>
        <time>2025-04-15T15:19:03.326Z</time>
      </trkpt>
      <trkpt lat="44.92273" lon="3.85163">
        <ele>1004.57</ele>
        <time>2025-04-15T15:19:05.426Z</time>
      </trkpt>
      <trkpt lat="44.92272" lon="3.85158">
        <ele>1004.67</ele>
        <time>2025-04-15T15:19:07.527Z</time>
      </trkpt>
      <trkpt lat="44.92272" lon="3.85137">
        <ele>1004.77</ele>
        <time>2025-04-15T15:19:09.630Z</time>
      </trkpt>
      <trkpt lat="44.9227" lon="3.85069">
        <ele>1004.84</ele>
        <time>2025-04-15T15:19:11.741Z</time>
      </trkpt>
      <trkpt lat="44.9227" lon="3.8506">
        <ele>1004.92</ele>
        <time>2025-04-15T15:19:13.853Z</time>
      </trkpt>
      <trkpt lat="44.92274" lon="3.85032">
        <ele>1005.02</ele>
        <time>2025-04-15T15:19:15.968Z</time>
      </trkpt>
      <trkpt lat="44.92277" lon="3.85008">
        <ele>1005.13</ele>
        <time>2025-04-15T15:19:18.086Z</time>
      </trkpt>
      <trkpt lat="44.92282" lon="3.84983">
        <ele>1005.22</ele>
        <time>2025-04-15T15:19:20.207Z</time>
      </trkpt>
      <trkpt lat="44.92287" lon="3.84953">
        <ele>1005.29</ele>
        <time>2025-04-15T15:19:22.331Z</time>
      </trkpt>
      <trkpt lat="44.92295" lon="3.84911">
        <ele>1005.41</ele>
        <time>2025-04-15T15:19:24.460Z</time>
      </trkpt>
      <trkpt lat="44.923" lon="3.84885">
        <ele>1005.54</ele>
        <time>2025-04-15T15:19:26.592Z</time>
      </trkpt>
      <trkpt lat="44.92301" lon="3.84874">
        <ele>1005.68</ele>
        <time>2025-04-15T15:19:28.726Z</time>
      </trkpt>
      <trkpt lat="44.92303" lon="3.84862">
        <ele>1005.85</ele>
        <time>2025-04-15T15:19:30.861Z</time>
      </trkpt>
      <trkpt lat="44.92307" lon="3.84824">
        <ele>1006</ele>
        <time>2025-04-15T15:19:33.000Z</time>
      </trkpt>
      <trkpt lat="44.9231" lon="3.848">
        <ele>1006.16</ele>
        <time>2025-04-15T15:19:35.142Z</time>
      </trkpt>
      <trkpt lat="44.92309" lon="3.84749">
        <ele>1006.3</ele>
        <time>2025-04-15T15:19:37.290Z</time>
      </trkpt>
      <trkpt lat="44.92309" lon="3.84747">
        <ele>1006.54</ele>
        <time>2025-04-15T15:19:39.438Z</time>
      </trkpt>
      <trkpt lat="44.92307" lon="3.84736">
        <ele>1006.78</ele>
        <time>2025-04-15T15:19:41.587Z</time>
      </trkpt>
      <trkpt lat="44.92306" lon="3.84724">
        <ele>1007.06</ele>
        <time>2025-04-15T15:19:43.738Z</time>
      </trkpt>
      <trkpt lat="44.92302" lon="3.847">
        <ele>1007.35</ele>
        <time>2025-04-15T15:19:45.892Z</time>
      </trkpt>
      <trkpt lat="44.92294" lon="3.84669">
        <ele>1007.71</ele>
        <time>2025-04-15T15:19:48.049Z</time>
      </trkpt>
      <trkpt lat="44.92285" lon="3.84634">
        <ele>1008.19</ele>
        <time>2025-04-15T15:19:50.211Z</time>
      </trkpt>
      <trkpt lat="44.9228" lon="3.84612">
        <ele>1008.65</ele>
        <time>2025-04-15T15:19:52.375Z</time>
      </trkpt>
      <trkpt lat="44.92279" lon="3.8461">
        <ele>1009.07</ele>
        <time>2025-04-15T15:19:54.540Z</time>
      </trkpt>
      <trkpt lat="44.92266" lon="3.84584">
        <ele>1009.55</ele>
        <time>2025-04-15T15:19:56.708Z</time>
      </trkpt>
      <trkpt lat="44.92254" lon="3.84558">
        <ele>1010.04</ele>
        <time>2025-04-15T15:19:58.880Z</time>
      </trkpt>
      <trkpt lat="44.92249" lon="3.84547">
        <ele>1010.53</ele>
        <time>2025-04-15T15:20:01.053Z</time>
      </trkpt>
      <trkpt lat="44.92247" lon="3.84544">
        <ele>1011.03</ele>
        <time>2025-04-15T15:20:03.227Z</time>
      </trkpt>
      <trkpt lat="44.92233" lon="3.84525">
        <ele>1011.59</ele>
        <time>2025-04-15T15:20:05.404Z</time>
      </trkpt>
      <trkpt lat="44.92196" lon="3.84475">
        <ele>1012.26</ele>
        <time>2025-04-15T15:20:07.589Z</time>
      </trkpt>
      <trkpt lat="44.9217" lon="3.84456">
        <ele>1012.88</ele>
        <time>2025-04-15T15:20:09.779Z</time>
      </trkpt>
      <trkpt lat="44.92154" lon="3.84444">
        <ele>1013.46</ele>
        <time>2025-04-15T15:20:11.972Z</time>
      </trkpt>
      <trkpt lat="44.92144" lon="3.84437">
        <ele>1014.04</ele>
        <time>2025-04-15T15:20:14.166Z</time>
      </trkpt>
      <trkpt lat="44.92112" lon="3.84424">
        <ele>1014.62</ele>
        <time>2025-04-15T15:20:16.366Z</time>
      </trkpt>
      <trkpt lat="44.92099" lon="3.84418">
        <ele>1015.26</ele>
        <time>2025-04-15T15:20:18.568Z</time>
      </trkpt>
      <trkpt lat="44.92091" lon="3.84415">
        <ele>1015.91</ele>
        <time>2025-04-15T15:20:20.771Z</time>
      </trkpt>
      <trkpt lat="44.92086" lon="3.84414">
        <ele>1016.58</ele>
        <time>2025-04-15T15:20:22.975Z</time>
      </trkpt>
      <trkpt lat="44.92068" lon="3.84411">
        <ele>1017.27</ele>
        <time>2025-04-15T15:20:25.182Z</time>
      </trkpt>
      <trkpt lat="44.9206" lon="3.8441">
        <ele>1017.96</ele>
        <time>2025-04-15T15:20:27.390Z</time>
      </trkpt>
      <trkpt lat="44.9205" lon="3.84406">
        <ele>1018.65</ele>
        <time>2025-04-15T15:20:29.600Z</time>
      </trkpt>
      <trkpt lat="44.92042" lon="3.84407">
        <ele>1019.36</ele>
        <time>2025-04-15T15:20:31.811Z</time>
      </trkpt>
      <trkpt lat="44.92025" lon="3.84411">
        <ele>1020.1</ele>
        <time>2025-04-15T15:20:34.025Z</time>
      </trkpt>
      <trkpt lat="44.92001" lon="3.84415">
        <ele>1020.86</ele>
        <time>2025-04-15T15:20:36.243Z</time>
      </trkpt>
      <trkpt lat="44.91985" lon="3.84419">
        <ele>1021.62</ele>
        <time>2025-04-15T15:20:38.463Z</time>
      </trkpt>
      <trkpt lat="44.91972" lon="3.84423">
        <ele>1022.38</ele>
        <time>2025-04-15T15:20:40.685Z</time>
      </trkpt>
      <trkpt lat="44.91959" lon="3.84428">
        <ele>1023.15</ele>
        <time>2025-04-15T15:20:42.910Z</time>
      </trkpt>
      <trkpt lat="44.91947" lon="3.84433">
        <ele>1023.92</ele>
        <time>2025-04-15T15:20:45.137Z</time>
      </trkpt>
      <trkpt lat="44.91939" lon="3.84438">
        <ele>1024.7</ele>
        <time>2025-04-15T15:20:47.365Z</time>
      </trkpt>
      <trkpt lat="44.91908" lon="3.84458">
        <ele>1025.58</ele>
        <time>2025-04-15T15:20:49.598Z</time>
      </trkpt>
      <trkpt lat="44.91907" lon="3.84459">
        <ele>1026.36</ele>
        <time>2025-04-15T15:20:51.832Z</time>
      </trkpt>
      <trkpt lat="44.91883" lon="3.84479">
        <ele>1027.23</ele>
        <time>2025-04-15T15:20:54.070Z</time>
      </trkpt>
      <trkpt lat="44.9187" lon="3.84495">
        <ele>1028.06</ele>
        <time>2025-04-15T15:20:56.311Z</time>
      </trkpt>
      <trkpt lat="44.91849" lon="3.84519">
        <ele>1028.83</ele>
        <time>2025-04-15T15:20:58.556Z</time>
      </trkpt>
      <trkpt lat="44.9182" lon="3.84563">
        <ele>1029.6</ele>
        <time>2025-04-15T15:21:00.808Z</time>
      </trkpt>
      <trkpt lat="44.9181" lon="3.84579">
        <ele>1030.41</ele>
        <time>2025-04-15T15:21:03.062Z</time>
      </trkpt>
      <trkpt lat="44.91796" lon="3.84603">
        <ele>1031.21</ele>
        <time>2025-04-15T15:21:05.320Z</time>
      </trkpt>
      <trkpt lat="44.91782" lon="3.84627">
        <ele>1032.01</ele>
        <time>2025-04-15T15:21:07.582Z</time>
      </trkpt>
      <trkpt lat="44.91764" lon="3.84656">
        <ele>1032.82</ele>
        <time>2025-04-15T15:21:09.848Z</time>
      </trkpt>
      <trkpt lat="44.91736" lon="3.84704">
        <ele>1033.59</ele>
        <time>2025-04-15T15:21:12.121Z</time>
      </trkpt>
      <trkpt lat="44.91713" lon="3.84743">
        <ele>1034.39</ele>
        <time>2025-04-15T15:21:14.400Z</time>
      </trkpt>
      <trkpt lat="44.91687" lon="3.84786">
        <ele>1035.24</ele>
        <time>2025-04-15T15:21:16.685Z</time>
      </trkpt>
      <trkpt lat="44.91678" lon="3.84801">
        <ele>1036.02</ele>
        <time>2025-04-15T15:21:18.972Z</time>
      </trkpt>
      <trkpt lat="44.9167" lon="3.84815">
        <ele>1036.77</ele>
        <time>2025-04-15T15:21:21.261Z</time>
      </trkpt>
      <trkpt lat="44.91658" lon="3.84834">
        <ele>1037.51</ele>
        <time>2025-04-15T15:21:23.553Z</time>
      </trkpt>
      <trkpt lat="44.91621" lon="3.84897">
        <ele>1038.29</ele>
        <time>2025-04-15T15:21:25.855Z</time>
      </trkpt>
      <trkpt lat="44.91612" lon="3.84911">
        <ele>1039.01</ele>
        <time>2025-04-15T15:21:28.159Z</time>
      </trkpt>
      <trkpt lat="44.91589" lon="3.8495">
        <ele>1039.69</ele>
        <time>2025-04-15T15:21:30.468Z</time>
      </trkpt>
      <trkpt lat="44.91583" lon="3.84959">
        <ele>1040.37</ele>
        <time>2025-04-15T15:21:32.779Z</time>
      </trkpt>
      <trkpt lat="44.91578" lon="3.84969">
        <ele>1041.04</ele>
        <time>2025-04-15T15:21:35.091Z</time>
      </trkpt>
      <trkpt lat="44.91577" lon="3.8497">
        <ele>1041.68</ele>
        <time>2025-04-15T15:21:37.403Z</time>
      </trkpt>
      <trkpt lat="44.91558" lon="3.85003">
        <ele>1042.38</ele>
        <time>2025-04-15T15:21:39.720Z</time>
      </trkpt>
      <trkpt lat="44.91541" lon="3.85031">
        <ele>1043.06</ele>
        <time>2025-04-15T15:21:42.042Z</time>
      </trkpt>
      <trkpt lat="44.91526" lon="3.85055">
        <ele>1043.66</ele>
        <time>2025-04-15T15:21:44.367Z</time>
      </trkpt>
      <trkpt lat="44.91518" lon="3.8507">
        <ele>1044.24</ele>
        <time>2025-04-15T15:21:46.694Z</time>
      </trkpt>
      <trkpt lat="44.91498" lon="3.85103">
        <ele>1044.85</ele>
        <time>2025-04-15T15:21:49.026Z</time>
      </trkpt>
      <trkpt lat="44.9146" lon="3.85165">
        <ele>1045.53</ele>
        <time>2025-04-15T15:21:51.368Z</time>
      </trkpt>
      <trkpt lat="44.91457" lon="3.85171">
        <ele>1046.02</ele>
        <time>2025-04-15T15:21:53.710Z</time>
      </trkpt>
      <trkpt lat="44.9142" lon="3.85213">
        <ele>1046.49</ele>
        <time>2025-04-15T15:21:56.060Z</time>
      </trkpt>
      <trkpt lat="44.91416" lon="3.85217">
        <ele>1046.9</ele>
        <time>2025-04-15T15:21:58.411Z</time>
      </trkpt>
      <trkpt lat="44.914" lon="3.85229">
        <ele>1047.24</ele>
        <time>2025-04-15T15:22:00.765Z</time>
      </trkpt>
      <trkpt lat="44.91393" lon="3.85236">
        <ele>1047.58</ele>
        <time>2025-04-15T15:22:03.120Z</time>
      </trkpt>
      <trkpt lat="44.91378" lon="3.85248">
        <ele>1047.88</ele>
        <time>2025-04-15T15:22:05.478Z</time>
      </trkpt>
      <trkpt lat="44.91361" lon="3.85258">
        <ele>1048.19</ele>
        <time>2025-04-15T15:22:07.839Z</time>
      </trkpt>
      <trkpt lat="44.91353" lon="3.85262">
        <ele>1048.48</ele>
        <time>2025-04-15T15:22:10.201Z</time>
      </trkpt>
      <trkpt lat="44.91344" lon="3.85267">
        <ele>1048.75</ele>
        <time>2025-04-15T15:22:12.565Z</time>
      </trkpt>
      <trkpt lat="44.9134" lon="3.85268">
        <ele>1049.01</ele>
        <time>2025-04-15T15:22:14.929Z</time>
      </trkpt>
      <trkpt lat="44.91331" lon="3.85271">
        <ele>1049.26</ele>
        <time>2025-04-15T15:22:17.295Z</time>
      </trkpt>
      <trkpt lat="44.91314" lon="3.85276">
        <ele>1049.49</ele>
        <time>2025-04-15T15:22:19.664Z</time>
      </trkpt>
      <trkpt lat="44.91299" lon="3.85281">
        <ele>1049.68</ele>
        <time>2025-04-15T15:22:22.035Z</time>
      </trkpt>
      <trkpt lat="44.91287" lon="3.85282">
        <ele>1049.85</ele>
        <time>2025-04-15T15:22:24.408Z</time>
      </trkpt>
      <trkpt lat="44.91279" lon="3.85282">
        <ele>1050</ele>
        <time>2025-04-15T15:22:26.782Z</time>
      </trkpt>
      <trkpt lat="44.91266" lon="3.85283">
        <ele>1050.13</ele>
        <time>2025-04-15T15:22:29.158Z</time>
      </trkpt>
      <trkpt lat="44.91265" lon="3.85283">
        <ele>1050.25</ele>
        <time>2025-04-15T15:22:31.534Z</time>
      </trkpt>
      <trkpt lat="44.91256" lon="3.85282">
        <ele>1050.34</ele>
        <time>2025-04-15T15:22:33.912Z</time>
      </trkpt>
      <trkpt lat="44.91239" lon="3.85279">
        <ele>1050.39</ele>
        <time>2025-04-15T15:22:36.293Z</time>
      </trkpt>
      <trkpt lat="44.91221" lon="3.85277">
        <ele>1050.45</ele>
        <time>2025-04-15T15:22:38.677Z</time>
      </trkpt>
      <trkpt lat="44.91216" lon="3.85276">
        <ele>1050.53</ele>
        <time>2025-04-15T15:22:41.061Z</time>
      </trkpt>
      <trkpt lat="44.91204" lon="3.85271">
        <ele>1050.61</ele>
        <time>2025-04-15T15:22:43.447Z</time>
      </trkpt>
      <trkpt lat="44.91178" lon="3.8526">
        <ele>1050.73</ele>
        <time>2025-04-15T15:22:45.838Z</time>
      </trkpt>
      <trkpt lat="44.91156" lon="3.85251">
        <ele>1050.82</ele>
        <time>2025-04-15T15:22:48.232Z</time>
      </trkpt>
      <trkpt lat="44.91141" lon="3.85245">
        <ele>1050.92</ele>
        <time>2025-04-15T15:22:50.629Z</time>
      </trkpt>
      <trkpt lat="44.91135" lon="3.85242">
        <ele>1051.02</ele>
        <time>2025-04-15T15:22:53.027Z</time>
      </trkpt>
      <trkpt lat="44.91123" lon="3.85235">
        <ele>1051.14</ele>
        <time>2025-04-15T15:22:55.427Z</time>
      </trkpt>
      <trkpt lat="44.91102" lon="3.85224">
        <ele>1051.27</ele>
        <time>2025-04-15T15:22:57.831Z</time>
      </trkpt>
      <trkpt lat="44.91077" lon="3.8521">
        <ele>1051.39</ele>
        <time>2025-04-15T15:23:00.239Z</time>
      </trkpt>
      <trkpt lat="44.91048" lon="3.85194">
        <ele>1051.49</ele>
        <time>2025-04-15T15:23:02.652Z</time>
      </trkpt>
      <trkpt lat="44.91023" lon="3.8518">
        <ele>1051.66</ele>
        <time>2025-04-15T15:23:05.069Z</time>
      </trkpt>
      <trkpt lat="44.91015" lon="3.85176">
        <ele>1051.82</ele>
        <time>2025-04-15T15:23:07.488Z</time>
      </trkpt>
      <trkpt lat="44.91011" lon="3.85173">
        <ele>1051.98</ele>
        <time>2025-04-15T15:23:09.907Z</time>
      </trkpt>
      <trkpt lat="44.91008" lon="3.85172">
        <ele>1052.15</ele>
        <time>2025-04-15T15:23:12.327Z</time>
      </trkpt>
      <trkpt lat="44.90993" lon="3.85166">
        <ele>1052.36</ele>
        <time>2025-04-15T15:23:14.749Z</time>
      </trkpt>
      <trkpt lat="44.90985" lon="3.85163">
        <ele>1052.57</ele>
        <time>2025-04-15T15:23:17.173Z</time>
      </trkpt>
      <trkpt lat="44.90976" lon="3.8516">
        <ele>1052.76</ele>
        <time>2025-04-15T15:23:19.598Z</time>
      </trkpt>
      <trkpt lat="44.90967" lon="3.85156">
        <ele>1052.96</ele>
        <time>2025-04-15T15:23:22.024Z</time>
      </trkpt>
      <trkpt lat="44.90963" lon="3.85155">
        <ele>1053.18</ele>
        <time>2025-04-15T15:23:24.451Z</time>
      </trkpt>
      <trkpt lat="44.90959" lon="3.85155">
        <ele>1053.41</ele>
        <time>2025-04-15T15:23:26.879Z</time>
      </trkpt>
      <trkpt lat="44.90945" lon="3.85152">
        <ele>1053.66</ele>
        <time>2025-04-15T15:23:29.309Z</time>
      </trkpt>
      <trkpt lat="44.90932" lon="3.8515">
        <ele>1053.92</ele>
        <time>2025-04-15T15:23:31.741Z</time>
      </trkpt>
      <trkpt lat="44.90917" lon="3.85147">
        <ele>1054.23</ele>
        <time>2025-04-15T15:23:34.176Z</time>
      </trkpt>
      <trkpt lat="44.90905" lon="3.85147">
        <ele>1054.55</ele>
        <time>2025-04-15T15:23:36.612Z</time>
      </trkpt>
      <trkpt lat="44.90883" lon="3.85148">
        <ele>1054.9</ele>
        <time>2025-04-15T15:23:39.052Z</time>
      </trkpt>
      <trkpt lat="44.90857" lon="3.85149">
        <ele>1055.28</ele>
        <time>2025-04-15T15:23:41.496Z</time>
      </trkpt>
      <trkpt lat="44.90852" lon="3.8515">
        <ele>1055.62</ele>
        <time>2025-04-15T15:23:43.941Z</time>
      </trkpt>
      <trkpt lat="44.90834" lon="3.85154">
        <ele>1055.98</ele>
        <time>2025-04-15T15:23:46.389Z</time>
      </trkpt>
      <trkpt lat="44.90814" lon="3.85159">
        <ele>1056.36</ele>
        <time>2025-04-15T15:23:48.840Z</time>
      </trkpt>
      <trkpt lat="44.90812" lon="3.8516">
        <ele>1056.72</ele>
        <time>2025-04-15T15:23:51.291Z</time>
      </trkpt>
      <trkpt lat="44.90804" lon="3.85163">
        <ele>1057.09</ele>
        <time>2025-04-15T15:23:53.744Z</time>
      </trkpt>
      <trkpt lat="44.90795" lon="3.85166">
        <ele>1057.47</ele>
        <time>2025-04-15T15:23:56.198Z</time>
      </trkpt>
      <trkpt lat="44.90791" lon="3.85168">
        <ele>1057.84</ele>
        <time>2025-04-15T15:23:58.653Z</time>
      </trkpt>
      <trkpt lat="44.90778" lon="3.85173">
        <ele>1058.23</ele>
        <time>2025-04-15T15:24:01.110Z</time>
      </trkpt>
      <trkpt lat="44.90774" lon="3.85176">
        <ele>1058.61</ele>
        <time>2025-04-15T15:24:03.568Z</time>
      </trkpt>
      <trkpt lat="44.90761" lon="3.85182">
        <ele>1059</ele>
        <time>2025-04-15T15:24:06.028Z</time>
      </trkpt>
      <trkpt lat="44.90753" lon="3.85187">
        <ele>1059.4</ele>
        <time>2025-04-15T15:24:08.489Z</time>
      </trkpt>
      <trkpt lat="44.90744" lon="3.85192">
        <ele>1059.8</ele>
        <time>2025-04-15T15:24:10.952Z</time>
      </trkpt>
      <trkpt lat="44.90732" lon="3.85199">
        <ele>1060.21</ele>
        <time>2025-04-15T15:24:13.417Z</time>
      </trkpt>
      <trkpt lat="44.90724" lon="3.85203">
        <ele>1060.65</ele>
        <time>2025-04-15T15:24:15.883Z</time>
      </trkpt>
      <trkpt lat="44.90711" lon="3.8521">
        <ele>1061.11</ele>
        <time>2025-04-15T15:24:18.352Z</time>
      </trkpt>
      <trkpt lat="44.90678" lon="3.85229">
        <ele>1061.54</ele>
        <time>2025-04-15T15:24:20.826Z</time>
      </trkpt>
      <trkpt lat="44.90666" lon="3.85235">
        <ele>1061.95</ele>
        <time>2025-04-15T15:24:23.302Z</time>
      </trkpt>
      <trkpt lat="44.90652" lon="3.8524">
        <ele>1062.38</ele>
        <time>2025-04-15T15:24:25.781Z</time>
      </trkpt>
      <trkpt lat="44.90635" lon="3.85246">
        <ele>1062.83</ele>
        <time>2025-04-15T15:24:28.263Z</time>
      </trkpt>
      <trkpt lat="44.90617" lon="3.85253">
        <ele>1063.29</ele>
        <time>2025-04-15T15:24:30.747Z</time>
      </trkpt>
      <trkpt lat="44.90609" lon="3.85255">
        <ele>1063.75</ele>
        <time>2025-04-15T15:24:33.233Z</time>
      </trkpt>
      <trkpt lat="44.90582" lon="3.8526">
        <ele>1064.24</ele>
        <time>2025-04-15T15:24:35.723Z</time>
      </trkpt>
      <trkpt lat="44.90573" lon="3.85262">
        <ele>1064.72</ele>
        <time>2025-04-15T15:24:38.215Z</time>
      </trkpt>
      <trkpt lat="44.9056" lon="3.85262">
        <ele>1065.21</ele>
        <time>2025-04-15T15:24:40.709Z</time>
      </trkpt>
      <trkpt lat="44.90541" lon="3.85261">
        <ele>1065.7</ele>
        <time>2025-04-15T15:24:43.206Z</time>
      </trkpt>
      <trkpt lat="44.90535" lon="3.85255">
        <ele>1066.19</ele>
        <time>2025-04-15T15:24:45.704Z</time>
      </trkpt>
      <trkpt lat="44.90521" lon="3.8524">
        <ele>1066.7</ele>
        <time>2025-04-15T15:24:48.205Z</time>
      </trkpt>
      <trkpt lat="44.90513" lon="3.85231">
        <ele>1067.19</ele>
        <time>2025-04-15T15:24:50.707Z</time>
      </trkpt>
      <trkpt lat="44.90506" lon="3.85228">
        <ele>1067.67</ele>
        <time>2025-04-15T15:24:53.211Z</time>
      </trkpt>
      <trkpt lat="44.90493" lon="3.85223">
        <ele>1068.15</ele>
        <time>2025-04-15T15:24:55.717Z</time>
      </trkpt>
      <trkpt lat="44.9048" lon="3.85218">
        <ele>1068.63</ele>
        <time>2025-04-15T15:24:58.225Z</time>
      </trkpt>
      <trkpt lat="44.90463" lon="3.85211">
        <ele>1069.13</ele>
        <time>2025-04-15T15:25:00.736Z</time>
      </trkpt>
      <trkpt lat="44.90455" lon="3.85208">
        <ele>1069.61</ele>
        <time>2025-04-15T15:25:03.248Z</time>
      </trkpt>
      <trkpt lat="44.90448" lon="3.85205">
        <ele>1070.08</ele>
        <time>2025-04-15T15:25:05.761Z</time>
      </trkpt>
      <trkpt lat="44.90439" lon="3.85196">
        <ele>1070.54</ele>
        <time>2025-04-15T15:25:08.276Z</time>
      </trkpt>
      <trkpt lat="44.90436" lon="3.85185">
        <ele>1070.99</ele>
        <time>2025-04-15T15:25:10.792Z</time>
      </trkpt>
      <trkpt lat="44.90435" lon="3.85179">
        <ele>1071.42</ele>
        <time>2025-04-15T15:25:13.309Z</time>
      </trkpt>
      <trkpt lat="44.90434" lon="3.85173">
        <ele>1071.85</ele>
        <time>2025-04-15T15:25:15.827Z</time>
      </trkpt>
      <trkpt lat="44.90431" lon="3.85149">
        <ele>1072.28</ele>
        <time>2025-04-15T15:25:18.347Z</time>
      </trkpt>
      <trkpt lat="44.90428" lon="3.85126">
        <ele>1072.72</ele>
        <time>2025-04-15T15:25:20.870Z</time>
      </trkpt>
      <trkpt lat="44.90426" lon="3.85114">
        <ele>1073.14</ele>
        <time>2025-04-15T15:25:23.394Z</time>
      </trkpt>
      <trkpt lat="44.90426" lon="3.85108">
        <ele>1073.54</ele>
        <time>2025-04-15T15:25:25.919Z</time>
      </trkpt>
      <trkpt lat="44.90424" lon="3.85097">
        <ele>1073.94</ele>
        <time>2025-04-15T15:25:28.445Z</time>
      </trkpt>
      <trkpt lat="44.90423" lon="3.85085">
        <ele>1074.33</ele>
        <time>2025-04-15T15:25:30.973Z</time>
      </trkpt>
      <trkpt lat="44.90419" lon="3.85061">
        <ele>1074.71</ele>
        <time>2025-04-15T15:25:33.504Z</time>
      </trkpt>
      <trkpt lat="44.90419" lon="3.85055">
        <ele>1075.06</ele>
        <time>2025-04-15T15:25:36.035Z</time>
      </trkpt>
      <trkpt lat="44.90418" lon="3.85049">
        <ele>1075.41</ele>
        <time>2025-04-15T15:25:38.567Z</time>
      </trkpt>
      <trkpt lat="44.90417" lon="3.85043">
        <ele>1075.73</ele>
        <time>2025-04-15T15:25:41.100Z</time>
      </trkpt>
      <trkpt lat="44.90417" lon="3.85043">
        <ele>1076.04</ele>
        <time>2025-04-15T15:25:43.633Z</time>
      </trkpt>
      <trkpt lat="44.90414" lon="3.85037">
        <ele>1076.34</ele>
        <time>2025-04-15T15:25:46.166Z</time>
      </trkpt>
      <trkpt lat="44.90412" lon="3.85032">
        <ele>1076.63</ele>
        <time>2025-04-15T15:25:48.700Z</time>
      </trkpt>
      <trkpt lat="44.9041" lon="3.85027">
        <ele>1076.9</ele>
        <time>2025-04-15T15:25:51.235Z</time>
      </trkpt>
      <trkpt lat="44.90405" lon="3.85016">
        <ele>1077.17</ele>
        <time>2025-04-15T15:25:53.771Z</time>
      </trkpt>
      <trkpt lat="44.90398" lon="3.85">
        <ele>1077.41</ele>
        <time>2025-04-15T15:25:56.309Z</time>
      </trkpt>
      <trkpt lat="44.90393" lon="3.8499">
        <ele>1077.63</ele>
        <time>2025-04-15T15:25:58.849Z</time>
      </trkpt>
      <trkpt lat="44.90388" lon="3.84978">
        <ele>1077.84</ele>
        <time>2025-04-15T15:26:01.390Z</time>
      </trkpt>
      <trkpt lat="44.90377" lon="3.84968">
        <ele>1078.02</ele>
        <time>2025-04-15T15:26:03.933Z</time>
      </trkpt>
      <trkpt lat="44.90357" lon="3.8495">
        <ele>1078.2</ele>
        <time>2025-04-15T15:26:06.480Z</time>
      </trkpt>
      <trkpt lat="44.90354" lon="3.84949">
        <ele>1078.36</ele>
        <time>2025-04-15T15:26:09.028Z</time>
      </trkpt>
      <trkpt lat="44.90346" lon="3.84945">
        <ele>1078.52</ele>
        <time>2025-04-15T15:26:11.577Z</time>
      </trkpt>
      <trkpt lat="44.90333" lon="3.84939">
        <ele>1078.67</ele>
        <time>2025-04-15T15:26:14.128Z</time>
      </trkpt>
      <trkpt lat="44.90328" lon="3.84936">
        <ele>1078.79</ele>
        <time>2025-04-15T15:26:16.680Z</time>
      </trkpt>
      <trkpt lat="44.90311" lon="3.84941">
        <ele>1078.9</ele>
        <time>2025-04-15T15:26:19.235Z</time>
      </trkpt>
      <trkpt lat="44.90289" lon="3.84948">
        <ele>1079.03</ele>
        <time>2025-04-15T15:26:21.794Z</time>
      </trkpt>
      <trkpt lat="44.90281" lon="3.8495">
        <ele>1079.12</ele>
        <time>2025-04-15T15:26:24.354Z</time>
      </trkpt>
      <trkpt lat="44.90263" lon="3.84956">
        <ele>1079.22</ele>
        <time>2025-04-15T15:26:26.917Z</time>
      </trkpt>
      <trkpt lat="44.9025" lon="3.8496">
        <ele>1079.26</ele>
        <time>2025-04-15T15:26:29.482Z</time>
      </trkpt>
      <trkpt lat="44.90236" lon="3.84964">
        <ele>1079.29</ele>
        <time>2025-04-15T15:26:32.049Z</time>
      </trkpt>
      <trkpt lat="44.90229" lon="3.84969">
        <ele>1079.28</ele>
        <time>2025-04-15T15:26:34.618Z</time>
      </trkpt>
      <trkpt lat="44.90209" lon="3.84983">
        <ele>1079.23</ele>
        <time>2025-04-15T15:26:37.190Z</time>
      </trkpt>
      <trkpt lat="44.90206" lon="3.84985">
        <ele>1079.2</ele>
        <time>2025-04-15T15:26:39.763Z</time>
      </trkpt>
      <trkpt lat="44.90187" lon="3.84992">
        <ele>1079.14</ele>
        <time>2025-04-15T15:26:42.339Z</time>
      </trkpt>
      <trkpt lat="44.90165" lon="3.84999">
        <ele>1079.1</ele>
        <time>2025-04-15T15:26:44.918Z</time>
      </trkpt>
      <trkpt lat="44.90162" lon="3.85">
        <ele>1079.04</ele>
        <time>2025-04-15T15:26:47.498Z</time>
      </trkpt>
      <trkpt lat="44.90156" lon="3.85001">
        <ele>1078.96</ele>
        <time>2025-04-15T15:26:50.079Z</time>
      </trkpt>
      <trkpt lat="44.90134" lon="3.85006">
        <ele>1078.88</ele>
        <time>2025-04-15T15:26:52.663Z</time>
      </trkpt>
      <trkpt lat="44.90125" lon="3.85008">
        <ele>1078.79</ele>
        <time>2025-04-15T15:26:55.249Z</time>
      </trkpt>
      <trkpt lat="44.90116" lon="3.8501">
        <ele>1078.66</ele>
        <time>2025-04-15T15:26:57.836Z</time>
      </trkpt>
      <trkpt lat="44.90103" lon="3.85013">
        <ele>1078.52</ele>
        <time>2025-04-15T15:27:00.425Z</time>
      </trkpt>
      <trkpt lat="44.90101" lon="3.85013">
        <ele>1078.38</ele>
        <time>2025-04-15T15:27:03.015Z</time>
      </trkpt>
      <trkpt lat="44.90068" lon="3.85025">
        <ele>1078.2</ele>
        <time>2025-04-15T15:27:05.610Z</time>
      </trkpt>
      <trkpt lat="44.90046" lon="3.85032">
        <ele>1078.02</ele>
        <time>2025-04-15T15:27:08.209Z</time>
      </trkpt>
      <trkpt lat="44.90041" lon="3.85034">
        <ele>1077.86</ele>
        <time>2025-04-15T15:27:10.809Z</time>
      </trkpt>
      <trkpt lat="44.90037" lon="3.85034">
        <ele>1077.7</ele>
        <time>2025-04-15T15:27:13.409Z</time>
      </trkpt>
      <trkpt lat="44.90011" lon="3.85034">
        <ele>1077.51</ele>
        <time>2025-04-15T15:27:16.013Z</time>
      </trkpt>
      <trkpt lat="44.89994" lon="3.85045">
        <ele>1077.35</ele>
        <time>2025-04-15T15:27:18.620Z</time>
      </trkpt>
      <trkpt lat="44.89986" lon="3.85051">
        <ele>1077.18</ele>
        <time>2025-04-15T15:27:21.229Z</time>
      </trkpt>
      <trkpt lat="44.89981" lon="3.85054">
        <ele>1077.01</ele>
        <time>2025-04-15T15:27:23.839Z</time>
      </trkpt>
      <trkpt lat="44.89975" lon="3.85064">
        <ele>1076.84</ele>
        <time>2025-04-15T15:27:26.450Z</time>
      </trkpt>
      <trkpt lat="44.89973" lon="3.85068">
        <ele>1076.69</ele>
        <time>2025-04-15T15:27:29.062Z</time>
      </trkpt>
      <trkpt lat="44.89964" lon="3.85063">
        <ele>1076.55</ele>
        <time>2025-04-15T15:27:31.675Z</time>
      </trkpt>
      <trkpt lat="44.89959" lon="3.8506">
        <ele>1076.41</ele>
        <time>2025-04-15T15:27:34.289Z</time>
      </trkpt>
      <trkpt lat="44.89957" lon="3.85062">
        <ele>1076.28</ele>
        <time>2025-04-15T15:27:36.904Z</time>
      </trkpt>
      <trkpt lat="44.89949" lon="3.85068">
        <ele>1076.14</ele>
        <time>2025-04-15T15:27:39.520Z</time>
      </trkpt>
      <trkpt lat="44.89948" lon="3.85069">
        <ele>1076.02</ele>
        <time>2025-04-15T15:27:42.136Z</time>
      </trkpt>
      <trkpt lat="44.89942" lon="3.85063">
        <ele>1075.91</ele>
        <time>2025-04-15T15:27:44.754Z</time>
      </trkpt>
      <trkpt lat="44.89927" lon="3.85049">
        <ele>1075.81</ele>
        <time>2025-04-15T15:27:47.374Z</time>
      </trkpt>
      <trkpt lat="44.89916" lon="3.85038">
        <ele>1075.73</ele>
        <time>2025-04-15T15:27:49.996Z</time>
      </trkpt>
      <trkpt lat="44.89898" lon="3.8502">
        <ele>1075.67</ele>
        <time>2025-04-15T15:27:52.622Z</time>
      </trkpt>
      <trkpt lat="44.89895" lon="3.85017">
        <ele>1075.59</ele>
        <time>2025-04-15T15:27:55.249Z</time>
      </trkpt>
      <trkpt lat="44.89872" lon="3.84997">
        <ele>1075.55</ele>
        <time>2025-04-15T15:27:57.880Z</time>
      </trkpt>
      <trkpt lat="44.89849" lon="3.84978">
        <ele>1075.52</ele>
        <time>2025-04-15T15:28:00.515Z</time>
      </trkpt>
      <trkpt lat="44.89839" lon="3.84969">
        <ele>1075.48</ele>
        <time>2025-04-15T15:28:03.152Z</time>
      </trkpt>
      <trkpt lat="44.89824" lon="3.84952">
        <ele>1075.46</ele>
        <time>2025-04-15T15:28:05.792Z</time>
      </trkpt>
      <trkpt lat="44.8981" lon="3.84936">
        <ele>1075.42</ele>
        <time>2025-04-15T15:28:08.435Z</time>
      </trkpt>
      <trkpt lat="44.89796" lon="3.8492">
        <ele>1075.38</ele>
        <time>2025-04-15T15:28:11.081Z</time>
      </trkpt>
      <trkpt lat="44.89789" lon="3.84912">
        <ele>1075.36</ele>
        <time>2025-04-15T15:28:13.728Z</time>
      </trkpt>
      <trkpt lat="44.89782" lon="3.84905">
        <ele>1075.35</ele>
        <time>2025-04-15T15:28:16.377Z</time>
      </trkpt>
      <trkpt lat="44.89761" lon="3.84881">
        <ele>1075.36</ele>
        <time>2025-04-15T15:28:19.030Z</time>
      </trkpt>
      <trkpt lat="44.89742" lon="3.84863">
        <ele>1075.37</ele>
        <time>2025-04-15T15:28:21.687Z</time>
      </trkpt>
      <trkpt lat="44.89712" lon="3.84835">
        <ele>1075.43</ele>
        <time>2025-04-15T15:28:24.349Z</time>
      </trkpt>
      <trkpt lat="44.89679" lon="3.84804">
        <ele>1075.47</ele>
        <time>2025-04-15T15:28:27.018Z</time>
      </trkpt>
      <trkpt lat="44.89668" lon="3.84793">
        <ele>1075.53</ele>
        <time>2025-04-15T15:28:29.689Z</time>
      </trkpt>
      <trkpt lat="44.89653" lon="3.84779">
        <ele>1075.6</ele>
        <time>2025-04-15T15:28:32.363Z</time>
      </trkpt>
      <trkpt lat="44.89645" lon="3.84772">
        <ele>1075.67</ele>
        <time>2025-04-15T15:28:35.038Z</time>
      </trkpt>
      <trkpt lat="44.89627" lon="3.84755">
        <ele>1075.74</ele>
        <time>2025-04-15T15:28:37.717Z</time>
      </trkpt>
      <trkpt lat="44.89627" lon="3.84755">
        <ele>1075.83</ele>
        <time>2025-04-15T15:28:40.396Z</time>
      </trkpt>
      <trkpt lat="44.8962" lon="3.84747">
        <ele>1075.92</ele>
        <time>2025-04-15T15:28:43.076Z</time>
      </trkpt>
      <trkpt lat="44.89612" lon="3.8474">
        <ele>1076.02</ele>
        <time>2025-04-15T15:28:45.758Z</time>
      </trkpt>
      <trkpt lat="44.89591" lon="3.84717">
        <ele>1076.11</ele>
        <time>2025-04-15T15:28:48.444Z</time>
      </trkpt>
      <trkpt lat="44.89583" lon="3.8471">
        <ele>1076.23</ele>
        <time>2025-04-15T15:28:51.132Z</time>
      </trkpt>
      <trkpt lat="44.89576" lon="3.84702">
        <ele>1076.36</ele>
        <time>2025-04-15T15:28:53.821Z</time>
      </trkpt>
      <trkpt lat="44.89573" lon="3.84699">
        <ele>1076.52</ele>
        <time>2025-04-15T15:28:56.511Z</time>
      </trkpt>
      <trkpt lat="44.89558" lon="3.84684">
        <ele>1076.67</ele>
        <time>2025-04-15T15:28:59.204Z</time>
      </trkpt>
      <trkpt lat="44.89543" lon="3.84668">
        <ele>1076.85</ele>
        <time>2025-04-15T15:29:01.900Z</time>
      </trkpt>
      <trkpt lat="44.89544" lon="3.84666">
        <ele>1077.06</ele>
        <time>2025-04-15T15:29:04.596Z</time>
      </trkpt>
      <trkpt lat="44.89564" lon="3.84616">
        <ele>1077.28</ele>
        <time>2025-04-15T15:29:07.298Z</time>
      </trkpt>
      <trkpt lat="44.89565" lon="3.84604">
        <ele>1077.53</ele>
        <time>2025-04-15T15:29:10.002Z</time>
      </trkpt>
      <trkpt lat="44.89567" lon="3.84581">
        <ele>1077.8</ele>
        <time>2025-04-15T15:29:12.708Z</time>
      </trkpt>
      <trkpt lat="44.89566" lon="3.84554">
        <ele>1078.13</ele>
        <time>2025-04-15T15:29:15.418Z</time>
      </trkpt>
      <trkpt lat="44.89565" lon="3.84522">
        <ele>1078.46</ele>
        <time>2025-04-15T15:29:18.131Z</time>
      </trkpt>
      <trkpt lat="44.89564" lon="3.84503">
        <ele>1078.76</ele>
        <time>2025-04-15T15:29:20.846Z</time>
      </trkpt>
      <trkpt lat="44.89563" lon="3.84484">
        <ele>1079.08</ele>
        <time>2025-04-15T15:29:23.563Z</time>
      </trkpt>
      <trkpt lat="44.89563" lon="3.84475">
        <ele>1079.4</ele>
        <time>2025-04-15T15:29:26.281Z</time>
      </trkpt>
      <trkpt lat="44.89565" lon="3.84466">
        <ele>1079.75</ele>
        <time>2025-04-15T15:29:29.001Z</time>
      </trkpt>
      <trkpt lat="44.89568" lon="3.84454">
        <ele>1080.11</ele>
        <time>2025-04-15T15:29:31.722Z</time>
      </trkpt>
      <trkpt lat="44.8957" lon="3.84441">
        <ele>1080.48</ele>
        <time>2025-04-15T15:29:34.444Z</time>
      </trkpt>
      <trkpt lat="44.89574" lon="3.84423">
        <ele>1080.87</ele>
        <time>2025-04-15T15:29:37.169Z</time>
      </trkpt>
      <trkpt lat="44.89577" lon="3.84411">
        <ele>1081.27</ele>
        <time>2025-04-15T15:29:39.895Z</time>
      </trkpt>
      <trkpt lat="44.89584" lon="3.84375">
        <ele>1081.7</ele>
        <time>2025-04-15T15:29:42.625Z</time>
      </trkpt>
      <trkpt lat="44.89585" lon="3.84371">
        <ele>1082.1</ele>
        <time>2025-04-15T15:29:45.356Z</time>
      </trkpt>
      <trkpt lat="44.89585" lon="3.84344">
        <ele>1082.51</ele>
        <time>2025-04-15T15:29:48.090Z</time>
      </trkpt>
      <trkpt lat="44.89584" lon="3.84299">
        <ele>1082.98</ele>
        <time>2025-04-15T15:29:50.829Z</time>
      </trkpt>
      <trkpt lat="44.89583" lon="3.84249">
        <ele>1083.47</ele>
        <time>2025-04-15T15:29:53.574Z</time>
      </trkpt>
      <trkpt lat="44.89583" lon="3.84244">
        <ele>1083.86</ele>
        <time>2025-04-15T15:29:56.319Z</time>
      </trkpt>
      <trkpt lat="44.89585" lon="3.84231">
        <ele>1084.24</ele>
        <time>2025-04-15T15:29:59.066Z</time>
      </trkpt>
      <trkpt lat="44.89586" lon="3.84223">
        <ele>1084.61</ele>
        <time>2025-04-15T15:30:01.814Z</time>
      </trkpt>
      <trkpt lat="44.89589" lon="3.84213">
        <ele>1084.98</ele>
        <time>2025-04-15T15:30:04.563Z</time>
      </trkpt>
      <trkpt lat="44.89595" lon="3.84195">
        <ele>1085.34</ele>
        <time>2025-04-15T15:30:07.314Z</time>
      </trkpt>
      <trkpt lat="44.89598" lon="3.84186">
        <ele>1085.66</ele>
        <time>2025-04-15T15:30:10.066Z</time>
      </trkpt>
      <trkpt lat="44.89602" lon="3.8418">
        <ele>1085.96</ele>
        <time>2025-04-15T15:30:12.819Z</time>
      </trkpt>
      <trkpt lat="44.89615" lon="3.84163">
        <ele>1086.24</ele>
        <time>2025-04-15T15:30:15.575Z</time>
      </trkpt>
      <trkpt lat="44.89616" lon="3.84162">
        <ele>1086.53</ele>
        <time>2025-04-15T15:30:18.331Z</time>
      </trkpt>
      <trkpt lat="44.89639" lon="3.84145">
        <ele>1086.77</ele>
        <time>2025-04-15T15:30:21.091Z</time>
      </trkpt>
      <trkpt lat="44.89652" lon="3.84136">
        <ele>1087.04</ele>
        <time>2025-04-15T15:30:23.854Z</time>
      </trkpt>
      <trkpt lat="44.89659" lon="3.84132">
        <ele>1087.33</ele>
        <time>2025-04-15T15:30:26.618Z</time>
      </trkpt>
      <trkpt lat="44.89676" lon="3.84124">
        <ele>1087.64</ele>
        <time>2025-04-15T15:30:29.385Z</time>
      </trkpt>
      <trkpt lat="44.89684" lon="3.8412">
        <ele>1087.9</ele>
        <time>2025-04-15T15:30:32.153Z</time>
      </trkpt>
      <trkpt lat="44.89693" lon="3.84116">
        <ele>1088.14</ele>
        <time>2025-04-15T15:30:34.923Z</time>
      </trkpt>
      <trkpt lat="44.89706" lon="3.84109">
        <ele>1088.38</ele>
        <time>2025-04-15T15:30:37.695Z</time>
      </trkpt>
      <trkpt lat="44.89714" lon="3.84105">
        <ele>1088.6</ele>
        <time>2025-04-15T15:30:40.468Z</time>
      </trkpt>
      <trkpt lat="44.89735" lon="3.84094">
        <ele>1088.83</ele>
        <time>2025-04-15T15:30:43.245Z</time>
      </trkpt>
      <trkpt lat="44.89756" lon="3.84084">
        <ele>1089.04</ele>
        <time>2025-04-15T15:30:46.025Z</time>
      </trkpt>
      <trkpt lat="44.89773" lon="3.84075">
        <ele>1089.22</ele>
        <time>2025-04-15T15:30:48.808Z</time>
      </trkpt>
      <trkpt lat="44.89827" lon="3.84048">
        <ele>1089.39</ele>
        <time>2025-04-15T15:30:51.601Z</time>
      </trkpt>
      <trkpt lat="44.89848" lon="3.84037">
        <ele>1089.58</ele>
        <time>2025-04-15T15:30:54.397Z</time>
      </trkpt>
      <trkpt lat="44.89857" lon="3.84033">
        <ele>1089.76</ele>
        <time>2025-04-15T15:30:57.195Z</time>
      </trkpt>
      <trkpt lat="44.89865" lon="3.84029">
        <ele>1089.93</ele>
        <time>2025-04-15T15:30:59.994Z</time>
      </trkpt>
      <trkpt lat="44.89899" lon="3.84012">
        <ele>1090.16</ele>
        <time>2025-04-15T15:31:02.799Z</time>
      </trkpt>
      <trkpt lat="44.89903" lon="3.84009">
        <ele>1090.35</ele>
        <time>2025-04-15T15:31:05.604Z</time>
      </trkpt>
      <trkpt lat="44.89928" lon="3.83988">
        <ele>1090.53</ele>
        <time>2025-04-15T15:31:08.414Z</time>
      </trkpt>
      <trkpt lat="44.89929" lon="3.83986">
        <ele>1090.71</ele>
        <time>2025-04-15T15:31:11.224Z</time>
      </trkpt>
      <trkpt lat="44.89951" lon="3.83956">
        <ele>1090.9</ele>
        <time>2025-04-15T15:31:14.039Z</time>
      </trkpt>
      <trkpt lat="44.89955" lon="3.83943">
        <ele>1091.09</ele>
        <time>2025-04-15T15:31:16.856Z</time>
      </trkpt>
      <trkpt lat="44.89966" lon="3.83908">
        <ele>1091.28</ele>
        <time>2025-04-15T15:31:19.677Z</time>
      </trkpt>
      <trkpt lat="44.89976" lon="3.83879">
        <ele>1091.47</ele>
        <time>2025-04-15T15:31:22.502Z</time>
      </trkpt>
      <trkpt lat="44.89985" lon="3.8385">
        <ele>1091.67</ele>
        <time>2025-04-15T15:31:25.330Z</time>
      </trkpt>
      <trkpt lat="44.8999" lon="3.83833">
        <ele>1091.87</ele>
        <time>2025-04-15T15:31:28.161Z</time>
      </trkpt>
      <trkpt lat="44.89996" lon="3.83816">
        <ele>1092.08</ele>
        <time>2025-04-15T15:31:30.994Z</time>
      </trkpt>
      <trkpt lat="44.90011" lon="3.8377">
        <ele>1092.3</ele>
        <time>2025-04-15T15:31:33.833Z</time>
      </trkpt>
      <trkpt lat="44.90018" lon="3.83746">
        <ele>1092.54</ele>
        <time>2025-04-15T15:31:36.674Z</time>
      </trkpt>
      <trkpt lat="44.90021" lon="3.83737">
        <ele>1092.78</ele>
        <time>2025-04-15T15:31:39.517Z</time>
      </trkpt>
      <trkpt lat="44.90022" lon="3.83735">
        <ele>1093.01</ele>
        <time>2025-04-15T15:31:42.360Z</time>
      </trkpt>
      <trkpt lat="44.90041" lon="3.83692">
        <ele>1093.31</ele>
        <time>2025-04-15T15:31:45.209Z</time>
      </trkpt>
      <trkpt lat="44.90046" lon="3.83682">
        <ele>1093.58</ele>
        <time>2025-04-15T15:31:48.059Z</time>
      </trkpt>
      <trkpt lat="44.90051" lon="3.83671">
        <ele>1093.86</ele>
        <time>2025-04-15T15:31:50.911Z</time>
      </trkpt>
      <trkpt lat="44.90056" lon="3.8366">
        <ele>1094.14</ele>
        <time>2025-04-15T15:31:53.764Z</time>
      </trkpt>
      <trkpt lat="44.9006" lon="3.8365">
        <ele>1094.42</ele>
        <time>2025-04-15T15:31:56.618Z</time>
      </trkpt>
      <trkpt lat="44.9008" lon="3.83606">
        <ele>1094.76</ele>
        <time>2025-04-15T15:31:59.478Z</time>
      </trkpt>
      <trkpt lat="44.90083" lon="3.83588">
        <ele>1095.03</ele>
        <time>2025-04-15T15:32:02.340Z</time>
      </trkpt>
      <trkpt lat="44.90088" lon="3.83557">
        <ele>1095.34</ele>
        <time>2025-04-15T15:32:05.206Z</time>
      </trkpt>
      <trkpt lat="44.90092" lon="3.83535">
        <ele>1095.62</ele>
        <time>2025-04-15T15:32:08.075Z</time>
      </trkpt>
      <trkpt lat="44.90094" lon="3.83501">
        <ele>1095.94</ele>
        <time>2025-04-15T15:32:10.947Z</time>
      </trkpt>
      <trkpt lat="44.90096" lon="3.83482">
        <ele>1096.25</ele>
        <time>2025-04-15T15:32:13.822Z</time>
      </trkpt>
      <trkpt lat="44.90097" lon="3.8347">
        <ele>1096.56</ele>
        <time>2025-04-15T15:32:16.698Z</time>
      </trkpt>
      <trkpt lat="44.90097" lon="3.83457">
        <ele>1096.88</ele>
        <time>2025-04-15T15:32:19.575Z</time>
      </trkpt>
      <trkpt lat="44.90099" lon="3.83438">
        <ele>1097.17</ele>
        <time>2025-04-15T15:32:22.455Z</time>
      </trkpt>
      <trkpt lat="44.90102" lon="3.83388">
        <ele>1097.47</ele>
        <time>2025-04-15T15:32:25.340Z</time>
      </trkpt>
      <trkpt lat="44.90103" lon="3.83375">
        <ele>1097.77</ele>
        <time>2025-04-15T15:32:28.227Z</time>
      </trkpt>
      <trkpt lat="44.90106" lon="3.83363">
        <ele>1098.08</ele>
        <time>2025-04-15T15:32:31.115Z</time>
      </trkpt>
      <trkpt lat="44.90108" lon="3.83354">
        <ele>1098.39</ele>
        <time>2025-04-15T15:32:34.004Z</time>
      </trkpt>
      <trkpt lat="44.90112" lon="3.83346">
        <ele>1098.7</ele>
        <time>2025-04-15T15:32:36.894Z</time>
      </trkpt>
      <trkpt lat="44.90118" lon="3.83333">
        <ele>1099.01</ele>
        <time>2025-04-15T15:32:39.786Z</time>
      </trkpt>
      <trkpt lat="44.90123" lon="3.83327">
        <ele>1099.33</ele>
        <time>2025-04-15T15:32:42.679Z</time>
      </trkpt>
      <trkpt lat="44.90133" lon="3.83314">
        <ele>1099.67</ele>
        <time>2025-04-15T15:32:45.574Z</time>
      </trkpt>
      <trkpt lat="44.90164" lon="3.83276">
        <ele>1100.03</ele>
        <time>2025-04-15T15:32:48.476Z</time>
      </trkpt>
      <trkpt lat="44.90166" lon="3.83264">
        <ele>1100.4</ele>
        <time>2025-04-15T15:32:51.379Z</time>
      </trkpt>
      <trkpt lat="44.9017" lon="3.83246">
        <ele>1100.8</ele>
        <time>2025-04-15T15:32:54.285Z</time>
      </trkpt>
      <trkpt lat="44.90174" lon="3.83226">
        <ele>1101.22</ele>
        <time>2025-04-15T15:32:57.193Z</time>
      </trkpt>
      <trkpt lat="44.90174" lon="3.83226">
        <ele>1101.62</ele>
        <time>2025-04-15T15:33:00.101Z</time>
      </trkpt>
      <trkpt lat="44.90174" lon="3.83226">
        <ele>1102.04</ele>
        <time>2025-04-15T15:33:03.009Z</time>
      </trkpt>
      <trkpt lat="44.90174" lon="3.83226">
        <ele>1102.48</ele>
        <time>2025-04-15T15:33:05.917Z</time>
      </trkpt>
      <trkpt lat="44.90175" lon="3.83226">
        <ele>1102.94</ele>
        <time>2025-04-15T15:33:08.825Z</time>
      </trkpt>
      <trkpt lat="44.90179" lon="3.83184">
        <ele>1103.48</ele>
        <time>2025-04-15T15:33:11.738Z</time>
      </trkpt>
      <trkpt lat="44.90184" lon="3.83142">
        <ele>1103.97</ele>
        <time>2025-04-15T15:33:14.656Z</time>
      </trkpt>
      <trkpt lat="44.90188" lon="3.83099">
        <ele>1104.46</ele>
        <time>2025-04-15T15:33:17.579Z</time>
      </trkpt>
      <trkpt lat="44.90193" lon="3.83057">
        <ele>1105.04</ele>
        <time>2025-04-15T15:33:20.506Z</time>
      </trkpt>
      <trkpt lat="44.90197" lon="3.83015">
        <ele>1105.62</ele>
        <time>2025-04-15T15:33:23.438Z</time>
      </trkpt>
      <trkpt lat="44.90201" lon="3.82973">
        <ele>1106.26</ele>
        <time>2025-04-15T15:33:26.375Z</time>
      </trkpt>
      <trkpt lat="44.90204" lon="3.82934">
        <ele>1106.94</ele>
        <time>2025-04-15T15:33:29.317Z</time>
      </trkpt>
      <trkpt lat="44.90201" lon="3.829">
        <ele>1107.68</ele>
        <time>2025-04-15T15:33:32.262Z</time>
      </trkpt>
      <trkpt lat="44.90199" lon="3.82867">
        <ele>1108.41</ele>
        <time>2025-04-15T15:33:35.211Z</time>
      </trkpt>
      <trkpt lat="44.90197" lon="3.82834">
        <ele>1109.12</ele>
        <time>2025-04-15T15:33:38.164Z</time>
      </trkpt>
      <trkpt lat="44.90199" lon="3.82798">
        <ele>1109.88</ele>
        <time>2025-04-15T15:33:41.121Z</time>
      </trkpt>
      <trkpt lat="44.90202" lon="3.82761">
        <ele>1110.73</ele>
        <time>2025-04-15T15:33:44.082Z</time>
      </trkpt>
      <trkpt lat="44.90204" lon="3.82725">
        <ele>1111.57</ele>
        <time>2025-04-15T15:33:47.047Z</time>
      </trkpt>
      <trkpt lat="44.90207" lon="3.82688">
        <ele>1112.39</ele>
        <time>2025-04-15T15:33:50.017Z</time>
      </trkpt>
      <trkpt lat="44.90209" lon="3.82653">
        <ele>1113.27</ele>
        <time>2025-04-15T15:33:52.991Z</time>
      </trkpt>
      <trkpt lat="44.90211" lon="3.82616">
        <ele>1114.19</ele>
        <time>2025-04-15T15:33:55.969Z</time>
      </trkpt>
      <trkpt lat="44.90214" lon="3.8258">
        <ele>1115.14</ele>
        <time>2025-04-15T15:33:58.951Z</time>
      </trkpt>
      <trkpt lat="44.90217" lon="3.82544">
        <ele>1116.16</ele>
        <time>2025-04-15T15:34:01.937Z</time>
      </trkpt>
      <trkpt lat="44.90219" lon="3.82508">
        <ele>1117.18</ele>
        <time>2025-04-15T15:34:04.927Z</time>
      </trkpt>
      <trkpt lat="44.90222" lon="3.82472">
        <ele>1118.24</ele>
        <time>2025-04-15T15:34:07.921Z</time>
      </trkpt>
      <trkpt lat="44.90226" lon="3.82438">
        <ele>1119.27</ele>
        <time>2025-04-15T15:34:10.919Z</time>
      </trkpt>
      <trkpt lat="44.90229" lon="3.82403">
        <ele>1120.34</ele>
        <time>2025-04-15T15:34:13.921Z</time>
      </trkpt>
      <trkpt lat="44.90233" lon="3.82368">
        <ele>1121.41</ele>
        <time>2025-04-15T15:34:16.927Z</time>
      </trkpt>
      <trkpt lat="44.90237" lon="3.82334">
        <ele>1122.5</ele>
        <time>2025-04-15T15:34:19.937Z</time>
      </trkpt>
      <trkpt lat="44.90242" lon="3.82302">
        <ele>1123.63</ele>
        <time>2025-04-15T15:34:22.951Z</time>
      </trkpt>
      <trkpt lat="44.90226" lon="3.82263">
        <ele>1124.8</ele>
        <time>2025-04-15T15:34:25.970Z</time>
      </trkpt>
      <trkpt lat="44.90211" lon="3.82225">
        <ele>1126.07</ele>
        <time>2025-04-15T15:34:28.994Z</time>
      </trkpt>
      <trkpt lat="44.90195" lon="3.82187">
        <ele>1127.31</ele>
        <time>2025-04-15T15:34:32.023Z</time>
      </trkpt>
      <trkpt lat="44.90179" lon="3.82149">
        <ele>1128.58</ele>
        <time>2025-04-15T15:34:35.057Z</time>
      </trkpt>
      <trkpt lat="44.90164" lon="3.82111">
        <ele>1129.99</ele>
        <time>2025-04-15T15:34:38.096Z</time>
      </trkpt>
      <trkpt lat="44.90164" lon="3.82111">
        <ele>1131.25</ele>
        <time>2025-04-15T15:34:41.135Z</time>
      </trkpt>
      <trkpt lat="44.90155" lon="3.82088">
        <ele>1132.63</ele>
        <time>2025-04-15T15:34:44.177Z</time>
      </trkpt>
      <trkpt lat="44.90147" lon="3.82066">
        <ele>1133.97</ele>
        <time>2025-04-15T15:34:47.222Z</time>
      </trkpt>
      <trkpt lat="44.90138" lon="3.82039">
        <ele>1135.26</ele>
        <time>2025-04-15T15:34:50.270Z</time>
      </trkpt>
      <trkpt lat="44.90128" lon="3.82013">
        <ele>1136.55</ele>
        <time>2025-04-15T15:34:53.322Z</time>
      </trkpt>
      <trkpt lat="44.90112" lon="3.8198">
        <ele>1137.91</ele>
        <time>2025-04-15T15:34:56.378Z</time>
      </trkpt>
      <trkpt lat="44.90096" lon="3.81947">
        <ele>1139.34</ele>
        <time>2025-04-15T15:34:59.439Z</time>
      </trkpt>
      <trkpt lat="44.9008" lon="3.81913">
        <ele>1140.77</ele>
        <time>2025-04-15T15:35:02.504Z</time>
      </trkpt>
      <trkpt lat="44.90068" lon="3.81894">
        <ele>1142.23</ele>
        <time>2025-04-15T15:35:05.572Z</time>
      </trkpt>
      <trkpt lat="44.90055" lon="3.81875">
        <ele>1143.72</ele>
        <time>2025-04-15T15:35:08.643Z</time>
      </trkpt>
      <trkpt lat="44.90056" lon="3.81875">
        <ele>1145.19</ele>
        <time>2025-04-15T15:35:11.714Z</time>
      </trkpt>
      <trkpt lat="44.90027" lon="3.81857">
        <ele>1146.75</ele>
        <time>2025-04-15T15:35:14.790Z</time>
      </trkpt>
      <trkpt lat="44.89999" lon="3.8184">
        <ele>1148.29</ele>
        <time>2025-04-15T15:35:17.871Z</time>
      </trkpt>
      <trkpt lat="44.89971" lon="3.81822">
        <ele>1149.85</ele>
        <time>2025-04-15T15:35:20.957Z</time>
      </trkpt>
      <trkpt lat="44.89943" lon="3.81805">
        <ele>1151.45</ele>
        <time>2025-04-15T15:35:24.048Z</time>
      </trkpt>
      <trkpt lat="44.89926" lon="3.81786">
        <ele>1153.08</ele>
        <time>2025-04-15T15:35:27.142Z</time>
      </trkpt>
      <trkpt lat="44.8991" lon="3.81767">
        <ele>1154.74</ele>
        <time>2025-04-15T15:35:30.240Z</time>
      </trkpt>
      <trkpt lat="44.8989" lon="3.81738">
        <ele>1156.41</ele>
        <time>2025-04-15T15:35:33.342Z</time>
      </trkpt>
      <trkpt lat="44.89871" lon="3.81708">
        <ele>1158.06</ele>
        <time>2025-04-15T15:35:36.449Z</time>
      </trkpt>
      <trkpt lat="44.89855" lon="3.81678">
        <ele>1159.73</ele>
        <time>2025-04-15T15:35:39.560Z</time>
      </trkpt>
      <trkpt lat="44.8984" lon="3.81653">
        <ele>1161.43</ele>
        <time>2025-04-15T15:35:42.675Z</time>
      </trkpt>
      <trkpt lat="44.89831" lon="3.81628">
        <ele>1163.13</ele>
        <time>2025-04-15T15:35:45.793Z</time>
      </trkpt>
      <trkpt lat="44.89822" lon="3.81604">
        <ele>1164.82</ele>
        <time>2025-04-15T15:35:48.914Z</time>
      </trkpt>
      <trkpt lat="44.89813" lon="3.81562">
        <ele>1166.51</ele>
        <time>2025-04-15T15:35:52.040Z</time>
      </trkpt>
      <trkpt lat="44.89805" lon="3.81519">
        <ele>1168.19</ele>
        <time>2025-04-15T15:35:55.171Z</time>
      </trkpt>
      <trkpt lat="44.89797" lon="3.81476">
        <ele>1169.79</ele>
        <time>2025-04-15T15:35:58.307Z</time>
      </trkpt>
      <trkpt lat="44.89789" lon="3.81433">
        <ele>1171.31</ele>
        <time>2025-04-15T15:36:01.448Z</time>
      </trkpt>
      <trkpt lat="44.89781" lon="3.81391">
        <ele>1172.8</ele>
        <time>2025-04-15T15:36:04.594Z</time>
      </trkpt>
      <trkpt lat="44.89777" lon="3.8136">
        <ele>1174.25</ele>
        <time>2025-04-15T15:36:07.744Z</time>
      </trkpt>
      <trkpt lat="44.89774" lon="3.8133">
        <ele>1175.71</ele>
        <time>2025-04-15T15:36:10.897Z</time>
      </trkpt>
      <trkpt lat="44.8977" lon="3.813">
        <ele>1177.18</ele>
        <time>2025-04-15T15:36:14.054Z</time>
      </trkpt>
      <trkpt lat="44.8977" lon="3.813">
        <ele>1178.59</ele>
        <time>2025-04-15T15:36:17.211Z</time>
      </trkpt>
      <trkpt lat="44.89768" lon="3.81264">
        <ele>1180.03</ele>
        <time>2025-04-15T15:36:20.372Z</time>
      </trkpt>
      <trkpt lat="44.89765" lon="3.81228">
        <ele>1181.44</ele>
        <time>2025-04-15T15:36:23.537Z</time>
      </trkpt>
      <trkpt lat="44.89762" lon="3.81192">
        <ele>1182.83</ele>
        <time>2025-04-15T15:36:26.706Z</time>
      </trkpt>
      <trkpt lat="44.8976" lon="3.81156">
        <ele>1184.18</ele>
        <time>2025-04-15T15:36:29.879Z</time>
      </trkpt>
      <trkpt lat="44.89757" lon="3.8112">
        <ele>1185.53</ele>
        <time>2025-04-15T15:36:33.056Z</time>
      </trkpt>
      <trkpt lat="44.89755" lon="3.81088">
        <ele>1186.77</ele>
        <time>2025-04-15T15:36:36.237Z</time>
      </trkpt>
      <trkpt lat="44.89748" lon="3.81052">
        <ele>1188.08</ele>
        <time>2025-04-15T15:36:39.422Z</time>
      </trkpt>
      <trkpt lat="44.89741" lon="3.81025">
        <ele>1189.33</ele>
        <time>2025-04-15T15:36:42.611Z</time>
      </trkpt>
      <trkpt lat="44.89732" lon="3.80997">
        <ele>1190.5</ele>
        <time>2025-04-15T15:36:45.803Z</time>
      </trkpt>
      <trkpt lat="44.89723" lon="3.80969">
        <ele>1191.64</ele>
        <time>2025-04-15T15:36:48.998Z</time>
      </trkpt>
      <trkpt lat="44.89712" lon="3.80928">
        <ele>1192.7</ele>
        <time>2025-04-15T15:36:52.198Z</time>
      </trkpt>
      <trkpt lat="44.89701" lon="3.80888">
        <ele>1193.7</ele>
        <time>2025-04-15T15:36:55.403Z</time>
      </trkpt>
      <trkpt lat="44.897" lon="3.80852">
        <ele>1194.66</ele>
        <time>2025-04-15T15:36:58.612Z</time>
      </trkpt>
      <trkpt lat="44.89698" lon="3.80816">
        <ele>1195.58</ele>
        <time>2025-04-15T15:37:01.826Z</time>
      </trkpt>
      <trkpt lat="44.897" lon="3.80776">
        <ele>1196.39</ele>
        <time>2025-04-15T15:37:05.044Z</time>
      </trkpt>
      <trkpt lat="44.89701" lon="3.80736">
        <ele>1197.22</ele>
        <time>2025-04-15T15:37:08.267Z</time>
      </trkpt>
      <trkpt lat="44.89699" lon="3.80704">
        <ele>1198.06</ele>
        <time>2025-04-15T15:37:11.493Z</time>
      </trkpt>
      <trkpt lat="44.89689" lon="3.80677">
        <ele>1198.82</ele>
        <time>2025-04-15T15:37:14.723Z</time>
      </trkpt>
      <trkpt lat="44.8967" lon="3.80656">
        <ele>1199.49</ele>
        <time>2025-04-15T15:37:17.957Z</time>
      </trkpt>
      <trkpt lat="44.89652" lon="3.80634">
        <ele>1200.14</ele>
        <time>2025-04-15T15:37:21.194Z</time>
      </trkpt>
      <trkpt lat="44.89634" lon="3.80612">
        <ele>1200.8</ele>
        <time>2025-04-15T15:37:24.435Z</time>
      </trkpt>
      <trkpt lat="44.89618" lon="3.80581">
        <ele>1201.42</ele>
        <time>2025-04-15T15:37:27.681Z</time>
      </trkpt>
      <trkpt lat="44.89607" lon="3.80543">
        <ele>1201.95</ele>
        <time>2025-04-15T15:37:30.931Z</time>
      </trkpt>
      <trkpt lat="44.89607" lon="3.80543">
        <ele>1202.47</ele>
        <time>2025-04-15T15:37:34.181Z</time>
      </trkpt>
      <trkpt lat="44.8961" lon="3.80521">
        <ele>1202.97</ele>
        <time>2025-04-15T15:37:37.434Z</time>
      </trkpt>
      <trkpt lat="44.89625" lon="3.80531">
        <ele>1203.43</ele>
        <time>2025-04-15T15:37:40.690Z</time>
      </trkpt>
      <trkpt lat="44.89654" lon="3.80549">
        <ele>1203.89</ele>
        <time>2025-04-15T15:37:43.951Z</time>
      </trkpt>
      <trkpt lat="44.8968" lon="3.80559">
        <ele>1204.31</ele>
        <time>2025-04-15T15:37:47.216Z</time>
      </trkpt>
      <trkpt lat="44.89706" lon="3.8057">
        <ele>1204.7</ele>
        <time>2025-04-15T15:37:50.485Z</time>
      </trkpt>
      <trkpt lat="44.89733" lon="3.8058">
        <ele>1205.05</ele>
        <time>2025-04-15T15:37:53.759Z</time>
      </trkpt>
      <trkpt lat="44.89759" lon="3.80591">
        <ele>1205.46</ele>
        <time>2025-04-15T15:37:57.037Z</time>
      </trkpt>
      <trkpt lat="44.89785" lon="3.80601">
        <ele>1205.91</ele>
        <time>2025-04-15T15:38:00.319Z</time>
      </trkpt>
      <trkpt lat="44.89811" lon="3.80612">
        <ele>1206.29</ele>
        <time>2025-04-15T15:38:03.606Z</time>
      </trkpt>
      <trkpt lat="44.89841" lon="3.80623">
        <ele>1206.68</ele>
        <time>2025-04-15T15:38:06.898Z</time>
      </trkpt>
      <trkpt lat="44.8987" lon="3.80634">
        <ele>1207.06</ele>
        <time>2025-04-15T15:38:10.195Z</time>
      </trkpt>
      <trkpt lat="44.899" lon="3.80645">
        <ele>1207.44</ele>
        <time>2025-04-15T15:38:13.496Z</time>
      </trkpt>
      <trkpt lat="44.8993" lon="3.80656">
        <ele>1207.75</ele>
        <time>2025-04-15T15:38:16.802Z</time>
      </trkpt>
      <trkpt lat="44.89959" lon="3.80667">
        <ele>1208.12</ele>
        <time>2025-04-15T15:38:20.113Z</time>
      </trkpt>
      <trkpt lat="44.89989" lon="3.80678">
        <ele>1208.57</ele>
        <time>2025-04-15T15:38:23.429Z</time>
      </trkpt>
      <trkpt lat="44.90019" lon="3.80689">
        <ele>1209.06</ele>
        <time>2025-04-15T15:38:26.750Z</time>
      </trkpt>
      <trkpt lat="44.90037" lon="3.807">
        <ele>1209.54</ele>
        <time>2025-04-15T15:38:30.074Z</time>
      </trkpt>
      <trkpt lat="44.90054" lon="3.80711">
        <ele>1209.97</ele>
        <time>2025-04-15T15:38:33.401Z</time>
      </trkpt>
      <trkpt lat="44.90077" lon="3.80734">
        <ele>1210.32</ele>
        <time>2025-04-15T15:38:36.733Z</time>
      </trkpt>
      <trkpt lat="44.90099" lon="3.80758">
        <ele>1210.63</ele>
        <time>2025-04-15T15:38:40.069Z</time>
      </trkpt>
      <trkpt lat="44.9012" lon="3.80768">
        <ele>1211.03</ele>
        <time>2025-04-15T15:38:43.409Z</time>
      </trkpt>
      <trkpt lat="44.9014" lon="3.80779">
        <ele>1211.4</ele>
        <time>2025-04-15T15:38:46.752Z</time>
      </trkpt>
      <trkpt lat="44.90161" lon="3.80789">
        <ele>1211.79</ele>
        <time>2025-04-15T15:38:50.099Z</time>
      </trkpt>
      <trkpt lat="44.90185" lon="3.80793">
        <ele>1212.22</ele>
        <time>2025-04-15T15:38:53.450Z</time>
      </trkpt>
      <trkpt lat="44.9021" lon="3.80798">
        <ele>1212.66</ele>
        <time>2025-04-15T15:38:56.805Z</time>
      </trkpt>
      <trkpt lat="44.90233" lon="3.80794">
        <ele>1213.14</ele>
        <time>2025-04-15T15:39:00.163Z</time>
      </trkpt>
      <trkpt lat="44.90256" lon="3.8079">
        <ele>1213.56</ele>
        <time>2025-04-15T15:39:03.525Z</time>
      </trkpt>
      <trkpt lat="44.9028" lon="3.80787">
        <ele>1213.91</ele>
        <time>2025-04-15T15:39:06.891Z</time>
      </trkpt>
      <trkpt lat="44.90306" lon="3.80785">
        <ele>1214.26</ele>
        <time>2025-04-15T15:39:10.261Z</time>
      </trkpt>
      <trkpt lat="44.90332" lon="3.80783">
        <ele>1214.65</ele>
        <time>2025-04-15T15:39:13.635Z</time>
      </trkpt>
      <trkpt lat="44.90362" lon="3.80771">
        <ele>1215.09</ele>
        <time>2025-04-15T15:39:17.014Z</time>
      </trkpt>
      <trkpt lat="44.90392" lon="3.8076">
        <ele>1215.54</ele>
        <time>2025-04-15T15:39:20.398Z</time>
      </trkpt>
      <trkpt lat="44.90422" lon="3.80748">
        <ele>1216.09</ele>
        <time>2025-04-15T15:39:23.787Z</time>
      </trkpt>
      <trkpt lat="44.90452" lon="3.80737">
        <ele>1216.69</ele>
        <time>2025-04-15T15:39:27.181Z</time>
      </trkpt>
      <trkpt lat="44.90482" lon="3.80725">
        <ele>1217.17</ele>
        <time>2025-04-15T15:39:30.580Z</time>
      </trkpt>
      <trkpt lat="44.90511" lon="3.80714">
        <ele>1217.72</ele>
        <time>2025-04-15T15:39:33.984Z</time>
      </trkpt>
      <trkpt lat="44.90541" lon="3.80703">
        <ele>1218.31</ele>
        <time>2025-04-15T15:39:37.393Z</time>
      </trkpt>
      <trkpt lat="44.90572" lon="3.80691">
        <ele>1218.81</ele>
        <time>2025-04-15T15:39:40.807Z</time>
      </trkpt>
      <trkpt lat="44.90602" lon="3.8068">
        <ele>1219.38</ele>
        <time>2025-04-15T15:39:44.226Z</time>
      </trkpt>
      <trkpt lat="44.90625" lon="3.80673">
        <ele>1219.98</ele>
        <time>2025-04-15T15:39:47.649Z</time>
      </trkpt>
      <trkpt lat="44.90649" lon="3.80667">
        <ele>1220.55</ele>
        <time>2025-04-15T15:39:51.076Z</time>
      </trkpt>
      <trkpt lat="44.90648" lon="3.80623">
        <ele>1221.24</ele>
        <time>2025-04-15T15:39:54.508Z</time>
      </trkpt>
      <trkpt lat="44.90649" lon="3.8058">
        <ele>1221.87</ele>
        <time>2025-04-15T15:39:57.945Z</time>
      </trkpt>
      <trkpt lat="44.90649" lon="3.80537">
        <ele>1222.55</ele>
        <time>2025-04-15T15:40:01.386Z</time>
      </trkpt>
      <trkpt lat="44.9065" lon="3.80494">
        <ele>1223.29</ele>
        <time>2025-04-15T15:40:04.832Z</time>
      </trkpt>
      <trkpt lat="44.90651" lon="3.80452">
        <ele>1224</ele>
        <time>2025-04-15T15:40:08.283Z</time>
      </trkpt>
      <trkpt lat="44.90654" lon="3.80424">
        <ele>1224.72</ele>
        <time>2025-04-15T15:40:11.737Z</time>
      </trkpt>
      <trkpt lat="44.90656" lon="3.80395">
        <ele>1225.42</ele>
        <time>2025-04-15T15:40:15.195Z</time>
      </trkpt>
      <trkpt lat="44.90665" lon="3.80359">
        <ele>1226.14</ele>
        <time>2025-04-15T15:40:18.657Z</time>
      </trkpt>
      <trkpt lat="44.90675" lon="3.80332">
        <ele>1226.83</ele>
        <time>2025-04-15T15:40:22.122Z</time>
      </trkpt>
      <trkpt lat="44.90683" lon="3.80313">
        <ele>1227.49</ele>
        <time>2025-04-15T15:40:25.590Z</time>
      </trkpt>
      <trkpt lat="44.90692" lon="3.80294">
        <ele>1228.13</ele>
        <time>2025-04-15T15:40:29.060Z</time>
      </trkpt>
      <trkpt lat="44.90711" lon="3.80266">
        <ele>1228.77</ele>
        <time>2025-04-15T15:40:32.535Z</time>
      </trkpt>
      <trkpt lat="44.9073" lon="3.80237">
        <ele>1229.32</ele>
        <time>2025-04-15T15:40:36.014Z</time>
      </trkpt>
      <trkpt lat="44.9075" lon="3.80208">
        <ele>1229.73</ele>
        <time>2025-04-15T15:40:39.498Z</time>
      </trkpt>
      <trkpt lat="44.90769" lon="3.80179">
        <ele>1230.09</ele>
        <time>2025-04-15T15:40:42.986Z</time>
      </trkpt>
      <trkpt lat="44.90788" lon="3.80151">
        <ele>1230.44</ele>
        <time>2025-04-15T15:40:46.479Z</time>
      </trkpt>
      <trkpt lat="44.90798" lon="3.80131">
        <ele>1230.78</ele>
        <time>2025-04-15T15:40:49.975Z</time>
      </trkpt>
      <trkpt lat="44.90808" lon="3.80111">
        <ele>1231.08</ele>
        <time>2025-04-15T15:40:53.473Z</time>
      </trkpt>
      <trkpt lat="44.90817" lon="3.80086">
        <ele>1231.34</ele>
        <time>2025-04-15T15:40:56.975Z</time>
      </trkpt>
      <trkpt lat="44.90831" lon="3.80049">
        <ele>1231.49</ele>
        <time>2025-04-15T15:41:00.481Z</time>
      </trkpt>
      <trkpt lat="44.90842" lon="3.80026">
        <ele>1231.51</ele>
        <time>2025-04-15T15:41:03.991Z</time>
      </trkpt>
      <trkpt lat="44.90853" lon="3.80003">
        <ele>1231.51</ele>
        <time>2025-04-15T15:41:07.504Z</time>
      </trkpt>
      <trkpt lat="44.90869" lon="3.79973">
        <ele>1231.54</ele>
        <time>2025-04-15T15:41:11.021Z</time>
      </trkpt>
      <trkpt lat="44.90886" lon="3.79949">
        <ele>1231.53</ele>
        <time>2025-04-15T15:41:14.542Z</time>
      </trkpt>
      <trkpt lat="44.90903" lon="3.79925">
        <ele>1231.43</ele>
        <time>2025-04-15T15:41:18.067Z</time>
      </trkpt>
      <trkpt lat="44.90903" lon="3.79925">
        <ele>1231.26</ele>
        <time>2025-04-15T15:41:21.592Z</time>
      </trkpt>
      <trkpt lat="44.90917" lon="3.79894">
        <ele>1231.11</ele>
        <time>2025-04-15T15:41:25.121Z</time>
      </trkpt>
      <trkpt lat="44.90932" lon="3.79862">
        <ele>1230.84</ele>
        <time>2025-04-15T15:41:28.654Z</time>
      </trkpt>
      <trkpt lat="44.90946" lon="3.79831">
        <ele>1230.49</ele>
        <time>2025-04-15T15:41:32.191Z</time>
      </trkpt>
      <trkpt lat="44.90949" lon="3.79823">
        <ele>1230.11</ele>
        <time>2025-04-15T15:41:35.729Z</time>
      </trkpt>
      <trkpt lat="44.90967" lon="3.79789">
        <ele>1229.62</ele>
        <time>2025-04-15T15:41:39.272Z</time>
      </trkpt>
      <trkpt lat="44.90984" lon="3.79755">
        <ele>1229.13</ele>
        <time>2025-04-15T15:41:42.820Z</time>
      </trkpt>
      <trkpt lat="44.91002" lon="3.79721">
        <ele>1228.64</ele>
        <time>2025-04-15T15:41:46.373Z</time>
      </trkpt>
      <trkpt lat="44.91008" lon="3.79708">
        <ele>1228.1</ele>
        <time>2025-04-15T15:41:49.928Z</time>
      </trkpt>
      <trkpt lat="44.91008" lon="3.79708">
        <ele>1227.59</ele>
        <time>2025-04-15T15:41:53.483Z</time>
      </trkpt>
      <trkpt lat="44.91027" lon="3.79678">
        <ele>1227.02</ele>
        <time>2025-04-15T15:41:57.042Z</time>
      </trkpt>
      <trkpt lat="44.91046" lon="3.79648">
        <ele>1226.44</ele>
        <time>2025-04-15T15:42:00.606Z</time>
      </trkpt>
      <trkpt lat="44.91064" lon="3.79618">
        <ele>1225.79</ele>
        <time>2025-04-15T15:42:04.174Z</time>
      </trkpt>
      <trkpt lat="44.91083" lon="3.79588">
        <ele>1225.1</ele>
        <time>2025-04-15T15:42:07.747Z</time>
      </trkpt>
      <trkpt lat="44.91102" lon="3.79558">
        <ele>1224.4</ele>
        <time>2025-04-15T15:42:11.324Z</time>
      </trkpt>
      <trkpt lat="44.9112" lon="3.79528">
        <ele>1223.86</ele>
        <time>2025-04-15T15:42:14.906Z</time>
      </trkpt>
      <trkpt lat="44.91139" lon="3.79498">
        <ele>1223.36</ele>
        <time>2025-04-15T15:42:18.492Z</time>
      </trkpt>
      <trkpt lat="44.91157" lon="3.79468">
        <ele>1222.85</ele>
        <time>2025-04-15T15:42:22.083Z</time>
      </trkpt>
      <trkpt lat="44.9117" lon="3.79443">
        <ele>1222.45</ele>
        <time>2025-04-15T15:42:25.677Z</time>
      </trkpt>
      <trkpt lat="44.91182" lon="3.79418">
        <ele>1222.06</ele>
        <time>2025-04-15T15:42:29.275Z</time>
      </trkpt>
      <trkpt lat="44.9119" lon="3.79394">
        <ele>1221.7</ele>
        <time>2025-04-15T15:42:32.876Z</time>
      </trkpt>
      <trkpt lat="44.91197" lon="3.79371">
        <ele>1221.33</ele>
        <time>2025-04-15T15:42:36.480Z</time>
      </trkpt>
      <trkpt lat="44.91201" lon="3.79344">
        <ele>1220.98</ele>
        <time>2025-04-15T15:42:40.087Z</time>
      </trkpt>
      <trkpt lat="44.91206" lon="3.79317">
        <ele>1220.7</ele>
        <time>2025-04-15T15:42:43.697Z</time>
      </trkpt>
      <trkpt lat="44.91207" lon="3.79309">
        <ele>1220.53</ele>
        <time>2025-04-15T15:42:47.308Z</time>
      </trkpt>
      <trkpt lat="44.91207" lon="3.79274">
        <ele>1220.35</ele>
        <time>2025-04-15T15:42:50.923Z</time>
      </trkpt>
      <trkpt lat="44.91201" lon="3.79303">
        <ele>1220.36</ele>
        <time>2025-04-15T15:42:54.541Z</time>
      </trkpt>
      <trkpt lat="44.91196" lon="3.79332">
        <ele>1220.44</ele>
        <time>2025-04-15T15:42:58.163Z</time>
      </trkpt>
      <trkpt lat="44.91191" lon="3.79348">
        <ele>1220.55</ele>
        <time>2025-04-15T15:43:01.787Z</time>
      </trkpt>
      <trkpt lat="44.91191" lon="3.79348">
        <ele>1220.68</ele>
        <time>2025-04-15T15:43:05.411Z</time>
      </trkpt>
      <trkpt lat="44.91191" lon="3.79348">
        <ele>1220.88</ele>
        <time>2025-04-15T15:43:09.035Z</time>
      </trkpt>
      <trkpt lat="44.91191" lon="3.79348">
        <ele>1221.13</ele>
        <time>2025-04-15T15:43:12.659Z</time>
      </trkpt>
      <trkpt lat="44.91191" lon="3.79348">
        <ele>1221.45</ele>
        <time>2025-04-15T15:43:16.283Z</time>
      </trkpt>
      <trkpt lat="44.91196" lon="3.79332">
        <ele>1220.44</ele>
        <time>2025-04-15T15:43:19.909Z</time>
      </trkpt>
      <trkpt lat="44.91201" lon="3.79303">
        <ele>1222.13</ele>
        <time>2025-04-15T15:43:23.538Z</time>
      </trkpt>
      <trkpt lat="44.91207" lon="3.79274">
        <ele>1220.35</ele>
        <time>2025-04-15T15:43:27.170Z</time>
      </trkpt>
      <trkpt lat="44.91207" lon="3.79309">
        <ele>1220.53</ele>
        <time>2025-04-15T15:43:30.806Z</time>
      </trkpt>
      <trkpt lat="44.91206" lon="3.79317">
        <ele>1220.7</ele>
        <time>2025-04-15T15:43:34.443Z</time>
      </trkpt>
      <trkpt lat="44.91201" lon="3.79344">
        <ele>1224.35</ele>
        <time>2025-04-15T15:43:38.083Z</time>
      </trkpt>
      <trkpt lat="44.91197" lon="3.79371">
        <ele>1221.33</ele>
        <time>2025-04-15T15:43:41.727Z</time>
      </trkpt>
      <trkpt lat="44.9119" lon="3.79394">
        <ele>1225.74</ele>
        <time>2025-04-15T15:43:45.373Z</time>
      </trkpt>
      <trkpt lat="44.91182" lon="3.79418">
        <ele>1222.06</ele>
        <time>2025-04-15T15:43:49.022Z</time>
      </trkpt>
      <trkpt lat="44.9117" lon="3.79443">
        <ele>1227.06</ele>
        <time>2025-04-15T15:43:52.675Z</time>
      </trkpt>
      <trkpt lat="44.91157" lon="3.79468">
        <ele>1222.85</ele>
        <time>2025-04-15T15:43:56.331Z</time>
      </trkpt>
      <trkpt lat="44.91139" lon="3.79498">
        <ele>1228.39</ele>
        <time>2025-04-15T15:43:59.992Z</time>
      </trkpt>
      <trkpt lat="44.9112" lon="3.79528">
        <ele>1229.05</ele>
        <time>2025-04-15T15:44:03.657Z</time>
      </trkpt>
      <trkpt lat="44.91101" lon="3.79558">
        <ele>1229.71</ele>
        <time>2025-04-15T15:44:07.327Z</time>
      </trkpt>
      <trkpt lat="44.91083" lon="3.79588">
        <ele>1230.47</ele>
        <time>2025-04-15T15:44:11.001Z</time>
      </trkpt>
      <trkpt lat="44.91064" lon="3.79618">
        <ele>1231.19</ele>
        <time>2025-04-15T15:44:14.680Z</time>
      </trkpt>
      <trkpt lat="44.91045" lon="3.79648">
        <ele>1231.81</ele>
        <time>2025-04-15T15:44:18.364Z</time>
      </trkpt>
      <trkpt lat="44.91027" lon="3.79678">
        <ele>1232.32</ele>
        <time>2025-04-15T15:44:22.052Z</time>
      </trkpt>
      <trkpt lat="44.91008" lon="3.79708">
        <ele>1227.59</ele>
        <time>2025-04-15T15:44:25.745Z</time>
      </trkpt>
      <trkpt lat="44.91008" lon="3.79708">
        <ele>1228.1</ele>
        <time>2025-04-15T15:44:29.438Z</time>
      </trkpt>
      <trkpt lat="44.91002" lon="3.79721">
        <ele>1228.64</ele>
        <time>2025-04-15T15:44:33.132Z</time>
      </trkpt>
      <trkpt lat="44.90984" lon="3.79755">
        <ele>1233.54</ele>
        <time>2025-04-15T15:44:36.831Z</time>
      </trkpt>
      <trkpt lat="44.90967" lon="3.79789">
        <ele>1233.66</ele>
        <time>2025-04-15T15:44:40.535Z</time>
      </trkpt>
      <trkpt lat="44.90949" lon="3.79823">
        <ele>1230.11</ele>
        <time>2025-04-15T15:44:44.244Z</time>
      </trkpt>
      <trkpt lat="44.90946" lon="3.79831">
        <ele>1230.49</ele>
        <time>2025-04-15T15:44:47.954Z</time>
      </trkpt>
      <trkpt lat="44.90932" lon="3.79862">
        <ele>1233.37</ele>
        <time>2025-04-15T15:44:51.668Z</time>
      </trkpt>
      <trkpt lat="44.90917" lon="3.79894">
        <ele>1232.99</ele>
        <time>2025-04-15T15:44:55.386Z</time>
      </trkpt>
      <trkpt lat="44.90903" lon="3.79925">
        <ele>1231.43</ele>
        <time>2025-04-15T15:44:59.109Z</time>
      </trkpt>
      <trkpt lat="44.90906" lon="3.7993">
        <ele>1231.79</ele>
        <time>2025-04-15T15:45:02.832Z</time>
      </trkpt>
      <trkpt lat="44.90921" lon="3.79948">
        <ele>1230.89</ele>
        <time>2025-04-15T15:45:06.558Z</time>
      </trkpt>
      <trkpt lat="44.90921" lon="3.79948">
        <ele>1230.04</ele>
        <time>2025-04-15T15:45:10.284Z</time>
      </trkpt>
      <trkpt lat="44.90944" lon="3.79974">
        <ele>1228.88</ele>
        <time>2025-04-15T15:45:14.015Z</time>
      </trkpt>
      <trkpt lat="44.90967" lon="3.79999">
        <ele>1227.68</ele>
        <time>2025-04-15T15:45:17.751Z</time>
      </trkpt>
      <trkpt lat="44.90985" lon="3.80023">
        <ele>1226.42</ele>
        <time>2025-04-15T15:45:21.491Z</time>
      </trkpt>
      <trkpt lat="44.91003" lon="3.80047">
        <ele>1225.09</ele>
        <time>2025-04-15T15:45:25.235Z</time>
      </trkpt>
      <trkpt lat="44.9102" lon="3.8007">
        <ele>1223.62</ele>
        <time>2025-04-15T15:45:28.982Z</time>
      </trkpt>
      <trkpt lat="44.91039" lon="3.80097">
        <ele>1221.99</ele>
        <time>2025-04-15T15:45:32.734Z</time>
      </trkpt>
      <trkpt lat="44.91059" lon="3.80124">
        <ele>1220.22</ele>
        <time>2025-04-15T15:45:36.490Z</time>
      </trkpt>
      <trkpt lat="44.91078" lon="3.80151">
        <ele>1218.36</ele>
        <time>2025-04-15T15:45:40.251Z</time>
      </trkpt>
      <trkpt lat="44.91097" lon="3.80179">
        <ele>1216.42</ele>
        <time>2025-04-15T15:45:44.016Z</time>
      </trkpt>
      <trkpt lat="44.91116" lon="3.80204">
        <ele>1214.27</ele>
        <time>2025-04-15T15:45:47.785Z</time>
      </trkpt>
      <trkpt lat="44.91135" lon="3.8023">
        <ele>1212</ele>
        <time>2025-04-15T15:45:51.558Z</time>
      </trkpt>
      <trkpt lat="44.91154" lon="3.80256">
        <ele>1209.7</ele>
        <time>2025-04-15T15:45:55.336Z</time>
      </trkpt>
      <trkpt lat="44.91173" lon="3.80282">
        <ele>1207.35</ele>
        <time>2025-04-15T15:45:59.118Z</time>
      </trkpt>
      <trkpt lat="44.91192" lon="3.80307">
        <ele>1204.95</ele>
        <time>2025-04-15T15:46:02.904Z</time>
      </trkpt>
      <trkpt lat="44.91208" lon="3.80327">
        <ele>1202.5</ele>
        <time>2025-04-15T15:46:06.693Z</time>
      </trkpt>
      <trkpt lat="44.91225" lon="3.80347">
        <ele>1200</ele>
        <time>2025-04-15T15:46:10.486Z</time>
      </trkpt>
      <trkpt lat="44.91241" lon="3.80367">
        <ele>1197.43</ele>
        <time>2025-04-15T15:46:14.282Z</time>
      </trkpt>
      <trkpt lat="44.91255" lon="3.80381">
        <ele>1194.77</ele>
        <time>2025-04-15T15:46:18.081Z</time>
      </trkpt>
      <trkpt lat="44.91269" lon="3.80395">
        <ele>1192.03</ele>
        <time>2025-04-15T15:46:21.883Z</time>
      </trkpt>
      <trkpt lat="44.91286" lon="3.80418">
        <ele>1189.2</ele>
        <time>2025-04-15T15:46:25.689Z</time>
      </trkpt>
      <trkpt lat="44.91303" lon="3.80441">
        <ele>1186.35</ele>
        <time>2025-04-15T15:46:29.498Z</time>
      </trkpt>
      <trkpt lat="44.91303" lon="3.80441">
        <ele>1183.6</ele>
        <time>2025-04-15T15:46:33.307Z</time>
      </trkpt>
      <trkpt lat="44.9132" lon="3.80467">
        <ele>1180.67</ele>
        <time>2025-04-15T15:46:37.120Z</time>
      </trkpt>
      <trkpt lat="44.91338" lon="3.80493">
        <ele>1177.72</ele>
        <time>2025-04-15T15:46:40.938Z</time>
      </trkpt>
      <trkpt lat="44.91343" lon="3.80506">
        <ele>1174.86</ele>
        <time>2025-04-15T15:46:44.757Z</time>
      </trkpt>
      <trkpt lat="44.91343" lon="3.80506">
        <ele>1172.05</ele>
        <time>2025-04-15T15:46:48.576Z</time>
      </trkpt>
      <trkpt lat="44.91358" lon="3.80505">
        <ele>1169.18</ele>
        <time>2025-04-15T15:46:52.398Z</time>
      </trkpt>
      <trkpt lat="44.91381" lon="3.80508">
        <ele>1166.28</ele>
        <time>2025-04-15T15:46:56.223Z</time>
      </trkpt>
      <trkpt lat="44.91403" lon="3.80519">
        <ele>1163.4</ele>
        <time>2025-04-15T15:47:00.052Z</time>
      </trkpt>
      <trkpt lat="44.91426" lon="3.8053">
        <ele>1160.52</ele>
        <time>2025-04-15T15:47:03.885Z</time>
      </trkpt>
      <trkpt lat="44.91449" lon="3.80542">
        <ele>1157.65</ele>
        <time>2025-04-15T15:47:07.722Z</time>
      </trkpt>
      <trkpt lat="44.91472" lon="3.80553">
        <ele>1154.85</ele>
        <time>2025-04-15T15:47:11.563Z</time>
      </trkpt>
      <trkpt lat="44.91502" lon="3.80567">
        <ele>1152.08</ele>
        <time>2025-04-15T15:47:15.409Z</time>
      </trkpt>
      <trkpt lat="44.91531" lon="3.80581">
        <ele>1149.31</ele>
        <time>2025-04-15T15:47:19.260Z</time>
      </trkpt>
      <trkpt lat="44.91561" lon="3.80595">
        <ele>1146.63</ele>
        <time>2025-04-15T15:47:23.116Z</time>
      </trkpt>
      <trkpt lat="44.91591" lon="3.80609">
        <ele>1143.96</ele>
        <time>2025-04-15T15:47:26.977Z</time>
      </trkpt>
      <trkpt lat="44.91621" lon="3.80623">
        <ele>1141.29</ele>
        <time>2025-04-15T15:47:30.843Z</time>
      </trkpt>
      <trkpt lat="44.91651" lon="3.80637">
        <ele>1138.67</ele>
        <time>2025-04-15T15:47:34.714Z</time>
      </trkpt>
      <trkpt lat="44.91681" lon="3.80651">
        <ele>1136.16</ele>
        <time>2025-04-15T15:47:38.590Z</time>
      </trkpt>
      <trkpt lat="44.91702" lon="3.80656">
        <ele>1133.77</ele>
        <time>2025-04-15T15:47:42.469Z</time>
      </trkpt>
      <trkpt lat="44.91723" lon="3.80662">
        <ele>1131.47</ele>
        <time>2025-04-15T15:47:46.352Z</time>
      </trkpt>
      <trkpt lat="44.91739" lon="3.80668">
        <ele>1129.25</ele>
        <time>2025-04-15T15:47:50.237Z</time>
      </trkpt>
      <trkpt lat="44.91755" lon="3.80673">
        <ele>1127.1</ele>
        <time>2025-04-15T15:47:54.125Z</time>
      </trkpt>
      <trkpt lat="44.9178" lon="3.80689">
        <ele>1125.02</ele>
        <time>2025-04-15T15:47:58.017Z</time>
      </trkpt>
      <trkpt lat="44.91804" lon="3.80705">
        <ele>1123.02</ele>
        <time>2025-04-15T15:48:01.914Z</time>
      </trkpt>
      <trkpt lat="44.91829" lon="3.8072">
        <ele>1121.1</ele>
        <time>2025-04-15T15:48:05.815Z</time>
      </trkpt>
      <trkpt lat="44.91845" lon="3.80729">
        <ele>1119.28</ele>
        <time>2025-04-15T15:48:09.719Z</time>
      </trkpt>
      <trkpt lat="44.91861" lon="3.80737">
        <ele>1117.54</ele>
        <time>2025-04-15T15:48:13.626Z</time>
      </trkpt>
      <trkpt lat="44.91885" lon="3.80742">
        <ele>1115.87</ele>
        <time>2025-04-15T15:48:17.536Z</time>
      </trkpt>
      <trkpt lat="44.91908" lon="3.80747">
        <ele>1114.3</ele>
        <time>2025-04-15T15:48:21.450Z</time>
      </trkpt>
      <trkpt lat="44.91929" lon="3.80749">
        <ele>1112.84</ele>
        <time>2025-04-15T15:48:25.368Z</time>
      </trkpt>
      <trkpt lat="44.91949" lon="3.80751">
        <ele>1111.49</ele>
        <time>2025-04-15T15:48:29.289Z</time>
      </trkpt>
      <trkpt lat="44.91972" lon="3.80753">
        <ele>1110.27</ele>
        <time>2025-04-15T15:48:33.213Z</time>
      </trkpt>
      <trkpt lat="44.91995" lon="3.80755">
        <ele>1109.17</ele>
        <time>2025-04-15T15:48:37.141Z</time>
      </trkpt>
      <trkpt lat="44.92012" lon="3.8076">
        <ele>1108.13</ele>
        <time>2025-04-15T15:48:41.072Z</time>
      </trkpt>
      <trkpt lat="44.92022" lon="3.8077">
        <ele>1107.15</ele>
        <time>2025-04-15T15:48:45.005Z</time>
      </trkpt>
      <trkpt lat="44.9204" lon="3.80785">
        <ele>1106.25</ele>
        <time>2025-04-15T15:48:48.941Z</time>
      </trkpt>
      <trkpt lat="44.92058" lon="3.808">
        <ele>1105.43</ele>
        <time>2025-04-15T15:48:52.881Z</time>
      </trkpt>
      <trkpt lat="44.92064" lon="3.80804">
        <ele>1104.72</ele>
        <time>2025-04-15T15:48:56.822Z</time>
      </trkpt>
      <trkpt lat="44.92071" lon="3.80807">
        <ele>1104.09</ele>
        <time>2025-04-15T15:49:00.764Z</time>
      </trkpt>
      <trkpt lat="44.92092" lon="3.80818">
        <ele>1103.51</ele>
        <time>2025-04-15T15:49:04.709Z</time>
      </trkpt>
      <trkpt lat="44.92114" lon="3.80828">
        <ele>1103.05</ele>
        <time>2025-04-15T15:49:08.658Z</time>
      </trkpt>
      <trkpt lat="44.92137" lon="3.80837">
        <ele>1102.68</ele>
        <time>2025-04-15T15:49:12.611Z</time>
      </trkpt>
      <trkpt lat="44.92149" lon="3.8085">
        <ele>1102.37</ele>
        <time>2025-04-15T15:49:16.566Z</time>
      </trkpt>
      <trkpt lat="44.92172" lon="3.80852">
        <ele>1102.16</ele>
        <time>2025-04-15T15:49:20.525Z</time>
      </trkpt>
      <trkpt lat="44.92192" lon="3.80861">
        <ele>1101.96</ele>
        <time>2025-04-15T15:49:24.487Z</time>
      </trkpt>
      <trkpt lat="44.92219" lon="3.80866">
        <ele>1101.84</ele>
        <time>2025-04-15T15:49:28.454Z</time>
      </trkpt>
      <trkpt lat="44.92246" lon="3.80872">
        <ele>1101.81</ele>
        <time>2025-04-15T15:49:32.425Z</time>
      </trkpt>
      <trkpt lat="44.92256" lon="3.80876">
        <ele>1101.85</ele>
        <time>2025-04-15T15:49:36.398Z</time>
      </trkpt>
      <trkpt lat="44.9227" lon="3.80873">
        <ele>1101.95</ele>
        <time>2025-04-15T15:49:40.373Z</time>
      </trkpt>
      <trkpt lat="44.92296" lon="3.80863">
        <ele>1102.11</ele>
        <time>2025-04-15T15:49:44.352Z</time>
      </trkpt>
      <trkpt lat="44.92322" lon="3.80853">
        <ele>1102.31</ele>
        <time>2025-04-15T15:49:48.336Z</time>
      </trkpt>
      <trkpt lat="44.92331" lon="3.80857">
        <ele>1102.56</ele>
        <time>2025-04-15T15:49:52.321Z</time>
      </trkpt>
      <trkpt lat="44.92338" lon="3.80865">
        <ele>1102.86</ele>
        <time>2025-04-15T15:49:56.308Z</time>
      </trkpt>
      <trkpt lat="44.92355" lon="3.80881">
        <ele>1103.2</ele>
        <time>2025-04-15T15:50:00.298Z</time>
      </trkpt>
      <trkpt lat="44.92372" lon="3.80893">
        <ele>1103.59</ele>
        <time>2025-04-15T15:50:04.291Z</time>
      </trkpt>
      <trkpt lat="44.92393" lon="3.80894">
        <ele>1104.01</ele>
        <time>2025-04-15T15:50:08.287Z</time>
      </trkpt>
      <trkpt lat="44.92407" lon="3.80889">
        <ele>1104.52</ele>
        <time>2025-04-15T15:50:12.286Z</time>
      </trkpt>
      <trkpt lat="44.92432" lon="3.80866">
        <ele>1105.11</ele>
        <time>2025-04-15T15:50:16.289Z</time>
      </trkpt>
      <trkpt lat="44.92432" lon="3.80866">
        <ele>1105.67</ele>
        <time>2025-04-15T15:50:20.292Z</time>
      </trkpt>
      <trkpt lat="44.92433" lon="3.80865">
        <ele>1106.26</ele>
        <time>2025-04-15T15:50:24.296Z</time>
      </trkpt>
      <trkpt lat="44.92433" lon="3.80865">
        <ele>1106.88</ele>
        <time>2025-04-15T15:50:28.300Z</time>
      </trkpt>
      <trkpt lat="44.92433" lon="3.80865">
        <ele>1107.53</ele>
        <time>2025-04-15T15:50:32.304Z</time>
      </trkpt>
      <trkpt lat="44.92433" lon="3.80865">
        <ele>1108.19</ele>
        <time>2025-04-15T15:50:36.308Z</time>
      </trkpt>
      <trkpt lat="44.92433" lon="3.80865">
        <ele>1108.87</ele>
        <time>2025-04-15T15:50:40.312Z</time>
      </trkpt>
      <trkpt lat="44.9245" lon="3.80847">
        <ele>1109.6</ele>
        <time>2025-04-15T15:50:44.319Z</time>
      </trkpt>
      <trkpt lat="44.92468" lon="3.80828">
        <ele>1110.37</ele>
        <time>2025-04-15T15:50:48.330Z</time>
      </trkpt>
      <trkpt lat="44.92479" lon="3.80817">
        <ele>1111.09</ele>
        <time>2025-04-15T15:50:52.343Z</time>
      </trkpt>
      <trkpt lat="44.92496" lon="3.80799">
        <ele>1111.8</ele>
        <time>2025-04-15T15:50:56.359Z</time>
      </trkpt>
      <trkpt lat="44.92512" lon="3.80781">
        <ele>1112.51</ele>
        <time>2025-04-15T15:51:00.378Z</time>
      </trkpt>
      <trkpt lat="44.92534" lon="3.80757">
        <ele>1113.26</ele>
        <time>2025-04-15T15:51:04.402Z</time>
      </trkpt>
      <trkpt lat="44.92555" lon="3.80734">
        <ele>1114.03</ele>
        <time>2025-04-15T15:51:08.430Z</time>
      </trkpt>
      <trkpt lat="44.92576" lon="3.8071">
        <ele>1114.76</ele>
        <time>2025-04-15T15:51:12.463Z</time>
      </trkpt>
      <trkpt lat="44.92594" lon="3.80688">
        <ele>1115.49</ele>
        <time>2025-04-15T15:51:16.499Z</time>
      </trkpt>
      <trkpt lat="44.92618" lon="3.80672">
        <ele>1116.2</ele>
        <time>2025-04-15T15:51:20.540Z</time>
      </trkpt>
      <trkpt lat="44.92633" lon="3.80654">
        <ele>1116.86</ele>
        <time>2025-04-15T15:51:24.584Z</time>
      </trkpt>
      <trkpt lat="44.92641" lon="3.80648">
        <ele>1117.44</ele>
        <time>2025-04-15T15:51:28.629Z</time>
      </trkpt>
      <trkpt lat="44.92648" lon="3.80647">
        <ele>1117.98</ele>
        <time>2025-04-15T15:51:32.675Z</time>
      </trkpt>
      <trkpt lat="44.92664" lon="3.80648">
        <ele>1118.49</ele>
        <time>2025-04-15T15:51:36.724Z</time>
      </trkpt>
      <trkpt lat="44.9268" lon="3.80649">
        <ele>1118.95</ele>
        <time>2025-04-15T15:51:40.775Z</time>
      </trkpt>
      <trkpt lat="44.92696" lon="3.80641">
        <ele>1119.39</ele>
        <time>2025-04-15T15:51:44.829Z</time>
      </trkpt>
      <trkpt lat="44.92703" lon="3.80634">
        <ele>1119.8</ele>
        <time>2025-04-15T15:51:48.885Z</time>
      </trkpt>
      <trkpt lat="44.92716" lon="3.80625">
        <ele>1120.15</ele>
        <time>2025-04-15T15:51:52.943Z</time>
      </trkpt>
      <trkpt lat="44.92741" lon="3.80622">
        <ele>1120.39</ele>
        <time>2025-04-15T15:51:57.005Z</time>
      </trkpt>
      <trkpt lat="44.92763" lon="3.80621">
        <ele>1120.6</ele>
        <time>2025-04-15T15:52:01.070Z</time>
      </trkpt>
      <trkpt lat="44.92785" lon="3.80619">
        <ele>1120.84</ele>
        <time>2025-04-15T15:52:05.139Z</time>
      </trkpt>
      <trkpt lat="44.92807" lon="3.80618">
        <ele>1121.02</ele>
        <time>2025-04-15T15:52:09.211Z</time>
      </trkpt>
      <trkpt lat="44.92833" lon="3.80618">
        <ele>1121.15</ele>
        <time>2025-04-15T15:52:13.288Z</time>
      </trkpt>
      <trkpt lat="44.92858" lon="3.80618">
        <ele>1121.26</ele>
        <time>2025-04-15T15:52:17.369Z</time>
      </trkpt>
      <trkpt lat="44.92884" lon="3.80617">
        <ele>1121.34</ele>
        <time>2025-04-15T15:52:21.454Z</time>
      </trkpt>
      <trkpt lat="44.92912" lon="3.80611">
        <ele>1121.43</ele>
        <time>2025-04-15T15:52:25.543Z</time>
      </trkpt>
      <trkpt lat="44.92932" lon="3.80596">
        <ele>1121.51</ele>
        <time>2025-04-15T15:52:29.636Z</time>
      </trkpt>
      <trkpt lat="44.92954" lon="3.80581">
        <ele>1121.56</ele>
        <time>2025-04-15T15:52:33.733Z</time>
      </trkpt>
      <trkpt lat="44.92964" lon="3.80574">
        <ele>1121.57</ele>
        <time>2025-04-15T15:52:37.832Z</time>
      </trkpt>
      <trkpt lat="44.92982" lon="3.8057">
        <ele>1121.56</ele>
        <time>2025-04-15T15:52:41.934Z</time>
      </trkpt>
      <trkpt lat="44.93008" lon="3.80568">
        <ele>1121.57</ele>
        <time>2025-04-15T15:52:46.040Z</time>
      </trkpt>
      <trkpt lat="44.93034" lon="3.80566">
        <ele>1121.58</ele>
        <time>2025-04-15T15:52:50.150Z</time>
      </trkpt>
      <trkpt lat="44.93064" lon="3.80573">
        <ele>1121.56</ele>
        <time>2025-04-15T15:52:54.265Z</time>
      </trkpt>
      <trkpt lat="44.93095" lon="3.80579">
        <ele>1121.46</ele>
        <time>2025-04-15T15:52:58.385Z</time>
      </trkpt>
      <trkpt lat="44.93126" lon="3.80586">
        <ele>1121.28</ele>
        <time>2025-04-15T15:53:02.510Z</time>
      </trkpt>
      <trkpt lat="44.93156" lon="3.80593">
        <ele>1121.16</ele>
        <time>2025-04-15T15:53:06.640Z</time>
      </trkpt>
      <trkpt lat="44.93187" lon="3.80599">
        <ele>1121.07</ele>
        <time>2025-04-15T15:53:10.775Z</time>
      </trkpt>
      <trkpt lat="44.93217" lon="3.80606">
        <ele>1120.95</ele>
        <time>2025-04-15T15:53:14.915Z</time>
      </trkpt>
      <trkpt lat="44.93248" lon="3.80613">
        <ele>1120.77</ele>
        <time>2025-04-15T15:53:19.060Z</time>
      </trkpt>
      <trkpt lat="44.93279" lon="3.8062">
        <ele>1120.56</ele>
        <time>2025-04-15T15:53:23.209Z</time>
      </trkpt>
      <trkpt lat="44.93309" lon="3.80626">
        <ele>1120.3</ele>
        <time>2025-04-15T15:53:27.363Z</time>
      </trkpt>
      <trkpt lat="44.9334" lon="3.80633">
        <ele>1119.96</ele>
        <time>2025-04-15T15:53:31.522Z</time>
      </trkpt>
      <trkpt lat="44.93371" lon="3.8064">
        <ele>1119.55</ele>
        <time>2025-04-15T15:53:35.686Z</time>
      </trkpt>
      <trkpt lat="44.93388" lon="3.80643">
        <ele>1119.11</ele>
        <time>2025-04-15T15:53:39.853Z</time>
      </trkpt>
      <trkpt lat="44.93405" lon="3.80645">
        <ele>1118.63</ele>
        <time>2025-04-15T15:53:44.023Z</time>
      </trkpt>
      <trkpt lat="44.93422" lon="3.80645">
        <ele>1118.13</ele>
        <time>2025-04-15T15:53:48.196Z</time>
      </trkpt>
      <trkpt lat="44.93439" lon="3.80645">
        <ele>1117.56</ele>
        <time>2025-04-15T15:53:52.371Z</time>
      </trkpt>
      <trkpt lat="44.93466" lon="3.80638">
        <ele>1116.92</ele>
        <time>2025-04-15T15:53:56.551Z</time>
      </trkpt>
      <trkpt lat="44.93492" lon="3.80631">
        <ele>1116.21</ele>
        <time>2025-04-15T15:54:00.735Z</time>
      </trkpt>
      <trkpt lat="44.93521" lon="3.8062">
        <ele>1115.5</ele>
        <time>2025-04-15T15:54:04.924Z</time>
      </trkpt>
      <trkpt lat="44.9355" lon="3.80608">
        <ele>1114.73</ele>
        <time>2025-04-15T15:54:09.118Z</time>
      </trkpt>
      <trkpt lat="44.93579" lon="3.80597">
        <ele>1113.94</ele>
        <time>2025-04-15T15:54:13.316Z</time>
      </trkpt>
      <trkpt lat="44.93608" lon="3.80586">
        <ele>1113.1</ele>
        <time>2025-04-15T15:54:17.519Z</time>
      </trkpt>
      <trkpt lat="44.93637" lon="3.80574">
        <ele>1112.22</ele>
        <time>2025-04-15T15:54:21.727Z</time>
      </trkpt>
      <trkpt lat="44.93666" lon="3.80563">
        <ele>1111.35</ele>
        <time>2025-04-15T15:54:25.940Z</time>
      </trkpt>
      <trkpt lat="44.93695" lon="3.80551">
        <ele>1110.37</ele>
        <time>2025-04-15T15:54:30.158Z</time>
      </trkpt>
      <trkpt lat="44.93724" lon="3.8054">
        <ele>1109.38</ele>
        <time>2025-04-15T15:54:34.380Z</time>
      </trkpt>
      <trkpt lat="44.93753" lon="3.80528">
        <ele>1108.4</ele>
        <time>2025-04-15T15:54:38.607Z</time>
      </trkpt>
      <trkpt lat="44.93769" lon="3.80517">
        <ele>1107.4</ele>
        <time>2025-04-15T15:54:42.837Z</time>
      </trkpt>
      <trkpt lat="44.93785" lon="3.80506">
        <ele>1106.39</ele>
        <time>2025-04-15T15:54:47.070Z</time>
      </trkpt>
      <trkpt lat="44.9381" lon="3.8048">
        <ele>1105.33</ele>
        <time>2025-04-15T15:54:51.308Z</time>
      </trkpt>
      <trkpt lat="44.93835" lon="3.80454">
        <ele>1104.28</ele>
        <time>2025-04-15T15:54:55.551Z</time>
      </trkpt>
      <trkpt lat="44.9386" lon="3.80428">
        <ele>1103.23</ele>
        <time>2025-04-15T15:54:59.799Z</time>
      </trkpt>
      <trkpt lat="44.93884" lon="3.80403">
        <ele>1102.12</ele>
        <time>2025-04-15T15:55:04.052Z</time>
      </trkpt>
      <trkpt lat="44.93909" lon="3.80377">
        <ele>1101.01</ele>
        <time>2025-04-15T15:55:08.310Z</time>
      </trkpt>
      <trkpt lat="44.93928" lon="3.80352">
        <ele>1099.98</ele>
        <time>2025-04-15T15:55:12.572Z</time>
      </trkpt>
      <trkpt lat="44.93946" lon="3.80327">
        <ele>1098.95</ele>
        <time>2025-04-15T15:55:16.838Z</time>
      </trkpt>
      <trkpt lat="44.93965" lon="3.80296">
        <ele>1097.82</ele>
        <time>2025-04-15T15:55:21.109Z</time>
      </trkpt>
      <trkpt lat="44.93984" lon="3.80265">
        <ele>1096.76</ele>
        <time>2025-04-15T15:55:25.384Z</time>
      </trkpt>
      <trkpt lat="44.94003" lon="3.80234">
        <ele>1095.77</ele>
        <time>2025-04-15T15:55:29.664Z</time>
      </trkpt>
      <trkpt lat="44.94023" lon="3.80203">
        <ele>1094.77</ele>
        <time>2025-04-15T15:55:33.949Z</time>
      </trkpt>
      <trkpt lat="44.94042" lon="3.80173">
        <ele>1093.71</ele>
        <time>2025-04-15T15:55:38.238Z</time>
      </trkpt>
      <trkpt lat="44.94061" lon="3.80142">
        <ele>1092.75</ele>
        <time>2025-04-15T15:55:42.532Z</time>
      </trkpt>
      <trkpt lat="44.9408" lon="3.80111">
        <ele>1091.79</ele>
        <time>2025-04-15T15:55:46.831Z</time>
      </trkpt>
      <trkpt lat="44.94099" lon="3.8008">
        <ele>1090.84</ele>
        <time>2025-04-15T15:55:51.134Z</time>
      </trkpt>
      <trkpt lat="44.94119" lon="3.8005">
        <ele>1090</ele>
        <time>2025-04-15T15:55:55.442Z</time>
      </trkpt>
      <trkpt lat="44.94135" lon="3.80027">
        <ele>1089.22</ele>
        <time>2025-04-15T15:55:59.754Z</time>
      </trkpt>
      <trkpt lat="44.94152" lon="3.80005">
        <ele>1088.47</ele>
        <time>2025-04-15T15:56:04.069Z</time>
      </trkpt>
      <trkpt lat="44.94169" lon="3.79982">
        <ele>1087.7</ele>
        <time>2025-04-15T15:56:08.388Z</time>
      </trkpt>
      <trkpt lat="44.94192" lon="3.79954">
        <ele>1086.88</ele>
        <time>2025-04-15T15:56:12.712Z</time>
      </trkpt>
      <trkpt lat="44.94215" lon="3.79926">
        <ele>1086.08</ele>
        <time>2025-04-15T15:56:17.041Z</time>
      </trkpt>
      <trkpt lat="44.94238" lon="3.79898">
        <ele>1085.4</ele>
        <time>2025-04-15T15:56:21.375Z</time>
      </trkpt>
      <trkpt lat="44.94261" lon="3.7987">
        <ele>1084.78</ele>
        <time>2025-04-15T15:56:25.713Z</time>
      </trkpt>
      <trkpt lat="44.94284" lon="3.79842">
        <ele>1084.13</ele>
        <time>2025-04-15T15:56:30.056Z</time>
      </trkpt>
      <trkpt lat="44.94305" lon="3.79813">
        <ele>1083.55</ele>
        <time>2025-04-15T15:56:34.404Z</time>
      </trkpt>
      <trkpt lat="44.94327" lon="3.79785">
        <ele>1083.03</ele>
        <time>2025-04-15T15:56:38.757Z</time>
      </trkpt>
      <trkpt lat="44.94346" lon="3.7975">
        <ele>1082.56</ele>
        <time>2025-04-15T15:56:43.115Z</time>
      </trkpt>
      <trkpt lat="44.94365" lon="3.79716">
        <ele>1082.07</ele>
        <time>2025-04-15T15:56:47.478Z</time>
      </trkpt>
      <trkpt lat="44.94385" lon="3.79681">
        <ele>1081.64</ele>
        <time>2025-04-15T15:56:51.846Z</time>
      </trkpt>
      <trkpt lat="44.94404" lon="3.79647">
        <ele>1081.22</ele>
        <time>2025-04-15T15:56:56.219Z</time>
      </trkpt>
      <trkpt lat="44.94423" lon="3.79612">
        <ele>1080.79</ele>
        <time>2025-04-15T15:57:00.597Z</time>
      </trkpt>
      <trkpt lat="44.94443" lon="3.79578">
        <ele>1080.37</ele>
        <time>2025-04-15T15:57:04.980Z</time>
      </trkpt>
      <trkpt lat="44.94462" lon="3.79543">
        <ele>1079.93</ele>
        <time>2025-04-15T15:57:09.368Z</time>
      </trkpt>
      <trkpt lat="44.94462" lon="3.79543">
        <ele>1079.54</ele>
        <time>2025-04-15T15:57:13.756Z</time>
      </trkpt>
      <trkpt lat="44.94481" lon="3.79509">
        <ele>1079.08</ele>
        <time>2025-04-15T15:57:18.149Z</time>
      </trkpt>
      <trkpt lat="44.945" lon="3.79478">
        <ele>1078.69</ele>
        <time>2025-04-15T15:57:22.546Z</time>
      </trkpt>
      <trkpt lat="44.94513" lon="3.79465">
        <ele>1078.33</ele>
        <time>2025-04-15T15:57:26.946Z</time>
      </trkpt>
      <trkpt lat="44.94532" lon="3.79448">
        <ele>1077.94</ele>
        <time>2025-04-15T15:57:31.349Z</time>
      </trkpt>
      <trkpt lat="44.94551" lon="3.79431">
        <ele>1077.56</ele>
        <time>2025-04-15T15:57:35.756Z</time>
      </trkpt>
      <trkpt lat="44.9457" lon="3.79414">
        <ele>1077.14</ele>
        <time>2025-04-15T15:57:40.167Z</time>
      </trkpt>
      <trkpt lat="44.94585" lon="3.79397">
        <ele>1076.75</ele>
        <time>2025-04-15T15:57:44.581Z</time>
      </trkpt>
      <trkpt lat="44.946" lon="3.79381">
        <ele>1076.33</ele>
        <time>2025-04-15T15:57:48.998Z</time>
      </trkpt>
      <trkpt lat="44.94621" lon="3.79354">
        <ele>1075.98</ele>
        <time>2025-04-15T15:57:53.419Z</time>
      </trkpt>
      <trkpt lat="44.94642" lon="3.79326">
        <ele>1075.64</ele>
        <time>2025-04-15T15:57:57.845Z</time>
      </trkpt>
      <trkpt lat="44.94664" lon="3.79299">
        <ele>1075.22</ele>
        <time>2025-04-15T15:58:02.276Z</time>
      </trkpt>
      <trkpt lat="44.94679" lon="3.79283">
        <ele>1074.78</ele>
        <time>2025-04-15T15:58:06.710Z</time>
      </trkpt>
      <trkpt lat="44.94682" lon="3.79278">
        <ele>1074.33</ele>
        <time>2025-04-15T15:58:11.144Z</time>
      </trkpt>
      <trkpt lat="44.94688" lon="3.79273">
        <ele>1073.85</ele>
        <time>2025-04-15T15:58:15.579Z</time>
      </trkpt>
      <trkpt lat="44.94713" lon="3.79256">
        <ele>1073.32</ele>
        <time>2025-04-15T15:58:20.019Z</time>
      </trkpt>
      <trkpt lat="44.94735" lon="3.79247">
        <ele>1072.78</ele>
        <time>2025-04-15T15:58:24.463Z</time>
      </trkpt>
      <trkpt lat="44.94752" lon="3.79244">
        <ele>1072.2</ele>
        <time>2025-04-15T15:58:28.909Z</time>
      </trkpt>
      <trkpt lat="44.9478" lon="3.79234">
        <ele>1071.62</ele>
        <time>2025-04-15T15:58:33.360Z</time>
      </trkpt>
      <trkpt lat="44.94798" lon="3.79225">
        <ele>1071.01</ele>
        <time>2025-04-15T15:58:37.814Z</time>
      </trkpt>
      <trkpt lat="44.94816" lon="3.79216">
        <ele>1070.37</ele>
        <time>2025-04-15T15:58:42.271Z</time>
      </trkpt>
      <trkpt lat="44.94838" lon="3.79213">
        <ele>1069.71</ele>
        <time>2025-04-15T15:58:46.732Z</time>
      </trkpt>
      <trkpt lat="44.94861" lon="3.79211">
        <ele>1069</ele>
        <time>2025-04-15T15:58:51.196Z</time>
      </trkpt>
      <trkpt lat="44.94882" lon="3.79204">
        <ele>1068.28</ele>
        <time>2025-04-15T15:58:55.664Z</time>
      </trkpt>
      <trkpt lat="44.94903" lon="3.79198">
        <ele>1067.51</ele>
        <time>2025-04-15T15:59:00.135Z</time>
      </trkpt>
      <trkpt lat="44.94924" lon="3.79187">
        <ele>1066.76</ele>
        <time>2025-04-15T15:59:04.610Z</time>
      </trkpt>
      <trkpt lat="44.94944" lon="3.79176">
        <ele>1066.04</ele>
        <time>2025-04-15T15:59:09.088Z</time>
      </trkpt>
      <trkpt lat="44.94965" lon="3.79165">
        <ele>1065.29</ele>
        <time>2025-04-15T15:59:13.570Z</time>
      </trkpt>
      <trkpt lat="44.94988" lon="3.79147">
        <ele>1064.46</ele>
        <time>2025-04-15T15:59:18.056Z</time>
      </trkpt>
      <trkpt lat="44.95011" lon="3.7913">
        <ele>1063.6</ele>
        <time>2025-04-15T15:59:22.546Z</time>
      </trkpt>
      <trkpt lat="44.95041" lon="3.7912">
        <ele>1062.72</ele>
        <time>2025-04-15T15:59:27.041Z</time>
      </trkpt>
      <trkpt lat="44.9507" lon="3.7911">
        <ele>1061.91</ele>
        <time>2025-04-15T15:59:31.541Z</time>
      </trkpt>
      <trkpt lat="44.95088" lon="3.79103">
        <ele>1061.07</ele>
        <time>2025-04-15T15:59:36.044Z</time>
      </trkpt>
      <trkpt lat="44.95106" lon="3.79097">
        <ele>1060.19</ele>
        <time>2025-04-15T15:59:40.550Z</time>
      </trkpt>
      <trkpt lat="44.9512" lon="3.79087">
        <ele>1059.29</ele>
        <time>2025-04-15T15:59:45.058Z</time>
      </trkpt>
      <trkpt lat="44.95126" lon="3.79079">
        <ele>1058.41</ele>
        <time>2025-04-15T15:59:49.568Z</time>
      </trkpt>
      <trkpt lat="44.95136" lon="3.79063">
        <ele>1057.51</ele>
        <time>2025-04-15T15:59:54.080Z</time>
      </trkpt>
      <trkpt lat="44.95155" lon="3.79029">
        <ele>1056.58</ele>
        <time>2025-04-15T15:59:58.597Z</time>
      </trkpt>
      <trkpt lat="44.95174" lon="3.78995">
        <ele>1055.63</ele>
        <time>2025-04-15T16:00:03.119Z</time>
      </trkpt>
      <trkpt lat="44.95187" lon="3.78968">
        <ele>1054.74</ele>
        <time>2025-04-15T16:00:07.644Z</time>
      </trkpt>
      <trkpt lat="44.95199" lon="3.78941">
        <ele>1053.84</ele>
        <time>2025-04-15T16:00:12.173Z</time>
      </trkpt>
      <trkpt lat="44.9521" lon="3.78925">
        <ele>1052.93</ele>
        <time>2025-04-15T16:00:16.705Z</time>
      </trkpt>
      <trkpt lat="44.95225" lon="3.78916">
        <ele>1052.02</ele>
        <time>2025-04-15T16:00:21.239Z</time>
      </trkpt>
      <trkpt lat="44.95242" lon="3.78911">
        <ele>1051.11</ele>
        <time>2025-04-15T16:00:25.776Z</time>
      </trkpt>
      <trkpt lat="44.95258" lon="3.78915">
        <ele>1050.22</ele>
        <time>2025-04-15T16:00:30.316Z</time>
      </trkpt>
      <trkpt lat="44.95275" lon="3.78918">
        <ele>1049.33</ele>
        <time>2025-04-15T16:00:34.858Z</time>
      </trkpt>
      <trkpt lat="44.95286" lon="3.78912">
        <ele>1048.48</ele>
        <time>2025-04-15T16:00:39.402Z</time>
      </trkpt>
      <trkpt lat="44.95286" lon="3.78912">
        <ele>1047.68</ele>
        <time>2025-04-15T16:00:43.946Z</time>
      </trkpt>
      <trkpt lat="44.95309" lon="3.78886">
        <ele>1046.83</ele>
        <time>2025-04-15T16:00:48.495Z</time>
      </trkpt>
      <trkpt lat="44.95332" lon="3.78859">
        <ele>1046.06</ele>
        <time>2025-04-15T16:00:53.049Z</time>
      </trkpt>
      <trkpt lat="44.95356" lon="3.78833">
        <ele>1045.34</ele>
        <time>2025-04-15T16:00:57.608Z</time>
      </trkpt>
      <trkpt lat="44.95379" lon="3.78806">
        <ele>1044.59</ele>
        <time>2025-04-15T16:01:02.171Z</time>
      </trkpt>
      <trkpt lat="44.95392" lon="3.788">
        <ele>1043.85</ele>
        <time>2025-04-15T16:01:06.737Z</time>
      </trkpt>
      <trkpt lat="44.95405" lon="3.78796">
        <ele>1043.15</ele>
        <time>2025-04-15T16:01:11.305Z</time>
      </trkpt>
      <trkpt lat="44.9542" lon="3.78787">
        <ele>1042.46</ele>
        <time>2025-04-15T16:01:15.875Z</time>
      </trkpt>
      <trkpt lat="44.95437" lon="3.78771">
        <ele>1041.78</ele>
        <time>2025-04-15T16:01:20.449Z</time>
      </trkpt>
      <trkpt lat="44.95453" lon="3.78745">
        <ele>1041.19</ele>
        <time>2025-04-15T16:01:25.027Z</time>
      </trkpt>
      <trkpt lat="44.95463" lon="3.78724">
        <ele>1040.65</ele>
        <time>2025-04-15T16:01:29.607Z</time>
      </trkpt>
      <trkpt lat="44.95474" lon="3.78702">
        <ele>1040.14</ele>
        <time>2025-04-15T16:01:34.190Z</time>
      </trkpt>
      <trkpt lat="44.9549" lon="3.78672">
        <ele>1039.67</ele>
        <time>2025-04-15T16:01:38.778Z</time>
      </trkpt>
      <trkpt lat="44.9551" lon="3.78647">
        <ele>1039.2</ele>
        <time>2025-04-15T16:01:43.370Z</time>
      </trkpt>
      <trkpt lat="44.95534" lon="3.78628">
        <ele>1038.71</ele>
        <time>2025-04-15T16:01:47.966Z</time>
      </trkpt>
      <trkpt lat="44.95554" lon="3.78611">
        <ele>1038.29</ele>
        <time>2025-04-15T16:01:52.566Z</time>
      </trkpt>
      <trkpt lat="44.95574" lon="3.78591">
        <ele>1037.94</ele>
        <time>2025-04-15T16:01:57.170Z</time>
      </trkpt>
      <trkpt lat="44.95594" lon="3.78567">
        <ele>1037.6</ele>
        <time>2025-04-15T16:02:01.778Z</time>
      </trkpt>
      <trkpt lat="44.95614" lon="3.78544">
        <ele>1037.26</ele>
        <time>2025-04-15T16:02:06.390Z</time>
      </trkpt>
      <trkpt lat="44.95633" lon="3.78521">
        <ele>1036.89</ele>
        <time>2025-04-15T16:02:11.006Z</time>
      </trkpt>
      <trkpt lat="44.95653" lon="3.78502">
        <ele>1036.56</ele>
        <time>2025-04-15T16:02:15.626Z</time>
      </trkpt>
      <trkpt lat="44.95672" lon="3.78491">
        <ele>1036.27</ele>
        <time>2025-04-15T16:02:20.250Z</time>
      </trkpt>
      <trkpt lat="44.95691" lon="3.78481">
        <ele>1036.01</ele>
        <time>2025-04-15T16:02:24.877Z</time>
      </trkpt>
      <trkpt lat="44.95713" lon="3.78472">
        <ele>1035.82</ele>
        <time>2025-04-15T16:02:29.507Z</time>
      </trkpt>
      <trkpt lat="44.95731" lon="3.78459">
        <ele>1035.67</ele>
        <time>2025-04-15T16:02:34.141Z</time>
      </trkpt>
      <trkpt lat="44.95747" lon="3.78437">
        <ele>1035.51</ele>
        <time>2025-04-15T16:02:38.778Z</time>
      </trkpt>
      <trkpt lat="44.95763" lon="3.78415">
        <ele>1035.37</ele>
        <time>2025-04-15T16:02:43.419Z</time>
      </trkpt>
      <trkpt lat="44.95773" lon="3.78406">
        <ele>1035.23</ele>
        <time>2025-04-15T16:02:48.062Z</time>
      </trkpt>
      <trkpt lat="44.95791" lon="3.7839">
        <ele>1035.13</ele>
        <time>2025-04-15T16:02:52.708Z</time>
      </trkpt>
      <trkpt lat="44.95806" lon="3.78379">
        <ele>1035.03</ele>
        <time>2025-04-15T16:02:57.357Z</time>
      </trkpt>
      <trkpt lat="44.9582" lon="3.78369">
        <ele>1034.93</ele>
        <time>2025-04-15T16:03:02.008Z</time>
      </trkpt>
      <trkpt lat="44.9584" lon="3.78351">
        <ele>1034.87</ele>
        <time>2025-04-15T16:03:06.663Z</time>
      </trkpt>
      <trkpt lat="44.9586" lon="3.78333">
        <ele>1034.86</ele>
        <time>2025-04-15T16:03:11.322Z</time>
      </trkpt>
      <trkpt lat="44.9588" lon="3.78315">
        <ele>1034.92</ele>
        <time>2025-04-15T16:03:15.985Z</time>
      </trkpt>
      <trkpt lat="44.9591" lon="3.78303">
        <ele>1034.94</ele>
        <time>2025-04-15T16:03:20.653Z</time>
      </trkpt>
      <trkpt lat="44.95922" lon="3.78302">
        <ele>1035</ele>
        <time>2025-04-15T16:03:25.323Z</time>
      </trkpt>
      <trkpt lat="44.95937" lon="3.78303">
        <ele>1035.06</ele>
        <time>2025-04-15T16:03:29.995Z</time>
      </trkpt>
      <trkpt lat="44.95951" lon="3.78303">
        <ele>1035.15</ele>
        <time>2025-04-15T16:03:34.669Z</time>
      </trkpt>
      <trkpt lat="44.95956" lon="3.78303">
        <ele>1035.29</ele>
        <time>2025-04-15T16:03:39.344Z</time>
      </trkpt>
      <trkpt lat="44.95968" lon="3.78293">
        <ele>1035.47</ele>
        <time>2025-04-15T16:03:44.021Z</time>
      </trkpt>
      <trkpt lat="44.95989" lon="3.78268">
        <ele>1035.66</ele>
        <time>2025-04-15T16:03:48.703Z</time>
      </trkpt>
      <trkpt lat="44.96007" lon="3.78243">
        <ele>1035.9</ele>
        <time>2025-04-15T16:03:53.389Z</time>
      </trkpt>
      <trkpt lat="44.96025" lon="3.78218">
        <ele>1036.13</ele>
        <time>2025-04-15T16:03:58.079Z</time>
      </trkpt>
      <trkpt lat="44.96043" lon="3.78193">
        <ele>1036.42</ele>
        <time>2025-04-15T16:04:02.773Z</time>
      </trkpt>
      <trkpt lat="44.9606" lon="3.78171">
        <ele>1036.68</ele>
        <time>2025-04-15T16:04:07.471Z</time>
      </trkpt>
      <trkpt lat="44.96066" lon="3.78165">
        <ele>1036.96</ele>
        <time>2025-04-15T16:04:12.170Z</time>
      </trkpt>
      <trkpt lat="44.96075" lon="3.78156">
        <ele>1037.26</ele>
        <time>2025-04-15T16:04:16.871Z</time>
      </trkpt>
      <trkpt lat="44.96104" lon="3.78139">
        <ele>1037.57</ele>
        <time>2025-04-15T16:04:21.577Z</time>
      </trkpt>
      <trkpt lat="44.96122" lon="3.78127">
        <ele>1037.93</ele>
        <time>2025-04-15T16:04:26.286Z</time>
      </trkpt>
      <trkpt lat="44.96139" lon="3.78115">
        <ele>1038.26</ele>
        <time>2025-04-15T16:04:30.998Z</time>
      </trkpt>
      <trkpt lat="44.96147" lon="3.78108">
        <ele>1038.6</ele>
        <time>2025-04-15T16:04:35.711Z</time>
      </trkpt>
      <trkpt lat="44.96152" lon="3.781">
        <ele>1038.96</ele>
        <time>2025-04-15T16:04:40.425Z</time>
      </trkpt>
      <trkpt lat="44.96161" lon="3.7806">
        <ele>1039.38</ele>
        <time>2025-04-15T16:04:45.144Z</time>
      </trkpt>
      <trkpt lat="44.96174" lon="3.78044">
        <ele>1039.73</ele>
        <time>2025-04-15T16:04:49.866Z</time>
      </trkpt>
      <trkpt lat="44.96187" lon="3.78028">
        <ele>1040.1</ele>
        <time>2025-04-15T16:04:54.591Z</time>
      </trkpt>
      <trkpt lat="44.9621" lon="3.78012">
        <ele>1040.47</ele>
        <time>2025-04-15T16:04:59.320Z</time>
      </trkpt>
      <trkpt lat="44.96226" lon="3.77996">
        <ele>1040.82</ele>
        <time>2025-04-15T16:05:04.052Z</time>
      </trkpt>
      <trkpt lat="44.96239" lon="3.77978">
        <ele>1041.23</ele>
        <time>2025-04-15T16:05:08.787Z</time>
      </trkpt>
      <trkpt lat="44.96251" lon="3.7796">
        <ele>1041.66</ele>
        <time>2025-04-15T16:05:13.525Z</time>
      </trkpt>
      <trkpt lat="44.96267" lon="3.7793">
        <ele>1042.05</ele>
        <time>2025-04-15T16:05:18.267Z</time>
      </trkpt>
      <trkpt lat="44.96279" lon="3.77902">
        <ele>1042.44</ele>
        <time>2025-04-15T16:05:23.013Z</time>
      </trkpt>
      <trkpt lat="44.9629" lon="3.77874">
        <ele>1042.81</ele>
        <time>2025-04-15T16:05:27.762Z</time>
      </trkpt>
      <trkpt lat="44.96299" lon="3.77857">
        <ele>1043.18</ele>
        <time>2025-04-15T16:05:32.514Z</time>
      </trkpt>
      <trkpt lat="44.96308" lon="3.77848">
        <ele>1043.52</ele>
        <time>2025-04-15T16:05:37.268Z</time>
      </trkpt>
      <trkpt lat="44.96329" lon="3.77839">
        <ele>1043.85</ele>
        <time>2025-04-15T16:05:42.025Z</time>
      </trkpt>
      <trkpt lat="44.96349" lon="3.77829">
        <ele>1044.17</ele>
        <time>2025-04-15T16:05:46.785Z</time>
      </trkpt>
      <trkpt lat="44.96369" lon="3.77819">
        <ele>1044.47</ele>
        <time>2025-04-15T16:05:51.549Z</time>
      </trkpt>
      <trkpt lat="44.96386" lon="3.77812">
        <ele>1044.74</ele>
        <time>2025-04-15T16:05:56.316Z</time>
      </trkpt>
      <trkpt lat="44.96403" lon="3.77805">
        <ele>1044.98</ele>
        <time>2025-04-15T16:06:01.085Z</time>
      </trkpt>
      <trkpt lat="44.96412" lon="3.77799">
        <ele>1045.2</ele>
        <time>2025-04-15T16:06:05.856Z</time>
      </trkpt>
      <trkpt lat="44.96429" lon="3.77775">
        <ele>1045.46</ele>
        <time>2025-04-15T16:06:10.631Z</time>
      </trkpt>
      <trkpt lat="44.96447" lon="3.77755">
        <ele>1045.66</ele>
        <time>2025-04-15T16:06:15.410Z</time>
      </trkpt>
      <trkpt lat="44.96465" lon="3.77736">
        <ele>1045.86</ele>
        <time>2025-04-15T16:06:20.192Z</time>
      </trkpt>
      <trkpt lat="44.96486" lon="3.77714">
        <ele>1046.05</ele>
        <time>2025-04-15T16:06:24.978Z</time>
      </trkpt>
      <trkpt lat="44.96509" lon="3.77713">
        <ele>1046.16</ele>
        <time>2025-04-15T16:06:29.768Z</time>
      </trkpt>
      <trkpt lat="44.96523" lon="3.77706">
        <ele>1046.28</ele>
        <time>2025-04-15T16:06:34.560Z</time>
      </trkpt>
      <trkpt lat="44.96545" lon="3.77687">
        <ele>1046.41</ele>
        <time>2025-04-15T16:06:39.357Z</time>
      </trkpt>
      <trkpt lat="44.96568" lon="3.77679">
        <ele>1046.51</ele>
        <time>2025-04-15T16:06:44.157Z</time>
      </trkpt>
      <trkpt lat="44.9659" lon="3.77671">
        <ele>1046.59</ele>
        <time>2025-04-15T16:06:48.961Z</time>
      </trkpt>
      <trkpt lat="44.96612" lon="3.77663">
        <ele>1046.61</ele>
        <time>2025-04-15T16:06:53.769Z</time>
      </trkpt>
      <trkpt lat="44.96634" lon="3.77653">
        <ele>1046.64</ele>
        <time>2025-04-15T16:06:58.580Z</time>
      </trkpt>
      <trkpt lat="44.96656" lon="3.77643">
        <ele>1046.6</ele>
        <time>2025-04-15T16:07:03.395Z</time>
      </trkpt>
      <trkpt lat="44.96681" lon="3.77644">
        <ele>1046.52</ele>
        <time>2025-04-15T16:07:08.214Z</time>
      </trkpt>
      <trkpt lat="44.96706" lon="3.77644">
        <ele>1046.46</ele>
        <time>2025-04-15T16:07:13.037Z</time>
      </trkpt>
      <trkpt lat="44.96706" lon="3.77644">
        <ele>1046.41</ele>
        <time>2025-04-15T16:07:17.860Z</time>
      </trkpt>
      <trkpt lat="44.96715" lon="3.77643">
        <ele>1046.35</ele>
        <time>2025-04-15T16:07:22.684Z</time>
      </trkpt>
      <trkpt lat="44.96722" lon="3.77638">
        <ele>1046.29</ele>
        <time>2025-04-15T16:07:27.510Z</time>
      </trkpt>
      <trkpt lat="44.96732" lon="3.77627">
        <ele>1046.21</ele>
        <time>2025-04-15T16:07:32.338Z</time>
      </trkpt>
      <trkpt lat="44.96752" lon="3.77599">
        <ele>1046.13</ele>
        <time>2025-04-15T16:07:37.170Z</time>
      </trkpt>
      <trkpt lat="44.96764" lon="3.77579">
        <ele>1046.02</ele>
        <time>2025-04-15T16:07:42.005Z</time>
      </trkpt>
      <trkpt lat="44.96775" lon="3.77559">
        <ele>1045.92</ele>
        <time>2025-04-15T16:07:46.843Z</time>
      </trkpt>
      <trkpt lat="44.96796" lon="3.77536">
        <ele>1045.83</ele>
        <time>2025-04-15T16:07:51.685Z</time>
      </trkpt>
      <trkpt lat="44.96818" lon="3.77518">
        <ele>1045.71</ele>
        <time>2025-04-15T16:07:56.531Z</time>
      </trkpt>
      <trkpt lat="44.96841" lon="3.77504">
        <ele>1045.54</ele>
        <time>2025-04-15T16:08:01.382Z</time>
      </trkpt>
      <trkpt lat="44.96866" lon="3.77494">
        <ele>1045.33</ele>
        <time>2025-04-15T16:08:06.237Z</time>
      </trkpt>
      <trkpt lat="44.96891" lon="3.7748">
        <ele>1045.14</ele>
        <time>2025-04-15T16:08:11.096Z</time>
      </trkpt>
      <trkpt lat="44.96917" lon="3.77466">
        <ele>1044.99</ele>
        <time>2025-04-15T16:08:15.959Z</time>
      </trkpt>
      <trkpt lat="44.96936" lon="3.7745">
        <ele>1044.82</ele>
        <time>2025-04-15T16:08:20.826Z</time>
      </trkpt>
      <trkpt lat="44.96955" lon="3.77434">
        <ele>1044.66</ele>
        <time>2025-04-15T16:08:25.697Z</time>
      </trkpt>
      <trkpt lat="44.96975" lon="3.77418">
        <ele>1044.51</ele>
        <time>2025-04-15T16:08:30.571Z</time>
      </trkpt>
      <trkpt lat="44.9699" lon="3.77407">
        <ele>1044.36</ele>
        <time>2025-04-15T16:08:35.448Z</time>
      </trkpt>
      <trkpt lat="44.97005" lon="3.77395">
        <ele>1044.24</ele>
        <time>2025-04-15T16:08:40.328Z</time>
      </trkpt>
      <trkpt lat="44.97029" lon="3.77381">
        <ele>1044.1</ele>
        <time>2025-04-15T16:08:45.212Z</time>
      </trkpt>
      <trkpt lat="44.97054" lon="3.77368">
        <ele>1043.96</ele>
        <time>2025-04-15T16:08:50.100Z</time>
      </trkpt>
      <trkpt lat="44.97079" lon="3.77354">
        <ele>1043.85</ele>
        <time>2025-04-15T16:08:54.992Z</time>
      </trkpt>
      <trkpt lat="44.97089" lon="3.77345">
        <ele>1043.74</ele>
        <time>2025-04-15T16:08:59.886Z</time>
      </trkpt>
      <trkpt lat="44.97103" lon="3.7733">
        <ele>1043.61</ele>
        <time>2025-04-15T16:09:04.783Z</time>
      </trkpt>
      <trkpt lat="44.97114" lon="3.77306">
        <ele>1043.49</ele>
        <time>2025-04-15T16:09:09.683Z</time>
      </trkpt>
      <trkpt lat="44.97125" lon="3.77283">
        <ele>1043.36</ele>
        <time>2025-04-15T16:09:14.586Z</time>
      </trkpt>
      <trkpt lat="44.97143" lon="3.77253">
        <ele>1043.27</ele>
        <time>2025-04-15T16:09:19.494Z</time>
      </trkpt>
      <trkpt lat="44.97161" lon="3.77222">
        <ele>1043.16</ele>
        <time>2025-04-15T16:09:24.406Z</time>
      </trkpt>
      <trkpt lat="44.97178" lon="3.77192">
        <ele>1043.07</ele>
        <time>2025-04-15T16:09:29.323Z</time>
      </trkpt>
      <trkpt lat="44.97196" lon="3.77162">
        <ele>1042.99</ele>
        <time>2025-04-15T16:09:34.244Z</time>
      </trkpt>
      <trkpt lat="44.97214" lon="3.77132">
        <ele>1042.93</ele>
        <time>2025-04-15T16:09:39.170Z</time>
      </trkpt>
      <trkpt lat="44.97232" lon="3.77101">
        <ele>1042.89</ele>
        <time>2025-04-15T16:09:44.100Z</time>
      </trkpt>
      <trkpt lat="44.9724" lon="3.77085">
        <ele>1042.89</ele>
        <time>2025-04-15T16:09:49.032Z</time>
      </trkpt>
      <trkpt lat="44.97247" lon="3.7705">
        <ele>1042.92</ele>
        <time>2025-04-15T16:09:53.969Z</time>
      </trkpt>
      <trkpt lat="44.97255" lon="3.77016">
        <ele>1042.95</ele>
        <time>2025-04-15T16:09:58.910Z</time>
      </trkpt>
      <trkpt lat="44.97265" lon="3.76985">
        <ele>1042.99</ele>
        <time>2025-04-15T16:10:03.855Z</time>
      </trkpt>
      <trkpt lat="44.97279" lon="3.76961">
        <ele>1042.99</ele>
        <time>2025-04-15T16:10:08.803Z</time>
      </trkpt>
      <trkpt lat="44.97295" lon="3.76936">
        <ele>1042.99</ele>
        <time>2025-04-15T16:10:13.755Z</time>
      </trkpt>
      <trkpt lat="44.97311" lon="3.76912">
        <ele>1043.01</ele>
        <time>2025-04-15T16:10:18.711Z</time>
      </trkpt>
      <trkpt lat="44.9733" lon="3.76886">
        <ele>1043.11</ele>
        <time>2025-04-15T16:10:23.671Z</time>
      </trkpt>
      <trkpt lat="44.97341" lon="3.76872">
        <ele>1043.15</ele>
        <time>2025-04-15T16:10:28.633Z</time>
      </trkpt>
      <trkpt lat="44.97351" lon="3.76867">
        <ele>1043.15</ele>
        <time>2025-04-15T16:10:33.597Z</time>
      </trkpt>
      <trkpt lat="44.97366" lon="3.76864">
        <ele>1043.13</ele>
        <time>2025-04-15T16:10:38.563Z</time>
      </trkpt>
      <trkpt lat="44.9739" lon="3.76865">
        <ele>1043.09</ele>
        <time>2025-04-15T16:10:43.533Z</time>
      </trkpt>
      <trkpt lat="44.97414" lon="3.76865">
        <ele>1043.07</ele>
        <time>2025-04-15T16:10:48.507Z</time>
      </trkpt>
      <trkpt lat="44.97443" lon="3.76871">
        <ele>1043.01</ele>
        <time>2025-04-15T16:10:53.486Z</time>
      </trkpt>
      <trkpt lat="44.97454" lon="3.76875">
        <ele>1042.94</ele>
        <time>2025-04-15T16:10:58.467Z</time>
      </trkpt>
      <trkpt lat="44.97467" lon="3.76883">
        <ele>1042.86</ele>
        <time>2025-04-15T16:11:03.450Z</time>
      </trkpt>
      <trkpt lat="44.97486" lon="3.76897">
        <ele>1042.76</ele>
        <time>2025-04-15T16:11:08.436Z</time>
      </trkpt>
      <trkpt lat="44.97505" lon="3.76907">
        <ele>1042.68</ele>
        <time>2025-04-15T16:11:13.426Z</time>
      </trkpt>
      <trkpt lat="44.97524" lon="3.76917">
        <ele>1042.56</ele>
        <time>2025-04-15T16:11:18.419Z</time>
      </trkpt>
      <trkpt lat="44.9754" lon="3.76923">
        <ele>1042.42</ele>
        <time>2025-04-15T16:11:23.414Z</time>
      </trkpt>
      <trkpt lat="44.97551" lon="3.76926">
        <ele>1042.27</ele>
        <time>2025-04-15T16:11:28.411Z</time>
      </trkpt>
      <trkpt lat="44.97561" lon="3.76924">
        <ele>1042.12</ele>
        <time>2025-04-15T16:11:33.410Z</time>
      </trkpt>
      <trkpt lat="44.97574" lon="3.76918">
        <ele>1041.98</ele>
        <time>2025-04-15T16:11:38.411Z</time>
      </trkpt>
      <trkpt lat="44.97596" lon="3.76901">
        <ele>1041.87</ele>
        <time>2025-04-15T16:11:43.416Z</time>
      </trkpt>
      <trkpt lat="44.97617" lon="3.76883">
        <ele>1041.73</ele>
        <time>2025-04-15T16:11:48.425Z</time>
      </trkpt>
      <trkpt lat="44.97639" lon="3.76866">
        <ele>1041.54</ele>
        <time>2025-04-15T16:11:53.438Z</time>
      </trkpt>
      <trkpt lat="44.9766" lon="3.76848">
        <ele>1041.33</ele>
        <time>2025-04-15T16:11:58.455Z</time>
      </trkpt>
      <trkpt lat="44.97671" lon="3.7684">
        <ele>1041.09</ele>
        <time>2025-04-15T16:12:03.474Z</time>
      </trkpt>
      <trkpt lat="44.97691" lon="3.76816">
        <ele>1040.86</ele>
        <time>2025-04-15T16:12:08.497Z</time>
      </trkpt>
      <trkpt lat="44.97711" lon="3.76791">
        <ele>1040.62</ele>
        <time>2025-04-15T16:12:13.524Z</time>
      </trkpt>
      <trkpt lat="44.97721" lon="3.7678">
        <ele>1040.33</ele>
        <time>2025-04-15T16:12:18.554Z</time>
      </trkpt>
      <trkpt lat="44.97735" lon="3.76771">
        <ele>1040.01</ele>
        <time>2025-04-15T16:12:23.586Z</time>
      </trkpt>
      <trkpt lat="44.97759" lon="3.76761">
        <ele>1039.73</ele>
        <time>2025-04-15T16:12:28.622Z</time>
      </trkpt>
      <trkpt lat="44.97782" lon="3.7675">
        <ele>1039.41</ele>
        <time>2025-04-15T16:12:33.662Z</time>
      </trkpt>
      <trkpt lat="44.97805" lon="3.7674">
        <ele>1039.04</ele>
        <time>2025-04-15T16:12:38.706Z</time>
      </trkpt>
      <trkpt lat="44.97829" lon="3.76729">
        <ele>1038.68</ele>
        <time>2025-04-15T16:12:43.754Z</time>
      </trkpt>
      <trkpt lat="44.97845" lon="3.76725">
        <ele>1038.33</ele>
        <time>2025-04-15T16:12:48.804Z</time>
      </trkpt>
      <trkpt lat="44.97862" lon="3.76721">
        <ele>1037.96</ele>
        <time>2025-04-15T16:12:53.857Z</time>
      </trkpt>
      <trkpt lat="44.97885" lon="3.76711">
        <ele>1037.59</ele>
        <time>2025-04-15T16:12:58.914Z</time>
      </trkpt>
      <trkpt lat="44.97905" lon="3.76696">
        <ele>1037.26</ele>
        <time>2025-04-15T16:13:03.975Z</time>
      </trkpt>
      <trkpt lat="44.97921" lon="3.76676">
        <ele>1036.98</ele>
        <time>2025-04-15T16:13:09.039Z</time>
      </trkpt>
      <trkpt lat="44.97938" lon="3.76656">
        <ele>1036.7</ele>
        <time>2025-04-15T16:13:14.106Z</time>
      </trkpt>
      <trkpt lat="44.97954" lon="3.76636">
        <ele>1036.46</ele>
        <time>2025-04-15T16:13:19.177Z</time>
      </trkpt>
      <trkpt lat="44.97974" lon="3.76615">
        <ele>1036.24</ele>
        <time>2025-04-15T16:13:24.252Z</time>
      </trkpt>
      <trkpt lat="44.97994" lon="3.76594">
        <ele>1036</ele>
        <time>2025-04-15T16:13:29.331Z</time>
      </trkpt>
      <trkpt lat="44.98018" lon="3.7657">
        <ele>1035.77</ele>
        <time>2025-04-15T16:13:34.415Z</time>
      </trkpt>
      <trkpt lat="44.98038" lon="3.76558">
        <ele>1035.57</ele>
        <time>2025-04-15T16:13:39.502Z</time>
      </trkpt>
      <trkpt lat="44.98057" lon="3.76549">
        <ele>1035.42</ele>
        <time>2025-04-15T16:13:44.592Z</time>
      </trkpt>
      <trkpt lat="44.98084" lon="3.76544">
        <ele>1035.26</ele>
        <time>2025-04-15T16:13:49.687Z</time>
      </trkpt>
      <trkpt lat="44.98114" lon="3.76542">
        <ele>1035.09</ele>
        <time>2025-04-15T16:13:54.787Z</time>
      </trkpt>
      <trkpt lat="44.98145" lon="3.7654">
        <ele>1034.93</ele>
        <time>2025-04-15T16:13:59.891Z</time>
      </trkpt>
      <trkpt lat="44.98175" lon="3.76538">
        <ele>1034.9</ele>
        <time>2025-04-15T16:14:05.000Z</time>
      </trkpt>
      <trkpt lat="44.98197" lon="3.76535">
        <ele>1034.93</ele>
        <time>2025-04-15T16:14:10.113Z</time>
      </trkpt>
      <trkpt lat="44.98217" lon="3.76517">
        <ele>1035</ele>
        <time>2025-04-15T16:14:15.230Z</time>
      </trkpt>
      <trkpt lat="44.98237" lon="3.76499">
        <ele>1035.06</ele>
        <time>2025-04-15T16:14:20.350Z</time>
      </trkpt>
      <trkpt lat="44.98257" lon="3.7648">
        <ele>1035.11</ele>
        <time>2025-04-15T16:14:25.474Z</time>
      </trkpt>
      <trkpt lat="44.98277" lon="3.76462">
        <ele>1035.25</ele>
        <time>2025-04-15T16:14:30.602Z</time>
      </trkpt>
      <trkpt lat="44.98293" lon="3.76434">
        <ele>1035.43</ele>
        <time>2025-04-15T16:14:35.734Z</time>
      </trkpt>
      <trkpt lat="44.98303" lon="3.76402">
        <ele>1035.69</ele>
        <time>2025-04-15T16:14:40.870Z</time>
      </trkpt>
      <trkpt lat="44.98313" lon="3.76371">
        <ele>1035.95</ele>
        <time>2025-04-15T16:14:46.010Z</time>
      </trkpt>
      <trkpt lat="44.98319" lon="3.76356">
        <ele>1036.22</ele>
        <time>2025-04-15T16:14:51.152Z</time>
      </trkpt>
      <trkpt lat="44.98308" lon="3.76323">
        <ele>1036.54</ele>
        <time>2025-04-15T16:14:56.298Z</time>
      </trkpt>
      <trkpt lat="44.983" lon="3.76313">
        <ele>1036.87</ele>
        <time>2025-04-15T16:15:01.446Z</time>
      </trkpt>
      <trkpt lat="44.98275" lon="3.76304">
        <ele>1037.21</ele>
        <time>2025-04-15T16:15:06.598Z</time>
      </trkpt>
      <trkpt lat="44.98245" lon="3.76296">
        <ele>1037.58</ele>
        <time>2025-04-15T16:15:11.755Z</time>
      </trkpt>
      <trkpt lat="44.98215" lon="3.76287">
        <ele>1037.99</ele>
        <time>2025-04-15T16:15:16.917Z</time>
      </trkpt>
      <trkpt lat="44.98187" lon="3.76273">
        <ele>1038.44</ele>
        <time>2025-04-15T16:15:22.083Z</time>
      </trkpt>
      <trkpt lat="44.98177" lon="3.76249">
        <ele>1038.92</ele>
        <time>2025-04-15T16:15:27.253Z</time>
      </trkpt>
      <trkpt lat="44.98168" lon="3.76217">
        <ele>1039.44</ele>
        <time>2025-04-15T16:15:32.426Z</time>
      </trkpt>
      <trkpt lat="44.98164" lon="3.76182">
        <ele>1039.97</ele>
        <time>2025-04-15T16:15:37.604Z</time>
      </trkpt>
      <trkpt lat="44.98165" lon="3.76158">
        <ele>1040.51</ele>
        <time>2025-04-15T16:15:42.784Z</time>
      </trkpt>
      <trkpt lat="44.98166" lon="3.76134">
        <ele>1041.09</ele>
        <time>2025-04-15T16:15:47.967Z</time>
      </trkpt>
      <trkpt lat="44.98162" lon="3.76117">
        <ele>1041.68</ele>
        <time>2025-04-15T16:15:53.152Z</time>
      </trkpt>
      <trkpt lat="44.98153" lon="3.76103">
        <ele>1042.31</ele>
        <time>2025-04-15T16:15:58.339Z</time>
      </trkpt>
      <trkpt lat="44.98124" lon="3.76089">
        <ele>1043</ele>
        <time>2025-04-15T16:16:03.531Z</time>
      </trkpt>
      <trkpt lat="44.98115" lon="3.76072">
        <ele>1043.7</ele>
        <time>2025-04-15T16:16:08.726Z</time>
      </trkpt>
      <trkpt lat="44.9812" lon="3.7604">
        <ele>1044.39</ele>
        <time>2025-04-15T16:16:13.924Z</time>
      </trkpt>
      <trkpt lat="44.98128" lon="3.76012">
        <ele>1045.1</ele>
        <time>2025-04-15T16:16:19.126Z</time>
      </trkpt>
      <trkpt lat="44.98136" lon="3.75985">
        <ele>1045.83</ele>
        <time>2025-04-15T16:16:24.331Z</time>
      </trkpt>
      <trkpt lat="44.98148" lon="3.7595">
        <ele>1046.56</ele>
        <time>2025-04-15T16:16:29.540Z</time>
      </trkpt>
      <trkpt lat="44.9816" lon="3.75915">
        <ele>1047.29</ele>
        <time>2025-04-15T16:16:34.754Z</time>
      </trkpt>
      <trkpt lat="44.98171" lon="3.7588">
        <ele>1048.08</ele>
        <time>2025-04-15T16:16:39.972Z</time>
      </trkpt>
      <trkpt lat="44.98183" lon="3.75846">
        <ele>1048.89</ele>
        <time>2025-04-15T16:16:45.195Z</time>
      </trkpt>
      <trkpt lat="44.98195" lon="3.75811">
        <ele>1049.69</ele>
        <time>2025-04-15T16:16:50.422Z</time>
      </trkpt>
      <trkpt lat="44.98206" lon="3.75776">
        <ele>1050.49</ele>
        <time>2025-04-15T16:16:55.653Z</time>
      </trkpt>
      <trkpt lat="44.98218" lon="3.75742">
        <ele>1051.29</ele>
        <time>2025-04-15T16:17:00.889Z</time>
      </trkpt>
      <trkpt lat="44.9823" lon="3.75705">
        <ele>1052.12</ele>
        <time>2025-04-15T16:17:06.129Z</time>
      </trkpt>
      <trkpt lat="44.98241" lon="3.75667">
        <ele>1053.04</ele>
        <time>2025-04-15T16:17:11.374Z</time>
      </trkpt>
      <trkpt lat="44.98253" lon="3.75629">
        <ele>1053.91</ele>
        <time>2025-04-15T16:17:16.624Z</time>
      </trkpt>
      <trkpt lat="44.98265" lon="3.75592">
        <ele>1054.74</ele>
        <time>2025-04-15T16:17:21.878Z</time>
      </trkpt>
      <trkpt lat="44.98277" lon="3.75554">
        <ele>1055.6</ele>
        <time>2025-04-15T16:17:27.137Z</time>
      </trkpt>
      <trkpt lat="44.98288" lon="3.75516">
        <ele>1056.54</ele>
        <time>2025-04-15T16:17:32.401Z</time>
      </trkpt>
      <trkpt lat="44.983" lon="3.75479">
        <ele>1057.49</ele>
        <time>2025-04-15T16:17:37.669Z</time>
      </trkpt>
      <trkpt lat="44.98312" lon="3.75441">
        <ele>1058.42</ele>
        <time>2025-04-15T16:17:42.942Z</time>
      </trkpt>
      <trkpt lat="44.98323" lon="3.75404">
        <ele>1059.37</ele>
        <time>2025-04-15T16:17:48.219Z</time>
      </trkpt>
      <trkpt lat="44.9833" lon="3.75381">
        <ele>1060.26</ele>
        <time>2025-04-15T16:17:53.499Z</time>
      </trkpt>
      <trkpt lat="44.98337" lon="3.75358">
        <ele>1061.16</ele>
        <time>2025-04-15T16:17:58.782Z</time>
      </trkpt>
      <trkpt lat="44.98337" lon="3.75358">
        <ele>1062.01</ele>
        <time>2025-04-15T16:18:04.065Z</time>
      </trkpt>
      <trkpt lat="44.98337" lon="3.75358">
        <ele>1062.85</ele>
        <time>2025-04-15T16:18:09.348Z</time>
      </trkpt>
      <trkpt lat="44.98337" lon="3.75358">
        <ele>1063.7</ele>
        <time>2025-04-15T16:18:14.631Z</time>
      </trkpt>
      <trkpt lat="44.98337" lon="3.75358">
        <ele>1064.53</ele>
        <time>2025-04-15T16:18:19.914Z</time>
      </trkpt>
      <trkpt lat="44.98356" lon="3.75325">
        <ele>1065.43</ele>
        <time>2025-04-15T16:18:25.202Z</time>
      </trkpt>
      <trkpt lat="44.98376" lon="3.75293">
        <ele>1066.29</ele>
        <time>2025-04-15T16:18:30.495Z</time>
      </trkpt>
      <trkpt lat="44.98376" lon="3.75293">
        <ele>1067.11</ele>
        <time>2025-04-15T16:18:35.788Z</time>
      </trkpt>
      <trkpt lat="44.98393" lon="3.75258">
        <ele>1067.94</ele>
        <time>2025-04-15T16:18:41.086Z</time>
      </trkpt>
      <trkpt lat="44.9841" lon="3.75224">
        <ele>1068.74</ele>
        <time>2025-04-15T16:18:46.388Z</time>
      </trkpt>
      <trkpt lat="44.98427" lon="3.75189">
        <ele>1069.5</ele>
        <time>2025-04-15T16:18:51.695Z</time>
      </trkpt>
      <trkpt lat="44.98444" lon="3.75155">
        <ele>1070.32</ele>
        <time>2025-04-15T16:18:57.007Z</time>
      </trkpt>
      <trkpt lat="44.98462" lon="3.75121">
        <ele>1071.16</ele>
        <time>2025-04-15T16:19:02.324Z</time>
      </trkpt>
      <trkpt lat="44.98478" lon="3.75085">
        <ele>1071.98</ele>
        <time>2025-04-15T16:19:07.645Z</time>
      </trkpt>
      <trkpt lat="44.98494" lon="3.75049">
        <ele>1072.75</ele>
        <time>2025-04-15T16:19:12.971Z</time>
      </trkpt>
      <trkpt lat="44.9851" lon="3.75014">
        <ele>1073.54</ele>
        <time>2025-04-15T16:19:18.302Z</time>
      </trkpt>
      <trkpt lat="44.98521" lon="3.74986">
        <ele>1074.35</ele>
        <time>2025-04-15T16:19:23.637Z</time>
      </trkpt>
      <trkpt lat="44.98531" lon="3.74958">
        <ele>1075.11</ele>
        <time>2025-04-15T16:19:28.975Z</time>
      </trkpt>
      <trkpt lat="44.98542" lon="3.74931">
        <ele>1075.88</ele>
        <time>2025-04-15T16:19:34.317Z</time>
      </trkpt>
      <trkpt lat="44.98551" lon="3.74904">
        <ele>1076.63</ele>
        <time>2025-04-15T16:19:39.662Z</time>
      </trkpt>
      <trkpt lat="44.98555" lon="3.74875">
        <ele>1077.38</ele>
        <time>2025-04-15T16:19:45.011Z</time>
      </trkpt>
      <trkpt lat="44.98559" lon="3.74846">
        <ele>1078.13</ele>
        <time>2025-04-15T16:19:50.363Z</time>
      </trkpt>
      <trkpt lat="44.98571" lon="3.74811">
        <ele>1078.87</ele>
        <time>2025-04-15T16:19:55.719Z</time>
      </trkpt>
      <trkpt lat="44.98582" lon="3.74776">
        <ele>1079.68</ele>
        <time>2025-04-15T16:20:01.080Z</time>
      </trkpt>
      <trkpt lat="44.98594" lon="3.74741">
        <ele>1080.52</ele>
        <time>2025-04-15T16:20:06.445Z</time>
      </trkpt>
      <trkpt lat="44.98611" lon="3.74713">
        <ele>1081.27</ele>
        <time>2025-04-15T16:20:11.814Z</time>
      </trkpt>
      <trkpt lat="44.98629" lon="3.74685">
        <ele>1082.05</ele>
        <time>2025-04-15T16:20:17.188Z</time>
      </trkpt>
      <trkpt lat="44.98649" lon="3.74662">
        <ele>1082.78</ele>
        <time>2025-04-15T16:20:22.566Z</time>
      </trkpt>
      <trkpt lat="44.98669" lon="3.74638">
        <ele>1083.53</ele>
        <time>2025-04-15T16:20:27.948Z</time>
      </trkpt>
      <trkpt lat="44.98684" lon="3.74625">
        <ele>1084.22</ele>
        <time>2025-04-15T16:20:33.333Z</time>
      </trkpt>
      <trkpt lat="44.987" lon="3.74611">
        <ele>1084.88</ele>
        <time>2025-04-15T16:20:38.721Z</time>
      </trkpt>
      <trkpt lat="44.98722" lon="3.74608">
        <ele>1085.46</ele>
        <time>2025-04-15T16:20:44.112Z</time>
      </trkpt>
      <trkpt lat="44.98744" lon="3.74605">
        <ele>1086.05</ele>
        <time>2025-04-15T16:20:49.507Z</time>
      </trkpt>
      <trkpt lat="44.98752" lon="3.74594">
        <ele>1086.74</ele>
        <time>2025-04-15T16:20:54.904Z</time>
      </trkpt>
      <trkpt lat="44.98781" lon="3.74611">
        <ele>1087.3</ele>
        <time>2025-04-15T16:21:00.306Z</time>
      </trkpt>
      <trkpt lat="44.98791" lon="3.74613">
        <ele>1087.95</ele>
        <time>2025-04-15T16:21:05.709Z</time>
      </trkpt>
      <trkpt lat="44.98796" lon="3.74615">
        <ele>1088.64</ele>
        <time>2025-04-15T16:21:11.113Z</time>
      </trkpt>
      <trkpt lat="44.98811" lon="3.74627">
        <ele>1089.31</ele>
        <time>2025-04-15T16:21:16.520Z</time>
      </trkpt>
      <trkpt lat="44.98833" lon="3.74647">
        <ele>1090.01</ele>
        <time>2025-04-15T16:21:21.931Z</time>
      </trkpt>
      <trkpt lat="44.98855" lon="3.74666">
        <ele>1090.78</ele>
        <time>2025-04-15T16:21:27.346Z</time>
      </trkpt>
      <trkpt lat="44.98862" lon="3.74665">
        <ele>1091.56</ele>
        <time>2025-04-15T16:21:32.762Z</time>
      </trkpt>
      <trkpt lat="44.98865" lon="3.74665">
        <ele>1092.34</ele>
        <time>2025-04-15T16:21:38.179Z</time>
      </trkpt>
      <trkpt lat="44.9887" lon="3.74656">
        <ele>1093.16</ele>
        <time>2025-04-15T16:21:43.597Z</time>
      </trkpt>
      <trkpt lat="44.98879" lon="3.74625">
        <ele>1094.04</ele>
        <time>2025-04-15T16:21:49.019Z</time>
      </trkpt>
      <trkpt lat="44.98895" lon="3.74604">
        <ele>1094.91</ele>
        <time>2025-04-15T16:21:54.444Z</time>
      </trkpt>
      <trkpt lat="44.98911" lon="3.74583">
        <ele>1095.82</ele>
        <time>2025-04-15T16:21:59.873Z</time>
      </trkpt>
      <trkpt lat="44.98927" lon="3.74562">
        <ele>1096.76</ele>
        <time>2025-04-15T16:22:05.305Z</time>
      </trkpt>
      <trkpt lat="44.98943" lon="3.74539">
        <ele>1097.73</ele>
        <time>2025-04-15T16:22:10.741Z</time>
      </trkpt>
      <trkpt lat="44.98953" lon="3.74516">
        <ele>1098.68</ele>
        <time>2025-04-15T16:22:16.180Z</time>
      </trkpt>
      <trkpt lat="44.98964" lon="3.74493">
        <ele>1099.67</ele>
        <time>2025-04-15T16:22:21.622Z</time>
      </trkpt>
      <trkpt lat="44.98974" lon="3.74459">
        <ele>1100.66</ele>
        <time>2025-04-15T16:22:27.068Z</time>
      </trkpt>
      <trkpt lat="44.98985" lon="3.74425">
        <ele>1101.66</ele>
        <time>2025-04-15T16:22:32.519Z</time>
      </trkpt>
      <trkpt lat="44.99008" lon="3.74401">
        <ele>1102.78</ele>
        <time>2025-04-15T16:22:37.974Z</time>
      </trkpt>
      <trkpt lat="44.99031" lon="3.74377">
        <ele>1103.88</ele>
        <time>2025-04-15T16:22:43.434Z</time>
      </trkpt>
      <trkpt lat="44.99047" lon="3.74351">
        <ele>1104.91</ele>
        <time>2025-04-15T16:22:48.898Z</time>
      </trkpt>
      <trkpt lat="44.99063" lon="3.74324">
        <ele>1105.92</ele>
        <time>2025-04-15T16:22:54.366Z</time>
      </trkpt>
      <trkpt lat="44.9908" lon="3.74297">
        <ele>1106.93</ele>
        <time>2025-04-15T16:22:59.838Z</time>
      </trkpt>
      <trkpt lat="44.99096" lon="3.7427">
        <ele>1107.97</ele>
        <time>2025-04-15T16:23:05.314Z</time>
      </trkpt>
      <trkpt lat="44.99092" lon="3.74268">
        <ele>1108.95</ele>
        <time>2025-04-15T16:23:10.790Z</time>
      </trkpt>
      <trkpt lat="44.99092" lon="3.74268">
        <ele>1109.93</ele>
        <time>2025-04-15T16:23:16.266Z</time>
      </trkpt>
      <trkpt lat="44.99074" lon="3.74256">
        <ele>1110.92</ele>
        <time>2025-04-15T16:23:21.746Z</time>
      </trkpt>
      <trkpt lat="44.99055" lon="3.74244">
        <ele>1111.91</ele>
        <time>2025-04-15T16:23:27.229Z</time>
      </trkpt>
      <trkpt lat="44.99035" lon="3.74233">
        <ele>1112.89</ele>
        <time>2025-04-15T16:23:32.715Z</time>
      </trkpt>
      <trkpt lat="44.99015" lon="3.74221">
        <ele>1113.88</ele>
        <time>2025-04-15T16:23:38.205Z</time>
      </trkpt>
      <trkpt lat="44.98997" lon="3.74204">
        <ele>1114.9</ele>
        <time>2025-04-15T16:23:43.698Z</time>
      </trkpt>
      <trkpt lat="44.98979" lon="3.74186">
        <ele>1115.88</ele>
        <time>2025-04-15T16:23:49.195Z</time>
      </trkpt>
      <trkpt lat="44.98966" lon="3.74172">
        <ele>1116.82</ele>
        <time>2025-04-15T16:23:54.694Z</time>
      </trkpt>
      <trkpt lat="44.98954" lon="3.74159">
        <ele>1117.72</ele>
        <time>2025-04-15T16:24:00.196Z</time>
      </trkpt>
      <trkpt lat="44.98934" lon="3.74131">
        <ele>1118.6</ele>
        <time>2025-04-15T16:24:05.702Z</time>
      </trkpt>
      <trkpt lat="44.98929" lon="3.74125">
        <ele>1119.45</ele>
        <time>2025-04-15T16:24:11.209Z</time>
      </trkpt>
      <trkpt lat="44.98908" lon="3.741">
        <ele>1120.29</ele>
        <time>2025-04-15T16:24:16.721Z</time>
      </trkpt>
      <trkpt lat="44.98887" lon="3.74075">
        <ele>1121.1</ele>
        <time>2025-04-15T16:24:22.237Z</time>
      </trkpt>
      <trkpt lat="44.98866" lon="3.7405">
        <ele>1121.92</ele>
        <time>2025-04-15T16:24:27.758Z</time>
      </trkpt>
      <trkpt lat="44.98854" lon="3.74027">
        <ele>1122.73</ele>
        <time>2025-04-15T16:24:33.282Z</time>
      </trkpt>
      <trkpt lat="44.98841" lon="3.74003">
        <ele>1123.52</ele>
        <time>2025-04-15T16:24:38.809Z</time>
      </trkpt>
      <trkpt lat="44.98826" lon="3.73972">
        <ele>1124.23</ele>
        <time>2025-04-15T16:24:44.340Z</time>
      </trkpt>
      <trkpt lat="44.98811" lon="3.73941">
        <ele>1124.94</ele>
        <time>2025-04-15T16:24:49.876Z</time>
      </trkpt>
      <trkpt lat="44.98796" lon="3.7391">
        <ele>1125.65</ele>
        <time>2025-04-15T16:24:55.416Z</time>
      </trkpt>
      <trkpt lat="44.98781" lon="3.7388">
        <ele>1126.34</ele>
        <time>2025-04-15T16:25:00.960Z</time>
      </trkpt>
      <trkpt lat="44.98777" lon="3.73849">
        <ele>1127.04</ele>
        <time>2025-04-15T16:25:06.508Z</time>
      </trkpt>
      <trkpt lat="44.98773" lon="3.7382">
        <ele>1127.71</ele>
        <time>2025-04-15T16:25:12.059Z</time>
      </trkpt>
      <trkpt lat="44.98773" lon="3.73794">
        <ele>1128.34</ele>
        <time>2025-04-15T16:25:17.613Z</time>
      </trkpt>
      <trkpt lat="44.98774" lon="3.73769">
        <ele>1129</ele>
        <time>2025-04-15T16:25:23.170Z</time>
      </trkpt>
      <trkpt lat="44.98775" lon="3.73732">
        <ele>1129.58</ele>
        <time>2025-04-15T16:25:28.731Z</time>
      </trkpt>
      <trkpt lat="44.98776" lon="3.73695">
        <ele>1130.13</ele>
        <time>2025-04-15T16:25:34.296Z</time>
      </trkpt>
      <trkpt lat="44.98772" lon="3.73664">
        <ele>1130.66</ele>
        <time>2025-04-15T16:25:39.865Z</time>
      </trkpt>
      <trkpt lat="44.98767" lon="3.73634">
        <ele>1131.17</ele>
        <time>2025-04-15T16:25:45.437Z</time>
      </trkpt>
      <trkpt lat="44.9876" lon="3.73593">
        <ele>1131.68</ele>
        <time>2025-04-15T16:25:51.014Z</time>
      </trkpt>
      <trkpt lat="44.98753" lon="3.73551">
        <ele>1132.19</ele>
        <time>2025-04-15T16:25:56.596Z</time>
      </trkpt>
      <trkpt lat="44.98746" lon="3.7351">
        <ele>1132.62</ele>
        <time>2025-04-15T16:26:02.183Z</time>
      </trkpt>
      <trkpt lat="44.98739" lon="3.73468">
        <ele>1133.01</ele>
        <time>2025-04-15T16:26:07.775Z</time>
      </trkpt>
      <trkpt lat="44.98732" lon="3.73427">
        <ele>1133.44</ele>
        <time>2025-04-15T16:26:13.372Z</time>
      </trkpt>
      <trkpt lat="44.98725" lon="3.73385">
        <ele>1133.88</ele>
        <time>2025-04-15T16:26:18.973Z</time>
      </trkpt>
      <trkpt lat="44.98718" lon="3.73344">
        <ele>1134.28</ele>
        <time>2025-04-15T16:26:24.579Z</time>
      </trkpt>
      <trkpt lat="44.98712" lon="3.73303">
        <ele>1134.66</ele>
        <time>2025-04-15T16:26:30.190Z</time>
      </trkpt>
      <trkpt lat="44.98703" lon="3.73265">
        <ele>1135.02</ele>
        <time>2025-04-15T16:26:35.806Z</time>
      </trkpt>
      <trkpt lat="44.98695" lon="3.73226">
        <ele>1135.35</ele>
        <time>2025-04-15T16:26:41.426Z</time>
      </trkpt>
      <trkpt lat="44.98687" lon="3.73187">
        <ele>1135.58</ele>
        <time>2025-04-15T16:26:47.051Z</time>
      </trkpt>
      <trkpt lat="44.98679" lon="3.73148">
        <ele>1135.87</ele>
        <time>2025-04-15T16:26:52.680Z</time>
      </trkpt>
      <trkpt lat="44.98671" lon="3.73109">
        <ele>1136.15</ele>
        <time>2025-04-15T16:26:58.314Z</time>
      </trkpt>
      <trkpt lat="44.98663" lon="3.7307">
        <ele>1136.4</ele>
        <time>2025-04-15T16:27:03.953Z</time>
      </trkpt>
      <trkpt lat="44.98655" lon="3.73032">
        <ele>1136.66</ele>
        <time>2025-04-15T16:27:09.596Z</time>
      </trkpt>
      <trkpt lat="44.98647" lon="3.72993">
        <ele>1136.92</ele>
        <time>2025-04-15T16:27:15.244Z</time>
      </trkpt>
      <trkpt lat="44.98647" lon="3.72993">
        <ele>1137.2</ele>
        <time>2025-04-15T16:27:20.892Z</time>
      </trkpt>
      <trkpt lat="44.98639" lon="3.72954">
        <ele>1137.48</ele>
        <time>2025-04-15T16:27:26.544Z</time>
      </trkpt>
      <trkpt lat="44.98631" lon="3.72915">
        <ele>1137.76</ele>
        <time>2025-04-15T16:27:32.201Z</time>
      </trkpt>
      <trkpt lat="44.98624" lon="3.72875">
        <ele>1138.08</ele>
        <time>2025-04-15T16:27:37.863Z</time>
      </trkpt>
      <trkpt lat="44.98617" lon="3.72841">
        <ele>1138.41</ele>
        <time>2025-04-15T16:27:43.529Z</time>
      </trkpt>
      <trkpt lat="44.9861" lon="3.72807">
        <ele>1138.71</ele>
        <time>2025-04-15T16:27:49.199Z</time>
      </trkpt>
      <trkpt lat="44.98601" lon="3.72766">
        <ele>1138.97</ele>
        <time>2025-04-15T16:27:54.874Z</time>
      </trkpt>
      <trkpt lat="44.98593" lon="3.72725">
        <ele>1139.22</ele>
        <time>2025-04-15T16:28:00.553Z</time>
      </trkpt>
      <trkpt lat="44.98584" lon="3.72684">
        <ele>1139.47</ele>
        <time>2025-04-15T16:28:06.237Z</time>
      </trkpt>
      <trkpt lat="44.98576" lon="3.72643">
        <ele>1139.76</ele>
        <time>2025-04-15T16:28:11.926Z</time>
      </trkpt>
      <trkpt lat="44.98568" lon="3.72602">
        <ele>1140.1</ele>
        <time>2025-04-15T16:28:17.620Z</time>
      </trkpt>
      <trkpt lat="44.98559" lon="3.72562">
        <ele>1140.47</ele>
        <time>2025-04-15T16:28:23.319Z</time>
      </trkpt>
      <trkpt lat="44.98551" lon="3.72521">
        <ele>1140.81</ele>
        <time>2025-04-15T16:28:29.023Z</time>
      </trkpt>
      <trkpt lat="44.98543" lon="3.7248">
        <ele>1141.15</ele>
        <time>2025-04-15T16:28:34.731Z</time>
      </trkpt>
      <trkpt lat="44.98534" lon="3.72439">
        <ele>1141.48</ele>
        <time>2025-04-15T16:28:40.444Z</time>
      </trkpt>
      <trkpt lat="44.98526" lon="3.72398">
        <ele>1141.77</ele>
        <time>2025-04-15T16:28:46.162Z</time>
      </trkpt>
      <trkpt lat="44.98517" lon="3.72357">
        <ele>1142.11</ele>
        <time>2025-04-15T16:28:51.885Z</time>
      </trkpt>
      <trkpt lat="44.98509" lon="3.72316">
        <ele>1142.45</ele>
        <time>2025-04-15T16:28:57.613Z</time>
      </trkpt>
      <trkpt lat="44.98501" lon="3.72275">
        <ele>1142.81</ele>
        <time>2025-04-15T16:29:03.346Z</time>
      </trkpt>
      <trkpt lat="44.98492" lon="3.72235">
        <ele>1143.11</ele>
        <time>2025-04-15T16:29:09.083Z</time>
      </trkpt>
      <trkpt lat="44.98484" lon="3.72194">
        <ele>1143.45</ele>
        <time>2025-04-15T16:29:14.825Z</time>
      </trkpt>
      <trkpt lat="44.98476" lon="3.72153">
        <ele>1143.71</ele>
        <time>2025-04-15T16:29:20.572Z</time>
      </trkpt>
      <trkpt lat="44.98467" lon="3.72112">
        <ele>1143.95</ele>
        <time>2025-04-15T16:29:26.324Z</time>
      </trkpt>
      <trkpt lat="44.98459" lon="3.72071">
        <ele>1144.21</ele>
        <time>2025-04-15T16:29:32.081Z</time>
      </trkpt>
      <trkpt lat="44.98451" lon="3.72032">
        <ele>1144.49</ele>
        <time>2025-04-15T16:29:37.842Z</time>
      </trkpt>
      <trkpt lat="44.98451" lon="3.72032">
        <ele>1144.69</ele>
        <time>2025-04-15T16:29:43.603Z</time>
      </trkpt>
      <trkpt lat="44.98443" lon="3.71992">
        <ele>1144.95</ele>
        <time>2025-04-15T16:29:49.369Z</time>
      </trkpt>
      <trkpt lat="44.98434" lon="3.71952">
        <ele>1145.18</ele>
        <time>2025-04-15T16:29:55.140Z</time>
      </trkpt>
      <trkpt lat="44.98426" lon="3.71912">
        <ele>1145.27</ele>
        <time>2025-04-15T16:30:00.915Z</time>
      </trkpt>
      <trkpt lat="44.98418" lon="3.71872">
        <ele>1145.26</ele>
        <time>2025-04-15T16:30:06.695Z</time>
      </trkpt>
      <trkpt lat="44.9841" lon="3.71833">
        <ele>1145.2</ele>
        <time>2025-04-15T16:30:12.480Z</time>
      </trkpt>
      <trkpt lat="44.98404" lon="3.71793">
        <ele>1145.18</ele>
        <time>2025-04-15T16:30:18.270Z</time>
      </trkpt>
      <trkpt lat="44.98397" lon="3.71753">
        <ele>1145.17</ele>
        <time>2025-04-15T16:30:24.064Z</time>
      </trkpt>
      <trkpt lat="44.98398" lon="3.71718">
        <ele>1145.11</ele>
        <time>2025-04-15T16:30:29.862Z</time>
      </trkpt>
      <trkpt lat="44.98398" lon="3.71683">
        <ele>1144.94</ele>
        <time>2025-04-15T16:30:35.664Z</time>
      </trkpt>
      <trkpt lat="44.984" lon="3.71672">
        <ele>1144.68</ele>
        <time>2025-04-15T16:30:41.467Z</time>
      </trkpt>
      <trkpt lat="44.98406" lon="3.71634">
        <ele>1144.37</ele>
        <time>2025-04-15T16:30:47.275Z</time>
      </trkpt>
      <trkpt lat="44.98418" lon="3.71594">
        <ele>1143.96</ele>
        <time>2025-04-15T16:30:53.088Z</time>
      </trkpt>
      <trkpt lat="44.98429" lon="3.71558">
        <ele>1143.5</ele>
        <time>2025-04-15T16:30:58.905Z</time>
      </trkpt>
      <trkpt lat="44.9844" lon="3.71521">
        <ele>1142.98</ele>
        <time>2025-04-15T16:31:04.727Z</time>
      </trkpt>
      <trkpt lat="44.98451" lon="3.71484">
        <ele>1142.39</ele>
        <time>2025-04-15T16:31:10.553Z</time>
      </trkpt>
      <trkpt lat="44.98462" lon="3.71447">
        <ele>1141.71</ele>
        <time>2025-04-15T16:31:16.384Z</time>
      </trkpt>
      <trkpt lat="44.98467" lon="3.71416">
        <ele>1140.91</ele>
        <time>2025-04-15T16:31:22.218Z</time>
      </trkpt>
      <trkpt lat="44.98472" lon="3.71384">
        <ele>1140.05</ele>
        <time>2025-04-15T16:31:28.056Z</time>
      </trkpt>
      <trkpt lat="44.98476" lon="3.71343">
        <ele>1139.07</ele>
        <time>2025-04-15T16:31:33.899Z</time>
      </trkpt>
      <trkpt lat="44.98479" lon="3.71303">
        <ele>1138.04</ele>
        <time>2025-04-15T16:31:39.746Z</time>
      </trkpt>
      <trkpt lat="44.98483" lon="3.71262">
        <ele>1136.9</ele>
        <time>2025-04-15T16:31:45.598Z</time>
      </trkpt>
      <trkpt lat="44.98486" lon="3.71222">
        <ele>1135.71</ele>
        <time>2025-04-15T16:31:51.455Z</time>
      </trkpt>
      <trkpt lat="44.98494" lon="3.71187">
        <ele>1134.49</ele>
        <time>2025-04-15T16:31:57.316Z</time>
      </trkpt>
      <trkpt lat="44.98501" lon="3.71152">
        <ele>1133.18</ele>
        <time>2025-04-15T16:32:03.181Z</time>
      </trkpt>
      <trkpt lat="44.98501" lon="3.71152">
        <ele>1131.85</ele>
        <time>2025-04-15T16:32:09.046Z</time>
      </trkpt>
      <trkpt lat="44.98518" lon="3.71118">
        <ele>1130.36</ele>
        <time>2025-04-15T16:32:14.916Z</time>
      </trkpt>
      <trkpt lat="44.98536" lon="3.71085">
        <ele>1128.79</ele>
        <time>2025-04-15T16:32:20.790Z</time>
      </trkpt>
      <trkpt lat="44.9856" lon="3.71062">
        <ele>1127.15</ele>
        <time>2025-04-15T16:32:26.669Z</time>
      </trkpt>
      <trkpt lat="44.98585" lon="3.7104">
        <ele>1125.5</ele>
        <time>2025-04-15T16:32:32.553Z</time>
      </trkpt>
      <trkpt lat="44.98609" lon="3.7102">
        <ele>1123.84</ele>
        <time>2025-04-15T16:32:38.441Z</time>
      </trkpt>
      <trkpt lat="44.98634" lon="3.71001">
        <ele>1122.14</ele>
        <time>2025-04-15T16:32:44.334Z</time>
      </trkpt>
      <trkpt lat="44.98658" lon="3.70981">
        <ele>1120.37</ele>
        <time>2025-04-15T16:32:50.231Z</time>
      </trkpt>
      <trkpt lat="44.98683" lon="3.70961">
        <ele>1118.56</ele>
        <time>2025-04-15T16:32:56.133Z</time>
      </trkpt>
      <trkpt lat="44.98697" lon="3.70944">
        <ele>1116.77</ele>
        <time>2025-04-15T16:33:02.038Z</time>
      </trkpt>
      <trkpt lat="44.98712" lon="3.70926">
        <ele>1114.99</ele>
        <time>2025-04-15T16:33:07.946Z</time>
      </trkpt>
      <trkpt lat="44.98729" lon="3.70896">
        <ele>1113.12</ele>
        <time>2025-04-15T16:33:13.858Z</time>
      </trkpt>
      <trkpt lat="44.9874" lon="3.70865">
        <ele>1111.19</ele>
        <time>2025-04-15T16:33:19.774Z</time>
      </trkpt>
      <trkpt lat="44.98751" lon="3.7083">
        <ele>1109.28</ele>
        <time>2025-04-15T16:33:25.695Z</time>
      </trkpt>
      <trkpt lat="44.98754" lon="3.70806">
        <ele>1107.45</ele>
        <time>2025-04-15T16:33:31.618Z</time>
      </trkpt>
      <trkpt lat="44.98758" lon="3.70782">
        <ele>1105.64</ele>
        <time>2025-04-15T16:33:37.544Z</time>
      </trkpt>
      <trkpt lat="44.98755" lon="3.70749">
        <ele>1103.78</ele>
        <time>2025-04-15T16:33:43.474Z</time>
      </trkpt>
      <trkpt lat="44.98752" lon="3.70716">
        <ele>1101.95</ele>
        <time>2025-04-15T16:33:49.408Z</time>
      </trkpt>
      <trkpt lat="44.98745" lon="3.70681">
        <ele>1100.09</ele>
        <time>2025-04-15T16:33:55.346Z</time>
      </trkpt>
      <trkpt lat="44.98737" lon="3.70645">
        <ele>1098.32</ele>
        <time>2025-04-15T16:34:01.288Z</time>
      </trkpt>
      <trkpt lat="44.9873" lon="3.70611">
        <ele>1096.47</ele>
        <time>2025-04-15T16:34:07.234Z</time>
      </trkpt>
      <trkpt lat="44.98723" lon="3.70577">
        <ele>1094.59</ele>
        <time>2025-04-15T16:34:13.184Z</time>
      </trkpt>
      <trkpt lat="44.98716" lon="3.70544">
        <ele>1092.72</ele>
        <time>2025-04-15T16:34:19.138Z</time>
      </trkpt>
      <trkpt lat="44.9871" lon="3.70511">
        <ele>1090.87</ele>
        <time>2025-04-15T16:34:25.096Z</time>
      </trkpt>
      <trkpt lat="44.98703" lon="3.70477">
        <ele>1089.04</ele>
        <time>2025-04-15T16:34:31.058Z</time>
      </trkpt>
      <trkpt lat="44.98698" lon="3.70445">
        <ele>1087.18</ele>
        <time>2025-04-15T16:34:37.024Z</time>
      </trkpt>
      <trkpt lat="44.98693" lon="3.70412">
        <ele>1085.33</ele>
        <time>2025-04-15T16:34:42.994Z</time>
      </trkpt>
      <trkpt lat="44.98693" lon="3.70385">
        <ele>1083.55</ele>
        <time>2025-04-15T16:34:48.967Z</time>
      </trkpt>
      <trkpt lat="44.98692" lon="3.70358">
        <ele>1081.76</ele>
        <time>2025-04-15T16:34:54.943Z</time>
      </trkpt>
      <trkpt lat="44.98693" lon="3.70333">
        <ele>1080.03</ele>
        <time>2025-04-15T16:35:00.922Z</time>
      </trkpt>
      <trkpt lat="44.98694" lon="3.70307">
        <ele>1078.33</ele>
        <time>2025-04-15T16:35:06.903Z</time>
      </trkpt>
      <trkpt lat="44.98696" lon="3.70277">
        <ele>1076.62</ele>
        <time>2025-04-15T16:35:12.888Z</time>
      </trkpt>
      <trkpt lat="44.98698" lon="3.70248">
        <ele>1074.94</ele>
        <time>2025-04-15T16:35:18.876Z</time>
      </trkpt>
      <trkpt lat="44.98705" lon="3.70213">
        <ele>1073.33</ele>
        <time>2025-04-15T16:35:24.868Z</time>
      </trkpt>
      <trkpt lat="44.98712" lon="3.70178">
        <ele>1071.72</ele>
        <time>2025-04-15T16:35:30.865Z</time>
      </trkpt>
      <trkpt lat="44.9872" lon="3.70143">
        <ele>1070.05</ele>
        <time>2025-04-15T16:35:36.866Z</time>
      </trkpt>
      <trkpt lat="44.98727" lon="3.70108">
        <ele>1068.38</ele>
        <time>2025-04-15T16:35:42.871Z</time>
      </trkpt>
      <trkpt lat="44.98734" lon="3.70073">
        <ele>1066.71</ele>
        <time>2025-04-15T16:35:48.880Z</time>
      </trkpt>
      <trkpt lat="44.98742" lon="3.70035">
        <ele>1065.07</ele>
        <time>2025-04-15T16:35:54.893Z</time>
      </trkpt>
      <trkpt lat="44.98751" lon="3.69998">
        <ele>1063.51</ele>
        <time>2025-04-15T16:36:00.911Z</time>
      </trkpt>
      <trkpt lat="44.98759" lon="3.6996">
        <ele>1062</ele>
        <time>2025-04-15T16:36:06.933Z</time>
      </trkpt>
      <trkpt lat="44.98768" lon="3.69922">
        <ele>1060.53</ele>
        <time>2025-04-15T16:36:12.960Z</time>
      </trkpt>
      <trkpt lat="44.98776" lon="3.69885">
        <ele>1059</ele>
        <time>2025-04-15T16:36:18.991Z</time>
      </trkpt>
      <trkpt lat="44.98776" lon="3.69885">
        <ele>1057.55</ele>
        <time>2025-04-15T16:36:25.022Z</time>
      </trkpt>
      <trkpt lat="44.98783" lon="3.69855">
        <ele>1056.07</ele>
        <time>2025-04-15T16:36:31.057Z</time>
      </trkpt>
      <trkpt lat="44.98791" lon="3.69824">
        <ele>1054.56</ele>
        <time>2025-04-15T16:36:37.096Z</time>
      </trkpt>
      <trkpt lat="44.98801" lon="3.69795">
        <ele>1053.06</ele>
        <time>2025-04-15T16:36:43.138Z</time>
      </trkpt>
      <trkpt lat="44.98816" lon="3.69762">
        <ele>1051.6</ele>
        <time>2025-04-15T16:36:49.185Z</time>
      </trkpt>
      <trkpt lat="44.98826" lon="3.69745">
        <ele>1050.16</ele>
        <time>2025-04-15T16:36:55.234Z</time>
      </trkpt>
      <trkpt lat="44.98837" lon="3.69728">
        <ele>1048.71</ele>
        <time>2025-04-15T16:37:01.286Z</time>
      </trkpt>
      <trkpt lat="44.98861" lon="3.69702">
        <ele>1047.25</ele>
        <time>2025-04-15T16:37:07.343Z</time>
      </trkpt>
      <trkpt lat="44.98875" lon="3.69691">
        <ele>1045.82</ele>
        <time>2025-04-15T16:37:13.402Z</time>
      </trkpt>
      <trkpt lat="44.9889" lon="3.6968">
        <ele>1044.38</ele>
        <time>2025-04-15T16:37:19.464Z</time>
      </trkpt>
      <trkpt lat="44.98911" lon="3.69671">
        <ele>1042.93</ele>
        <time>2025-04-15T16:37:25.529Z</time>
      </trkpt>
      <trkpt lat="44.98932" lon="3.69662">
        <ele>1041.5</ele>
        <time>2025-04-15T16:37:31.598Z</time>
      </trkpt>
      <trkpt lat="44.98953" lon="3.69652">
        <ele>1040.03</ele>
        <time>2025-04-15T16:37:37.671Z</time>
      </trkpt>
      <trkpt lat="44.98977" lon="3.6964">
        <ele>1038.51</ele>
        <time>2025-04-15T16:37:43.748Z</time>
      </trkpt>
      <trkpt lat="44.99" lon="3.69628">
        <ele>1036.98</ele>
        <time>2025-04-15T16:37:49.829Z</time>
      </trkpt>
      <trkpt lat="44.99024" lon="3.69616">
        <ele>1035.48</ele>
        <time>2025-04-15T16:37:55.914Z</time>
      </trkpt>
      <trkpt lat="44.99039" lon="3.69605">
        <ele>1033.99</ele>
        <time>2025-04-15T16:38:02.001Z</time>
      </trkpt>
      <trkpt lat="44.99062" lon="3.69588">
        <ele>1032.42</ele>
        <time>2025-04-15T16:38:08.093Z</time>
      </trkpt>
      <trkpt lat="44.99086" lon="3.6957">
        <ele>1030.85</ele>
        <time>2025-04-15T16:38:14.189Z</time>
      </trkpt>
      <trkpt lat="44.99106" lon="3.69551">
        <ele>1029.31</ele>
        <time>2025-04-15T16:38:20.289Z</time>
      </trkpt>
      <trkpt lat="44.99127" lon="3.69533">
        <ele>1027.7</ele>
        <time>2025-04-15T16:38:26.393Z</time>
      </trkpt>
      <trkpt lat="44.99147" lon="3.69514">
        <ele>1026.14</ele>
        <time>2025-04-15T16:38:32.501Z</time>
      </trkpt>
      <trkpt lat="44.99164" lon="3.69491">
        <ele>1024.54</ele>
        <time>2025-04-15T16:38:38.612Z</time>
      </trkpt>
      <trkpt lat="44.99181" lon="3.69468">
        <ele>1022.95</ele>
        <time>2025-04-15T16:38:44.727Z</time>
      </trkpt>
      <trkpt lat="44.99199" lon="3.69445">
        <ele>1021.35</ele>
        <time>2025-04-15T16:38:50.846Z</time>
      </trkpt>
      <trkpt lat="44.99224" lon="3.69421">
        <ele>1019.72</ele>
        <time>2025-04-15T16:38:56.970Z</time>
      </trkpt>
      <trkpt lat="44.99249" lon="3.69397">
        <ele>1018.15</ele>
        <time>2025-04-15T16:39:03.099Z</time>
      </trkpt>
      <trkpt lat="44.99273" lon="3.69373">
        <ele>1016.5</ele>
        <time>2025-04-15T16:39:09.232Z</time>
      </trkpt>
      <trkpt lat="44.99298" lon="3.69349">
        <ele>1014.8</ele>
        <time>2025-04-15T16:39:15.370Z</time>
      </trkpt>
      <trkpt lat="44.99322" lon="3.69324">
        <ele>1013.14</ele>
        <time>2025-04-15T16:39:21.513Z</time>
      </trkpt>
      <trkpt lat="44.99346" lon="3.69299">
        <ele>1011.58</ele>
        <time>2025-04-15T16:39:27.661Z</time>
      </trkpt>
      <trkpt lat="44.99363" lon="3.69272">
        <ele>1009.88</ele>
        <time>2025-04-15T16:39:33.813Z</time>
      </trkpt>
      <trkpt lat="44.9938" lon="3.69244">
        <ele>1008.25</ele>
        <time>2025-04-15T16:39:39.969Z</time>
      </trkpt>
      <trkpt lat="44.99397" lon="3.69217">
        <ele>1006.66</ele>
        <time>2025-04-15T16:39:46.129Z</time>
      </trkpt>
      <trkpt lat="44.99414" lon="3.69189">
        <ele>1005.06</ele>
        <time>2025-04-15T16:39:52.293Z</time>
      </trkpt>
      <trkpt lat="44.99431" lon="3.69162">
        <ele>1003.45</ele>
        <time>2025-04-15T16:39:58.461Z</time>
      </trkpt>
      <trkpt lat="44.99448" lon="3.69142">
        <ele>1001.93</ele>
        <time>2025-04-15T16:40:04.633Z</time>
      </trkpt>
      <trkpt lat="44.99464" lon="3.69122">
        <ele>1000.44</ele>
        <time>2025-04-15T16:40:10.808Z</time>
      </trkpt>
      <trkpt lat="44.99481" lon="3.69102">
        <ele>998.9</ele>
        <time>2025-04-15T16:40:16.987Z</time>
      </trkpt>
      <trkpt lat="44.99502" lon="3.69081">
        <ele>997.32</ele>
        <time>2025-04-15T16:40:23.170Z</time>
      </trkpt>
      <trkpt lat="44.99523" lon="3.69059">
        <ele>995.79</ele>
        <time>2025-04-15T16:40:29.357Z</time>
      </trkpt>
      <trkpt lat="44.99546" lon="3.69048">
        <ele>994.42</ele>
        <time>2025-04-15T16:40:35.548Z</time>
      </trkpt>
      <trkpt lat="44.9957" lon="3.69037">
        <ele>993.07</ele>
        <time>2025-04-15T16:40:41.743Z</time>
      </trkpt>
      <trkpt lat="44.99593" lon="3.69031">
        <ele>991.65</ele>
        <time>2025-04-15T16:40:47.942Z</time>
      </trkpt>
      <trkpt lat="44.99617" lon="3.69025">
        <ele>990.24</ele>
        <time>2025-04-15T16:40:54.145Z</time>
      </trkpt>
      <trkpt lat="44.99636" lon="3.69024">
        <ele>988.92</ele>
        <time>2025-04-15T16:41:00.351Z</time>
      </trkpt>
      <trkpt lat="44.99655" lon="3.69024">
        <ele>987.64</ele>
        <time>2025-04-15T16:41:06.560Z</time>
      </trkpt>
      <trkpt lat="44.99675" lon="3.6903">
        <ele>986.34</ele>
        <time>2025-04-15T16:41:12.772Z</time>
      </trkpt>
      <trkpt lat="44.99695" lon="3.69037">
        <ele>985.05</ele>
        <time>2025-04-15T16:41:18.987Z</time>
      </trkpt>
      <trkpt lat="44.99724" lon="3.69051">
        <ele>983.76</ele>
        <time>2025-04-15T16:41:25.207Z</time>
      </trkpt>
      <trkpt lat="44.99744" lon="3.69067">
        <ele>982.58</ele>
        <time>2025-04-15T16:41:31.431Z</time>
      </trkpt>
      <trkpt lat="44.99763" lon="3.69084">
        <ele>981.43</ele>
        <time>2025-04-15T16:41:37.659Z</time>
      </trkpt>
      <trkpt lat="44.99772" lon="3.69091">
        <ele>980.3</ele>
        <time>2025-04-15T16:41:43.888Z</time>
      </trkpt>
      <trkpt lat="44.99791" lon="3.69111">
        <ele>979.17</ele>
        <time>2025-04-15T16:41:50.121Z</time>
      </trkpt>
      <trkpt lat="44.99811" lon="3.69131">
        <ele>978.02</ele>
        <time>2025-04-15T16:41:56.358Z</time>
      </trkpt>
      <trkpt lat="44.99836" lon="3.69142">
        <ele>976.92</ele>
        <time>2025-04-15T16:42:02.599Z</time>
      </trkpt>
      <trkpt lat="44.99862" lon="3.69154">
        <ele>975.9</ele>
        <time>2025-04-15T16:42:08.845Z</time>
      </trkpt>
      <trkpt lat="44.99887" lon="3.69156">
        <ele>974.91</ele>
        <time>2025-04-15T16:42:15.095Z</time>
      </trkpt>
      <trkpt lat="44.99912" lon="3.69158">
        <ele>973.93</ele>
        <time>2025-04-15T16:42:21.349Z</time>
      </trkpt>
      <trkpt lat="44.99937" lon="3.69147">
        <ele>972.99</ele>
        <time>2025-04-15T16:42:27.607Z</time>
      </trkpt>
      <trkpt lat="44.99962" lon="3.69136">
        <ele>972.07</ele>
        <time>2025-04-15T16:42:33.869Z</time>
      </trkpt>
      <trkpt lat="44.99976" lon="3.69124">
        <ele>971.15</ele>
        <time>2025-04-15T16:42:40.134Z</time>
      </trkpt>
      <trkpt lat="44.9999" lon="3.69112">
        <ele>970.24</ele>
        <time>2025-04-15T16:42:46.401Z</time>
      </trkpt>
      <trkpt lat="45.00002" lon="3.69096">
        <ele>969.39</ele>
        <time>2025-04-15T16:42:52.671Z</time>
      </trkpt>
      <trkpt lat="45.00002" lon="3.69096">
        <ele>968.57</ele>
        <time>2025-04-15T16:42:58.941Z</time>
      </trkpt>
      <trkpt lat="45.0002" lon="3.69072">
        <ele>967.64</ele>
        <time>2025-04-15T16:43:05.215Z</time>
      </trkpt>
      <trkpt lat="45.00037" lon="3.69048">
        <ele>966.76</ele>
        <time>2025-04-15T16:43:11.493Z</time>
      </trkpt>
      <trkpt lat="45.00055" lon="3.69024">
        <ele>965.94</ele>
        <time>2025-04-15T16:43:17.775Z</time>
      </trkpt>
      <trkpt lat="45.00072" lon="3.69">
        <ele>965.21</ele>
        <time>2025-04-15T16:43:24.060Z</time>
      </trkpt>
      <trkpt lat="45.00091" lon="3.68973">
        <ele>964.47</ele>
        <time>2025-04-15T16:43:30.350Z</time>
      </trkpt>
      <trkpt lat="45.00109" lon="3.68945">
        <ele>963.69</ele>
        <time>2025-04-15T16:43:36.644Z</time>
      </trkpt>
      <trkpt lat="45.00128" lon="3.68918">
        <ele>962.84</ele>
        <time>2025-04-15T16:43:42.942Z</time>
      </trkpt>
      <trkpt lat="45.00138" lon="3.68891">
        <ele>962.02</ele>
        <time>2025-04-15T16:43:49.244Z</time>
      </trkpt>
      <trkpt lat="45.00149" lon="3.68865">
        <ele>961.26</ele>
        <time>2025-04-15T16:43:55.549Z</time>
      </trkpt>
      <trkpt lat="45.00157" lon="3.68839">
        <ele>960.51</ele>
        <time>2025-04-15T16:44:01.858Z</time>
      </trkpt>
      <trkpt lat="45.00165" lon="3.68813">
        <ele>959.75</ele>
        <time>2025-04-15T16:44:08.170Z</time>
      </trkpt>
      <trkpt lat="45.00171" lon="3.68777">
        <ele>958.97</ele>
        <time>2025-04-15T16:44:14.486Z</time>
      </trkpt>
      <trkpt lat="45.00173" lon="3.68756">
        <ele>958.15</ele>
        <time>2025-04-15T16:44:20.804Z</time>
      </trkpt>
      <trkpt lat="45.00175" lon="3.68722">
        <ele>957.3</ele>
        <time>2025-04-15T16:44:27.126Z</time>
      </trkpt>
      <trkpt lat="45.00175" lon="3.68689">
        <ele>956.44</ele>
        <time>2025-04-15T16:44:33.452Z</time>
      </trkpt>
      <trkpt lat="45.00171" lon="3.68661">
        <ele>955.58</ele>
        <time>2025-04-15T16:44:39.781Z</time>
      </trkpt>
      <trkpt lat="45.00164" lon="3.68626">
        <ele>954.69</ele>
        <time>2025-04-15T16:44:46.114Z</time>
      </trkpt>
      <trkpt lat="45.00156" lon="3.68603">
        <ele>953.8</ele>
        <time>2025-04-15T16:44:52.450Z</time>
      </trkpt>
      <trkpt lat="45.00148" lon="3.6858">
        <ele>952.85</ele>
        <time>2025-04-15T16:44:58.789Z</time>
      </trkpt>
      <trkpt lat="45.00134" lon="3.68546">
        <ele>951.84</ele>
        <time>2025-04-15T16:45:05.133Z</time>
      </trkpt>
      <trkpt lat="45.0012" lon="3.68512">
        <ele>950.83</ele>
        <time>2025-04-15T16:45:11.481Z</time>
      </trkpt>
      <trkpt lat="45.00106" lon="3.68479">
        <ele>949.82</ele>
        <time>2025-04-15T16:45:17.833Z</time>
      </trkpt>
      <trkpt lat="45.00092" lon="3.68445">
        <ele>948.81</ele>
        <time>2025-04-15T16:45:24.190Z</time>
      </trkpt>
      <trkpt lat="45.00078" lon="3.68411">
        <ele>947.72</ele>
        <time>2025-04-15T16:45:30.551Z</time>
      </trkpt>
      <trkpt lat="45.00064" lon="3.68378">
        <ele>946.6</ele>
        <time>2025-04-15T16:45:36.917Z</time>
      </trkpt>
      <trkpt lat="45.0005" lon="3.68345">
        <ele>945.47</ele>
        <time>2025-04-15T16:45:43.287Z</time>
      </trkpt>
      <trkpt lat="45.00039" lon="3.68319">
        <ele>944.32</ele>
        <time>2025-04-15T16:45:49.661Z</time>
      </trkpt>
      <trkpt lat="45.00027" lon="3.68293">
        <ele>943.15</ele>
        <time>2025-04-15T16:45:56.038Z</time>
      </trkpt>
      <trkpt lat="45.00012" lon="3.68267">
        <ele>941.85</ele>
        <time>2025-04-15T16:46:02.419Z</time>
      </trkpt>
      <trkpt lat="44.99997" lon="3.68242">
        <ele>940.59</ele>
        <time>2025-04-15T16:46:08.804Z</time>
      </trkpt>
      <trkpt lat="44.99973" lon="3.68213">
        <ele>939.29</ele>
        <time>2025-04-15T16:46:15.194Z</time>
      </trkpt>
      <trkpt lat="44.99958" lon="3.68198">
        <ele>937.98</ele>
        <time>2025-04-15T16:46:21.587Z</time>
      </trkpt>
      <trkpt lat="44.99942" lon="3.68184">
        <ele>936.66</ele>
        <time>2025-04-15T16:46:27.983Z</time>
      </trkpt>
      <trkpt lat="44.99918" lon="3.68164">
        <ele>935.31</ele>
        <time>2025-04-15T16:46:34.383Z</time>
      </trkpt>
      <trkpt lat="44.99894" lon="3.68145">
        <ele>933.93</ele>
        <time>2025-04-15T16:46:40.787Z</time>
      </trkpt>
      <trkpt lat="44.99878" lon="3.68136">
        <ele>932.52</ele>
        <time>2025-04-15T16:46:47.194Z</time>
      </trkpt>
      <trkpt lat="44.99862" lon="3.68128">
        <ele>931.08</ele>
        <time>2025-04-15T16:46:53.604Z</time>
      </trkpt>
      <trkpt lat="44.99832" lon="3.68115">
        <ele>929.61</ele>
        <time>2025-04-15T16:47:00.019Z</time>
      </trkpt>
      <trkpt lat="44.99812" lon="3.6811">
        <ele>928.18</ele>
        <time>2025-04-15T16:47:06.437Z</time>
      </trkpt>
      <trkpt lat="44.99793" lon="3.68104">
        <ele>926.77</ele>
        <time>2025-04-15T16:47:12.858Z</time>
      </trkpt>
      <trkpt lat="44.99774" lon="3.68103">
        <ele>925.26</ele>
        <time>2025-04-15T16:47:19.282Z</time>
      </trkpt>
      <trkpt lat="44.99755" lon="3.68101">
        <ele>923.73</ele>
        <time>2025-04-15T16:47:25.709Z</time>
      </trkpt>
      <trkpt lat="44.99725" lon="3.68099">
        <ele>922.12</ele>
        <time>2025-04-15T16:47:32.141Z</time>
      </trkpt>
      <trkpt lat="44.99695" lon="3.68097">
        <ele>920.53</ele>
        <time>2025-04-15T16:47:38.578Z</time>
      </trkpt>
      <trkpt lat="44.99664" lon="3.68096">
        <ele>918.92</ele>
        <time>2025-04-15T16:47:45.020Z</time>
      </trkpt>
      <trkpt lat="44.99634" lon="3.68094">
        <ele>917.31</ele>
        <time>2025-04-15T16:47:51.467Z</time>
      </trkpt>
      <trkpt lat="44.99604" lon="3.68092">
        <ele>915.7</ele>
        <time>2025-04-15T16:47:57.919Z</time>
      </trkpt>
      <trkpt lat="44.99573" lon="3.6809">
        <ele>914.1</ele>
        <time>2025-04-15T16:48:04.376Z</time>
      </trkpt>
      <trkpt lat="44.99544" lon="3.68085">
        <ele>912.51</ele>
        <time>2025-04-15T16:48:10.837Z</time>
      </trkpt>
      <trkpt lat="44.99515" lon="3.68076">
        <ele>910.95</ele>
        <time>2025-04-15T16:48:17.303Z</time>
      </trkpt>
      <trkpt lat="44.99486" lon="3.68068">
        <ele>909.31</ele>
        <time>2025-04-15T16:48:23.774Z</time>
      </trkpt>
      <trkpt lat="44.99456" lon="3.68059">
        <ele>907.64</ele>
        <time>2025-04-15T16:48:30.250Z</time>
      </trkpt>
      <trkpt lat="44.99427" lon="3.68051">
        <ele>906.06</ele>
        <time>2025-04-15T16:48:36.730Z</time>
      </trkpt>
      <trkpt lat="44.99407" lon="3.68046">
        <ele>904.62</ele>
        <time>2025-04-15T16:48:43.214Z</time>
      </trkpt>
      <trkpt lat="44.99379" lon="3.68044">
        <ele>903.25</ele>
        <time>2025-04-15T16:48:49.702Z</time>
      </trkpt>
      <trkpt lat="44.99366" lon="3.68047">
        <ele>901.9</ele>
        <time>2025-04-15T16:48:56.192Z</time>
      </trkpt>
      <trkpt lat="44.99342" lon="3.68059">
        <ele>900.58</ele>
        <time>2025-04-15T16:49:02.686Z</time>
      </trkpt>
      <trkpt lat="44.99331" lon="3.68071">
        <ele>899.26</ele>
        <time>2025-04-15T16:49:09.183Z</time>
      </trkpt>
      <trkpt lat="44.99312" lon="3.68096">
        <ele>897.97</ele>
        <time>2025-04-15T16:49:15.684Z</time>
      </trkpt>
      <trkpt lat="44.99294" lon="3.6812">
        <ele>896.84</ele>
        <time>2025-04-15T16:49:22.189Z</time>
      </trkpt>
      <trkpt lat="44.99276" lon="3.68145">
        <ele>895.59</ele>
        <time>2025-04-15T16:49:28.698Z</time>
      </trkpt>
      <trkpt lat="44.99257" lon="3.68169">
        <ele>894.29</ele>
        <time>2025-04-15T16:49:35.211Z</time>
      </trkpt>
      <trkpt lat="44.99242" lon="3.68183">
        <ele>893.01</ele>
        <time>2025-04-15T16:49:41.727Z</time>
      </trkpt>
      <trkpt lat="44.99221" lon="3.68192">
        <ele>891.72</ele>
        <time>2025-04-15T16:49:48.246Z</time>
      </trkpt>
      <trkpt lat="44.99195" lon="3.68194">
        <ele>890.51</ele>
        <time>2025-04-15T16:49:54.769Z</time>
      </trkpt>
      <trkpt lat="44.99183" lon="3.68191">
        <ele>889.44</ele>
        <time>2025-04-15T16:50:01.294Z</time>
      </trkpt>
      <trkpt lat="44.99155" lon="3.68178">
        <ele>888.47</ele>
        <time>2025-04-15T16:50:07.824Z</time>
      </trkpt>
      <trkpt lat="44.99128" lon="3.68164">
        <ele>887.46</ele>
        <time>2025-04-15T16:50:14.359Z</time>
      </trkpt>
      <trkpt lat="44.99128" lon="3.68164">
        <ele>886.55</ele>
        <time>2025-04-15T16:50:20.894Z</time>
      </trkpt>
      <trkpt lat="44.99102" lon="3.6815">
        <ele>885.58</ele>
        <time>2025-04-15T16:50:27.433Z</time>
      </trkpt>
      <trkpt lat="44.99076" lon="3.68135">
        <ele>884.64</ele>
        <time>2025-04-15T16:50:33.976Z</time>
      </trkpt>
      <trkpt lat="44.99069" lon="3.68129">
        <ele>883.83</ele>
        <time>2025-04-15T16:50:40.521Z</time>
      </trkpt>
      <trkpt lat="44.99049" lon="3.68106">
        <ele>883.05</ele>
        <time>2025-04-15T16:50:47.070Z</time>
      </trkpt>
      <trkpt lat="44.9903" lon="3.68083">
        <ele>882.31</ele>
        <time>2025-04-15T16:50:53.623Z</time>
      </trkpt>
      <trkpt lat="44.99012" lon="3.68061">
        <ele>881.62</ele>
        <time>2025-04-15T16:51:00.180Z</time>
      </trkpt>
      <trkpt lat="44.98994" lon="3.68039">
        <ele>880.97</ele>
        <time>2025-04-15T16:51:06.741Z</time>
      </trkpt>
      <trkpt lat="44.98983" lon="3.68025">
        <ele>880.35</ele>
        <time>2025-04-15T16:51:13.304Z</time>
      </trkpt>
      <trkpt lat="44.98983" lon="3.68025">
        <ele>879.78</ele>
        <time>2025-04-15T16:51:19.867Z</time>
      </trkpt>
      <trkpt lat="44.98983" lon="3.68025">
        <ele>879.24</ele>
        <time>2025-04-15T16:51:26.430Z</time>
      </trkpt>
      <trkpt lat="44.98965" lon="3.67999">
        <ele>878.68</ele>
        <time>2025-04-15T16:51:32.997Z</time>
      </trkpt>
      <trkpt lat="44.98946" lon="3.67973">
        <ele>878.12</ele>
        <time>2025-04-15T16:51:39.568Z</time>
      </trkpt>
      <trkpt lat="44.9894" lon="3.67952">
        <ele>877.66</ele>
        <time>2025-04-15T16:51:46.142Z</time>
      </trkpt>
      <trkpt lat="44.98916" lon="3.67939">
        <ele>877.18</ele>
        <time>2025-04-15T16:51:52.720Z</time>
      </trkpt>
      <trkpt lat="44.98906" lon="3.67924">
        <ele>876.79</ele>
        <time>2025-04-15T16:51:59.300Z</time>
      </trkpt>
      <trkpt lat="44.98895" lon="3.67924">
        <ele>876.36</ele>
        <time>2025-04-15T16:52:05.882Z</time>
      </trkpt>
      <trkpt lat="44.98878" lon="3.67922">
        <ele>875.97</ele>
        <time>2025-04-15T16:52:12.467Z</time>
      </trkpt>
      <trkpt lat="44.98856" lon="3.67914">
        <ele>875.67</ele>
        <time>2025-04-15T16:52:19.055Z</time>
      </trkpt>
      <trkpt lat="44.98833" lon="3.67906">
        <ele>875.32</ele>
        <time>2025-04-15T16:52:25.647Z</time>
      </trkpt>
      <trkpt lat="44.98811" lon="3.67898">
        <ele>874.95</ele>
        <time>2025-04-15T16:52:32.243Z</time>
      </trkpt>
      <trkpt lat="44.98803" lon="3.67885">
        <ele>874.61</ele>
        <time>2025-04-15T16:52:38.841Z</time>
      </trkpt>
      <trkpt lat="44.98803" lon="3.67885">
        <ele>874.2</ele>
        <time>2025-04-15T16:52:45.439Z</time>
      </trkpt>
      <trkpt lat="44.98803" lon="3.67885">
        <ele>873.77</ele>
        <time>2025-04-15T16:52:52.037Z</time>
      </trkpt>
      <trkpt lat="44.98811" lon="3.67898">
        <ele>874.95</ele>
        <time>2025-04-15T16:52:58.637Z</time>
      </trkpt>
      <trkpt lat="44.98833" lon="3.67906">
        <ele>872.78</ele>
        <time>2025-04-15T16:53:05.240Z</time>
      </trkpt>
      <trkpt lat="44.98856" lon="3.67914">
        <ele>872.26</ele>
        <time>2025-04-15T16:53:11.847Z</time>
      </trkpt>
      <trkpt lat="44.98878" lon="3.67922">
        <ele>875.97</ele>
        <time>2025-04-15T16:53:18.458Z</time>
      </trkpt>
      <trkpt lat="44.98895" lon="3.67924">
        <ele>876.36</ele>
        <time>2025-04-15T16:53:25.072Z</time>
      </trkpt>
      <trkpt lat="44.98906" lon="3.67924">
        <ele>876.79</ele>
        <time>2025-04-15T16:53:31.687Z</time>
      </trkpt>
      <trkpt lat="44.98912" lon="3.67913">
        <ele>870.08</ele>
        <time>2025-04-15T16:53:38.304Z</time>
      </trkpt>
      <trkpt lat="44.98919" lon="3.67879">
        <ele>869.41</ele>
        <time>2025-04-15T16:53:44.925Z</time>
      </trkpt>
      <trkpt lat="44.9891" lon="3.67875">
        <ele>868.84</ele>
        <time>2025-04-15T16:53:51.547Z</time>
      </trkpt>
      <trkpt lat="44.98896" lon="3.67857">
        <ele>868.19</ele>
        <time>2025-04-15T16:53:58.172Z</time>
      </trkpt>
      <trkpt lat="44.98883" lon="3.6784">
        <ele>867.54</ele>
        <time>2025-04-15T16:54:04.800Z</time>
      </trkpt>
      <trkpt lat="44.98883" lon="3.6784">
        <ele>866.88</ele>
        <time>2025-04-15T16:54:11.428Z</time>
      </trkpt>
      <trkpt lat="44.98883" lon="3.67839">
        <ele>866.21</ele>
        <time>2025-04-15T16:54:18.056Z</time>
      </trkpt>
      <trkpt lat="44.98883" lon="3.67838">
        <ele>865.5</ele>
        <time>2025-04-15T16:54:24.684Z</time>
      </trkpt>
      <trkpt lat="44.98883" lon="3.67838">
        <ele>864.79</ele>
        <time>2025-04-15T16:54:31.312Z</time>
      </trkpt>
      <trkpt lat="44.98881" lon="3.67835">
        <ele>864.07</ele>
        <time>2025-04-15T16:54:37.941Z</time>
      </trkpt>
      <trkpt lat="44.9887" lon="3.67814">
        <ele>863.31</ele>
        <time>2025-04-15T16:54:44.573Z</time>
      </trkpt>
      <trkpt lat="44.98859" lon="3.67793">
        <ele>862.54</ele>
        <time>2025-04-15T16:54:51.208Z</time>
      </trkpt>
      <trkpt lat="44.98846" lon="3.67765">
        <ele>861.7</ele>
        <time>2025-04-15T16:54:57.847Z</time>
      </trkpt>
      <trkpt lat="44.98846" lon="3.67765">
        <ele>860.96</ele>
        <time>2025-04-15T16:55:04.486Z</time>
      </trkpt>
      <trkpt lat="44.98831" lon="3.67738">
        <ele>859.95</ele>
        <time>2025-04-15T16:55:11.129Z</time>
      </trkpt>
      <trkpt lat="44.98823" lon="3.67732">
        <ele>859.15</ele>
        <time>2025-04-15T16:55:17.773Z</time>
      </trkpt>
      <trkpt lat="44.98815" lon="3.67729">
        <ele>858.35</ele>
        <time>2025-04-15T16:55:24.418Z</time>
      </trkpt>
      <trkpt lat="44.98805" lon="3.67731">
        <ele>857.58</ele>
        <time>2025-04-15T16:55:31.065Z</time>
      </trkpt>
      <trkpt lat="44.98793" lon="3.67737">
        <ele>856.85</ele>
        <time>2025-04-15T16:55:37.714Z</time>
      </trkpt>
      <trkpt lat="44.98768" lon="3.67759">
        <ele>856.18</ele>
        <time>2025-04-15T16:55:44.368Z</time>
      </trkpt>
      <trkpt lat="44.98743" lon="3.67781">
        <ele>855.54</ele>
        <time>2025-04-15T16:55:51.027Z</time>
      </trkpt>
      <trkpt lat="44.9872" lon="3.67799">
        <ele>854.95</ele>
        <time>2025-04-15T16:55:57.690Z</time>
      </trkpt>
      <trkpt lat="44.98697" lon="3.67817">
        <ele>854.35</ele>
        <time>2025-04-15T16:56:04.357Z</time>
      </trkpt>
      <trkpt lat="44.98674" lon="3.67835">
        <ele>853.76</ele>
        <time>2025-04-15T16:56:11.028Z</time>
      </trkpt>
      <trkpt lat="44.98651" lon="3.67853">
        <ele>853.22</ele>
        <time>2025-04-15T16:56:17.703Z</time>
      </trkpt>
      <trkpt lat="44.98628" lon="3.67871">
        <ele>852.75</ele>
        <time>2025-04-15T16:56:24.383Z</time>
      </trkpt>
      <trkpt lat="44.98622" lon="3.6788">
        <ele>852.34</ele>
        <time>2025-04-15T16:56:31.064Z</time>
      </trkpt>
      <trkpt lat="44.9862" lon="3.6789">
        <ele>851.99</ele>
        <time>2025-04-15T16:56:37.746Z</time>
      </trkpt>
      <trkpt lat="44.9862" lon="3.67898">
        <ele>851.66</ele>
        <time>2025-04-15T16:56:44.429Z</time>
      </trkpt>
      <trkpt lat="44.98624" lon="3.67909">
        <ele>851.37</ele>
        <time>2025-04-15T16:56:51.113Z</time>
      </trkpt>
      <trkpt lat="44.98635" lon="3.67933">
        <ele>851.17</ele>
        <time>2025-04-15T16:56:57.801Z</time>
      </trkpt>
      <trkpt lat="44.98647" lon="3.67957">
        <ele>850.99</ele>
        <time>2025-04-15T16:57:04.492Z</time>
      </trkpt>
      <trkpt lat="44.98654" lon="3.67965">
        <ele>850.87</ele>
        <time>2025-04-15T16:57:11.184Z</time>
      </trkpt>
      <trkpt lat="44.98662" lon="3.67967">
        <ele>850.8</ele>
        <time>2025-04-15T16:57:17.878Z</time>
      </trkpt>
      <trkpt lat="44.98686" lon="3.67958">
        <ele>850.97</ele>
        <time>2025-04-15T16:57:24.576Z</time>
      </trkpt>
      <trkpt lat="44.987" lon="3.67959">
        <ele>850.98</ele>
        <time>2025-04-15T16:57:31.276Z</time>
      </trkpt>
      <trkpt lat="44.98707" lon="3.67963">
        <ele>850.96</ele>
        <time>2025-04-15T16:57:37.977Z</time>
      </trkpt>
      <trkpt lat="44.98722" lon="3.67974">
        <ele>850.87</ele>
        <time>2025-04-15T16:57:44.681Z</time>
      </trkpt>
      <trkpt lat="44.98737" lon="3.67985">
        <ele>850.82</ele>
        <time>2025-04-15T16:57:51.388Z</time>
      </trkpt>
      <trkpt lat="44.98748" lon="3.67992">
        <ele>850.84</ele>
        <time>2025-04-15T16:57:58.096Z</time>
      </trkpt>
      <trkpt lat="44.98759" lon="3.67993">
        <ele>850.93</ele>
        <time>2025-04-15T16:58:04.806Z</time>
      </trkpt>
      <trkpt lat="44.98782" lon="3.67993">
        <ele>851.09</ele>
        <time>2025-04-15T16:58:11.520Z</time>
      </trkpt>
      <trkpt lat="44.98805" lon="3.67993">
        <ele>851.27</ele>
        <time>2025-04-15T16:58:18.238Z</time>
      </trkpt>
      <trkpt lat="44.98828" lon="3.67993">
        <ele>851.39</ele>
        <time>2025-04-15T16:58:24.959Z</time>
      </trkpt>
      <trkpt lat="44.98836" lon="3.67996">
        <ele>851.49</ele>
        <time>2025-04-15T16:58:31.682Z</time>
      </trkpt>
      <trkpt lat="44.98839" lon="3.68002">
        <ele>851.57</ele>
        <time>2025-04-15T16:58:38.405Z</time>
      </trkpt>
      <trkpt lat="44.98841" lon="3.6801">
        <ele>851.66</ele>
        <time>2025-04-15T16:58:45.129Z</time>
      </trkpt>
      <trkpt lat="44.98843" lon="3.68032">
        <ele>851.7</ele>
        <time>2025-04-15T16:58:51.856Z</time>
      </trkpt>
      <trkpt lat="44.98845" lon="3.68055">
        <ele>851.87</ele>
        <time>2025-04-15T16:58:58.586Z</time>
      </trkpt>
      <trkpt lat="44.98843" lon="3.68062">
        <ele>852.01</ele>
        <time>2025-04-15T16:59:05.316Z</time>
      </trkpt>
      <trkpt lat="44.98839" lon="3.6807">
        <ele>852.16</ele>
        <time>2025-04-15T16:59:12.047Z</time>
      </trkpt>
      <trkpt lat="44.98831" lon="3.68079">
        <ele>852.26</ele>
        <time>2025-04-15T16:59:18.780Z</time>
      </trkpt>
      <trkpt lat="44.98808" lon="3.6809">
        <ele>852.21</ele>
        <time>2025-04-15T16:59:25.517Z</time>
      </trkpt>
      <trkpt lat="44.98784" lon="3.68102">
        <ele>852.35</ele>
        <time>2025-04-15T16:59:32.258Z</time>
      </trkpt>
      <trkpt lat="44.98771" lon="3.68117">
        <ele>852.58</ele>
        <time>2025-04-15T16:59:39.002Z</time>
      </trkpt>
      <trkpt lat="44.98759" lon="3.68124">
        <ele>852.71</ele>
        <time>2025-04-15T16:59:45.748Z</time>
      </trkpt>
      <trkpt lat="44.98734" lon="3.68127">
        <ele>852.74</ele>
        <time>2025-04-15T16:59:52.498Z</time>
      </trkpt>
      <trkpt lat="44.98709" lon="3.68131">
        <ele>852.93</ele>
        <time>2025-04-15T16:59:59.252Z</time>
      </trkpt>
      <trkpt lat="44.98699" lon="3.68131">
        <ele>852.98</ele>
        <time>2025-04-15T17:00:06.008Z</time>
      </trkpt>
      <trkpt lat="44.98679" lon="3.68127">
        <ele>852.97</ele>
        <time>2025-04-15T17:00:12.767Z</time>
      </trkpt>
      <trkpt lat="44.98653" lon="3.68126">
        <ele>853.01</ele>
        <time>2025-04-15T17:00:19.530Z</time>
      </trkpt>
      <trkpt lat="44.98628" lon="3.68123">
        <ele>852.99</ele>
        <time>2025-04-15T17:00:26.297Z</time>
      </trkpt>
      <trkpt lat="44.98603" lon="3.68119">
        <ele>852.78</ele>
        <time>2025-04-15T17:00:33.068Z</time>
      </trkpt>
      <trkpt lat="44.98582" lon="3.68106">
        <ele>852.37</ele>
        <time>2025-04-15T17:00:39.843Z</time>
      </trkpt>
      <trkpt lat="44.98572" lon="3.68104">
        <ele>852.13</ele>
        <time>2025-04-15T17:00:46.619Z</time>
      </trkpt>
      <trkpt lat="44.98563" lon="3.68106">
        <ele>851.93</ele>
        <time>2025-04-15T17:00:53.397Z</time>
      </trkpt>
      <trkpt lat="44.9855" lon="3.68119">
        <ele>851.89</ele>
        <time>2025-04-15T17:01:00.177Z</time>
      </trkpt>
      <trkpt lat="44.98532" lon="3.68128">
        <ele>851.83</ele>
        <time>2025-04-15T17:01:06.960Z</time>
      </trkpt>
      <trkpt lat="44.98514" lon="3.68129">
        <ele>851.5</ele>
        <time>2025-04-15T17:01:13.746Z</time>
      </trkpt>
      <trkpt lat="44.98495" lon="3.6813">
        <ele>851.12</ele>
        <time>2025-04-15T17:01:20.535Z</time>
      </trkpt>
      <trkpt lat="44.98478" lon="3.68135">
        <ele>850.73</ele>
        <time>2025-04-15T17:01:27.327Z</time>
      </trkpt>
      <trkpt lat="44.98469" lon="3.68136">
        <ele>850.26</ele>
        <time>2025-04-15T17:01:34.120Z</time>
      </trkpt>
      <trkpt lat="44.98444" lon="3.68129">
        <ele>849.42</ele>
        <time>2025-04-15T17:01:40.917Z</time>
      </trkpt>
      <trkpt lat="44.98436" lon="3.68131">
        <ele>848.82</ele>
        <time>2025-04-15T17:01:47.716Z</time>
      </trkpt>
      <trkpt lat="44.98414" lon="3.68143">
        <ele>848.21</ele>
        <time>2025-04-15T17:01:54.518Z</time>
      </trkpt>
      <trkpt lat="44.98409" lon="3.68148">
        <ele>847.74</ele>
        <time>2025-04-15T17:02:01.322Z</time>
      </trkpt>
      <trkpt lat="44.98405" lon="3.68158">
        <ele>847.27</ele>
        <time>2025-04-15T17:02:08.127Z</time>
      </trkpt>
      <trkpt lat="44.98403" lon="3.68177">
        <ele>846.91</ele>
        <time>2025-04-15T17:02:14.934Z</time>
      </trkpt>
      <trkpt lat="44.98397" lon="3.6819">
        <ele>846.51</ele>
        <time>2025-04-15T17:02:21.743Z</time>
      </trkpt>
      <trkpt lat="44.98391" lon="3.68199">
        <ele>846.01</ele>
        <time>2025-04-15T17:02:28.553Z</time>
      </trkpt>
      <trkpt lat="44.9838" lon="3.68205">
        <ele>845.46</ele>
        <time>2025-04-15T17:02:35.365Z</time>
      </trkpt>
      <trkpt lat="44.98367" lon="3.68208">
        <ele>844.79</ele>
        <time>2025-04-15T17:02:42.179Z</time>
      </trkpt>
      <trkpt lat="44.98336" lon="3.68209">
        <ele>843.79</ele>
        <time>2025-04-15T17:02:48.998Z</time>
      </trkpt>
      <trkpt lat="44.9833" lon="3.68213">
        <ele>843.23</ele>
        <time>2025-04-15T17:02:55.818Z</time>
      </trkpt>
      <trkpt lat="44.98326" lon="3.6822">
        <ele>842.79</ele>
        <time>2025-04-15T17:03:02.639Z</time>
      </trkpt>
      <trkpt lat="44.98322" lon="3.68254">
        <ele>842.53</ele>
        <time>2025-04-15T17:03:09.464Z</time>
      </trkpt>
      <trkpt lat="44.98317" lon="3.68288">
        <ele>842.32</ele>
        <time>2025-04-15T17:03:16.293Z</time>
      </trkpt>
      <trkpt lat="44.98309" lon="3.68316">
        <ele>841.96</ele>
        <time>2025-04-15T17:03:23.125Z</time>
      </trkpt>
      <trkpt lat="44.98306" lon="3.68345">
        <ele>841.64</ele>
        <time>2025-04-15T17:03:29.961Z</time>
      </trkpt>
      <trkpt lat="44.98295" lon="3.68376">
        <ele>841.22</ele>
        <time>2025-04-15T17:03:36.801Z</time>
      </trkpt>
      <trkpt lat="44.98293" lon="3.68389">
        <ele>840.99</ele>
        <time>2025-04-15T17:03:43.642Z</time>
      </trkpt>
      <trkpt lat="44.98292" lon="3.68401">
        <ele>840.81</ele>
        <time>2025-04-15T17:03:50.485Z</time>
      </trkpt>
      <trkpt lat="44.98293" lon="3.68431">
        <ele>840.83</ele>
        <time>2025-04-15T17:03:57.331Z</time>
      </trkpt>
      <trkpt lat="44.98291" lon="3.68441">
        <ele>840.66</ele>
        <time>2025-04-15T17:04:04.178Z</time>
      </trkpt>
      <trkpt lat="44.9828" lon="3.68453">
        <ele>840.38</ele>
        <time>2025-04-15T17:04:11.027Z</time>
      </trkpt>
      <trkpt lat="44.98251" lon="3.68469">
        <ele>839.82</ele>
        <time>2025-04-15T17:04:17.881Z</time>
      </trkpt>
      <trkpt lat="44.98244" lon="3.68475">
        <ele>839.64</ele>
        <time>2025-04-15T17:04:24.737Z</time>
      </trkpt>
      <trkpt lat="44.98238" lon="3.68485">
        <ele>839.53</ele>
        <time>2025-04-15T17:04:31.594Z</time>
      </trkpt>
      <trkpt lat="44.98236" lon="3.68495">
        <ele>839.46</ele>
        <time>2025-04-15T17:04:38.452Z</time>
      </trkpt>
      <trkpt lat="44.98235" lon="3.68504">
        <ele>839.45</ele>
        <time>2025-04-15T17:04:45.311Z</time>
      </trkpt>
      <trkpt lat="44.98237" lon="3.68518">
        <ele>839.56</ele>
        <time>2025-04-15T17:04:52.172Z</time>
      </trkpt>
      <trkpt lat="44.98242" lon="3.68544">
        <ele>839.81</ele>
        <time>2025-04-15T17:04:59.036Z</time>
      </trkpt>
      <trkpt lat="44.98247" lon="3.6857">
        <ele>840.06</ele>
        <time>2025-04-15T17:05:05.903Z</time>
      </trkpt>
      <trkpt lat="44.98248" lon="3.68582">
        <ele>840.2</ele>
        <time>2025-04-15T17:05:12.771Z</time>
      </trkpt>
      <trkpt lat="44.98245" lon="3.68591">
        <ele>840.29</ele>
        <time>2025-04-15T17:05:19.641Z</time>
      </trkpt>
      <trkpt lat="44.98239" lon="3.68602">
        <ele>840.4</ele>
        <time>2025-04-15T17:05:26.512Z</time>
      </trkpt>
      <trkpt lat="44.98215" lon="3.68619">
        <ele>840.44</ele>
        <time>2025-04-15T17:05:33.388Z</time>
      </trkpt>
      <trkpt lat="44.9819" lon="3.68636">
        <ele>840.53</ele>
        <time>2025-04-15T17:05:40.268Z</time>
      </trkpt>
      <trkpt lat="44.98165" lon="3.68653">
        <ele>840.71</ele>
        <time>2025-04-15T17:05:47.152Z</time>
      </trkpt>
      <trkpt lat="44.98141" lon="3.6867">
        <ele>840.9</ele>
        <time>2025-04-15T17:05:54.041Z</time>
      </trkpt>
      <trkpt lat="44.98116" lon="3.68687">
        <ele>840.96</ele>
        <time>2025-04-15T17:06:00.934Z</time>
      </trkpt>
      <trkpt lat="44.98086" lon="3.68694">
        <ele>841.08</ele>
        <time>2025-04-15T17:06:07.832Z</time>
      </trkpt>
      <trkpt lat="44.98056" lon="3.68702">
        <ele>841.22</ele>
        <time>2025-04-15T17:06:14.735Z</time>
      </trkpt>
      <trkpt lat="44.9805" lon="3.68707">
        <ele>841.45</ele>
        <time>2025-04-15T17:06:21.639Z</time>
      </trkpt>
      <trkpt lat="44.98044" lon="3.68717">
        <ele>841.66</ele>
        <time>2025-04-15T17:06:28.544Z</time>
      </trkpt>
      <trkpt lat="44.98042" lon="3.68727">
        <ele>841.9</ele>
        <time>2025-04-15T17:06:35.451Z</time>
      </trkpt>
      <trkpt lat="44.98042" lon="3.6874">
        <ele>842.16</ele>
        <time>2025-04-15T17:06:42.359Z</time>
      </trkpt>
      <trkpt lat="44.98045" lon="3.68752">
        <ele>842.46</ele>
        <time>2025-04-15T17:06:49.269Z</time>
      </trkpt>
      <trkpt lat="44.98052" lon="3.68762">
        <ele>842.78</ele>
        <time>2025-04-15T17:06:56.180Z</time>
      </trkpt>
      <trkpt lat="44.9806" lon="3.68768">
        <ele>843.14</ele>
        <time>2025-04-15T17:07:03.093Z</time>
      </trkpt>
      <trkpt lat="44.98088" lon="3.6877">
        <ele>843.63</ele>
        <time>2025-04-15T17:07:10.010Z</time>
      </trkpt>
      <trkpt lat="44.98117" lon="3.68771">
        <ele>844.04</ele>
        <time>2025-04-15T17:07:16.932Z</time>
      </trkpt>
      <trkpt lat="44.98145" lon="3.68773">
        <ele>844.48</ele>
        <time>2025-04-15T17:07:23.858Z</time>
      </trkpt>
      <trkpt lat="44.98168" lon="3.68774">
        <ele>844.95</ele>
        <time>2025-04-15T17:07:30.788Z</time>
      </trkpt>
      <trkpt lat="44.9819" lon="3.68776">
        <ele>845.4</ele>
        <time>2025-04-15T17:07:37.721Z</time>
      </trkpt>
      <trkpt lat="44.98213" lon="3.68778">
        <ele>845.83</ele>
        <time>2025-04-15T17:07:44.658Z</time>
      </trkpt>
      <trkpt lat="44.98222" lon="3.68781">
        <ele>846.2</ele>
        <time>2025-04-15T17:07:51.597Z</time>
      </trkpt>
      <trkpt lat="44.98231" lon="3.68787">
        <ele>846.56</ele>
        <time>2025-04-15T17:07:58.537Z</time>
      </trkpt>
      <trkpt lat="44.98242" lon="3.68797">
        <ele>846.93</ele>
        <time>2025-04-15T17:08:05.479Z</time>
      </trkpt>
      <trkpt lat="44.98249" lon="3.68808">
        <ele>847.29</ele>
        <time>2025-04-15T17:08:12.423Z</time>
      </trkpt>
      <trkpt lat="44.98251" lon="3.68819">
        <ele>847.59</ele>
        <time>2025-04-15T17:08:19.368Z</time>
      </trkpt>
      <trkpt lat="44.98251" lon="3.6883">
        <ele>847.86</ele>
        <time>2025-04-15T17:08:26.315Z</time>
      </trkpt>
      <trkpt lat="44.98248" lon="3.68838">
        <ele>848.08</ele>
        <time>2025-04-15T17:08:33.263Z</time>
      </trkpt>
      <trkpt lat="44.98244" lon="3.68846">
        <ele>848.31</ele>
        <time>2025-04-15T17:08:40.212Z</time>
      </trkpt>
      <trkpt lat="44.98222" lon="3.68856">
        <ele>848.31</ele>
        <time>2025-04-15T17:08:47.164Z</time>
      </trkpt>
      <trkpt lat="44.98215" lon="3.68863">
        <ele>848.48</ele>
        <time>2025-04-15T17:08:54.118Z</time>
      </trkpt>
      <trkpt lat="44.98212" lon="3.6887">
        <ele>848.7</ele>
        <time>2025-04-15T17:09:01.073Z</time>
      </trkpt>
      <trkpt lat="44.9821" lon="3.6888">
        <ele>848.93</ele>
        <time>2025-04-15T17:09:08.029Z</time>
      </trkpt>
      <trkpt lat="44.98212" lon="3.68887">
        <ele>849.17</ele>
        <time>2025-04-15T17:09:14.986Z</time>
      </trkpt>
      <trkpt lat="44.98218" lon="3.68895">
        <ele>849.45</ele>
        <time>2025-04-15T17:09:21.944Z</time>
      </trkpt>
      <trkpt lat="44.98235" lon="3.68906">
        <ele>849.82</ele>
        <time>2025-04-15T17:09:28.905Z</time>
      </trkpt>
      <trkpt lat="44.98252" lon="3.68918">
        <ele>850.16</ele>
        <time>2025-04-15T17:09:35.869Z</time>
      </trkpt>
      <trkpt lat="44.9826" lon="3.68927">
        <ele>850.36</ele>
        <time>2025-04-15T17:09:42.835Z</time>
      </trkpt>
      <trkpt lat="44.98266" lon="3.68941">
        <ele>850.49</ele>
        <time>2025-04-15T17:09:49.803Z</time>
      </trkpt>
      <trkpt lat="44.98279" lon="3.68977">
        <ele>850.67</ele>
        <time>2025-04-15T17:09:56.775Z</time>
      </trkpt>
      <trkpt lat="44.98291" lon="3.69012">
        <ele>850.91</ele>
        <time>2025-04-15T17:10:03.752Z</time>
      </trkpt>
      <trkpt lat="44.98292" lon="3.69023">
        <ele>850.96</ele>
        <time>2025-04-15T17:10:10.730Z</time>
      </trkpt>
      <trkpt lat="44.9829" lon="3.69032">
        <ele>850.93</ele>
        <time>2025-04-15T17:10:17.709Z</time>
      </trkpt>
      <trkpt lat="44.98282" lon="3.69045">
        <ele>850.94</ele>
        <time>2025-04-15T17:10:24.690Z</time>
      </trkpt>
      <trkpt lat="44.98277" lon="3.69052">
        <ele>850.89</ele>
        <time>2025-04-15T17:10:31.672Z</time>
      </trkpt>
      <trkpt lat="44.98268" lon="3.69053">
        <ele>850.74</ele>
        <time>2025-04-15T17:10:38.655Z</time>
      </trkpt>
      <trkpt lat="44.98262" lon="3.69049">
        <ele>850.51</ele>
        <time>2025-04-15T17:10:45.639Z</time>
      </trkpt>
      <trkpt lat="44.98244" lon="3.69038">
        <ele>850.19</ele>
        <time>2025-04-15T17:10:52.627Z</time>
      </trkpt>
      <trkpt lat="44.98221" lon="3.69028">
        <ele>849.81</ele>
        <time>2025-04-15T17:10:59.618Z</time>
      </trkpt>
      <trkpt lat="44.98203" lon="3.69029">
        <ele>849.51</ele>
        <time>2025-04-15T17:11:06.612Z</time>
      </trkpt>
      <trkpt lat="44.98185" lon="3.69029">
        <ele>849.22</ele>
        <time>2025-04-15T17:11:13.609Z</time>
      </trkpt>
      <trkpt lat="44.98176" lon="3.69028">
        <ele>848.86</ele>
        <time>2025-04-15T17:11:20.608Z</time>
      </trkpt>
      <trkpt lat="44.98166" lon="3.69024">
        <ele>848.44</ele>
        <time>2025-04-15T17:11:27.608Z</time>
      </trkpt>
      <trkpt lat="44.9815" lon="3.69008">
        <ele>847.8</ele>
        <time>2025-04-15T17:11:34.612Z</time>
      </trkpt>
      <trkpt lat="44.98133" lon="3.68992">
        <ele>847.13</ele>
        <time>2025-04-15T17:11:41.619Z</time>
      </trkpt>
      <trkpt lat="44.98126" lon="3.68987">
        <ele>846.61</ele>
        <time>2025-04-15T17:11:48.627Z</time>
      </trkpt>
      <trkpt lat="44.98119" lon="3.68987">
        <ele>846.11</ele>
        <time>2025-04-15T17:11:55.636Z</time>
      </trkpt>
      <trkpt lat="44.9811" lon="3.68989">
        <ele>845.59</ele>
        <time>2025-04-15T17:12:02.647Z</time>
      </trkpt>
      <trkpt lat="44.98099" lon="3.68997">
        <ele>845.18</ele>
        <time>2025-04-15T17:12:09.660Z</time>
      </trkpt>
      <trkpt lat="44.98086" lon="3.69012">
        <ele>844.88</ele>
        <time>2025-04-15T17:12:16.675Z</time>
      </trkpt>
      <trkpt lat="44.98073" lon="3.69028">
        <ele>844.64</ele>
        <time>2025-04-15T17:12:23.693Z</time>
      </trkpt>
      <trkpt lat="44.98065" lon="3.69033">
        <ele>844.23</ele>
        <time>2025-04-15T17:12:30.712Z</time>
      </trkpt>
      <trkpt lat="44.98054" lon="3.69037">
        <ele>843.76</ele>
        <time>2025-04-15T17:12:37.733Z</time>
      </trkpt>
      <trkpt lat="44.98025" lon="3.69032">
        <ele>843.09</ele>
        <time>2025-04-15T17:12:44.759Z</time>
      </trkpt>
      <trkpt lat="44.98008" lon="3.69027">
        <ele>842.48</ele>
        <time>2025-04-15T17:12:51.788Z</time>
      </trkpt>
      <trkpt lat="44.97991" lon="3.69023">
        <ele>841.88</ele>
        <time>2025-04-15T17:12:58.820Z</time>
      </trkpt>
      <trkpt lat="44.97969" lon="3.69024">
        <ele>841.34</ele>
        <time>2025-04-15T17:13:05.855Z</time>
      </trkpt>
      <trkpt lat="44.97959" lon="3.69027">
        <ele>840.85</ele>
        <time>2025-04-15T17:13:12.892Z</time>
      </trkpt>
      <trkpt lat="44.97949" lon="3.69033">
        <ele>840.37</ele>
        <time>2025-04-15T17:13:19.930Z</time>
      </trkpt>
      <trkpt lat="44.97929" lon="3.69051">
        <ele>839.89</ele>
        <time>2025-04-15T17:13:26.972Z</time>
      </trkpt>
      <trkpt lat="44.9791" lon="3.69069">
        <ele>839.45</ele>
        <time>2025-04-15T17:13:34.018Z</time>
      </trkpt>
      <trkpt lat="44.97891" lon="3.69087">
        <ele>839.02</ele>
        <time>2025-04-15T17:13:41.067Z</time>
      </trkpt>
      <trkpt lat="44.97883" lon="3.69096">
        <ele>838.67</ele>
        <time>2025-04-15T17:13:48.118Z</time>
      </trkpt>
      <trkpt lat="44.97876" lon="3.69112">
        <ele>838.38</ele>
        <time>2025-04-15T17:13:55.171Z</time>
      </trkpt>
      <trkpt lat="44.97869" lon="3.6912">
        <ele>838.17</ele>
        <time>2025-04-15T17:14:02.226Z</time>
      </trkpt>
      <trkpt lat="44.97853" lon="3.6913">
        <ele>838.14</ele>
        <time>2025-04-15T17:14:09.283Z</time>
      </trkpt>
      <trkpt lat="44.97844" lon="3.6913">
        <ele>837.95</ele>
        <time>2025-04-15T17:14:16.342Z</time>
      </trkpt>
      <trkpt lat="44.97837" lon="3.69126">
        <ele>837.69</ele>
        <time>2025-04-15T17:14:23.402Z</time>
      </trkpt>
      <trkpt lat="44.97832" lon="3.69117">
        <ele>837.4</ele>
        <time>2025-04-15T17:14:30.463Z</time>
      </trkpt>
      <trkpt lat="44.97827" lon="3.69105">
        <ele>837.09</ele>
        <time>2025-04-15T17:14:37.526Z</time>
      </trkpt>
      <trkpt lat="44.97823" lon="3.69079">
        <ele>836.64</ele>
        <time>2025-04-15T17:14:44.592Z</time>
      </trkpt>
      <trkpt lat="44.97818" lon="3.69053">
        <ele>836.22</ele>
        <time>2025-04-15T17:14:51.661Z</time>
      </trkpt>
      <trkpt lat="44.97815" lon="3.69044">
        <ele>836.02</ele>
        <time>2025-04-15T17:14:58.731Z</time>
      </trkpt>
      <trkpt lat="44.97803" lon="3.69037">
        <ele>835.84</ele>
        <time>2025-04-15T17:15:05.803Z</time>
      </trkpt>
      <trkpt lat="44.97795" lon="3.69036">
        <ele>835.79</ele>
        <time>2025-04-15T17:15:12.876Z</time>
      </trkpt>
      <trkpt lat="44.97789" lon="3.69039">
        <ele>835.82</ele>
        <time>2025-04-15T17:15:19.951Z</time>
      </trkpt>
      <trkpt lat="44.9778" lon="3.69046">
        <ele>835.91</ele>
        <time>2025-04-15T17:15:27.027Z</time>
      </trkpt>
      <trkpt lat="44.97764" lon="3.69071">
        <ele>836.1</ele>
        <time>2025-04-15T17:15:34.107Z</time>
      </trkpt>
      <trkpt lat="44.97747" lon="3.69096">
        <ele>836.34</ele>
        <time>2025-04-15T17:15:41.191Z</time>
      </trkpt>
      <trkpt lat="44.97733" lon="3.69111">
        <ele>836.6</ele>
        <time>2025-04-15T17:15:48.278Z</time>
      </trkpt>
      <trkpt lat="44.97713" lon="3.69125">
        <ele>836.9</ele>
        <time>2025-04-15T17:15:55.368Z</time>
      </trkpt>
      <trkpt lat="44.97693" lon="3.6914">
        <ele>837.2</ele>
        <time>2025-04-15T17:16:02.462Z</time>
      </trkpt>
      <trkpt lat="44.97673" lon="3.69155">
        <ele>837.49</ele>
        <time>2025-04-15T17:16:09.560Z</time>
      </trkpt>
      <trkpt lat="44.97664" lon="3.69165">
        <ele>837.89</ele>
        <time>2025-04-15T17:16:16.659Z</time>
      </trkpt>
      <trkpt lat="44.97659" lon="3.69175">
        <ele>838.35</ele>
        <time>2025-04-15T17:16:23.760Z</time>
      </trkpt>
      <trkpt lat="44.97655" lon="3.69193">
        <ele>838.9</ele>
        <time>2025-04-15T17:16:30.863Z</time>
      </trkpt>
      <trkpt lat="44.97652" lon="3.69217">
        <ele>839.54</ele>
        <time>2025-04-15T17:16:37.969Z</time>
      </trkpt>
      <trkpt lat="44.97649" lon="3.69242">
        <ele>840.17</ele>
        <time>2025-04-15T17:16:45.078Z</time>
      </trkpt>
      <trkpt lat="44.97641" lon="3.69275">
        <ele>840.82</ele>
        <time>2025-04-15T17:16:52.191Z</time>
      </trkpt>
      <trkpt lat="44.9763" lon="3.69304">
        <ele>841.55</ele>
        <time>2025-04-15T17:16:59.307Z</time>
      </trkpt>
      <trkpt lat="44.97619" lon="3.69334">
        <ele>842.32</ele>
        <time>2025-04-15T17:17:06.427Z</time>
      </trkpt>
      <trkpt lat="44.97609" lon="3.69363">
        <ele>843.15</ele>
        <time>2025-04-15T17:17:13.551Z</time>
      </trkpt>
      <trkpt lat="44.97598" lon="3.69386">
        <ele>843.88</ele>
        <time>2025-04-15T17:17:20.678Z</time>
      </trkpt>
      <trkpt lat="44.9759" lon="3.69398">
        <ele>844.6</ele>
        <time>2025-04-15T17:17:27.807Z</time>
      </trkpt>
      <trkpt lat="44.97584" lon="3.69404">
        <ele>845.31</ele>
        <time>2025-04-15T17:17:34.937Z</time>
      </trkpt>
      <trkpt lat="44.97576" lon="3.69405">
        <ele>845.97</ele>
        <time>2025-04-15T17:17:42.068Z</time>
      </trkpt>
      <trkpt lat="44.97569" lon="3.69402">
        <ele>846.58</ele>
        <time>2025-04-15T17:17:49.200Z</time>
      </trkpt>
      <trkpt lat="44.97562" lon="3.69397">
        <ele>847.24</ele>
        <time>2025-04-15T17:17:56.334Z</time>
      </trkpt>
      <trkpt lat="44.97557" lon="3.69382">
        <ele>847.81</ele>
        <time>2025-04-15T17:18:03.470Z</time>
      </trkpt>
      <trkpt lat="44.97551" lon="3.69355">
        <ele>848.32</ele>
        <time>2025-04-15T17:18:10.609Z</time>
      </trkpt>
      <trkpt lat="44.97544" lon="3.69328">
        <ele>848.8</ele>
        <time>2025-04-15T17:18:17.751Z</time>
      </trkpt>
      <trkpt lat="44.97534" lon="3.69293">
        <ele>849.24</ele>
        <time>2025-04-15T17:18:24.897Z</time>
      </trkpt>
      <trkpt lat="44.97524" lon="3.69259">
        <ele>849.59</ele>
        <time>2025-04-15T17:18:32.048Z</time>
      </trkpt>
      <trkpt lat="44.97513" lon="3.69239">
        <ele>850</ele>
        <time>2025-04-15T17:18:39.201Z</time>
      </trkpt>
      <trkpt lat="44.97502" lon="3.69219">
        <ele>850.24</ele>
        <time>2025-04-15T17:18:46.357Z</time>
      </trkpt>
      <trkpt lat="44.97494" lon="3.6919">
        <ele>850.36</ele>
        <time>2025-04-15T17:18:53.517Z</time>
      </trkpt>
      <trkpt lat="44.97486" lon="3.69151">
        <ele>850.41</ele>
        <time>2025-04-15T17:19:00.681Z</time>
      </trkpt>
      <trkpt lat="44.97479" lon="3.69113">
        <ele>850.43</ele>
        <time>2025-04-15T17:19:07.850Z</time>
      </trkpt>
      <trkpt lat="44.97467" lon="3.69085">
        <ele>850.43</ele>
        <time>2025-04-15T17:19:15.023Z</time>
      </trkpt>
      <trkpt lat="44.97458" lon="3.69071">
        <ele>850.38</ele>
        <time>2025-04-15T17:19:22.198Z</time>
      </trkpt>
      <trkpt lat="44.97448" lon="3.6906">
        <ele>850.3</ele>
        <time>2025-04-15T17:19:29.375Z</time>
      </trkpt>
      <trkpt lat="44.97428" lon="3.69047">
        <ele>850.17</ele>
        <time>2025-04-15T17:19:36.555Z</time>
      </trkpt>
      <trkpt lat="44.97407" lon="3.69044">
        <ele>849.95</ele>
        <time>2025-04-15T17:19:43.739Z</time>
      </trkpt>
      <trkpt lat="44.97385" lon="3.69041">
        <ele>849.65</ele>
        <time>2025-04-15T17:19:50.926Z</time>
      </trkpt>
      <trkpt lat="44.97369" lon="3.69039">
        <ele>849.3</ele>
        <time>2025-04-15T17:19:58.116Z</time>
      </trkpt>
      <trkpt lat="44.97352" lon="3.69038">
        <ele>848.89</ele>
        <time>2025-04-15T17:20:05.308Z</time>
      </trkpt>
      <trkpt lat="44.97325" lon="3.69039">
        <ele>848.45</ele>
        <time>2025-04-15T17:20:12.505Z</time>
      </trkpt>
      <trkpt lat="44.97299" lon="3.69041">
        <ele>847.9</ele>
        <time>2025-04-15T17:20:19.706Z</time>
      </trkpt>
      <trkpt lat="44.97272" lon="3.69042">
        <ele>847.25</ele>
        <time>2025-04-15T17:20:26.911Z</time>
      </trkpt>
      <trkpt lat="44.97245" lon="3.69044">
        <ele>846.54</ele>
        <time>2025-04-15T17:20:34.121Z</time>
      </trkpt>
      <trkpt lat="44.97218" lon="3.69045">
        <ele>845.79</ele>
        <time>2025-04-15T17:20:41.335Z</time>
      </trkpt>
      <trkpt lat="44.97192" lon="3.69053">
        <ele>844.93</ele>
        <time>2025-04-15T17:20:48.553Z</time>
      </trkpt>
      <trkpt lat="44.97185" lon="3.6906">
        <ele>844.08</ele>
        <time>2025-04-15T17:20:55.773Z</time>
      </trkpt>
      <trkpt lat="44.97173" lon="3.69077">
        <ele>843.16</ele>
        <time>2025-04-15T17:21:02.995Z</time>
      </trkpt>
      <trkpt lat="44.97168" lon="3.69092">
        <ele>842.19</ele>
        <time>2025-04-15T17:21:10.219Z</time>
      </trkpt>
      <trkpt lat="44.97164" lon="3.69106">
        <ele>841.2</ele>
        <time>2025-04-15T17:21:17.445Z</time>
      </trkpt>
      <trkpt lat="44.97164" lon="3.69119">
        <ele>840.17</ele>
        <time>2025-04-15T17:21:24.672Z</time>
      </trkpt>
      <trkpt lat="44.97165" lon="3.69136">
        <ele>839.12</ele>
        <time>2025-04-15T17:21:31.901Z</time>
      </trkpt>
      <trkpt lat="44.97171" lon="3.69164">
        <ele>838.1</ele>
        <time>2025-04-15T17:21:39.133Z</time>
      </trkpt>
      <trkpt lat="44.97176" lon="3.69191">
        <ele>837.05</ele>
        <time>2025-04-15T17:21:46.369Z</time>
      </trkpt>
      <trkpt lat="44.97177" lon="3.69214">
        <ele>835.88</ele>
        <time>2025-04-15T17:21:53.607Z</time>
      </trkpt>
      <trkpt lat="44.97173" lon="3.69251">
        <ele>834.58</ele>
        <time>2025-04-15T17:22:00.850Z</time>
      </trkpt>
      <trkpt lat="44.97169" lon="3.69289">
        <ele>833.38</ele>
        <time>2025-04-15T17:22:08.097Z</time>
      </trkpt>
      <trkpt lat="44.97164" lon="3.69326">
        <ele>832.23</ele>
        <time>2025-04-15T17:22:15.348Z</time>
      </trkpt>
      <trkpt lat="44.9716" lon="3.69358">
        <ele>831.03</ele>
        <time>2025-04-15T17:22:22.603Z</time>
      </trkpt>
      <trkpt lat="44.97155" lon="3.6939">
        <ele>829.88</ele>
        <time>2025-04-15T17:22:29.862Z</time>
      </trkpt>
      <trkpt lat="44.97147" lon="3.69414">
        <ele>828.68</ele>
        <time>2025-04-15T17:22:37.124Z</time>
      </trkpt>
      <trkpt lat="44.9714" lon="3.69436">
        <ele>827.49</ele>
        <time>2025-04-15T17:22:44.388Z</time>
      </trkpt>
      <trkpt lat="44.97124" lon="3.69473">
        <ele>826.16</ele>
        <time>2025-04-15T17:22:51.657Z</time>
      </trkpt>
      <trkpt lat="44.97108" lon="3.6951">
        <ele>825.09</ele>
        <time>2025-04-15T17:22:58.931Z</time>
      </trkpt>
      <trkpt lat="44.97102" lon="3.69527">
        <ele>824.04</ele>
        <time>2025-04-15T17:23:06.207Z</time>
      </trkpt>
      <trkpt lat="44.97101" lon="3.6954">
        <ele>823.04</ele>
        <time>2025-04-15T17:23:13.485Z</time>
      </trkpt>
      <trkpt lat="44.97102" lon="3.69552">
        <ele>822.05</ele>
        <time>2025-04-15T17:23:20.764Z</time>
      </trkpt>
      <trkpt lat="44.97105" lon="3.69562">
        <ele>821.13</ele>
        <time>2025-04-15T17:23:28.045Z</time>
      </trkpt>
      <trkpt lat="44.97124" lon="3.69589">
        <ele>820.35</ele>
        <time>2025-04-15T17:23:35.330Z</time>
      </trkpt>
      <trkpt lat="44.97142" lon="3.69616">
        <ele>819.5</ele>
        <time>2025-04-15T17:23:42.619Z</time>
      </trkpt>
      <trkpt lat="44.97148" lon="3.69631">
        <ele>818.64</ele>
        <time>2025-04-15T17:23:49.910Z</time>
      </trkpt>
      <trkpt lat="44.97152" lon="3.69646">
        <ele>817.8</ele>
        <time>2025-04-15T17:23:57.203Z</time>
      </trkpt>
      <trkpt lat="44.97154" lon="3.69665">
        <ele>816.97</ele>
        <time>2025-04-15T17:24:04.498Z</time>
      </trkpt>
      <trkpt lat="44.9715" lon="3.69689">
        <ele>816.19</ele>
        <time>2025-04-15T17:24:11.796Z</time>
      </trkpt>
      <trkpt lat="44.97145" lon="3.697">
        <ele>815.51</ele>
        <time>2025-04-15T17:24:19.095Z</time>
      </trkpt>
      <trkpt lat="44.97134" lon="3.6971">
        <ele>814.93</ele>
        <time>2025-04-15T17:24:26.396Z</time>
      </trkpt>
      <trkpt lat="44.9711" lon="3.69727">
        <ele>814.29</ele>
        <time>2025-04-15T17:24:33.702Z</time>
      </trkpt>
      <trkpt lat="44.97086" lon="3.69744">
        <ele>813.71</ele>
        <time>2025-04-15T17:24:41.012Z</time>
      </trkpt>
      <trkpt lat="44.97062" lon="3.69761">
        <ele>813.17</ele>
        <time>2025-04-15T17:24:48.326Z</time>
      </trkpt>
      <trkpt lat="44.97045" lon="3.69781">
        <ele>812.77</ele>
        <time>2025-04-15T17:24:55.644Z</time>
      </trkpt>
      <trkpt lat="44.97039" lon="3.69792">
        <ele>812.51</ele>
        <time>2025-04-15T17:25:02.963Z</time>
      </trkpt>
      <trkpt lat="44.97036" lon="3.69804">
        <ele>812.36</ele>
        <time>2025-04-15T17:25:10.284Z</time>
      </trkpt>
      <trkpt lat="44.97034" lon="3.69848">
        <ele>812.46</ele>
        <time>2025-04-15T17:25:17.610Z</time>
      </trkpt>
      <trkpt lat="44.97035" lon="3.69891">
        <ele>812.52</ele>
        <time>2025-04-15T17:25:24.941Z</time>
      </trkpt>
      <trkpt lat="44.97034" lon="3.69909">
        <ele>812.53</ele>
        <time>2025-04-15T17:25:32.274Z</time>
      </trkpt>
      <trkpt lat="44.97029" lon="3.69923">
        <ele>812.54</ele>
        <time>2025-04-15T17:25:39.608Z</time>
      </trkpt>
      <trkpt lat="44.97014" lon="3.69947">
        <ele>812.57</ele>
        <time>2025-04-15T17:25:46.946Z</time>
      </trkpt>
      <trkpt lat="44.97006" lon="3.69956">
        <ele>812.73</ele>
        <time>2025-04-15T17:25:54.286Z</time>
      </trkpt>
      <trkpt lat="44.96993" lon="3.69963">
        <ele>812.92</ele>
        <time>2025-04-15T17:26:01.628Z</time>
      </trkpt>
      <trkpt lat="44.96983" lon="3.69965">
        <ele>813.15</ele>
        <time>2025-04-15T17:26:08.972Z</time>
      </trkpt>
      <trkpt lat="44.9697" lon="3.69964">
        <ele>813.45</ele>
        <time>2025-04-15T17:26:16.318Z</time>
      </trkpt>
      <trkpt lat="44.96961" lon="3.69959">
        <ele>813.7</ele>
        <time>2025-04-15T17:26:23.665Z</time>
      </trkpt>
      <trkpt lat="44.96952" lon="3.6995">
        <ele>814</ele>
        <time>2025-04-15T17:26:31.014Z</time>
      </trkpt>
      <trkpt lat="44.96944" lon="3.69939">
        <ele>814.33</ele>
        <time>2025-04-15T17:26:38.365Z</time>
      </trkpt>
      <trkpt lat="44.96933" lon="3.69907">
        <ele>814.54</ele>
        <time>2025-04-15T17:26:45.720Z</time>
      </trkpt>
      <trkpt lat="44.96921" lon="3.69875">
        <ele>814.78</ele>
        <time>2025-04-15T17:26:53.079Z</time>
      </trkpt>
      <trkpt lat="44.96906" lon="3.69841">
        <ele>815.08</ele>
        <time>2025-04-15T17:27:00.442Z</time>
      </trkpt>
      <trkpt lat="44.96891" lon="3.69808">
        <ele>815.35</ele>
        <time>2025-04-15T17:27:07.810Z</time>
      </trkpt>
      <trkpt lat="44.96875" lon="3.69771">
        <ele>815.63</ele>
        <time>2025-04-15T17:27:15.183Z</time>
      </trkpt>
      <trkpt lat="44.96859" lon="3.69734">
        <ele>816.05</ele>
        <time>2025-04-15T17:27:22.561Z</time>
      </trkpt>
      <trkpt lat="44.9685" lon="3.69705">
        <ele>816.3</ele>
        <time>2025-04-15T17:27:29.942Z</time>
      </trkpt>
      <trkpt lat="44.96842" lon="3.69671">
        <ele>816.5</ele>
        <time>2025-04-15T17:27:37.327Z</time>
      </trkpt>
      <trkpt lat="44.96834" lon="3.69636">
        <ele>816.57</ele>
        <time>2025-04-15T17:27:44.717Z</time>
      </trkpt>
      <trkpt lat="44.96825" lon="3.69613">
        <ele>816.68</ele>
        <time>2025-04-15T17:27:52.110Z</time>
      </trkpt>
      <trkpt lat="44.96816" lon="3.69593">
        <ele>816.75</ele>
        <time>2025-04-15T17:27:59.505Z</time>
      </trkpt>
      <trkpt lat="44.96806" lon="3.69573">
        <ele>816.74</ele>
        <time>2025-04-15T17:28:06.903Z</time>
      </trkpt>
      <trkpt lat="44.96786" lon="3.69541">
        <ele>816.77</ele>
        <time>2025-04-15T17:28:14.306Z</time>
      </trkpt>
      <trkpt lat="44.96765" lon="3.69509">
        <ele>816.68</ele>
        <time>2025-04-15T17:28:21.714Z</time>
      </trkpt>
      <trkpt lat="44.96745" lon="3.69476">
        <ele>816.67</ele>
        <time>2025-04-15T17:28:29.127Z</time>
      </trkpt>
      <trkpt lat="44.96736" lon="3.6946">
        <ele>816.5</ele>
        <time>2025-04-15T17:28:36.542Z</time>
      </trkpt>
      <trkpt lat="44.96723" lon="3.69424">
        <ele>816.05</ele>
        <time>2025-04-15T17:28:43.962Z</time>
      </trkpt>
      <trkpt lat="44.96713" lon="3.69383">
        <ele>815.52</ele>
        <time>2025-04-15T17:28:51.387Z</time>
      </trkpt>
      <trkpt lat="44.96703" lon="3.69341">
        <ele>814.87</ele>
        <time>2025-04-15T17:28:58.817Z</time>
      </trkpt>
      <trkpt lat="44.96695" lon="3.69321">
        <ele>814.17</ele>
        <time>2025-04-15T17:29:06.249Z</time>
      </trkpt>
      <trkpt lat="44.96694" lon="3.69321">
        <ele>813.55</ele>
        <time>2025-04-15T17:29:13.681Z</time>
      </trkpt>
      <trkpt lat="44.96688" lon="3.69311">
        <ele>812.8</ele>
        <time>2025-04-15T17:29:21.115Z</time>
      </trkpt>
      <trkpt lat="44.9667" lon="3.69296">
        <ele>811.91</ele>
        <time>2025-04-15T17:29:28.552Z</time>
      </trkpt>
      <trkpt lat="44.96657" lon="3.69291">
        <ele>811.05</ele>
        <time>2025-04-15T17:29:35.991Z</time>
      </trkpt>
      <trkpt lat="44.9664" lon="3.69289">
        <ele>810.2</ele>
        <time>2025-04-15T17:29:43.433Z</time>
      </trkpt>
      <trkpt lat="44.96624" lon="3.69288">
        <ele>809.29</ele>
        <time>2025-04-15T17:29:50.878Z</time>
      </trkpt>
      <trkpt lat="44.96603" lon="3.69282">
        <ele>808.18</ele>
        <time>2025-04-15T17:29:58.326Z</time>
      </trkpt>
      <trkpt lat="44.96584" lon="3.69275">
        <ele>807.08</ele>
        <time>2025-04-15T17:30:05.777Z</time>
      </trkpt>
      <trkpt lat="44.96568" lon="3.69262">
        <ele>805.9</ele>
        <time>2025-04-15T17:30:13.231Z</time>
      </trkpt>
      <trkpt lat="44.96555" lon="3.69249">
        <ele>804.73</ele>
        <time>2025-04-15T17:30:20.688Z</time>
      </trkpt>
      <trkpt lat="44.96548" lon="3.69236">
        <ele>803.49</ele>
        <time>2025-04-15T17:30:28.147Z</time>
      </trkpt>
      <trkpt lat="44.96539" lon="3.69219">
        <ele>802.19</ele>
        <time>2025-04-15T17:30:35.608Z</time>
      </trkpt>
      <trkpt lat="44.96534" lon="3.69193">
        <ele>800.77</ele>
        <time>2025-04-15T17:30:43.072Z</time>
      </trkpt>
      <trkpt lat="44.96528" lon="3.69167">
        <ele>799.37</ele>
        <time>2025-04-15T17:30:50.539Z</time>
      </trkpt>
      <trkpt lat="44.96523" lon="3.69151">
        <ele>797.97</ele>
        <time>2025-04-15T17:30:58.008Z</time>
      </trkpt>
      <trkpt lat="44.96516" lon="3.69134">
        <ele>796.54</ele>
        <time>2025-04-15T17:31:05.479Z</time>
      </trkpt>
      <trkpt lat="44.96502" lon="3.69112">
        <ele>795.05</ele>
        <time>2025-04-15T17:31:12.954Z</time>
      </trkpt>
      <trkpt lat="44.96491" lon="3.691">
        <ele>793.57</ele>
        <time>2025-04-15T17:31:20.431Z</time>
      </trkpt>
      <trkpt lat="44.96469" lon="3.69087">
        <ele>792.02</ele>
        <time>2025-04-15T17:31:27.912Z</time>
      </trkpt>
      <trkpt lat="44.96448" lon="3.69073">
        <ele>790.46</ele>
        <time>2025-04-15T17:31:35.396Z</time>
      </trkpt>
      <trkpt lat="44.96426" lon="3.6906">
        <ele>788.9</ele>
        <time>2025-04-15T17:31:42.884Z</time>
      </trkpt>
      <trkpt lat="44.96401" lon="3.69048">
        <ele>787.27</ele>
        <time>2025-04-15T17:31:50.377Z</time>
      </trkpt>
      <trkpt lat="44.96375" lon="3.69036">
        <ele>785.6</ele>
        <time>2025-04-15T17:31:57.874Z</time>
      </trkpt>
      <trkpt lat="44.9635" lon="3.69032">
        <ele>783.91</ele>
        <time>2025-04-15T17:32:05.375Z</time>
      </trkpt>
      <trkpt lat="44.96339" lon="3.69036">
        <ele>782.31</ele>
        <time>2025-04-15T17:32:12.878Z</time>
      </trkpt>
      <trkpt lat="44.96331" lon="3.69041">
        <ele>780.72</ele>
        <time>2025-04-15T17:32:20.382Z</time>
      </trkpt>
      <trkpt lat="44.96324" lon="3.69045">
        <ele>779.13</ele>
        <time>2025-04-15T17:32:27.887Z</time>
      </trkpt>
      <trkpt lat="44.96316" lon="3.69057">
        <ele>777.53</ele>
        <time>2025-04-15T17:32:35.394Z</time>
      </trkpt>
      <trkpt lat="44.96306" lon="3.69076">
        <ele>775.94</ele>
        <time>2025-04-15T17:32:42.904Z</time>
      </trkpt>
      <trkpt lat="44.96295" lon="3.69096">
        <ele>774.33</ele>
        <time>2025-04-15T17:32:50.417Z</time>
      </trkpt>
      <trkpt lat="44.96285" lon="3.6912">
        <ele>772.69</ele>
        <time>2025-04-15T17:32:57.933Z</time>
      </trkpt>
      <trkpt lat="44.96274" lon="3.69144">
        <ele>771.13</ele>
        <time>2025-04-15T17:33:05.452Z</time>
      </trkpt>
      <trkpt lat="44.96257" lon="3.69166">
        <ele>769.53</ele>
        <time>2025-04-15T17:33:12.975Z</time>
      </trkpt>
      <trkpt lat="44.96237" lon="3.69187">
        <ele>767.83</ele>
        <time>2025-04-15T17:33:20.502Z</time>
      </trkpt>
      <trkpt lat="44.96218" lon="3.69208">
        <ele>766.13</ele>
        <time>2025-04-15T17:33:28.033Z</time>
      </trkpt>
      <trkpt lat="44.9621" lon="3.69221">
        <ele>764.48</ele>
        <time>2025-04-15T17:33:35.566Z</time>
      </trkpt>
      <trkpt lat="44.96203" lon="3.69233">
        <ele>762.86</ele>
        <time>2025-04-15T17:33:43.100Z</time>
      </trkpt>
      <trkpt lat="44.96197" lon="3.69253">
        <ele>761.29</ele>
        <time>2025-04-15T17:33:50.637Z</time>
      </trkpt>
      <trkpt lat="44.96191" lon="3.69283">
        <ele>759.7</ele>
        <time>2025-04-15T17:33:58.177Z</time>
      </trkpt>
      <trkpt lat="44.96186" lon="3.69312">
        <ele>758.01</ele>
        <time>2025-04-15T17:34:05.721Z</time>
      </trkpt>
      <trkpt lat="44.9618" lon="3.69353">
        <ele>756.26</ele>
        <time>2025-04-15T17:34:13.270Z</time>
      </trkpt>
      <trkpt lat="44.96174" lon="3.69394">
        <ele>754.5</ele>
        <time>2025-04-15T17:34:20.823Z</time>
      </trkpt>
      <trkpt lat="44.96169" lon="3.69433">
        <ele>752.69</ele>
        <time>2025-04-15T17:34:28.381Z</time>
      </trkpt>
      <trkpt lat="44.96164" lon="3.69473">
        <ele>751</ele>
        <time>2025-04-15T17:34:35.943Z</time>
      </trkpt>
      <trkpt lat="44.96159" lon="3.69512">
        <ele>749.25</ele>
        <time>2025-04-15T17:34:43.510Z</time>
      </trkpt>
      <trkpt lat="44.96157" lon="3.69542">
        <ele>747.53</ele>
        <time>2025-04-15T17:34:51.080Z</time>
      </trkpt>
      <trkpt lat="44.96157" lon="3.69568">
        <ele>745.83</ele>
        <time>2025-04-15T17:34:58.653Z</time>
      </trkpt>
      <trkpt lat="44.96157" lon="3.69595">
        <ele>744.09</ele>
        <time>2025-04-15T17:35:06.229Z</time>
      </trkpt>
      <trkpt lat="44.96152" lon="3.69627">
        <ele>742.22</ele>
        <time>2025-04-15T17:35:13.809Z</time>
      </trkpt>
      <trkpt lat="44.96147" lon="3.69659">
        <ele>740.41</ele>
        <time>2025-04-15T17:35:21.393Z</time>
      </trkpt>
      <trkpt lat="44.96139" lon="3.69687">
        <ele>738.58</ele>
        <time>2025-04-15T17:35:28.980Z</time>
      </trkpt>
      <trkpt lat="44.9613" lon="3.69716">
        <ele>736.76</ele>
        <time>2025-04-15T17:35:36.571Z</time>
      </trkpt>
      <trkpt lat="44.96128" lon="3.69734">
        <ele>735.01</ele>
        <time>2025-04-15T17:35:44.164Z</time>
      </trkpt>
      <trkpt lat="44.96129" lon="3.6975">
        <ele>733.27</ele>
        <time>2025-04-15T17:35:51.759Z</time>
      </trkpt>
      <trkpt lat="44.96138" lon="3.69781">
        <ele>731.65</ele>
        <time>2025-04-15T17:35:59.358Z</time>
      </trkpt>
      <trkpt lat="44.96142" lon="3.69807">
        <ele>729.98</ele>
        <time>2025-04-15T17:36:06.960Z</time>
      </trkpt>
      <trkpt lat="44.96143" lon="3.69822">
        <ele>728.27</ele>
        <time>2025-04-15T17:36:14.563Z</time>
      </trkpt>
      <trkpt lat="44.96141" lon="3.69831">
        <ele>726.51</ele>
        <time>2025-04-15T17:36:22.167Z</time>
      </trkpt>
      <trkpt lat="44.96137" lon="3.69838">
        <ele>724.75</ele>
        <time>2025-04-15T17:36:29.772Z</time>
      </trkpt>
      <trkpt lat="44.96128" lon="3.69844">
        <ele>722.98</ele>
        <time>2025-04-15T17:36:37.379Z</time>
      </trkpt>
      <trkpt lat="44.961" lon="3.69853">
        <ele>721.12</ele>
        <time>2025-04-15T17:36:44.991Z</time>
      </trkpt>
      <trkpt lat="44.96084" lon="3.69852">
        <ele>719.2</ele>
        <time>2025-04-15T17:36:52.605Z</time>
      </trkpt>
      <trkpt lat="44.96062" lon="3.69848">
        <ele>717.16</ele>
        <time>2025-04-15T17:37:00.223Z</time>
      </trkpt>
      <trkpt lat="44.96039" lon="3.69843">
        <ele>715.17</ele>
        <time>2025-04-15T17:37:07.844Z</time>
      </trkpt>
      <trkpt lat="44.96027" lon="3.69843">
        <ele>713.34</ele>
        <time>2025-04-15T17:37:15.467Z</time>
      </trkpt>
      <trkpt lat="44.96019" lon="3.69848">
        <ele>711.59</ele>
        <time>2025-04-15T17:37:23.092Z</time>
      </trkpt>
      <trkpt lat="44.96011" lon="3.69855">
        <ele>709.89</ele>
        <time>2025-04-15T17:37:30.718Z</time>
      </trkpt>
      <trkpt lat="44.96006" lon="3.69865">
        <ele>708.19</ele>
        <time>2025-04-15T17:37:38.346Z</time>
      </trkpt>
      <trkpt lat="44.95996" lon="3.69896">
        <ele>706.48</ele>
        <time>2025-04-15T17:37:45.977Z</time>
      </trkpt>
      <trkpt lat="44.95986" lon="3.69926">
        <ele>704.7</ele>
        <time>2025-04-15T17:37:53.612Z</time>
      </trkpt>
      <trkpt lat="44.95981" lon="3.69937">
        <ele>703.12</ele>
        <time>2025-04-15T17:38:01.249Z</time>
      </trkpt>
      <trkpt lat="44.95975" lon="3.69942">
        <ele>701.55</ele>
        <time>2025-04-15T17:38:08.887Z</time>
      </trkpt>
      <trkpt lat="44.95968" lon="3.69945">
        <ele>700.03</ele>
        <time>2025-04-15T17:38:16.526Z</time>
      </trkpt>
      <trkpt lat="44.95938" lon="3.69945">
        <ele>698.41</ele>
        <time>2025-04-15T17:38:24.170Z</time>
      </trkpt>
      <trkpt lat="44.95923" lon="3.69947">
        <ele>696.91</ele>
        <time>2025-04-15T17:38:31.816Z</time>
      </trkpt>
      <trkpt lat="44.95905" lon="3.69954">
        <ele>695.41</ele>
        <time>2025-04-15T17:38:39.465Z</time>
      </trkpt>
      <trkpt lat="44.95896" lon="3.6996">
        <ele>694.05</ele>
        <time>2025-04-15T17:38:47.116Z</time>
      </trkpt>
      <trkpt lat="44.95888" lon="3.69971">
        <ele>692.77</ele>
        <time>2025-04-15T17:38:54.769Z</time>
      </trkpt>
      <trkpt lat="44.95874" lon="3.70001">
        <ele>691.55</ele>
        <time>2025-04-15T17:39:02.426Z</time>
      </trkpt>
      <trkpt lat="44.95865" lon="3.70014">
        <ele>690.46</ele>
        <time>2025-04-15T17:39:10.085Z</time>
      </trkpt>
      <trkpt lat="44.95846" lon="3.70039">
        <ele>689.49</ele>
        <time>2025-04-15T17:39:17.748Z</time>
      </trkpt>
      <trkpt lat="44.95838" lon="3.70043">
        <ele>688.54</ele>
        <time>2025-04-15T17:39:25.412Z</time>
      </trkpt>
      <trkpt lat="44.95832" lon="3.70043">
        <ele>687.6</ele>
        <time>2025-04-15T17:39:33.077Z</time>
      </trkpt>
      <trkpt lat="44.95827" lon="3.70038">
        <ele>686.64</ele>
        <time>2025-04-15T17:39:40.743Z</time>
      </trkpt>
      <trkpt lat="44.95822" lon="3.70028">
        <ele>685.73</ele>
        <time>2025-04-15T17:39:48.411Z</time>
      </trkpt>
      <trkpt lat="44.95819" lon="3.70004">
        <ele>684.83</ele>
        <time>2025-04-15T17:39:56.081Z</time>
      </trkpt>
      <trkpt lat="44.95816" lon="3.69981">
        <ele>684.01</ele>
        <time>2025-04-15T17:40:03.754Z</time>
      </trkpt>
      <trkpt lat="44.95813" lon="3.69968">
        <ele>683.35</ele>
        <time>2025-04-15T17:40:11.429Z</time>
      </trkpt>
      <trkpt lat="44.95806" lon="3.69954">
        <ele>682.79</ele>
        <time>2025-04-15T17:40:19.105Z</time>
      </trkpt>
      <trkpt lat="44.95797" lon="3.69936">
        <ele>682.3</ele>
        <time>2025-04-15T17:40:26.784Z</time>
      </trkpt>
      <trkpt lat="44.95783" lon="3.69914">
        <ele>681.92</ele>
        <time>2025-04-15T17:40:34.466Z</time>
      </trkpt>
      <trkpt lat="44.95765" lon="3.69892">
        <ele>681.64</ele>
        <time>2025-04-15T17:40:42.152Z</time>
      </trkpt>
      <trkpt lat="44.9575" lon="3.69875">
        <ele>681.41</ele>
        <time>2025-04-15T17:40:49.841Z</time>
      </trkpt>
      <trkpt lat="44.95739" lon="3.69864">
        <ele>681.28</ele>
        <time>2025-04-15T17:40:57.532Z</time>
      </trkpt>
      <trkpt lat="44.95721" lon="3.69854">
        <ele>681.23</ele>
        <time>2025-04-15T17:41:05.226Z</time>
      </trkpt>
      <trkpt lat="44.95698" lon="3.69848">
        <ele>681.33</ele>
        <time>2025-04-15T17:41:12.924Z</time>
      </trkpt>
      <trkpt lat="44.95675" lon="3.69842">
        <ele>681.51</ele>
        <time>2025-04-15T17:41:20.626Z</time>
      </trkpt>
      <trkpt lat="44.95666" lon="3.69844">
        <ele>681.73</ele>
        <time>2025-04-15T17:41:28.329Z</time>
      </trkpt>
      <trkpt lat="44.95657" lon="3.69849">
        <ele>682.04</ele>
        <time>2025-04-15T17:41:36.034Z</time>
      </trkpt>
      <trkpt lat="44.95651" lon="3.69855">
        <ele>682.46</ele>
        <time>2025-04-15T17:41:43.740Z</time>
      </trkpt>
      <trkpt lat="44.95634" lon="3.69881">
        <ele>682.93</ele>
        <time>2025-04-15T17:41:51.450Z</time>
      </trkpt>
      <trkpt lat="44.95625" lon="3.69907">
        <ele>683.5</ele>
        <time>2025-04-15T17:41:59.163Z</time>
      </trkpt>
      <trkpt lat="44.95616" lon="3.69936">
        <ele>684.23</ele>
        <time>2025-04-15T17:42:06.880Z</time>
      </trkpt>
      <trkpt lat="44.95608" lon="3.69965">
        <ele>685.11</ele>
        <time>2025-04-15T17:42:14.601Z</time>
      </trkpt>
      <trkpt lat="44.95601" lon="3.69976">
        <ele>686</ele>
        <time>2025-04-15T17:42:22.323Z</time>
      </trkpt>
      <trkpt lat="44.95592" lon="3.69986">
        <ele>686.92</ele>
        <time>2025-04-15T17:42:30.047Z</time>
      </trkpt>
      <trkpt lat="44.95577" lon="3.69994">
        <ele>687.9</ele>
        <time>2025-04-15T17:42:37.774Z</time>
      </trkpt>
      <trkpt lat="44.95551" lon="3.70003">
        <ele>689.02</ele>
        <time>2025-04-15T17:42:45.505Z</time>
      </trkpt>
      <trkpt lat="44.95525" lon="3.70011">
        <ele>690.14</ele>
        <time>2025-04-15T17:42:53.240Z</time>
      </trkpt>
      <trkpt lat="44.95499" lon="3.7002">
        <ele>691.32</ele>
        <time>2025-04-15T17:43:00.979Z</time>
      </trkpt>
      <trkpt lat="44.95486" lon="3.70023">
        <ele>692.56</ele>
        <time>2025-04-15T17:43:08.720Z</time>
      </trkpt>
      <trkpt lat="44.95474" lon="3.70022">
        <ele>693.89</ele>
        <time>2025-04-15T17:43:16.464Z</time>
      </trkpt>
      <trkpt lat="44.95463" lon="3.70016">
        <ele>695.21</ele>
        <time>2025-04-15T17:43:24.209Z</time>
      </trkpt>
      <trkpt lat="44.95454" lon="3.70004">
        <ele>696.6</ele>
        <time>2025-04-15T17:43:31.956Z</time>
      </trkpt>
      <trkpt lat="44.95448" lon="3.6999">
        <ele>698.16</ele>
        <time>2025-04-15T17:43:39.705Z</time>
      </trkpt>
      <trkpt lat="44.95444" lon="3.69972">
        <ele>699.75</ele>
        <time>2025-04-15T17:43:47.456Z</time>
      </trkpt>
      <trkpt lat="44.9544" lon="3.69944">
        <ele>701.35</ele>
        <time>2025-04-15T17:43:55.211Z</time>
      </trkpt>
      <trkpt lat="44.95437" lon="3.69918">
        <ele>702.88</ele>
        <time>2025-04-15T17:44:02.969Z</time>
      </trkpt>
      <trkpt lat="44.95437" lon="3.69918">
        <ele>704.45</ele>
        <time>2025-04-15T17:44:10.727Z</time>
      </trkpt>
      <trkpt lat="44.95437" lon="3.69916">
        <ele>706.04</ele>
        <time>2025-04-15T17:44:18.485Z</time>
      </trkpt>
      <trkpt lat="44.95437" lon="3.69916">
        <ele>707.66</ele>
        <time>2025-04-15T17:44:26.243Z</time>
      </trkpt>
      <trkpt lat="44.95437" lon="3.69916">
        <ele>709.32</ele>
        <time>2025-04-15T17:44:34.001Z</time>
      </trkpt>
      <trkpt lat="44.95432" lon="3.69893">
        <ele>710.98</ele>
        <time>2025-04-15T17:44:41.762Z</time>
      </trkpt>
      <trkpt lat="44.95426" lon="3.6987">
        <ele>712.66</ele>
        <time>2025-04-15T17:44:49.525Z</time>
      </trkpt>
      <trkpt lat="44.95412" lon="3.69836">
        <ele>714.39</ele>
        <time>2025-04-15T17:44:57.293Z</time>
      </trkpt>
      <trkpt lat="44.95401" lon="3.69817">
        <ele>716.16</ele>
        <time>2025-04-15T17:45:05.064Z</time>
      </trkpt>
      <trkpt lat="44.95385" lon="3.69797">
        <ele>718.13</ele>
        <time>2025-04-15T17:45:12.838Z</time>
      </trkpt>
      <trkpt lat="44.95369" lon="3.69777">
        <ele>720.16</ele>
        <time>2025-04-15T17:45:20.615Z</time>
      </trkpt>
      <trkpt lat="44.95363" lon="3.69763">
        <ele>722.08</ele>
        <time>2025-04-15T17:45:28.394Z</time>
      </trkpt>
      <trkpt lat="44.9536" lon="3.69748">
        <ele>723.98</ele>
        <time>2025-04-15T17:45:36.175Z</time>
      </trkpt>
      <trkpt lat="44.9536" lon="3.69734">
        <ele>725.88</ele>
        <time>2025-04-15T17:45:43.958Z</time>
      </trkpt>
      <trkpt lat="44.95362" lon="3.6972">
        <ele>727.72</ele>
        <time>2025-04-15T17:45:51.742Z</time>
      </trkpt>
      <trkpt lat="44.95367" lon="3.69698">
        <ele>729.55</ele>
        <time>2025-04-15T17:45:59.529Z</time>
      </trkpt>
      <trkpt lat="44.95372" lon="3.69676">
        <ele>731.26</ele>
        <time>2025-04-15T17:46:07.319Z</time>
      </trkpt>
      <trkpt lat="44.95373" lon="3.69657">
        <ele>732.98</ele>
        <time>2025-04-15T17:46:15.111Z</time>
      </trkpt>
      <trkpt lat="44.95369" lon="3.69643">
        <ele>734.82</ele>
        <time>2025-04-15T17:46:22.904Z</time>
      </trkpt>
      <trkpt lat="44.95364" lon="3.69634">
        <ele>736.7</ele>
        <time>2025-04-15T17:46:30.699Z</time>
      </trkpt>
      <trkpt lat="44.95356" lon="3.69627">
        <ele>738.67</ele>
        <time>2025-04-15T17:46:38.495Z</time>
      </trkpt>
      <trkpt lat="44.95327" lon="3.69615">
        <ele>740.97</ele>
        <time>2025-04-15T17:46:46.296Z</time>
      </trkpt>
      <trkpt lat="44.95298" lon="3.69603">
        <ele>743</ele>
        <time>2025-04-15T17:46:54.102Z</time>
      </trkpt>
      <trkpt lat="44.95276" lon="3.69586">
        <ele>744.74</ele>
        <time>2025-04-15T17:47:01.912Z</time>
      </trkpt>
      <trkpt lat="44.95265" lon="3.69582">
        <ele>746.64</ele>
        <time>2025-04-15T17:47:09.724Z</time>
      </trkpt>
      <trkpt lat="44.95255" lon="3.69582">
        <ele>748.56</ele>
        <time>2025-04-15T17:47:17.537Z</time>
      </trkpt>
      <trkpt lat="44.95229" lon="3.69588">
        <ele>750.57</ele>
        <time>2025-04-15T17:47:25.355Z</time>
      </trkpt>
      <trkpt lat="44.95203" lon="3.69593">
        <ele>752.58</ele>
        <time>2025-04-15T17:47:33.177Z</time>
      </trkpt>
      <trkpt lat="44.95191" lon="3.69593">
        <ele>754.5</ele>
        <time>2025-04-15T17:47:41.001Z</time>
      </trkpt>
      <trkpt lat="44.95183" lon="3.69588">
        <ele>756.27</ele>
        <time>2025-04-15T17:47:48.826Z</time>
      </trkpt>
      <trkpt lat="44.95177" lon="3.69579">
        <ele>758.02</ele>
        <time>2025-04-15T17:47:56.652Z</time>
      </trkpt>
      <trkpt lat="44.95174" lon="3.69566">
        <ele>759.72</ele>
        <time>2025-04-15T17:48:04.480Z</time>
      </trkpt>
      <trkpt lat="44.95175" lon="3.69552">
        <ele>761.31</ele>
        <time>2025-04-15T17:48:12.310Z</time>
      </trkpt>
      <trkpt lat="44.9518" lon="3.69538">
        <ele>762.77</ele>
        <time>2025-04-15T17:48:20.141Z</time>
      </trkpt>
      <trkpt lat="44.95185" lon="3.69525">
        <ele>764.14</ele>
        <time>2025-04-15T17:48:27.974Z</time>
      </trkpt>
      <trkpt lat="44.95204" lon="3.69493">
        <ele>765.24</ele>
        <time>2025-04-15T17:48:35.812Z</time>
      </trkpt>
      <trkpt lat="44.95224" lon="3.6946">
        <ele>766.21</ele>
        <time>2025-04-15T17:48:43.655Z</time>
      </trkpt>
      <trkpt lat="44.95227" lon="3.69449">
        <ele>767.39</ele>
        <time>2025-04-15T17:48:51.499Z</time>
      </trkpt>
      <trkpt lat="44.95226" lon="3.69437">
        <ele>768.48</ele>
        <time>2025-04-15T17:48:59.344Z</time>
      </trkpt>
      <trkpt lat="44.95221" lon="3.69427">
        <ele>769.52</ele>
        <time>2025-04-15T17:49:07.191Z</time>
      </trkpt>
      <trkpt lat="44.95213" lon="3.6942">
        <ele>770.54</ele>
        <time>2025-04-15T17:49:15.039Z</time>
      </trkpt>
      <trkpt lat="44.95203" lon="3.69416">
        <ele>771.56</ele>
        <time>2025-04-15T17:49:22.889Z</time>
      </trkpt>
      <trkpt lat="44.95185" lon="3.69412">
        <ele>772.68</ele>
        <time>2025-04-15T17:49:30.742Z</time>
      </trkpt>
      <trkpt lat="44.95167" lon="3.69408">
        <ele>773.73</ele>
        <time>2025-04-15T17:49:38.598Z</time>
      </trkpt>
      <trkpt lat="44.95157" lon="3.69404">
        <ele>774.53</ele>
        <time>2025-04-15T17:49:46.456Z</time>
      </trkpt>
      <trkpt lat="44.9515" lon="3.69395">
        <ele>775.16</ele>
        <time>2025-04-15T17:49:54.315Z</time>
      </trkpt>
      <trkpt lat="44.95145" lon="3.69381">
        <ele>775.7</ele>
        <time>2025-04-15T17:50:02.176Z</time>
      </trkpt>
      <trkpt lat="44.95145" lon="3.69366">
        <ele>776</ele>
        <time>2025-04-15T17:50:10.038Z</time>
      </trkpt>
      <trkpt lat="44.95148" lon="3.69342">
        <ele>776.33</ele>
        <time>2025-04-15T17:50:17.903Z</time>
      </trkpt>
      <trkpt lat="44.95158" lon="3.69317">
        <ele>776.3</ele>
        <time>2025-04-15T17:50:25.772Z</time>
      </trkpt>
      <trkpt lat="44.95168" lon="3.69291">
        <ele>776.21</ele>
        <time>2025-04-15T17:50:33.644Z</time>
      </trkpt>
      <trkpt lat="44.95169" lon="3.69275">
        <ele>776.02</ele>
        <time>2025-04-15T17:50:41.518Z</time>
      </trkpt>
      <trkpt lat="44.95167" lon="3.69261">
        <ele>775.83</ele>
        <time>2025-04-15T17:50:49.393Z</time>
      </trkpt>
      <trkpt lat="44.95163" lon="3.69247">
        <ele>775.53</ele>
        <time>2025-04-15T17:50:57.270Z</time>
      </trkpt>
      <trkpt lat="44.9515" lon="3.69219">
        <ele>775.24</ele>
        <time>2025-04-15T17:51:05.151Z</time>
      </trkpt>
      <trkpt lat="44.95136" lon="3.69191">
        <ele>774.81</ele>
        <time>2025-04-15T17:51:13.036Z</time>
      </trkpt>
      <trkpt lat="44.9513" lon="3.69175">
        <ele>774.12</ele>
        <time>2025-04-15T17:51:20.923Z</time>
      </trkpt>
      <trkpt lat="44.95124" lon="3.69146">
        <ele>773.36</ele>
        <time>2025-04-15T17:51:28.813Z</time>
      </trkpt>
      <trkpt lat="44.95126" lon="3.69127">
        <ele>772.55</ele>
        <time>2025-04-15T17:51:36.705Z</time>
      </trkpt>
      <trkpt lat="44.95128" lon="3.69107">
        <ele>771.72</ele>
        <time>2025-04-15T17:51:44.600Z</time>
      </trkpt>
      <trkpt lat="44.95133" lon="3.69097">
        <ele>770.71</ele>
        <time>2025-04-15T17:51:52.496Z</time>
      </trkpt>
      <trkpt lat="44.9514" lon="3.69087">
        <ele>769.59</ele>
        <time>2025-04-15T17:52:00.394Z</time>
      </trkpt>
      <trkpt lat="44.95159" lon="3.69074">
        <ele>768.2</ele>
        <time>2025-04-15T17:52:08.295Z</time>
      </trkpt>
      <trkpt lat="44.95177" lon="3.6906">
        <ele>766.68</ele>
        <time>2025-04-15T17:52:16.199Z</time>
      </trkpt>
      <trkpt lat="44.95185" lon="3.69049">
        <ele>765.39</ele>
        <time>2025-04-15T17:52:24.105Z</time>
      </trkpt>
      <trkpt lat="44.95187" lon="3.69041">
        <ele>764.18</ele>
        <time>2025-04-15T17:52:32.012Z</time>
      </trkpt>
      <trkpt lat="44.95188" lon="3.6903">
        <ele>762.92</ele>
        <time>2025-04-15T17:52:39.920Z</time>
      </trkpt>
      <trkpt lat="44.95187" lon="3.69017">
        <ele>761.69</ele>
        <time>2025-04-15T17:52:47.830Z</time>
      </trkpt>
      <trkpt lat="44.95177" lon="3.68978">
        <ele>760.4</ele>
        <time>2025-04-15T17:52:55.745Z</time>
      </trkpt>
      <trkpt lat="44.95166" lon="3.68938">
        <ele>759.09</ele>
        <time>2025-04-15T17:53:03.664Z</time>
      </trkpt>
      <trkpt lat="44.95156" lon="3.68898">
        <ele>757.71</ele>
        <time>2025-04-15T17:53:11.588Z</time>
      </trkpt>
      <trkpt lat="44.95145" lon="3.68859">
        <ele>756.15</ele>
        <time>2025-04-15T17:53:19.517Z</time>
      </trkpt>
      <trkpt lat="44.9514" lon="3.68846">
        <ele>754.91</ele>
        <time>2025-04-15T17:53:27.448Z</time>
      </trkpt>
      <trkpt lat="44.95133" lon="3.68837">
        <ele>753.79</ele>
        <time>2025-04-15T17:53:35.380Z</time>
      </trkpt>
      <trkpt lat="44.95125" lon="3.6883">
        <ele>752.77</ele>
        <time>2025-04-15T17:53:43.314Z</time>
      </trkpt>
      <trkpt lat="44.95114" lon="3.68826">
        <ele>751.8</ele>
        <time>2025-04-15T17:53:51.250Z</time>
      </trkpt>
      <trkpt lat="44.95099" lon="3.68824">
        <ele>750.92</ele>
        <time>2025-04-15T17:53:59.188Z</time>
      </trkpt>
      <trkpt lat="44.95077" lon="3.68833">
        <ele>750.35</ele>
        <time>2025-04-15T17:54:07.130Z</time>
      </trkpt>
      <trkpt lat="44.95064" lon="3.68835">
        <ele>749.7</ele>
        <time>2025-04-15T17:54:15.074Z</time>
      </trkpt>
      <trkpt lat="44.95055" lon="3.68832">
        <ele>749.06</ele>
        <time>2025-04-15T17:54:23.019Z</time>
      </trkpt>
      <trkpt lat="44.95045" lon="3.68823">
        <ele>748.42</ele>
        <time>2025-04-15T17:54:30.966Z</time>
      </trkpt>
      <trkpt lat="44.95034" lon="3.688">
        <ele>747.69</ele>
        <time>2025-04-15T17:54:38.916Z</time>
      </trkpt>
      <trkpt lat="44.95023" lon="3.68777">
        <ele>747.04</ele>
        <time>2025-04-15T17:54:46.869Z</time>
      </trkpt>
      <trkpt lat="44.95015" lon="3.68743">
        <ele>746.22</ele>
        <time>2025-04-15T17:54:54.826Z</time>
      </trkpt>
      <trkpt lat="44.95011" lon="3.68735">
        <ele>745.8</ele>
        <time>2025-04-15T17:55:02.785Z</time>
      </trkpt>
      <trkpt lat="44.95003" lon="3.68728">
        <ele>745.54</ele>
        <time>2025-04-15T17:55:10.745Z</time>
      </trkpt>
      <trkpt lat="44.94982" lon="3.68713">
        <ele>745.51</ele>
        <time>2025-04-15T17:55:18.709Z</time>
      </trkpt>
      <trkpt lat="44.94961" lon="3.68699">
        <ele>745.7</ele>
        <time>2025-04-15T17:55:26.677Z</time>
      </trkpt>
      <trkpt lat="44.9495" lon="3.68688">
        <ele>745.76</ele>
        <time>2025-04-15T17:55:34.647Z</time>
      </trkpt>
      <trkpt lat="44.94936" lon="3.68662">
        <ele>745.77</ele>
        <time>2025-04-15T17:55:42.620Z</time>
      </trkpt>
      <trkpt lat="44.94922" lon="3.68636">
        <ele>745.84</ele>
        <time>2025-04-15T17:55:50.597Z</time>
      </trkpt>
      <trkpt lat="44.94914" lon="3.68625">
        <ele>746.06</ele>
        <time>2025-04-15T17:55:58.576Z</time>
      </trkpt>
      <trkpt lat="44.94888" lon="3.68601">
        <ele>746.41</ele>
        <time>2025-04-15T17:56:06.560Z</time>
      </trkpt>
      <trkpt lat="44.94877" lon="3.68587">
        <ele>746.75</ele>
        <time>2025-04-15T17:56:14.546Z</time>
      </trkpt>
      <trkpt lat="44.94863" lon="3.68554">
        <ele>746.93</ele>
        <time>2025-04-15T17:56:22.537Z</time>
      </trkpt>
      <trkpt lat="44.94856" lon="3.68544">
        <ele>747.45</ele>
        <time>2025-04-15T17:56:30.529Z</time>
      </trkpt>
      <trkpt lat="44.94849" lon="3.68539">
        <ele>748.08</ele>
        <time>2025-04-15T17:56:38.523Z</time>
      </trkpt>
      <trkpt lat="44.94839" lon="3.68538">
        <ele>748.82</ele>
        <time>2025-04-15T17:56:46.518Z</time>
      </trkpt>
      <trkpt lat="44.94812" lon="3.68546">
        <ele>749.76</ele>
        <time>2025-04-15T17:56:54.518Z</time>
      </trkpt>
      <trkpt lat="44.94784" lon="3.68544">
        <ele>750.63</ele>
        <time>2025-04-15T17:57:02.522Z</time>
      </trkpt>
      <trkpt lat="44.94765" lon="3.68548">
        <ele>751.61</ele>
        <time>2025-04-15T17:57:10.529Z</time>
      </trkpt>
      <trkpt lat="44.94747" lon="3.68552">
        <ele>752.67</ele>
        <time>2025-04-15T17:57:18.539Z</time>
      </trkpt>
      <trkpt lat="44.94735" lon="3.68556">
        <ele>753.76</ele>
        <time>2025-04-15T17:57:26.551Z</time>
      </trkpt>
      <trkpt lat="44.94715" lon="3.68572">
        <ele>754.97</ele>
        <time>2025-04-15T17:57:34.567Z</time>
      </trkpt>
      <trkpt lat="44.94695" lon="3.68588">
        <ele>756.16</ele>
        <time>2025-04-15T17:57:42.586Z</time>
      </trkpt>
      <trkpt lat="44.94685" lon="3.68598">
        <ele>757.49</ele>
        <time>2025-04-15T17:57:50.607Z</time>
      </trkpt>
      <trkpt lat="44.94662" lon="3.68627">
        <ele>759.21</ele>
        <time>2025-04-15T17:57:58.633Z</time>
      </trkpt>
      <trkpt lat="44.94656" lon="3.6863">
        <ele>760.58</ele>
        <time>2025-04-15T17:58:06.660Z</time>
      </trkpt>
      <trkpt lat="44.94651" lon="3.6863">
        <ele>761.96</ele>
        <time>2025-04-15T17:58:14.688Z</time>
      </trkpt>
      <trkpt lat="44.94637" lon="3.68617">
        <ele>763.52</ele>
        <time>2025-04-15T17:58:22.719Z</time>
      </trkpt>
      <trkpt lat="44.94636" lon="3.6861">
        <ele>764.89</ele>
        <time>2025-04-15T17:58:30.751Z</time>
      </trkpt>
      <trkpt lat="44.94639" lon="3.6859">
        <ele>766.2</ele>
        <time>2025-04-15T17:58:38.785Z</time>
      </trkpt>
      <trkpt lat="44.94647" lon="3.6857">
        <ele>767.53</ele>
        <time>2025-04-15T17:58:46.822Z</time>
      </trkpt>
      <trkpt lat="44.94655" lon="3.68551">
        <ele>768.86</ele>
        <time>2025-04-15T17:58:54.861Z</time>
      </trkpt>
      <trkpt lat="44.9466" lon="3.68522">
        <ele>770.41</ele>
        <time>2025-04-15T17:59:02.903Z</time>
      </trkpt>
      <trkpt lat="44.94665" lon="3.68494">
        <ele>771.96</ele>
        <time>2025-04-15T17:59:10.949Z</time>
      </trkpt>
      <trkpt lat="44.94672" lon="3.68467">
        <ele>773.33</ele>
        <time>2025-04-15T17:59:18.998Z</time>
      </trkpt>
      <trkpt lat="44.9468" lon="3.68441">
        <ele>774.7</ele>
        <time>2025-04-15T17:59:27.050Z</time>
      </trkpt>
      <trkpt lat="44.94691" lon="3.68409">
        <ele>775.97</ele>
        <time>2025-04-15T17:59:35.106Z</time>
      </trkpt>
      <trkpt lat="44.94704" lon="3.68382">
        <ele>777.21</ele>
        <time>2025-04-15T17:59:43.166Z</time>
      </trkpt>
      <trkpt lat="44.94717" lon="3.68367">
        <ele>778.42</ele>
        <time>2025-04-15T17:59:51.229Z</time>
      </trkpt>
      <trkpt lat="44.94735" lon="3.6835">
        <ele>779.5</ele>
        <time>2025-04-15T17:59:59.295Z</time>
      </trkpt>
      <trkpt lat="44.94753" lon="3.68334">
        <ele>780.54</ele>
        <time>2025-04-15T18:00:07.365Z</time>
      </trkpt>
      <trkpt lat="44.94757" lon="3.68325">
        <ele>781.68</ele>
        <time>2025-04-15T18:00:15.436Z</time>
      </trkpt>
      <trkpt lat="44.94758" lon="3.68315">
        <ele>782.84</ele>
        <time>2025-04-15T18:00:23.508Z</time>
      </trkpt>
      <trkpt lat="44.94756" lon="3.68301">
        <ele>784.03</ele>
        <time>2025-04-15T18:00:31.582Z</time>
      </trkpt>
      <trkpt lat="44.94745" lon="3.68265">
        <ele>785.36</ele>
        <time>2025-04-15T18:00:39.660Z</time>
      </trkpt>
      <trkpt lat="44.9474" lon="3.68242">
        <ele>786.47</ele>
        <time>2025-04-15T18:00:47.741Z</time>
      </trkpt>
      <trkpt lat="44.94735" lon="3.68218">
        <ele>787.52</ele>
        <time>2025-04-15T18:00:55.825Z</time>
      </trkpt>
      <trkpt lat="44.94734" lon="3.68174">
        <ele>788.44</ele>
        <time>2025-04-15T18:01:03.914Z</time>
      </trkpt>
      <trkpt lat="44.94732" lon="3.6813">
        <ele>789.46</ele>
        <time>2025-04-15T18:01:12.008Z</time>
      </trkpt>
      <trkpt lat="44.94735" lon="3.68109">
        <ele>790.35</ele>
        <time>2025-04-15T18:01:20.104Z</time>
      </trkpt>
      <trkpt lat="44.94748" lon="3.68084">
        <ele>791.1</ele>
        <time>2025-04-15T18:01:28.203Z</time>
      </trkpt>
      <trkpt lat="44.94764" lon="3.68071">
        <ele>791.64</ele>
        <time>2025-04-15T18:01:36.305Z</time>
      </trkpt>
      <trkpt lat="44.94775" lon="3.68048">
        <ele>792.24</ele>
        <time>2025-04-15T18:01:44.411Z</time>
      </trkpt>
      <trkpt lat="44.94775" lon="3.68021">
        <ele>792.85</ele>
        <time>2025-04-15T18:01:52.520Z</time>
      </trkpt>
      <trkpt lat="44.94768" lon="3.67997">
        <ele>793.48</ele>
        <time>2025-04-15T18:02:00.632Z</time>
      </trkpt>
      <trkpt lat="44.9475" lon="3.67974">
        <ele>794.26</ele>
        <time>2025-04-15T18:02:08.747Z</time>
      </trkpt>
      <trkpt lat="44.94745" lon="3.67957">
        <ele>794.81</ele>
        <time>2025-04-15T18:02:16.865Z</time>
      </trkpt>
      <trkpt lat="44.94745" lon="3.67941">
        <ele>795.12</ele>
        <time>2025-04-15T18:02:24.984Z</time>
      </trkpt>
      <trkpt lat="44.94745" lon="3.67941">
        <ele>795.29</ele>
        <time>2025-04-15T18:02:33.103Z</time>
      </trkpt>
      <trkpt lat="44.94745" lon="3.67932">
        <ele>795.39</ele>
        <time>2025-04-15T18:02:41.223Z</time>
      </trkpt>
      <trkpt lat="44.94758" lon="3.67919">
        <ele>795.17</ele>
        <time>2025-04-15T18:02:49.346Z</time>
      </trkpt>
      <trkpt lat="44.94772" lon="3.67906">
        <ele>794.91</ele>
        <time>2025-04-15T18:02:57.472Z</time>
      </trkpt>
      <trkpt lat="44.94783" lon="3.67878">
        <ele>794.68</ele>
        <time>2025-04-15T18:03:05.601Z</time>
      </trkpt>
      <trkpt lat="44.94784" lon="3.67854">
        <ele>794.47</ele>
        <time>2025-04-15T18:03:13.733Z</time>
      </trkpt>
      <trkpt lat="44.94786" lon="3.67831">
        <ele>794.14</ele>
        <time>2025-04-15T18:03:21.868Z</time>
      </trkpt>
      <trkpt lat="44.94794" lon="3.67809">
        <ele>793.57</ele>
        <time>2025-04-15T18:03:30.005Z</time>
      </trkpt>
      <trkpt lat="44.94798" lon="3.67783">
        <ele>792.88</ele>
        <time>2025-04-15T18:03:38.145Z</time>
      </trkpt>
      <trkpt lat="44.94791" lon="3.67767">
        <ele>792.27</ele>
        <time>2025-04-15T18:03:46.288Z</time>
      </trkpt>
      <trkpt lat="44.94773" lon="3.67749">
        <ele>791.72</ele>
        <time>2025-04-15T18:03:54.434Z</time>
      </trkpt>
      <trkpt lat="44.94761" lon="3.67731">
        <ele>790.89</ele>
        <time>2025-04-15T18:04:02.583Z</time>
      </trkpt>
      <trkpt lat="44.94749" lon="3.67714">
        <ele>790</ele>
        <time>2025-04-15T18:04:10.735Z</time>
      </trkpt>
      <trkpt lat="44.94726" lon="3.67697">
        <ele>789.24</ele>
        <time>2025-04-15T18:04:18.891Z</time>
      </trkpt>
      <trkpt lat="44.94704" lon="3.67681">
        <ele>788.51</ele>
        <time>2025-04-15T18:04:27.051Z</time>
      </trkpt>
      <trkpt lat="44.94681" lon="3.67664">
        <ele>787.72</ele>
        <time>2025-04-15T18:04:35.215Z</time>
      </trkpt>
      <trkpt lat="44.94667" lon="3.67639">
        <ele>786.63</ele>
        <time>2025-04-15T18:04:43.383Z</time>
      </trkpt>
      <trkpt lat="44.94654" lon="3.67613">
        <ele>785.49</ele>
        <time>2025-04-15T18:04:51.554Z</time>
      </trkpt>
      <trkpt lat="44.94641" lon="3.67594">
        <ele>784.25</ele>
        <time>2025-04-15T18:04:59.728Z</time>
      </trkpt>
      <trkpt lat="44.94625" lon="3.67583">
        <ele>783.08</ele>
        <time>2025-04-15T18:05:07.905Z</time>
      </trkpt>
      <trkpt lat="44.94597" lon="3.67585">
        <ele>781.97</ele>
        <time>2025-04-15T18:05:16.087Z</time>
      </trkpt>
      <trkpt lat="44.94577" lon="3.67581">
        <ele>780.68</ele>
        <time>2025-04-15T18:05:24.272Z</time>
      </trkpt>
      <trkpt lat="44.94556" lon="3.67577">
        <ele>779.36</ele>
        <time>2025-04-15T18:05:32.460Z</time>
      </trkpt>
      <trkpt lat="44.9454" lon="3.67582">
        <ele>778.06</ele>
        <time>2025-04-15T18:05:40.651Z</time>
      </trkpt>
      <trkpt lat="44.94517" lon="3.67597">
        <ele>777.01</ele>
        <time>2025-04-15T18:05:48.846Z</time>
      </trkpt>
      <trkpt lat="44.9449" lon="3.67617">
        <ele>775.97</ele>
        <time>2025-04-15T18:05:57.046Z</time>
      </trkpt>
      <trkpt lat="44.94469" lon="3.67613">
        <ele>774.48</ele>
        <time>2025-04-15T18:06:05.249Z</time>
      </trkpt>
      <trkpt lat="44.94456" lon="3.67613">
        <ele>773.12</ele>
        <time>2025-04-15T18:06:13.454Z</time>
      </trkpt>
      <trkpt lat="44.9443" lon="3.67628">
        <ele>771.83</ele>
        <time>2025-04-15T18:06:21.664Z</time>
      </trkpt>
      <trkpt lat="44.94404" lon="3.67643">
        <ele>770.7</ele>
        <time>2025-04-15T18:06:29.878Z</time>
      </trkpt>
      <trkpt lat="44.94378" lon="3.67658">
        <ele>769.6</ele>
        <time>2025-04-15T18:06:38.097Z</time>
      </trkpt>
      <trkpt lat="44.94362" lon="3.67661">
        <ele>768.29</ele>
        <time>2025-04-15T18:06:46.318Z</time>
      </trkpt>
      <trkpt lat="44.94346" lon="3.67663">
        <ele>766.95</ele>
        <time>2025-04-15T18:06:54.542Z</time>
      </trkpt>
      <trkpt lat="44.94318" lon="3.67679">
        <ele>765.59</ele>
        <time>2025-04-15T18:07:02.771Z</time>
      </trkpt>
      <trkpt lat="44.94305" lon="3.67692">
        <ele>764.41</ele>
        <time>2025-04-15T18:07:11.002Z</time>
      </trkpt>
      <trkpt lat="44.94289" lon="3.67726">
        <ele>763.51</ele>
        <time>2025-04-15T18:07:19.238Z</time>
      </trkpt>
      <trkpt lat="44.94281" lon="3.67737">
        <ele>762.46</ele>
        <time>2025-04-15T18:07:27.476Z</time>
      </trkpt>
      <trkpt lat="44.94263" lon="3.67744">
        <ele>761.25</ele>
        <time>2025-04-15T18:07:35.717Z</time>
      </trkpt>
      <trkpt lat="44.94237" lon="3.67738">
        <ele>759.79</ele>
        <time>2025-04-15T18:07:43.962Z</time>
      </trkpt>
      <trkpt lat="44.9422" lon="3.67746">
        <ele>758.65</ele>
        <time>2025-04-15T18:07:52.210Z</time>
      </trkpt>
      <trkpt lat="44.942" lon="3.67762">
        <ele>757.63</ele>
        <time>2025-04-15T18:08:00.461Z</time>
      </trkpt>
      <trkpt lat="44.9418" lon="3.67788">
        <ele>756.78</ele>
        <time>2025-04-15T18:08:08.717Z</time>
      </trkpt>
      <trkpt lat="44.94164" lon="3.67796">
        <ele>755.76</ele>
        <time>2025-04-15T18:08:16.975Z</time>
      </trkpt>
      <trkpt lat="44.94138" lon="3.67802">
        <ele>754.65</ele>
        <time>2025-04-15T18:08:25.238Z</time>
      </trkpt>
      <trkpt lat="44.94122" lon="3.67811">
        <ele>753.64</ele>
        <time>2025-04-15T18:08:33.503Z</time>
      </trkpt>
      <trkpt lat="44.94106" lon="3.67821">
        <ele>752.57</ele>
        <time>2025-04-15T18:08:41.771Z</time>
      </trkpt>
      <trkpt lat="44.9409" lon="3.67833">
        <ele>751.66</ele>
        <time>2025-04-15T18:08:50.042Z</time>
      </trkpt>
      <trkpt lat="44.94075" lon="3.67845">
        <ele>750.7</ele>
        <time>2025-04-15T18:08:58.316Z</time>
      </trkpt>
      <trkpt lat="44.94062" lon="3.67862">
        <ele>749.78</ele>
        <time>2025-04-15T18:09:06.593Z</time>
      </trkpt>
      <trkpt lat="44.94053" lon="3.67882">
        <ele>748.94</ele>
        <time>2025-04-15T18:09:14.872Z</time>
      </trkpt>
      <trkpt lat="44.94044" lon="3.67901">
        <ele>748.09</ele>
        <time>2025-04-15T18:09:23.154Z</time>
      </trkpt>
      <trkpt lat="44.94027" lon="3.67921">
        <ele>747.11</ele>
        <time>2025-04-15T18:09:31.440Z</time>
      </trkpt>
      <trkpt lat="44.94009" lon="3.67941">
        <ele>746.17</ele>
        <time>2025-04-15T18:09:39.729Z</time>
      </trkpt>
      <trkpt lat="44.94002" lon="3.67963">
        <ele>745.39</ele>
        <time>2025-04-15T18:09:48.021Z</time>
      </trkpt>
      <trkpt lat="44.93989" lon="3.67974">
        <ele>744.54</ele>
        <time>2025-04-15T18:09:56.315Z</time>
      </trkpt>
      <trkpt lat="44.93965" lon="3.67982">
        <ele>743.69</ele>
        <time>2025-04-15T18:10:04.613Z</time>
      </trkpt>
      <trkpt lat="44.93947" lon="3.68002">
        <ele>742.96</ele>
        <time>2025-04-15T18:10:12.915Z</time>
      </trkpt>
      <trkpt lat="44.9393" lon="3.68022">
        <ele>742.31</ele>
        <time>2025-04-15T18:10:21.221Z</time>
      </trkpt>
      <trkpt lat="44.93914" lon="3.68029">
        <ele>741.55</ele>
        <time>2025-04-15T18:10:29.529Z</time>
      </trkpt>
      <trkpt lat="44.93914" lon="3.68029">
        <ele>740.79</ele>
        <time>2025-04-15T18:10:37.837Z</time>
      </trkpt>
      <trkpt lat="44.93894" lon="3.68036">
        <ele>739.92</ele>
        <time>2025-04-15T18:10:46.148Z</time>
      </trkpt>
      <trkpt lat="44.93881" lon="3.68046">
        <ele>739.01</ele>
        <time>2025-04-15T18:10:54.462Z</time>
      </trkpt>
      <trkpt lat="44.93875" lon="3.6806">
        <ele>738.15</ele>
        <time>2025-04-15T18:11:02.778Z</time>
      </trkpt>
      <trkpt lat="44.93872" lon="3.68079">
        <ele>737.33</ele>
        <time>2025-04-15T18:11:11.096Z</time>
      </trkpt>
      <trkpt lat="44.93874" lon="3.68111">
        <ele>736.59</ele>
        <time>2025-04-15T18:11:19.418Z</time>
      </trkpt>
      <trkpt lat="44.93877" lon="3.68144">
        <ele>735.87</ele>
        <time>2025-04-15T18:11:27.743Z</time>
      </trkpt>
      <trkpt lat="44.93876" lon="3.68159">
        <ele>735.15</ele>
        <time>2025-04-15T18:11:36.070Z</time>
      </trkpt>
      <trkpt lat="44.93871" lon="3.68173">
        <ele>734.39</ele>
        <time>2025-04-15T18:11:44.399Z</time>
      </trkpt>
      <trkpt lat="44.93862" lon="3.68184">
        <ele>733.66</ele>
        <time>2025-04-15T18:11:52.730Z</time>
      </trkpt>
      <trkpt lat="44.9385" lon="3.68191">
        <ele>732.88</ele>
        <time>2025-04-15T18:12:01.063Z</time>
      </trkpt>
      <trkpt lat="44.9385" lon="3.68191">
        <ele>732.12</ele>
        <time>2025-04-15T18:12:09.396Z</time>
      </trkpt>
      <trkpt lat="44.93836" lon="3.68198">
        <ele>731.39</ele>
        <time>2025-04-15T18:12:17.731Z</time>
      </trkpt>
      <trkpt lat="44.93817" lon="3.68198">
        <ele>730.67</ele>
        <time>2025-04-15T18:12:26.069Z</time>
      </trkpt>
      <trkpt lat="44.93799" lon="3.6819">
        <ele>730.01</ele>
        <time>2025-04-15T18:12:34.410Z</time>
      </trkpt>
      <trkpt lat="44.93786" lon="3.68174">
        <ele>729.2</ele>
        <time>2025-04-15T18:12:42.754Z</time>
      </trkpt>
      <trkpt lat="44.93786" lon="3.68174">
        <ele>728.4</ele>
        <time>2025-04-15T18:12:51.098Z</time>
      </trkpt>
      <trkpt lat="44.93772" lon="3.68138">
        <ele>727.35</ele>
        <time>2025-04-15T18:12:59.447Z</time>
      </trkpt>
      <trkpt lat="44.93756" lon="3.68112">
        <ele>726.33</ele>
        <time>2025-04-15T18:13:07.800Z</time>
      </trkpt>
      <trkpt lat="44.93737" lon="3.68104">
        <ele>725.44</ele>
        <time>2025-04-15T18:13:16.156Z</time>
      </trkpt>
      <trkpt lat="44.93722" lon="3.68114">
        <ele>724.65</ele>
        <time>2025-04-15T18:13:24.514Z</time>
      </trkpt>
      <trkpt lat="44.93705" lon="3.68129">
        <ele>723.92</ele>
        <time>2025-04-15T18:13:32.876Z</time>
      </trkpt>
      <trkpt lat="44.93689" lon="3.68144">
        <ele>723.15</ele>
        <time>2025-04-15T18:13:41.241Z</time>
      </trkpt>
      <trkpt lat="44.93669" lon="3.68156">
        <ele>722.28</ele>
        <time>2025-04-15T18:13:49.609Z</time>
      </trkpt>
      <trkpt lat="44.93649" lon="3.68169">
        <ele>721.37</ele>
        <time>2025-04-15T18:13:57.981Z</time>
      </trkpt>
      <trkpt lat="44.93626" lon="3.68187">
        <ele>720.48</ele>
        <time>2025-04-15T18:14:06.357Z</time>
      </trkpt>
      <trkpt lat="44.93604" lon="3.68206">
        <ele>719.65</ele>
        <time>2025-04-15T18:14:14.737Z</time>
      </trkpt>
      <trkpt lat="44.93584" lon="3.68212">
        <ele>718.77</ele>
        <time>2025-04-15T18:14:23.120Z</time>
      </trkpt>
      <trkpt lat="44.93567" lon="3.6821">
        <ele>717.8</ele>
        <time>2025-04-15T18:14:31.506Z</time>
      </trkpt>
      <trkpt lat="44.93549" lon="3.68208">
        <ele>716.77</ele>
        <time>2025-04-15T18:14:39.895Z</time>
      </trkpt>
      <trkpt lat="44.93537" lon="3.68214">
        <ele>715.93</ele>
        <time>2025-04-15T18:14:48.286Z</time>
      </trkpt>
      <trkpt lat="44.93517" lon="3.68243">
        <ele>715.28</ele>
        <time>2025-04-15T18:14:56.682Z</time>
      </trkpt>
      <trkpt lat="44.93507" lon="3.68263">
        <ele>714.73</ele>
        <time>2025-04-15T18:15:05.080Z</time>
      </trkpt>
      <trkpt lat="44.93497" lon="3.68282">
        <ele>714.21</ele>
        <time>2025-04-15T18:15:13.481Z</time>
      </trkpt>
      <trkpt lat="44.93486" lon="3.68298">
        <ele>713.58</ele>
        <time>2025-04-15T18:15:21.885Z</time>
      </trkpt>
      <trkpt lat="44.93472" lon="3.68306">
        <ele>712.97</ele>
        <time>2025-04-15T18:15:30.291Z</time>
      </trkpt>
      <trkpt lat="44.93455" lon="3.683">
        <ele>712.34</ele>
        <time>2025-04-15T18:15:38.700Z</time>
      </trkpt>
      <trkpt lat="44.93432" lon="3.6828">
        <ele>711.51</ele>
        <time>2025-04-15T18:15:47.113Z</time>
      </trkpt>
      <trkpt lat="44.93416" lon="3.68279">
        <ele>710.87</ele>
        <time>2025-04-15T18:15:55.529Z</time>
      </trkpt>
      <trkpt lat="44.93403" lon="3.68287">
        <ele>710.46</ele>
        <time>2025-04-15T18:16:03.947Z</time>
      </trkpt>
      <trkpt lat="44.93391" lon="3.68302">
        <ele>710.12</ele>
        <time>2025-04-15T18:16:12.367Z</time>
      </trkpt>
      <trkpt lat="44.93376" lon="3.68308">
        <ele>709.67</ele>
        <time>2025-04-15T18:16:20.790Z</time>
      </trkpt>
      <trkpt lat="44.93346" lon="3.6831">
        <ele>709.26</ele>
        <time>2025-04-15T18:16:29.218Z</time>
      </trkpt>
      <trkpt lat="44.93332" lon="3.68318">
        <ele>709</ele>
        <time>2025-04-15T18:16:37.648Z</time>
      </trkpt>
      <trkpt lat="44.93317" lon="3.68321">
        <ele>708.68</ele>
        <time>2025-04-15T18:16:46.081Z</time>
      </trkpt>
      <trkpt lat="44.93302" lon="3.68316">
        <ele>708</ele>
        <time>2025-04-15T18:16:54.516Z</time>
      </trkpt>
      <trkpt lat="44.93283" lon="3.68327">
        <ele>707.67</ele>
        <time>2025-04-15T18:17:02.954Z</time>
      </trkpt>
      <trkpt lat="44.93258" lon="3.68331">
        <ele>707.14</ele>
        <time>2025-04-15T18:17:11.397Z</time>
      </trkpt>
      <trkpt lat="44.93232" lon="3.68335">
        <ele>706.8</ele>
        <time>2025-04-15T18:17:19.844Z</time>
      </trkpt>
      <trkpt lat="44.9322" lon="3.68344">
        <ele>706.58</ele>
        <time>2025-04-15T18:17:28.293Z</time>
      </trkpt>
      <trkpt lat="44.93202" lon="3.68368">
        <ele>706.71</ele>
        <time>2025-04-15T18:17:36.746Z</time>
      </trkpt>
      <trkpt lat="44.93188" lon="3.68376">
        <ele>706.59</ele>
        <time>2025-04-15T18:17:45.201Z</time>
      </trkpt>
      <trkpt lat="44.93178" lon="3.68371">
        <ele>706.25</ele>
        <time>2025-04-15T18:17:53.658Z</time>
      </trkpt>
      <trkpt lat="44.93158" lon="3.68346">
        <ele>705.82</ele>
        <time>2025-04-15T18:18:02.119Z</time>
      </trkpt>
      <trkpt lat="44.93141" lon="3.6833">
        <ele>705.33</ele>
        <time>2025-04-15T18:18:10.583Z</time>
      </trkpt>
      <trkpt lat="44.93124" lon="3.68324">
        <ele>704.9</ele>
        <time>2025-04-15T18:18:19.050Z</time>
      </trkpt>
      <trkpt lat="44.93107" lon="3.68318">
        <ele>704.56</ele>
        <time>2025-04-15T18:18:27.520Z</time>
      </trkpt>
      <trkpt lat="44.93082" lon="3.68316">
        <ele>704.28</ele>
        <time>2025-04-15T18:18:35.994Z</time>
      </trkpt>
      <trkpt lat="44.93052" lon="3.68318">
        <ele>704.12</ele>
        <time>2025-04-15T18:18:44.473Z</time>
      </trkpt>
      <trkpt lat="44.93021" lon="3.6832">
        <ele>703.78</ele>
        <time>2025-04-15T18:18:52.957Z</time>
      </trkpt>
      <trkpt lat="44.92993" lon="3.68315">
        <ele>703.24</ele>
        <time>2025-04-15T18:19:01.445Z</time>
      </trkpt>
      <trkpt lat="44.92971" lon="3.68319">
        <ele>703.02</ele>
        <time>2025-04-15T18:19:09.937Z</time>
      </trkpt>
      <trkpt lat="44.92949" lon="3.68324">
        <ele>702.85</ele>
        <time>2025-04-15T18:19:18.433Z</time>
      </trkpt>
      <trkpt lat="44.92924" lon="3.68323">
        <ele>702.6</ele>
        <time>2025-04-15T18:19:26.932Z</time>
      </trkpt>
      <trkpt lat="44.92893" lon="3.68327">
        <ele>702.29</ele>
        <time>2025-04-15T18:19:35.436Z</time>
      </trkpt>
      <trkpt lat="44.92864" lon="3.68335">
        <ele>702.06</ele>
        <time>2025-04-15T18:19:43.945Z</time>
      </trkpt>
      <trkpt lat="44.92846" lon="3.68337">
        <ele>701.92</ele>
        <time>2025-04-15T18:19:52.457Z</time>
      </trkpt>
      <trkpt lat="44.9282" lon="3.68334">
        <ele>701.44</ele>
        <time>2025-04-15T18:20:00.973Z</time>
      </trkpt>
      <trkpt lat="44.92814" lon="3.68336">
        <ele>701.23</ele>
        <time>2025-04-15T18:20:09.490Z</time>
      </trkpt>
      <trkpt lat="44.92806" lon="3.68344">
        <ele>701.12</ele>
        <time>2025-04-15T18:20:18.009Z</time>
      </trkpt>
      <trkpt lat="44.92791" lon="3.68382">
        <ele>701.36</ele>
        <time>2025-04-15T18:20:26.533Z</time>
      </trkpt>
      <trkpt lat="44.92775" lon="3.68395">
        <ele>701.41</ele>
        <time>2025-04-15T18:20:35.060Z</time>
      </trkpt>
      <trkpt lat="44.92766" lon="3.68392">
        <ele>701.2</ele>
        <time>2025-04-15T18:20:43.588Z</time>
      </trkpt>
      <trkpt lat="44.92758" lon="3.68384">
        <ele>700.88</ele>
        <time>2025-04-15T18:20:52.118Z</time>
      </trkpt>
      <trkpt lat="44.92749" lon="3.68363">
        <ele>700.36</ele>
        <time>2025-04-15T18:21:00.651Z</time>
      </trkpt>
      <trkpt lat="44.92741" lon="3.68341">
        <ele>699.82</ele>
        <time>2025-04-15T18:21:09.186Z</time>
      </trkpt>
      <trkpt lat="44.92731" lon="3.68333">
        <ele>699.43</ele>
        <time>2025-04-15T18:21:17.723Z</time>
      </trkpt>
      <trkpt lat="44.92716" lon="3.68333">
        <ele>699.05</ele>
        <time>2025-04-15T18:21:26.263Z</time>
      </trkpt>
      <trkpt lat="44.92701" lon="3.6834">
        <ele>698.71</ele>
        <time>2025-04-15T18:21:34.805Z</time>
      </trkpt>
      <trkpt lat="44.92685" lon="3.68347">
        <ele>698.38</ele>
        <time>2025-04-15T18:21:43.350Z</time>
      </trkpt>
      <trkpt lat="44.9266" lon="3.68324">
        <ele>697.76</ele>
        <time>2025-04-15T18:21:51.900Z</time>
      </trkpt>
      <trkpt lat="44.9263" lon="3.68315">
        <ele>697.39</ele>
        <time>2025-04-15T18:22:00.454Z</time>
      </trkpt>
      <trkpt lat="44.92611" lon="3.68295">
        <ele>696.82</ele>
        <time>2025-04-15T18:22:09.012Z</time>
      </trkpt>
      <trkpt lat="44.92591" lon="3.68276">
        <ele>696.18</ele>
        <time>2025-04-15T18:22:17.574Z</time>
      </trkpt>
      <trkpt lat="44.92573" lon="3.6826">
        <ele>695.51</ele>
        <time>2025-04-15T18:22:26.140Z</time>
      </trkpt>
      <trkpt lat="44.92555" lon="3.68244">
        <ele>694.83</ele>
        <time>2025-04-15T18:22:34.709Z</time>
      </trkpt>
      <trkpt lat="44.92537" lon="3.68229">
        <ele>694.14</ele>
        <time>2025-04-15T18:22:43.281Z</time>
      </trkpt>
      <trkpt lat="44.92511" lon="3.68219">
        <ele>693.62</ele>
        <time>2025-04-15T18:22:51.858Z</time>
      </trkpt>
      <trkpt lat="44.92486" lon="3.68209">
        <ele>693.11</ele>
        <time>2025-04-15T18:23:00.439Z</time>
      </trkpt>
      <trkpt lat="44.92471" lon="3.68194">
        <ele>692.33</ele>
        <time>2025-04-15T18:23:09.023Z</time>
      </trkpt>
      <trkpt lat="44.92456" lon="3.68179">
        <ele>691.54</ele>
        <time>2025-04-15T18:23:17.610Z</time>
      </trkpt>
      <trkpt lat="44.92439" lon="3.68157">
        <ele>690.62</ele>
        <time>2025-04-15T18:23:26.200Z</time>
      </trkpt>
      <trkpt lat="44.92423" lon="3.68134">
        <ele>689.72</ele>
        <time>2025-04-15T18:23:34.794Z</time>
      </trkpt>
      <trkpt lat="44.92407" lon="3.68112">
        <ele>688.9</ele>
        <time>2025-04-15T18:23:43.392Z</time>
      </trkpt>
      <trkpt lat="44.92392" lon="3.68076">
        <ele>688.06</ele>
        <time>2025-04-15T18:23:51.994Z</time>
      </trkpt>
      <trkpt lat="44.92376" lon="3.6804">
        <ele>687.19</ele>
        <time>2025-04-15T18:24:00.601Z</time>
      </trkpt>
      <trkpt lat="44.92361" lon="3.68005">
        <ele>686.4</ele>
        <time>2025-04-15T18:24:09.213Z</time>
      </trkpt>
      <trkpt lat="44.92345" lon="3.67969">
        <ele>685.6</ele>
        <time>2025-04-15T18:24:17.830Z</time>
      </trkpt>
      <trkpt lat="44.9233" lon="3.67934">
        <ele>684.76</ele>
        <time>2025-04-15T18:24:26.451Z</time>
      </trkpt>
      <trkpt lat="44.92313" lon="3.67905">
        <ele>683.87</ele>
        <time>2025-04-15T18:24:35.077Z</time>
      </trkpt>
      <trkpt lat="44.92295" lon="3.67877">
        <ele>682.94</ele>
        <time>2025-04-15T18:24:43.707Z</time>
      </trkpt>
      <trkpt lat="44.92278" lon="3.67848">
        <ele>682.06</ele>
        <time>2025-04-15T18:24:52.341Z</time>
      </trkpt>
      <trkpt lat="44.92261" lon="3.6782">
        <ele>681.23</ele>
        <time>2025-04-15T18:25:00.979Z</time>
      </trkpt>
      <trkpt lat="44.92243" lon="3.67791">
        <ele>680.4</ele>
        <time>2025-04-15T18:25:09.622Z</time>
      </trkpt>
      <trkpt lat="44.92226" lon="3.67763">
        <ele>679.6</ele>
        <time>2025-04-15T18:25:18.269Z</time>
      </trkpt>
      <trkpt lat="44.92226" lon="3.67763">
        <ele>678.82</ele>
        <time>2025-04-15T18:25:26.916Z</time>
      </trkpt>
      <trkpt lat="44.92215" lon="3.67746">
        <ele>678.06</ele>
        <time>2025-04-15T18:25:35.566Z</time>
      </trkpt>
      <trkpt lat="44.92204" lon="3.67729">
        <ele>677.31</ele>
        <time>2025-04-15T18:25:44.218Z</time>
      </trkpt>
      <trkpt lat="44.92204" lon="3.67729">
        <ele>676.59</ele>
        <time>2025-04-15T18:25:52.870Z</time>
      </trkpt>
      <trkpt lat="44.92189" lon="3.67704">
        <ele>675.88</ele>
        <time>2025-04-15T18:26:01.526Z</time>
      </trkpt>
      <trkpt lat="44.92174" lon="3.67679">
        <ele>675.15</ele>
        <time>2025-04-15T18:26:10.186Z</time>
      </trkpt>
      <trkpt lat="44.92159" lon="3.67655">
        <ele>674.34</ele>
        <time>2025-04-15T18:26:18.849Z</time>
      </trkpt>
      <trkpt lat="44.92139" lon="3.67626">
        <ele>673.55</ele>
        <time>2025-04-15T18:26:27.517Z</time>
      </trkpt>
      <trkpt lat="44.92132" lon="3.67618">
        <ele>672.91</ele>
        <time>2025-04-15T18:26:36.186Z</time>
      </trkpt>
      <trkpt lat="44.92122" lon="3.67618">
        <ele>672.33</ele>
        <time>2025-04-15T18:26:44.857Z</time>
      </trkpt>
      <trkpt lat="44.92111" lon="3.67625">
        <ele>671.78</ele>
        <time>2025-04-15T18:26:53.530Z</time>
      </trkpt>
      <trkpt lat="44.92097" lon="3.67641">
        <ele>671.27</ele>
        <time>2025-04-15T18:27:02.206Z</time>
      </trkpt>
      <trkpt lat="44.92091" lon="3.67658">
        <ele>670.81</ele>
        <time>2025-04-15T18:27:10.884Z</time>
      </trkpt>
      <trkpt lat="44.92089" lon="3.67682">
        <ele>670.4</ele>
        <time>2025-04-15T18:27:19.565Z</time>
      </trkpt>
      <trkpt lat="44.92083" lon="3.67713">
        <ele>670.03</ele>
        <time>2025-04-15T18:27:28.249Z</time>
      </trkpt>
      <trkpt lat="44.92073" lon="3.67732">
        <ele>669.67</ele>
        <time>2025-04-15T18:27:36.936Z</time>
      </trkpt>
      <trkpt lat="44.92054" lon="3.67734">
        <ele>669.37</ele>
        <time>2025-04-15T18:27:45.626Z</time>
      </trkpt>
      <trkpt lat="44.92044" lon="3.67731">
        <ele>669.07</ele>
        <time>2025-04-15T18:27:54.318Z</time>
      </trkpt>
      <trkpt lat="44.92033" lon="3.67718">
        <ele>668.87</ele>
        <time>2025-04-15T18:28:03.012Z</time>
      </trkpt>
      <trkpt lat="44.92026" lon="3.67676">
        <ele>668.64</ele>
        <time>2025-04-15T18:28:11.711Z</time>
      </trkpt>
      <trkpt lat="44.92024" lon="3.67654">
        <ele>668.36</ele>
        <time>2025-04-15T18:28:20.412Z</time>
      </trkpt>
      <trkpt lat="44.92021" lon="3.67631">
        <ele>668.12</ele>
        <time>2025-04-15T18:28:29.116Z</time>
      </trkpt>
      <trkpt lat="44.92022" lon="3.67599">
        <ele>667.86</ele>
        <time>2025-04-15T18:28:37.824Z</time>
      </trkpt>
      <trkpt lat="44.9203" lon="3.67562">
        <ele>667.51</ele>
        <time>2025-04-15T18:28:46.536Z</time>
      </trkpt>
      <trkpt lat="44.92033" lon="3.67536">
        <ele>667.2</ele>
        <time>2025-04-15T18:28:55.251Z</time>
      </trkpt>
      <trkpt lat="44.92029" lon="3.6751">
        <ele>666.92</ele>
        <time>2025-04-15T18:29:03.969Z</time>
      </trkpt>
      <trkpt lat="44.92024" lon="3.675">
        <ele>666.67</ele>
        <time>2025-04-15T18:29:12.688Z</time>
      </trkpt>
      <trkpt lat="44.9201" lon="3.67483">
        <ele>666.42</ele>
        <time>2025-04-15T18:29:21.410Z</time>
      </trkpt>
      <trkpt lat="44.92001" lon="3.67478">
        <ele>666.21</ele>
        <time>2025-04-15T18:29:30.134Z</time>
      </trkpt>
      <trkpt lat="44.91993" lon="3.67481">
        <ele>666.02</ele>
        <time>2025-04-15T18:29:38.859Z</time>
      </trkpt>
      <trkpt lat="44.9198" lon="3.67469">
        <ele>665.81</ele>
        <time>2025-04-15T18:29:47.587Z</time>
      </trkpt>
      <trkpt lat="44.91975" lon="3.67455">
        <ele>665.58</ele>
        <time>2025-04-15T18:29:56.317Z</time>
      </trkpt>
      <trkpt lat="44.91971" lon="3.67418">
        <ele>665.28</ele>
        <time>2025-04-15T18:30:05.051Z</time>
      </trkpt>
      <trkpt lat="44.91971" lon="3.67418">
        <ele>665.06</ele>
        <time>2025-04-15T18:30:13.785Z</time>
      </trkpt>
      <trkpt lat="44.91972" lon="3.67382">
        <ele>664.73</ele>
        <time>2025-04-15T18:30:22.523Z</time>
      </trkpt>
      <trkpt lat="44.91967" lon="3.67364">
        <ele>664.44</ele>
        <time>2025-04-15T18:30:31.263Z</time>
      </trkpt>
      <trkpt lat="44.91962" lon="3.67358">
        <ele>664.23</ele>
        <time>2025-04-15T18:30:40.004Z</time>
      </trkpt>
      <trkpt lat="44.91942" lon="3.67343">
        <ele>664.04</ele>
        <time>2025-04-15T18:30:48.749Z</time>
      </trkpt>
      <trkpt lat="44.91922" lon="3.67328">
        <ele>663.85</ele>
        <time>2025-04-15T18:30:57.497Z</time>
      </trkpt>
      <trkpt lat="44.91902" lon="3.67312">
        <ele>663.69</ele>
        <time>2025-04-15T18:31:06.249Z</time>
      </trkpt>
      <trkpt lat="44.91891" lon="3.67302">
        <ele>663.49</ele>
        <time>2025-04-15T18:31:15.003Z</time>
      </trkpt>
      <trkpt lat="44.91882" lon="3.67302">
        <ele>663.33</ele>
        <time>2025-04-15T18:31:23.759Z</time>
      </trkpt>
      <trkpt lat="44.91856" lon="3.67293">
        <ele>663.17</ele>
        <time>2025-04-15T18:31:32.519Z</time>
      </trkpt>
      <trkpt lat="44.91849" lon="3.6728">
        <ele>663</ele>
        <time>2025-04-15T18:31:41.281Z</time>
      </trkpt>
      <trkpt lat="44.91843" lon="3.67258">
        <ele>662.8</ele>
        <time>2025-04-15T18:31:50.046Z</time>
      </trkpt>
      <trkpt lat="44.91836" lon="3.67235">
        <ele>662.64</ele>
        <time>2025-04-15T18:31:58.813Z</time>
      </trkpt>
      <trkpt lat="44.91828" lon="3.67218">
        <ele>662.54</ele>
        <time>2025-04-15T18:32:07.583Z</time>
      </trkpt>
      <trkpt lat="44.91808" lon="3.67193">
        <ele>662.53</ele>
        <time>2025-04-15T18:32:16.357Z</time>
      </trkpt>
      <trkpt lat="44.91788" lon="3.67169">
        <ele>662.64</ele>
        <time>2025-04-15T18:32:25.135Z</time>
      </trkpt>
      <trkpt lat="44.91779" lon="3.67158">
        <ele>662.73</ele>
        <time>2025-04-15T18:32:33.915Z</time>
      </trkpt>
      <trkpt lat="44.91774" lon="3.67157">
        <ele>662.77</ele>
        <time>2025-04-15T18:32:42.696Z</time>
      </trkpt>
      <trkpt lat="44.9177" lon="3.67156">
        <ele>662.82</ele>
        <time>2025-04-15T18:32:51.477Z</time>
      </trkpt>
      <trkpt lat="44.91751" lon="3.67164">
        <ele>662.97</ele>
        <time>2025-04-15T18:33:00.262Z</time>
      </trkpt>
      <trkpt lat="44.91731" lon="3.67172">
        <ele>663.1</ele>
        <time>2025-04-15T18:33:09.050Z</time>
      </trkpt>
      <trkpt lat="44.9171" lon="3.67183">
        <ele>663.31</ele>
        <time>2025-04-15T18:33:17.842Z</time>
      </trkpt>
      <trkpt lat="44.91689" lon="3.67194">
        <ele>663.54</ele>
        <time>2025-04-15T18:33:26.637Z</time>
      </trkpt>
      <trkpt lat="44.91668" lon="3.67205">
        <ele>663.79</ele>
        <time>2025-04-15T18:33:35.436Z</time>
      </trkpt>
      <trkpt lat="44.91654" lon="3.67215">
        <ele>663.99</ele>
        <time>2025-04-15T18:33:44.237Z</time>
      </trkpt>
      <trkpt lat="44.91639" lon="3.67225">
        <ele>664.23</ele>
        <time>2025-04-15T18:33:53.041Z</time>
      </trkpt>
      <trkpt lat="44.91613" lon="3.67247">
        <ele>664.45</ele>
        <time>2025-04-15T18:34:01.850Z</time>
      </trkpt>
      <trkpt lat="44.91594" lon="3.67266">
        <ele>664.67</ele>
        <time>2025-04-15T18:34:10.662Z</time>
      </trkpt>
      <trkpt lat="44.91575" lon="3.67285">
        <ele>664.84</ele>
        <time>2025-04-15T18:34:19.478Z</time>
      </trkpt>
      <trkpt lat="44.91547" lon="3.67306">
        <ele>665</ele>
        <time>2025-04-15T18:34:28.299Z</time>
      </trkpt>
      <trkpt lat="44.9152" lon="3.67328">
        <ele>665.1</ele>
        <time>2025-04-15T18:34:37.125Z</time>
      </trkpt>
      <trkpt lat="44.9151" lon="3.67338">
        <ele>665.47</ele>
        <time>2025-04-15T18:34:45.953Z</time>
      </trkpt>
      <trkpt lat="44.91493" lon="3.67365">
        <ele>665.9</ele>
        <time>2025-04-15T18:34:54.785Z</time>
      </trkpt>
      <trkpt lat="44.91489" lon="3.67378">
        <ele>666.5</ele>
        <time>2025-04-15T18:35:03.619Z</time>
      </trkpt>
      <trkpt lat="44.91485" lon="3.67398">
        <ele>667.21</ele>
        <time>2025-04-15T18:35:12.455Z</time>
      </trkpt>
      <trkpt lat="44.91486" lon="3.67423">
        <ele>668</ele>
        <time>2025-04-15T18:35:21.294Z</time>
      </trkpt>
      <trkpt lat="44.91483" lon="3.67433">
        <ele>668.87</ele>
        <time>2025-04-15T18:35:30.134Z</time>
      </trkpt>
      <trkpt lat="44.91478" lon="3.67442">
        <ele>669.81</ele>
        <time>2025-04-15T18:35:38.976Z</time>
      </trkpt>
      <trkpt lat="44.91457" lon="3.67459">
        <ele>670.81</ele>
        <time>2025-04-15T18:35:47.822Z</time>
      </trkpt>
      <trkpt lat="44.91435" lon="3.67476">
        <ele>671.91</ele>
        <time>2025-04-15T18:35:56.672Z</time>
      </trkpt>
      <trkpt lat="44.9141" lon="3.67496">
        <ele>673.12</ele>
        <time>2025-04-15T18:36:05.526Z</time>
      </trkpt>
      <trkpt lat="44.91385" lon="3.67516">
        <ele>674.47</ele>
        <time>2025-04-15T18:36:14.385Z</time>
      </trkpt>
      <trkpt lat="44.9136" lon="3.67537">
        <ele>675.89</ele>
        <time>2025-04-15T18:36:23.248Z</time>
      </trkpt>
      <trkpt lat="44.9136" lon="3.67537">
        <ele>677.37</ele>
        <time>2025-04-15T18:36:32.111Z</time>
      </trkpt>
      <trkpt lat="44.91342" lon="3.67564">
        <ele>679.1</ele>
        <time>2025-04-15T18:36:40.979Z</time>
      </trkpt>
      <trkpt lat="44.91328" lon="3.67596">
        <ele>681</ele>
        <time>2025-04-15T18:36:49.851Z</time>
      </trkpt>
      <trkpt lat="44.91314" lon="3.67628">
        <ele>683.03</ele>
        <time>2025-04-15T18:36:58.727Z</time>
      </trkpt>
      <trkpt lat="44.91301" lon="3.67659">
        <ele>685.05</ele>
        <time>2025-04-15T18:37:07.607Z</time>
      </trkpt>
      <trkpt lat="44.91301" lon="3.67659">
        <ele>686.94</ele>
        <time>2025-04-15T18:37:16.487Z</time>
      </trkpt>
      <trkpt lat="44.913" lon="3.6766">
        <ele>688.9</ele>
        <time>2025-04-15T18:37:25.367Z</time>
      </trkpt>
      <trkpt lat="44.913" lon="3.67659">
        <ele>690.93</ele>
        <time>2025-04-15T18:37:34.248Z</time>
      </trkpt>
      <trkpt lat="44.91284" lon="3.67697">
        <ele>693.15</ele>
        <time>2025-04-15T18:37:43.134Z</time>
      </trkpt>
      <trkpt lat="44.91268" lon="3.67728">
        <ele>695.46</ele>
        <time>2025-04-15T18:37:52.024Z</time>
      </trkpt>
      <trkpt lat="44.91252" lon="3.6776">
        <ele>697.65</ele>
        <time>2025-04-15T18:38:00.918Z</time>
      </trkpt>
      <trkpt lat="44.91236" lon="3.67792">
        <ele>699.96</ele>
        <time>2025-04-15T18:38:09.817Z</time>
      </trkpt>
      <trkpt lat="44.9122" lon="3.67823">
        <ele>702.38</ele>
        <time>2025-04-15T18:38:18.720Z</time>
      </trkpt>
      <trkpt lat="44.91215" lon="3.67857">
        <ele>704.72</ele>
        <time>2025-04-15T18:38:27.627Z</time>
      </trkpt>
      <trkpt lat="44.91211" lon="3.67891">
        <ele>707.16</ele>
        <time>2025-04-15T18:38:36.538Z</time>
      </trkpt>
      <trkpt lat="44.91207" lon="3.67924">
        <ele>709.58</ele>
        <time>2025-04-15T18:38:45.453Z</time>
      </trkpt>
      <trkpt lat="44.91196" lon="3.6795">
        <ele>712.01</ele>
        <time>2025-04-15T18:38:54.371Z</time>
      </trkpt>
      <trkpt lat="44.91185" lon="3.67976">
        <ele>714.52</ele>
        <time>2025-04-15T18:39:03.293Z</time>
      </trkpt>
      <trkpt lat="44.91166" lon="3.67993">
        <ele>717.1</ele>
        <time>2025-04-15T18:39:12.218Z</time>
      </trkpt>
      <trkpt lat="44.91147" lon="3.6801">
        <ele>719.62</ele>
        <time>2025-04-15T18:39:21.147Z</time>
      </trkpt>
      <trkpt lat="44.91128" lon="3.68035">
        <ele>722.01</ele>
        <time>2025-04-15T18:39:30.080Z</time>
      </trkpt>
      <trkpt lat="44.91109" lon="3.6806">
        <ele>724.43</ele>
        <time>2025-04-15T18:39:39.017Z</time>
      </trkpt>
      <trkpt lat="44.9109" lon="3.68085">
        <ele>726.86</ele>
        <time>2025-04-15T18:39:47.958Z</time>
      </trkpt>
      <trkpt lat="44.91071" lon="3.68109">
        <ele>729.23</ele>
        <time>2025-04-15T18:39:56.904Z</time>
      </trkpt>
      <trkpt lat="44.91052" lon="3.68134">
        <ele>731.58</ele>
        <time>2025-04-15T18:40:05.854Z</time>
      </trkpt>
      <trkpt lat="44.91034" lon="3.68153">
        <ele>733.95</ele>
        <time>2025-04-15T18:40:14.807Z</time>
      </trkpt>
      <trkpt lat="44.91016" lon="3.68171">
        <ele>736.32</ele>
        <time>2025-04-15T18:40:23.764Z</time>
      </trkpt>
      <trkpt lat="44.91007" lon="3.68179">
        <ele>738.6</ele>
        <time>2025-04-15T18:40:32.723Z</time>
      </trkpt>
      <trkpt lat="44.9099" lon="3.68207">
        <ele>740.84</ele>
        <time>2025-04-15T18:40:41.686Z</time>
      </trkpt>
      <trkpt lat="44.90974" lon="3.68235">
        <ele>743.13</ele>
        <time>2025-04-15T18:40:50.653Z</time>
      </trkpt>
      <trkpt lat="44.90957" lon="3.68263">
        <ele>745.42</ele>
        <time>2025-04-15T18:40:59.624Z</time>
      </trkpt>
      <trkpt lat="44.90941" lon="3.68291">
        <ele>747.68</ele>
        <time>2025-04-15T18:41:08.599Z</time>
      </trkpt>
      <trkpt lat="44.90925" lon="3.68319">
        <ele>749.84</ele>
        <time>2025-04-15T18:41:17.578Z</time>
      </trkpt>
      <trkpt lat="44.90908" lon="3.68347">
        <ele>751.9</ele>
        <time>2025-04-15T18:41:26.561Z</time>
      </trkpt>
      <trkpt lat="44.90885" lon="3.68357">
        <ele>753.99</ele>
        <time>2025-04-15T18:41:35.548Z</time>
      </trkpt>
      <trkpt lat="44.90861" lon="3.68368">
        <ele>756.08</ele>
        <time>2025-04-15T18:41:44.539Z</time>
      </trkpt>
      <trkpt lat="44.90843" lon="3.68368">
        <ele>758.17</ele>
        <time>2025-04-15T18:41:53.533Z</time>
      </trkpt>
      <trkpt lat="44.90825" lon="3.68368">
        <ele>760.17</ele>
        <time>2025-04-15T18:42:02.530Z</time>
      </trkpt>
      <trkpt lat="44.90799" lon="3.6839">
        <ele>762.07</ele>
        <time>2025-04-15T18:42:11.532Z</time>
      </trkpt>
      <trkpt lat="44.90784" lon="3.68404">
        <ele>763.92</ele>
        <time>2025-04-15T18:42:20.537Z</time>
      </trkpt>
      <trkpt lat="44.90769" lon="3.68418">
        <ele>765.74</ele>
        <time>2025-04-15T18:42:29.545Z</time>
      </trkpt>
      <trkpt lat="44.90745" lon="3.6842">
        <ele>767.51</ele>
        <time>2025-04-15T18:42:38.556Z</time>
      </trkpt>
      <trkpt lat="44.90722" lon="3.68422">
        <ele>769.21</ele>
        <time>2025-04-15T18:42:47.571Z</time>
      </trkpt>
      <trkpt lat="44.90698" lon="3.68424">
        <ele>770.86</ele>
        <time>2025-04-15T18:42:56.590Z</time>
      </trkpt>
      <trkpt lat="44.90673" lon="3.68426">
        <ele>772.47</ele>
        <time>2025-04-15T18:43:05.613Z</time>
      </trkpt>
      <trkpt lat="44.90648" lon="3.68428">
        <ele>774.05</ele>
        <time>2025-04-15T18:43:14.640Z</time>
      </trkpt>
      <trkpt lat="44.90622" lon="3.6843">
        <ele>775.59</ele>
        <time>2025-04-15T18:43:23.671Z</time>
      </trkpt>
      <trkpt lat="44.90597" lon="3.68433">
        <ele>776.97</ele>
        <time>2025-04-15T18:43:32.706Z</time>
      </trkpt>
      <trkpt lat="44.90572" lon="3.68435">
        <ele>778.28</ele>
        <time>2025-04-15T18:43:41.745Z</time>
      </trkpt>
      <trkpt lat="44.90559" lon="3.68433">
        <ele>779.54</ele>
        <time>2025-04-15T18:43:50.786Z</time>
      </trkpt>
      <trkpt lat="44.90539" lon="3.68411">
        <ele>780.76</ele>
        <time>2025-04-15T18:43:59.831Z</time>
      </trkpt>
      <trkpt lat="44.9052" lon="3.6839">
        <ele>781.95</ele>
        <time>2025-04-15T18:44:08.880Z</time>
      </trkpt>
      <trkpt lat="44.90502" lon="3.68404">
        <ele>783.01</ele>
        <time>2025-04-15T18:44:17.933Z</time>
      </trkpt>
      <trkpt lat="44.90484" lon="3.68418">
        <ele>784.02</ele>
        <time>2025-04-15T18:44:26.989Z</time>
      </trkpt>
      <trkpt lat="44.90473" lon="3.68453">
        <ele>784.95</ele>
        <time>2025-04-15T18:44:36.049Z</time>
      </trkpt>
      <trkpt lat="44.90463" lon="3.68488">
        <ele>785.86</ele>
        <time>2025-04-15T18:44:45.114Z</time>
      </trkpt>
      <trkpt lat="44.90453" lon="3.68523">
        <ele>786.7</ele>
        <time>2025-04-15T18:44:54.183Z</time>
      </trkpt>
      <trkpt lat="44.90442" lon="3.68559">
        <ele>787.52</ele>
        <time>2025-04-15T18:45:03.256Z</time>
      </trkpt>
      <trkpt lat="44.90432" lon="3.68594">
        <ele>788.29</ele>
        <time>2025-04-15T18:45:12.334Z</time>
      </trkpt>
      <trkpt lat="44.90421" lon="3.68623">
        <ele>789.02</ele>
        <time>2025-04-15T18:45:21.415Z</time>
      </trkpt>
      <trkpt lat="44.90411" lon="3.68651">
        <ele>789.73</ele>
        <time>2025-04-15T18:45:30.500Z</time>
      </trkpt>
      <trkpt lat="44.90396" lon="3.68662">
        <ele>790.39</ele>
        <time>2025-04-15T18:45:39.588Z</time>
      </trkpt>
      <trkpt lat="44.90367" lon="3.68647">
        <ele>790.9</ele>
        <time>2025-04-15T18:45:48.681Z</time>
      </trkpt>
      <trkpt lat="44.90338" lon="3.68632">
        <ele>791.36</ele>
        <time>2025-04-15T18:45:57.778Z</time>
      </trkpt>
      <trkpt lat="44.9031" lon="3.68617">
        <ele>791.8</ele>
        <time>2025-04-15T18:46:06.880Z</time>
      </trkpt>
      <trkpt lat="44.90287" lon="3.68601">
        <ele>792.13</ele>
        <time>2025-04-15T18:46:15.986Z</time>
      </trkpt>
      <trkpt lat="44.90264" lon="3.68586">
        <ele>792.42</ele>
        <time>2025-04-15T18:46:25.096Z</time>
      </trkpt>
      <trkpt lat="44.90241" lon="3.6857">
        <ele>792.76</ele>
        <time>2025-04-15T18:46:34.211Z</time>
      </trkpt>
      <trkpt lat="44.9022" lon="3.6855">
        <ele>793.02</ele>
        <time>2025-04-15T18:46:43.330Z</time>
      </trkpt>
      <trkpt lat="44.90198" lon="3.6853">
        <ele>793.23</ele>
        <time>2025-04-15T18:46:52.453Z</time>
      </trkpt>
      <trkpt lat="44.90177" lon="3.6851">
        <ele>793.44</ele>
        <time>2025-04-15T18:47:01.580Z</time>
      </trkpt>
      <trkpt lat="44.9016" lon="3.68485">
        <ele>793.67</ele>
        <time>2025-04-15T18:47:10.711Z</time>
      </trkpt>
      <trkpt lat="44.90142" lon="3.68461">
        <ele>793.85</ele>
        <time>2025-04-15T18:47:19.846Z</time>
      </trkpt>
      <trkpt lat="44.90125" lon="3.68437">
        <ele>793.94</ele>
        <time>2025-04-15T18:47:28.985Z</time>
      </trkpt>
      <trkpt lat="44.90115" lon="3.68433">
        <ele>794.03</ele>
        <time>2025-04-15T18:47:38.125Z</time>
      </trkpt>
      <trkpt lat="44.90097" lon="3.68437">
        <ele>794.07</ele>
        <time>2025-04-15T18:47:47.268Z</time>
      </trkpt>
      <trkpt lat="44.90087" lon="3.684">
        <ele>794.09</ele>
        <time>2025-04-15T18:47:56.416Z</time>
      </trkpt>
      <trkpt lat="44.90076" lon="3.68364">
        <ele>794.3</ele>
        <time>2025-04-15T18:48:05.568Z</time>
      </trkpt>
      <trkpt lat="44.90059" lon="3.68327">
        <ele>794.61</ele>
        <time>2025-04-15T18:48:14.725Z</time>
      </trkpt>
      <trkpt lat="44.90048" lon="3.68291">
        <ele>794.85</ele>
        <time>2025-04-15T18:48:23.887Z</time>
      </trkpt>
      <trkpt lat="44.90037" lon="3.68254">
        <ele>795.08</ele>
        <time>2025-04-15T18:48:33.053Z</time>
      </trkpt>
      <trkpt lat="44.90027" lon="3.68218">
        <ele>795.34</ele>
        <time>2025-04-15T18:48:42.224Z</time>
      </trkpt>
      <trkpt lat="44.90009" lon="3.68197">
        <ele>795.58</ele>
        <time>2025-04-15T18:48:51.398Z</time>
      </trkpt>
      <trkpt lat="44.90008" lon="3.68195">
        <ele>795.93</ele>
        <time>2025-04-15T18:49:00.573Z</time>
      </trkpt>
      <trkpt lat="44.90008" lon="3.68195">
        <ele>796.35</ele>
        <time>2025-04-15T18:49:09.748Z</time>
      </trkpt>
      <trkpt lat="44.90007" lon="3.68193">
        <ele>796.82</ele>
        <time>2025-04-15T18:49:18.923Z</time>
      </trkpt>
      <trkpt lat="44.90009" lon="3.68197">
        <ele>795.58</ele>
        <time>2025-04-15T18:49:28.098Z</time>
      </trkpt>
      <trkpt lat="44.90027" lon="3.68218">
        <ele>795.34</ele>
        <time>2025-04-15T18:49:37.277Z</time>
      </trkpt>
      <trkpt lat="44.90037" lon="3.68255">
        <ele>798.76</ele>
        <time>2025-04-15T18:49:46.460Z</time>
      </trkpt>
      <trkpt lat="44.90048" lon="3.68291">
        <ele>799.53</ele>
        <time>2025-04-15T18:49:55.648Z</time>
      </trkpt>
      <trkpt lat="44.90059" lon="3.68327">
        <ele>794.61</ele>
        <time>2025-04-15T18:50:04.840Z</time>
      </trkpt>
      <trkpt lat="44.90076" lon="3.68364">
        <ele>794.3</ele>
        <time>2025-04-15T18:50:14.037Z</time>
      </trkpt>
      <trkpt lat="44.90087" lon="3.684">
        <ele>802.05</ele>
        <time>2025-04-15T18:50:23.239Z</time>
      </trkpt>
      <trkpt lat="44.90097" lon="3.68437">
        <ele>803.24</ele>
        <time>2025-04-15T18:50:32.445Z</time>
      </trkpt>
      <trkpt lat="44.90089" lon="3.68456">
        <ele>804.27</ele>
        <time>2025-04-15T18:50:41.654Z</time>
      </trkpt>
      <trkpt lat="44.90091" lon="3.68465">
        <ele>805.54</ele>
        <time>2025-04-15T18:50:50.864Z</time>
      </trkpt>
      <trkpt lat="44.90107" lon="3.68493">
        <ele>807.03</ele>
        <time>2025-04-15T18:51:00.078Z</time>
      </trkpt>
      <trkpt lat="44.90122" lon="3.68522">
        <ele>808.62</ele>
        <time>2025-04-15T18:51:09.296Z</time>
      </trkpt>
      <trkpt lat="44.90138" lon="3.68551">
        <ele>810.17</ele>
        <time>2025-04-15T18:51:18.518Z</time>
      </trkpt>
      <trkpt lat="44.90149" lon="3.68589">
        <ele>811.95</ele>
        <time>2025-04-15T18:51:27.745Z</time>
      </trkpt>
      <trkpt lat="44.90161" lon="3.68627">
        <ele>813.75</ele>
        <time>2025-04-15T18:51:36.977Z</time>
      </trkpt>
      <trkpt lat="44.90172" lon="3.68665">
        <ele>815.54</ele>
        <time>2025-04-15T18:51:46.213Z</time>
      </trkpt>
      <trkpt lat="44.90183" lon="3.68703">
        <ele>817.32</ele>
        <time>2025-04-15T18:51:55.454Z</time>
      </trkpt>
      <trkpt lat="44.90183" lon="3.68703">
        <ele>819.1</ele>
        <time>2025-04-15T18:52:04.695Z</time>
      </trkpt>
      <trkpt lat="44.90194" lon="3.6872">
        <ele>820.94</ele>
        <time>2025-04-15T18:52:13.939Z</time>
      </trkpt>
      <trkpt lat="44.90205" lon="3.68737">
        <ele>822.88</ele>
        <time>2025-04-15T18:52:23.185Z</time>
      </trkpt>
      <trkpt lat="44.90228" lon="3.68765">
        <ele>824.97</ele>
        <time>2025-04-15T18:52:32.436Z</time>
      </trkpt>
      <trkpt lat="44.90252" lon="3.68793">
        <ele>826.94</ele>
        <time>2025-04-15T18:52:41.692Z</time>
      </trkpt>
      <trkpt lat="44.90275" lon="3.68821">
        <ele>828.86</ele>
        <time>2025-04-15T18:52:50.953Z</time>
      </trkpt>
      <trkpt lat="44.90288" lon="3.68845">
        <ele>830.88</ele>
        <time>2025-04-15T18:53:00.217Z</time>
      </trkpt>
      <trkpt lat="44.90301" lon="3.68868">
        <ele>832.95</ele>
        <time>2025-04-15T18:53:09.485Z</time>
      </trkpt>
      <trkpt lat="44.90307" lon="3.68901">
        <ele>835.16</ele>
        <time>2025-04-15T18:53:18.757Z</time>
      </trkpt>
      <trkpt lat="44.90313" lon="3.68934">
        <ele>837.35</ele>
        <time>2025-04-15T18:53:28.033Z</time>
      </trkpt>
      <trkpt lat="44.90318" lon="3.68967">
        <ele>839.47</ele>
        <time>2025-04-15T18:53:37.312Z</time>
      </trkpt>
      <trkpt lat="44.90315" lon="3.69006">
        <ele>841.59</ele>
        <time>2025-04-15T18:53:46.596Z</time>
      </trkpt>
      <trkpt lat="44.90311" lon="3.69044">
        <ele>843.56</ele>
        <time>2025-04-15T18:53:55.884Z</time>
      </trkpt>
      <trkpt lat="44.90308" lon="3.69083">
        <ele>845.48</ele>
        <time>2025-04-15T18:54:05.177Z</time>
      </trkpt>
      <trkpt lat="44.90298" lon="3.69106">
        <ele>847.49</ele>
        <time>2025-04-15T18:54:14.473Z</time>
      </trkpt>
      <trkpt lat="44.90288" lon="3.6913">
        <ele>849.5</ele>
        <time>2025-04-15T18:54:23.772Z</time>
      </trkpt>
      <trkpt lat="44.90281" lon="3.6917">
        <ele>851.54</ele>
        <time>2025-04-15T18:54:33.076Z</time>
      </trkpt>
      <trkpt lat="44.90273" lon="3.69209">
        <ele>853.55</ele>
        <time>2025-04-15T18:54:42.384Z</time>
      </trkpt>
      <trkpt lat="44.90264" lon="3.69242">
        <ele>855.49</ele>
        <time>2025-04-15T18:54:51.696Z</time>
      </trkpt>
      <trkpt lat="44.90255" lon="3.69274">
        <ele>857.38</ele>
        <time>2025-04-15T18:55:01.012Z</time>
      </trkpt>
      <trkpt lat="44.90246" lon="3.69306">
        <ele>859.24</ele>
        <time>2025-04-15T18:55:10.332Z</time>
      </trkpt>
      <trkpt lat="44.90237" lon="3.69338">
        <ele>861</ele>
        <time>2025-04-15T18:55:19.656Z</time>
      </trkpt>
      <trkpt lat="44.90233" lon="3.69371">
        <ele>862.61</ele>
        <time>2025-04-15T18:55:28.984Z</time>
      </trkpt>
      <trkpt lat="44.90228" lon="3.69405">
        <ele>864.24</ele>
        <time>2025-04-15T18:55:38.316Z</time>
      </trkpt>
      <trkpt lat="44.90234" lon="3.69441">
        <ele>865.81</ele>
        <time>2025-04-15T18:55:47.652Z</time>
      </trkpt>
      <trkpt lat="44.90239" lon="3.69478">
        <ele>867.46</ele>
        <time>2025-04-15T18:55:56.992Z</time>
      </trkpt>
      <trkpt lat="44.9023" lon="3.69501">
        <ele>869.21</ele>
        <time>2025-04-15T18:56:06.335Z</time>
      </trkpt>
      <trkpt lat="44.90211" lon="3.69501">
        <ele>870.89</ele>
        <time>2025-04-15T18:56:15.681Z</time>
      </trkpt>
      <trkpt lat="44.90202" lon="3.69465">
        <ele>872.3</ele>
        <time>2025-04-15T18:56:25.032Z</time>
      </trkpt>
      <trkpt lat="44.90192" lon="3.69428">
        <ele>873.7</ele>
        <time>2025-04-15T18:56:34.387Z</time>
      </trkpt>
      <trkpt lat="44.90183" lon="3.69392">
        <ele>875.2</ele>
        <time>2025-04-15T18:56:43.746Z</time>
      </trkpt>
      <trkpt lat="44.90181" lon="3.69362">
        <ele>876.64</ele>
        <time>2025-04-15T18:56:53.109Z</time>
      </trkpt>
      <trkpt lat="44.90183" lon="3.6932">
        <ele>877.89</ele>
        <time>2025-04-15T18:57:02.477Z</time>
      </trkpt>
      <trkpt lat="44.90185" lon="3.69279">
        <ele>879.14</ele>
        <time>2025-04-15T18:57:11.849Z</time>
      </trkpt>
      <trkpt lat="44.90187" lon="3.69238">
        <ele>880.31</ele>
        <time>2025-04-15T18:57:21.226Z</time>
      </trkpt>
      <trkpt lat="44.9019" lon="3.69196">
        <ele>881.47</ele>
        <time>2025-04-15T18:57:30.608Z</time>
      </trkpt>
      <trkpt lat="44.90192" lon="3.69156">
        <ele>882.54</ele>
        <time>2025-04-15T18:57:39.994Z</time>
      </trkpt>
      <trkpt lat="44.9019" lon="3.69141">
        <ele>883.67</ele>
        <time>2025-04-15T18:57:49.382Z</time>
      </trkpt>
      <trkpt lat="44.9019" lon="3.69141">
        <ele>884.81</ele>
        <time>2025-04-15T18:57:58.770Z</time>
      </trkpt>
      <trkpt lat="44.90177" lon="3.6913">
        <ele>885.91</ele>
        <time>2025-04-15T18:58:08.161Z</time>
      </trkpt>
      <trkpt lat="44.9016" lon="3.69128">
        <ele>886.99</ele>
        <time>2025-04-15T18:58:17.554Z</time>
      </trkpt>
      <trkpt lat="44.90142" lon="3.69141">
        <ele>888.15</ele>
        <time>2025-04-15T18:58:26.950Z</time>
      </trkpt>
      <trkpt lat="44.90122" lon="3.69171">
        <ele>889.38</ele>
        <time>2025-04-15T18:58:36.351Z</time>
      </trkpt>
      <trkpt lat="44.90102" lon="3.69201">
        <ele>890.71</ele>
        <time>2025-04-15T18:58:45.757Z</time>
      </trkpt>
      <trkpt lat="44.90093" lon="3.69222">
        <ele>891.96</ele>
        <time>2025-04-15T18:58:55.166Z</time>
      </trkpt>
      <trkpt lat="44.90087" lon="3.69259">
        <ele>893.26</ele>
        <time>2025-04-15T18:59:04.579Z</time>
      </trkpt>
      <trkpt lat="44.9008" lon="3.69295">
        <ele>894.55</ele>
        <time>2025-04-15T18:59:13.996Z</time>
      </trkpt>
      <trkpt lat="44.90069" lon="3.69325">
        <ele>895.83</ele>
        <time>2025-04-15T18:59:23.417Z</time>
      </trkpt>
      <trkpt lat="44.90054" lon="3.69347">
        <ele>897.02</ele>
        <time>2025-04-15T18:59:32.841Z</time>
      </trkpt>
      <trkpt lat="44.90039" lon="3.69368">
        <ele>898.32</ele>
        <time>2025-04-15T18:59:42.269Z</time>
      </trkpt>
      <trkpt lat="44.90024" lon="3.6939">
        <ele>899.59</ele>
        <time>2025-04-15T18:59:51.700Z</time>
      </trkpt>
      <trkpt lat="44.90009" lon="3.69422">
        <ele>900.84</ele>
        <time>2025-04-15T19:00:01.136Z</time>
      </trkpt>
      <trkpt lat="44.90002" lon="3.6945">
        <ele>902.12</ele>
        <time>2025-04-15T19:00:10.575Z</time>
      </trkpt>
      <trkpt lat="44.89994" lon="3.69478">
        <ele>903.48</ele>
        <time>2025-04-15T19:00:20.017Z</time>
      </trkpt>
      <trkpt lat="44.89989" lon="3.69507">
        <ele>904.88</ele>
        <time>2025-04-15T19:00:29.463Z</time>
      </trkpt>
      <trkpt lat="44.89984" lon="3.69535">
        <ele>906.29</ele>
        <time>2025-04-15T19:00:38.912Z</time>
      </trkpt>
      <trkpt lat="44.89986" lon="3.69575">
        <ele>907.75</ele>
        <time>2025-04-15T19:00:48.366Z</time>
      </trkpt>
      <trkpt lat="44.89988" lon="3.69615">
        <ele>909.24</ele>
        <time>2025-04-15T19:00:57.824Z</time>
      </trkpt>
      <trkpt lat="44.89983" lon="3.69654">
        <ele>910.74</ele>
        <time>2025-04-15T19:01:07.287Z</time>
      </trkpt>
      <trkpt lat="44.89978" lon="3.69693">
        <ele>912.29</ele>
        <time>2025-04-15T19:01:16.754Z</time>
      </trkpt>
      <trkpt lat="44.89973" lon="3.69733">
        <ele>913.98</ele>
        <time>2025-04-15T19:01:26.226Z</time>
      </trkpt>
      <trkpt lat="44.89969" lon="3.69772">
        <ele>915.62</ele>
        <time>2025-04-15T19:01:35.702Z</time>
      </trkpt>
      <trkpt lat="44.89971" lon="3.69809">
        <ele>917.28</ele>
        <time>2025-04-15T19:01:45.183Z</time>
      </trkpt>
      <trkpt lat="44.89974" lon="3.69847">
        <ele>919.02</ele>
        <time>2025-04-15T19:01:54.668Z</time>
      </trkpt>
      <trkpt lat="44.89976" lon="3.69885">
        <ele>920.74</ele>
        <time>2025-04-15T19:02:04.157Z</time>
      </trkpt>
      <trkpt lat="44.89979" lon="3.69923">
        <ele>922.48</ele>
        <time>2025-04-15T19:02:13.651Z</time>
      </trkpt>
      <trkpt lat="44.89981" lon="3.6996">
        <ele>924.34</ele>
        <time>2025-04-15T19:02:23.149Z</time>
      </trkpt>
      <trkpt lat="44.89976" lon="3.69986">
        <ele>926.09</ele>
        <time>2025-04-15T19:02:32.650Z</time>
      </trkpt>
      <trkpt lat="44.89971" lon="3.70012">
        <ele>927.92</ele>
        <time>2025-04-15T19:02:42.154Z</time>
      </trkpt>
      <trkpt lat="44.8996" lon="3.70031">
        <ele>929.77</ele>
        <time>2025-04-15T19:02:51.661Z</time>
      </trkpt>
      <trkpt lat="44.89949" lon="3.7005">
        <ele>931.71</ele>
        <time>2025-04-15T19:03:01.171Z</time>
      </trkpt>
      <trkpt lat="44.89934" lon="3.70061">
        <ele>933.57</ele>
        <time>2025-04-15T19:03:10.683Z</time>
      </trkpt>
      <trkpt lat="44.89919" lon="3.70072">
        <ele>935.47</ele>
        <time>2025-04-15T19:03:20.198Z</time>
      </trkpt>
      <trkpt lat="44.89896" lon="3.70083">
        <ele>937.3</ele>
        <time>2025-04-15T19:03:29.717Z</time>
      </trkpt>
      <trkpt lat="44.89878" lon="3.701">
        <ele>939.24</ele>
        <time>2025-04-15T19:03:39.239Z</time>
      </trkpt>
      <trkpt lat="44.89871" lon="3.70125">
        <ele>941.18</ele>
        <time>2025-04-15T19:03:48.764Z</time>
      </trkpt>
      <trkpt lat="44.89863" lon="3.70149">
        <ele>943.09</ele>
        <time>2025-04-15T19:03:58.293Z</time>
      </trkpt>
      <trkpt lat="44.89868" lon="3.70184">
        <ele>945.17</ele>
        <time>2025-04-15T19:04:07.825Z</time>
      </trkpt>
      <trkpt lat="44.89881" lon="3.70216">
        <ele>947.42</ele>
        <time>2025-04-15T19:04:17.362Z</time>
      </trkpt>
      <trkpt lat="44.89883" lon="3.70241">
        <ele>949.55</ele>
        <time>2025-04-15T19:04:26.902Z</time>
      </trkpt>
      <trkpt lat="44.89868" lon="3.70267">
        <ele>951.57</ele>
        <time>2025-04-15T19:04:36.445Z</time>
      </trkpt>
      <trkpt lat="44.89848" lon="3.70292">
        <ele>953.65</ele>
        <time>2025-04-15T19:04:45.993Z</time>
      </trkpt>
      <trkpt lat="44.89829" lon="3.70317">
        <ele>955.72</ele>
        <time>2025-04-15T19:04:55.545Z</time>
      </trkpt>
      <trkpt lat="44.89814" lon="3.70349">
        <ele>957.84</ele>
        <time>2025-04-15T19:05:05.101Z</time>
      </trkpt>
      <trkpt lat="44.89799" lon="3.70381">
        <ele>959.89</ele>
        <time>2025-04-15T19:05:14.662Z</time>
      </trkpt>
      <trkpt lat="44.89795" lon="3.70422">
        <ele>961.97</ele>
        <time>2025-04-15T19:05:24.227Z</time>
      </trkpt>
      <trkpt lat="44.89796" lon="3.70465">
        <ele>964.04</ele>
        <time>2025-04-15T19:05:33.797Z</time>
      </trkpt>
      <trkpt lat="44.89797" lon="3.70508">
        <ele>966.03</ele>
        <time>2025-04-15T19:05:43.372Z</time>
      </trkpt>
      <trkpt lat="44.8979" lon="3.70548">
        <ele>968.03</ele>
        <time>2025-04-15T19:05:52.952Z</time>
      </trkpt>
      <trkpt lat="44.89778" lon="3.70587">
        <ele>969.95</ele>
        <time>2025-04-15T19:06:02.537Z</time>
      </trkpt>
      <trkpt lat="44.89765" lon="3.70626">
        <ele>971.86</ele>
        <time>2025-04-15T19:06:12.126Z</time>
      </trkpt>
      <trkpt lat="44.89764" lon="3.7065">
        <ele>973.78</ele>
        <time>2025-04-15T19:06:21.718Z</time>
      </trkpt>
      <trkpt lat="44.89763" lon="3.70675">
        <ele>975.66</ele>
        <time>2025-04-15T19:06:31.313Z</time>
      </trkpt>
      <trkpt lat="44.89773" lon="3.70715">
        <ele>977.64</ele>
        <time>2025-04-15T19:06:40.913Z</time>
      </trkpt>
      <trkpt lat="44.89784" lon="3.70754">
        <ele>979.52</ele>
        <time>2025-04-15T19:06:50.518Z</time>
      </trkpt>
      <trkpt lat="44.89798" lon="3.70794">
        <ele>981.23</ele>
        <time>2025-04-15T19:07:00.128Z</time>
      </trkpt>
      <trkpt lat="44.89812" lon="3.70834">
        <ele>982.89</ele>
        <time>2025-04-15T19:07:09.743Z</time>
      </trkpt>
      <trkpt lat="44.89818" lon="3.70862">
        <ele>984.49</ele>
        <time>2025-04-15T19:07:19.361Z</time>
      </trkpt>
      <trkpt lat="44.89818" lon="3.70887">
        <ele>986.01</ele>
        <time>2025-04-15T19:07:28.982Z</time>
      </trkpt>
      <trkpt lat="44.89818" lon="3.70913">
        <ele>987.47</ele>
        <time>2025-04-15T19:07:38.606Z</time>
      </trkpt>
      <trkpt lat="44.89818" lon="3.70913">
        <ele>988.88</ele>
        <time>2025-04-15T19:07:48.230Z</time>
      </trkpt>
      <trkpt lat="44.89806" lon="3.70926">
        <ele>990.21</ele>
        <time>2025-04-15T19:07:57.857Z</time>
      </trkpt>
      <trkpt lat="44.8979" lon="3.70932">
        <ele>991.49</ele>
        <time>2025-04-15T19:08:07.486Z</time>
      </trkpt>
      <trkpt lat="44.89774" lon="3.70923">
        <ele>992.75</ele>
        <time>2025-04-15T19:08:17.118Z</time>
      </trkpt>
      <trkpt lat="44.89758" lon="3.70913">
        <ele>993.92</ele>
        <time>2025-04-15T19:08:26.753Z</time>
      </trkpt>
      <trkpt lat="44.89741" lon="3.70913">
        <ele>995.09</ele>
        <time>2025-04-15T19:08:36.390Z</time>
      </trkpt>
      <trkpt lat="44.89724" lon="3.70913">
        <ele>996.19</ele>
        <time>2025-04-15T19:08:46.030Z</time>
      </trkpt>
      <trkpt lat="44.89705" lon="3.70904">
        <ele>997.17</ele>
        <time>2025-04-15T19:08:55.673Z</time>
      </trkpt>
      <trkpt lat="44.89689" lon="3.70888">
        <ele>997.99</ele>
        <time>2025-04-15T19:09:05.320Z</time>
      </trkpt>
      <trkpt lat="44.89672" lon="3.70872">
        <ele>998.75</ele>
        <time>2025-04-15T19:09:14.970Z</time>
      </trkpt>
      <trkpt lat="44.89653" lon="3.70874">
        <ele>999.48</ele>
        <time>2025-04-15T19:09:24.623Z</time>
      </trkpt>
      <trkpt lat="44.89627" lon="3.7089">
        <ele>1000.29</ele>
        <time>2025-04-15T19:09:34.280Z</time>
      </trkpt>
      <trkpt lat="44.896" lon="3.70905">
        <ele>1000.94</ele>
        <time>2025-04-15T19:09:43.942Z</time>
      </trkpt>
      <trkpt lat="44.89574" lon="3.70921">
        <ele>1001.5</ele>
        <time>2025-04-15T19:09:53.609Z</time>
      </trkpt>
      <trkpt lat="44.89547" lon="3.70936">
        <ele>1001.95</ele>
        <time>2025-04-15T19:10:03.280Z</time>
      </trkpt>
      <trkpt lat="44.89521" lon="3.70952">
        <ele>1002.32</ele>
        <time>2025-04-15T19:10:12.956Z</time>
      </trkpt>
      <trkpt lat="44.89494" lon="3.70967">
        <ele>1002.59</ele>
        <time>2025-04-15T19:10:22.636Z</time>
      </trkpt>
      <trkpt lat="44.89468" lon="3.70983">
        <ele>1002.77</ele>
        <time>2025-04-15T19:10:32.321Z</time>
      </trkpt>
      <trkpt lat="44.89442" lon="3.70998">
        <ele>1002.92</ele>
        <time>2025-04-15T19:10:42.010Z</time>
      </trkpt>
      <trkpt lat="44.89415" lon="3.71014">
        <ele>1003</ele>
        <time>2025-04-15T19:10:51.704Z</time>
      </trkpt>
      <trkpt lat="44.89393" lon="3.71027">
        <ele>1002.98</ele>
        <time>2025-04-15T19:11:01.402Z</time>
      </trkpt>
      <trkpt lat="44.89371" lon="3.71041">
        <ele>1002.81</ele>
        <time>2025-04-15T19:11:11.104Z</time>
      </trkpt>
      <trkpt lat="44.89349" lon="3.71054">
        <ele>1002.56</ele>
        <time>2025-04-15T19:11:20.810Z</time>
      </trkpt>
      <trkpt lat="44.89327" lon="3.71068">
        <ele>1002.29</ele>
        <time>2025-04-15T19:11:30.519Z</time>
      </trkpt>
      <trkpt lat="44.89308" lon="3.71068">
        <ele>1001.97</ele>
        <time>2025-04-15T19:11:40.231Z</time>
      </trkpt>
      <trkpt lat="44.89288" lon="3.71068">
        <ele>1001.61</ele>
        <time>2025-04-15T19:11:49.947Z</time>
      </trkpt>
      <trkpt lat="44.89267" lon="3.71053">
        <ele>1001.12</ele>
        <time>2025-04-15T19:11:59.666Z</time>
      </trkpt>
      <trkpt lat="44.89245" lon="3.71038">
        <ele>1000.5</ele>
        <time>2025-04-15T19:12:09.389Z</time>
      </trkpt>
      <trkpt lat="44.89218" lon="3.71023">
        <ele>999.86</ele>
        <time>2025-04-15T19:12:19.117Z</time>
      </trkpt>
      <trkpt lat="44.8919" lon="3.71007">
        <ele>999.09</ele>
        <time>2025-04-15T19:12:28.850Z</time>
      </trkpt>
      <trkpt lat="44.8917" lon="3.71005">
        <ele>998.29</ele>
        <time>2025-04-15T19:12:38.586Z</time>
      </trkpt>
      <trkpt lat="44.89151" lon="3.71003">
        <ele>997.42</ele>
        <time>2025-04-15T19:12:48.325Z</time>
      </trkpt>
      <trkpt lat="44.89131" lon="3.71014">
        <ele>996.59</ele>
        <time>2025-04-15T19:12:58.067Z</time>
      </trkpt>
      <trkpt lat="44.8911" lon="3.71025">
        <ele>995.66</ele>
        <time>2025-04-15T19:13:07.813Z</time>
      </trkpt>
      <trkpt lat="44.89092" lon="3.71043">
        <ele>994.71</ele>
        <time>2025-04-15T19:13:17.563Z</time>
      </trkpt>
      <trkpt lat="44.89074" lon="3.71061">
        <ele>993.69</ele>
        <time>2025-04-15T19:13:27.316Z</time>
      </trkpt>
      <trkpt lat="44.89061" lon="3.71083">
        <ele>992.63</ele>
        <time>2025-04-15T19:13:37.072Z</time>
      </trkpt>
      <trkpt lat="44.89048" lon="3.71104">
        <ele>991.51</ele>
        <time>2025-04-15T19:13:46.832Z</time>
      </trkpt>
      <trkpt lat="44.89037" lon="3.71137">
        <ele>990.32</ele>
        <time>2025-04-15T19:13:56.596Z</time>
      </trkpt>
      <trkpt lat="44.89025" lon="3.71171">
        <ele>989.13</ele>
        <time>2025-04-15T19:14:06.364Z</time>
      </trkpt>
      <trkpt lat="44.89014" lon="3.71204">
        <ele>987.92</ele>
        <time>2025-04-15T19:14:16.136Z</time>
      </trkpt>
      <trkpt lat="44.89003" lon="3.71237">
        <ele>986.75</ele>
        <time>2025-04-15T19:14:25.912Z</time>
      </trkpt>
      <trkpt lat="44.88992" lon="3.71262">
        <ele>985.54</ele>
        <time>2025-04-15T19:14:35.692Z</time>
      </trkpt>
      <trkpt lat="44.8898" lon="3.71287">
        <ele>984.28</ele>
        <time>2025-04-15T19:14:45.475Z</time>
      </trkpt>
      <trkpt lat="44.88969" lon="3.71312">
        <ele>983.12</ele>
        <time>2025-04-15T19:14:55.261Z</time>
      </trkpt>
      <trkpt lat="44.88964" lon="3.71344">
        <ele>981.98</ele>
        <time>2025-04-15T19:15:05.051Z</time>
      </trkpt>
      <trkpt lat="44.88959" lon="3.71375">
        <ele>980.83</ele>
        <time>2025-04-15T19:15:14.845Z</time>
      </trkpt>
      <trkpt lat="44.88954" lon="3.71407">
        <ele>979.67</ele>
        <time>2025-04-15T19:15:24.642Z</time>
      </trkpt>
      <trkpt lat="44.88956" lon="3.71439">
        <ele>978.6</ele>
        <time>2025-04-15T19:15:34.443Z</time>
      </trkpt>
      <trkpt lat="44.88958" lon="3.71471">
        <ele>977.46</ele>
        <time>2025-04-15T19:15:44.248Z</time>
      </trkpt>
      <trkpt lat="44.88967" lon="3.71512">
        <ele>976.4</ele>
        <time>2025-04-15T19:15:54.058Z</time>
      </trkpt>
      <trkpt lat="44.88968" lon="3.71539">
        <ele>975.35</ele>
        <time>2025-04-15T19:16:03.871Z</time>
      </trkpt>
      <trkpt lat="44.88969" lon="3.71565">
        <ele>974.3</ele>
        <time>2025-04-15T19:16:13.687Z</time>
      </trkpt>
      <trkpt lat="44.88977" lon="3.71586">
        <ele>973.41</ele>
        <time>2025-04-15T19:16:23.505Z</time>
      </trkpt>
      <trkpt lat="44.88986" lon="3.71606">
        <ele>972.56</ele>
        <time>2025-04-15T19:16:33.326Z</time>
      </trkpt>
      <trkpt lat="44.88988" lon="3.71623">
        <ele>971.67</ele>
        <time>2025-04-15T19:16:43.149Z</time>
      </trkpt>
      <trkpt lat="44.88985" lon="3.71657">
        <ele>970.81</ele>
        <time>2025-04-15T19:16:52.976Z</time>
      </trkpt>
      <trkpt lat="44.88982" lon="3.71691">
        <ele>970.01</ele>
        <time>2025-04-15T19:17:02.807Z</time>
      </trkpt>
      <trkpt lat="44.88978" lon="3.71725">
        <ele>969.26</ele>
        <time>2025-04-15T19:17:12.642Z</time>
      </trkpt>
      <trkpt lat="44.88975" lon="3.71759">
        <ele>968.61</ele>
        <time>2025-04-15T19:17:22.481Z</time>
      </trkpt>
      <trkpt lat="44.88984" lon="3.71785">
        <ele>968.04</ele>
        <time>2025-04-15T19:17:32.323Z</time>
      </trkpt>
      <trkpt lat="44.88992" lon="3.71812">
        <ele>967.42</ele>
        <time>2025-04-15T19:17:42.168Z</time>
      </trkpt>
      <trkpt lat="44.89003" lon="3.71829">
        <ele>966.87</ele>
        <time>2025-04-15T19:17:52.016Z</time>
      </trkpt>
      <trkpt lat="44.89014" lon="3.71846">
        <ele>966.34</ele>
        <time>2025-04-15T19:18:01.867Z</time>
      </trkpt>
      <trkpt lat="44.89029" lon="3.71853">
        <ele>965.9</ele>
        <time>2025-04-15T19:18:11.720Z</time>
      </trkpt>
      <trkpt lat="44.89048" lon="3.71853">
        <ele>965.56</ele>
        <time>2025-04-15T19:18:21.576Z</time>
      </trkpt>
      <trkpt lat="44.89067" lon="3.71853">
        <ele>965.3</ele>
        <time>2025-04-15T19:18:31.435Z</time>
      </trkpt>
      <trkpt lat="44.89085" lon="3.71859">
        <ele>965.02</ele>
        <time>2025-04-15T19:18:41.297Z</time>
      </trkpt>
      <trkpt lat="44.89102" lon="3.71866">
        <ele>964.77</ele>
        <time>2025-04-15T19:18:51.162Z</time>
      </trkpt>
      <trkpt lat="44.89117" lon="3.71894">
        <ele>964.52</ele>
        <time>2025-04-15T19:19:01.031Z</time>
      </trkpt>
      <trkpt lat="44.89119" lon="3.71911">
        <ele>964.36</ele>
        <time>2025-04-15T19:19:10.902Z</time>
      </trkpt>
      <trkpt lat="44.89115" lon="3.71926">
        <ele>964.21</ele>
        <time>2025-04-15T19:19:20.775Z</time>
      </trkpt>
      <trkpt lat="44.89104" lon="3.71955">
        <ele>964.1</ele>
        <time>2025-04-15T19:19:30.651Z</time>
      </trkpt>
      <trkpt lat="44.89093" lon="3.71985">
        <ele>964.05</ele>
        <time>2025-04-15T19:19:40.531Z</time>
      </trkpt>
      <trkpt lat="44.89082" lon="3.72014">
        <ele>964.18</ele>
        <time>2025-04-15T19:19:50.415Z</time>
      </trkpt>
      <trkpt lat="44.89059" lon="3.72042">
        <ele>964.34</ele>
        <time>2025-04-15T19:20:00.304Z</time>
      </trkpt>
      <trkpt lat="44.89029" lon="3.7205">
        <ele>964.32</ele>
        <time>2025-04-15T19:20:10.198Z</time>
      </trkpt>
      <trkpt lat="44.88999" lon="3.72057">
        <ele>964.34</ele>
        <time>2025-04-15T19:20:20.097Z</time>
      </trkpt>
      <trkpt lat="44.88969" lon="3.72065">
        <ele>964.39</ele>
        <time>2025-04-15T19:20:30.001Z</time>
      </trkpt>
      <trkpt lat="44.88944" lon="3.72082">
        <ele>964.57</ele>
        <time>2025-04-15T19:20:39.909Z</time>
      </trkpt>
      <trkpt lat="44.88919" lon="3.72099">
        <ele>964.83</ele>
        <time>2025-04-15T19:20:49.821Z</time>
      </trkpt>
      <trkpt lat="44.88894" lon="3.72116">
        <ele>965.09</ele>
        <time>2025-04-15T19:20:59.738Z</time>
      </trkpt>
      <trkpt lat="44.88869" lon="3.72132">
        <ele>965.39</ele>
        <time>2025-04-15T19:21:09.659Z</time>
      </trkpt>
      <trkpt lat="44.88844" lon="3.72149">
        <ele>965.67</ele>
        <time>2025-04-15T19:21:19.585Z</time>
      </trkpt>
      <trkpt lat="44.88827" lon="3.72175">
        <ele>965.87</ele>
        <time>2025-04-15T19:21:29.515Z</time>
      </trkpt>
      <trkpt lat="44.88825" lon="3.72203">
        <ele>966.22</ele>
        <time>2025-04-15T19:21:39.448Z</time>
      </trkpt>
      <trkpt lat="44.88836" lon="3.72233">
        <ele>966.69</ele>
        <time>2025-04-15T19:21:49.385Z</time>
      </trkpt>
      <trkpt lat="44.88846" lon="3.72263">
        <ele>967.16</ele>
        <time>2025-04-15T19:21:59.326Z</time>
      </trkpt>
      <trkpt lat="44.88851" lon="3.72299">
        <ele>967.6</ele>
        <time>2025-04-15T19:22:09.271Z</time>
      </trkpt>
      <trkpt lat="44.88842" lon="3.72327">
        <ele>968.02</ele>
        <time>2025-04-15T19:22:19.219Z</time>
      </trkpt>
      <trkpt lat="44.88827" lon="3.72344">
        <ele>968.51</ele>
        <time>2025-04-15T19:22:29.170Z</time>
      </trkpt>
      <trkpt lat="44.88808" lon="3.72343">
        <ele>969.04</ele>
        <time>2025-04-15T19:22:39.124Z</time>
      </trkpt>
      <trkpt lat="44.88788" lon="3.72342">
        <ele>969.7</ele>
        <time>2025-04-15T19:22:49.081Z</time>
      </trkpt>
      <trkpt lat="44.88769" lon="3.7233">
        <ele>970.21</ele>
        <time>2025-04-15T19:22:59.042Z</time>
      </trkpt>
      <trkpt lat="44.8875" lon="3.72318">
        <ele>970.74</ele>
        <time>2025-04-15T19:23:09.006Z</time>
      </trkpt>
      <trkpt lat="44.8873" lon="3.72306">
        <ele>971.29</ele>
        <time>2025-04-15T19:23:18.974Z</time>
      </trkpt>
      <trkpt lat="44.88712" lon="3.72301">
        <ele>971.86</ele>
        <time>2025-04-15T19:23:28.945Z</time>
      </trkpt>
      <trkpt lat="44.88694" lon="3.72297">
        <ele>972.44</ele>
        <time>2025-04-15T19:23:38.919Z</time>
      </trkpt>
      <trkpt lat="44.88675" lon="3.72306">
        <ele>973.11</ele>
        <time>2025-04-15T19:23:48.896Z</time>
      </trkpt>
      <trkpt lat="44.88655" lon="3.72314">
        <ele>973.71</ele>
        <time>2025-04-15T19:23:58.876Z</time>
      </trkpt>
      <trkpt lat="44.88639" lon="3.72331">
        <ele>974.28</ele>
        <time>2025-04-15T19:24:08.859Z</time>
      </trkpt>
      <trkpt lat="44.88623" lon="3.72349">
        <ele>974.79</ele>
        <time>2025-04-15T19:24:18.845Z</time>
      </trkpt>
      <trkpt lat="44.88619" lon="3.72379">
        <ele>975.34</ele>
        <time>2025-04-15T19:24:28.835Z</time>
      </trkpt>
      <trkpt lat="44.88631" lon="3.72412">
        <ele>976.15</ele>
        <time>2025-04-15T19:24:38.829Z</time>
      </trkpt>
      <trkpt lat="44.88643" lon="3.72445">
        <ele>977.02</ele>
        <time>2025-04-15T19:24:48.827Z</time>
      </trkpt>
      <trkpt lat="44.88638" lon="3.72488">
        <ele>977.71</ele>
        <time>2025-04-15T19:24:58.830Z</time>
      </trkpt>
      <trkpt lat="44.88627" lon="3.72506">
        <ele>978.26</ele>
        <time>2025-04-15T19:25:08.836Z</time>
      </trkpt>
      <trkpt lat="44.88617" lon="3.72525">
        <ele>978.8</ele>
        <time>2025-04-15T19:25:18.845Z</time>
      </trkpt>
      <trkpt lat="44.8861" lon="3.72552">
        <ele>979.47</ele>
        <time>2025-04-15T19:25:28.857Z</time>
      </trkpt>
      <trkpt lat="44.88612" lon="3.72591">
        <ele>980.3</ele>
        <time>2025-04-15T19:25:38.873Z</time>
      </trkpt>
      <trkpt lat="44.88613" lon="3.7263">
        <ele>980.97</ele>
        <time>2025-04-15T19:25:48.894Z</time>
      </trkpt>
      <trkpt lat="44.88615" lon="3.72668">
        <ele>981.64</ele>
        <time>2025-04-15T19:25:58.919Z</time>
      </trkpt>
      <trkpt lat="44.88609" lon="3.72705">
        <ele>982.29</ele>
        <time>2025-04-15T19:26:08.949Z</time>
      </trkpt>
      <trkpt lat="44.88604" lon="3.72741">
        <ele>982.98</ele>
        <time>2025-04-15T19:26:18.983Z</time>
      </trkpt>
      <trkpt lat="44.88598" lon="3.72778">
        <ele>983.67</ele>
        <time>2025-04-15T19:26:29.021Z</time>
      </trkpt>
      <trkpt lat="44.88593" lon="3.72814">
        <ele>984.39</ele>
        <time>2025-04-15T19:26:39.063Z</time>
      </trkpt>
      <trkpt lat="44.88574" lon="3.72847">
        <ele>985.05</ele>
        <time>2025-04-15T19:26:49.110Z</time>
      </trkpt>
      <trkpt lat="44.88554" lon="3.7288">
        <ele>985.65</ele>
        <time>2025-04-15T19:26:59.162Z</time>
      </trkpt>
      <trkpt lat="44.88535" lon="3.72913">
        <ele>986.14</ele>
        <time>2025-04-15T19:27:09.219Z</time>
      </trkpt>
      <trkpt lat="44.88516" lon="3.72947">
        <ele>986.7</ele>
        <time>2025-04-15T19:27:19.281Z</time>
      </trkpt>
      <trkpt lat="44.88497" lon="3.72979">
        <ele>987.37</ele>
        <time>2025-04-15T19:27:29.348Z</time>
      </trkpt>
      <trkpt lat="44.88477" lon="3.72992">
        <ele>987.83</ele>
        <time>2025-04-15T19:27:39.418Z</time>
      </trkpt>
      <trkpt lat="44.88458" lon="3.73005">
        <ele>988.24</ele>
        <time>2025-04-15T19:27:49.491Z</time>
      </trkpt>
      <trkpt lat="44.88434" lon="3.73008">
        <ele>988.71</ele>
        <time>2025-04-15T19:27:59.568Z</time>
      </trkpt>
      <trkpt lat="44.88411" lon="3.73011">
        <ele>989.19</ele>
        <time>2025-04-15T19:28:09.649Z</time>
      </trkpt>
      <trkpt lat="44.88387" lon="3.73014">
        <ele>989.59</ele>
        <time>2025-04-15T19:28:19.734Z</time>
      </trkpt>
      <trkpt lat="44.8836" lon="3.73011">
        <ele>989.8</ele>
        <time>2025-04-15T19:28:29.823Z</time>
      </trkpt>
      <trkpt lat="44.88333" lon="3.73008">
        <ele>990.01</ele>
        <time>2025-04-15T19:28:39.916Z</time>
      </trkpt>
      <trkpt lat="44.88306" lon="3.73005">
        <ele>990.11</ele>
        <time>2025-04-15T19:28:50.014Z</time>
      </trkpt>
      <trkpt lat="44.88278" lon="3.73007">
        <ele>990.14</ele>
        <time>2025-04-15T19:29:00.116Z</time>
      </trkpt>
      <trkpt lat="44.8825" lon="3.73009">
        <ele>990.04</ele>
        <time>2025-04-15T19:29:10.223Z</time>
      </trkpt>
      <trkpt lat="44.88233" lon="3.73027">
        <ele>989.98</ele>
        <time>2025-04-15T19:29:20.333Z</time>
      </trkpt>
      <trkpt lat="44.88226" lon="3.73049">
        <ele>990</ele>
        <time>2025-04-15T19:29:30.446Z</time>
      </trkpt>
      <trkpt lat="44.8822" lon="3.73072">
        <ele>989.98</ele>
        <time>2025-04-15T19:29:40.562Z</time>
      </trkpt>
      <trkpt lat="44.88205" lon="3.73104">
        <ele>989.85</ele>
        <time>2025-04-15T19:29:50.682Z</time>
      </trkpt>
      <trkpt lat="44.8819" lon="3.73136">
        <ele>989.86</ele>
        <time>2025-04-15T19:30:00.806Z</time>
      </trkpt>
      <trkpt lat="44.88175" lon="3.73168">
        <ele>989.73</ele>
        <time>2025-04-15T19:30:10.935Z</time>
      </trkpt>
      <trkpt lat="44.8816" lon="3.73201">
        <ele>989.43</ele>
        <time>2025-04-15T19:30:21.068Z</time>
      </trkpt>
      <trkpt lat="44.88145" lon="3.73233">
        <ele>989.24</ele>
        <time>2025-04-15T19:30:31.206Z</time>
      </trkpt>
      <trkpt lat="44.8814" lon="3.73268">
        <ele>989.13</ele>
        <time>2025-04-15T19:30:41.348Z</time>
      </trkpt>
      <trkpt lat="44.88136" lon="3.73303">
        <ele>988.98</ele>
        <time>2025-04-15T19:30:51.494Z</time>
      </trkpt>
      <trkpt lat="44.88117" lon="3.73327">
        <ele>988.82</ele>
        <time>2025-04-15T19:31:01.644Z</time>
      </trkpt>
      <trkpt lat="44.88093" lon="3.73325">
        <ele>988.58</ele>
        <time>2025-04-15T19:31:11.798Z</time>
      </trkpt>
      <trkpt lat="44.8808" lon="3.73309">
        <ele>988.1</ele>
        <time>2025-04-15T19:31:21.954Z</time>
      </trkpt>
      <trkpt lat="44.88067" lon="3.73293">
        <ele>987.58</ele>
        <time>2025-04-15T19:31:32.113Z</time>
      </trkpt>
      <trkpt lat="44.8805" lon="3.73265">
        <ele>987.05</ele>
        <time>2025-04-15T19:31:42.276Z</time>
      </trkpt>
      <trkpt lat="44.88033" lon="3.73237">
        <ele>986.5</ele>
        <time>2025-04-15T19:31:52.444Z</time>
      </trkpt>
      <trkpt lat="44.88016" lon="3.73209">
        <ele>985.86</ele>
        <time>2025-04-15T19:32:02.616Z</time>
      </trkpt>
      <trkpt lat="44.87997" lon="3.73207">
        <ele>985.34</ele>
        <time>2025-04-15T19:32:12.791Z</time>
      </trkpt>
      <trkpt lat="44.87973" lon="3.73218">
        <ele>984.85</ele>
        <time>2025-04-15T19:32:22.970Z</time>
      </trkpt>
      <trkpt lat="44.87949" lon="3.73224">
        <ele>984.24</ele>
        <time>2025-04-15T19:32:33.153Z</time>
      </trkpt>
      <trkpt lat="44.87919" lon="3.73223">
        <ele>983.63</ele>
        <time>2025-04-15T19:32:43.340Z</time>
      </trkpt>
      <trkpt lat="44.87889" lon="3.73222">
        <ele>983.02</ele>
        <time>2025-04-15T19:32:53.532Z</time>
      </trkpt>
      <trkpt lat="44.87879" lon="3.73226">
        <ele>982.44</ele>
        <time>2025-04-15T19:33:03.726Z</time>
      </trkpt>
      <trkpt lat="44.87872" lon="3.73231">
        <ele>981.88</ele>
        <time>2025-04-15T19:33:13.921Z</time>
      </trkpt>
      <trkpt lat="44.87868" lon="3.73246">
        <ele>981.33</ele>
        <time>2025-04-15T19:33:24.118Z</time>
      </trkpt>
      <trkpt lat="44.87868" lon="3.73263">
        <ele>980.83</ele>
        <time>2025-04-15T19:33:34.317Z</time>
      </trkpt>
      <trkpt lat="44.87873" lon="3.73288">
        <ele>980.35</ele>
        <time>2025-04-15T19:33:44.519Z</time>
      </trkpt>
      <trkpt lat="44.87879" lon="3.73314">
        <ele>979.87</ele>
        <time>2025-04-15T19:33:54.724Z</time>
      </trkpt>
      <trkpt lat="44.87886" lon="3.73335">
        <ele>979.36</ele>
        <time>2025-04-15T19:34:04.932Z</time>
      </trkpt>
      <trkpt lat="44.87894" lon="3.73355">
        <ele>978.92</ele>
        <time>2025-04-15T19:34:15.142Z</time>
      </trkpt>
      <trkpt lat="44.87896" lon="3.73395">
        <ele>978.46</ele>
        <time>2025-04-15T19:34:25.357Z</time>
      </trkpt>
      <trkpt lat="44.87898" lon="3.73434">
        <ele>978.08</ele>
        <time>2025-04-15T19:34:35.576Z</time>
      </trkpt>
      <trkpt lat="44.87891" lon="3.73458">
        <ele>977.7</ele>
        <time>2025-04-15T19:34:45.798Z</time>
      </trkpt>
      <trkpt lat="44.87885" lon="3.73482">
        <ele>977.39</ele>
        <time>2025-04-15T19:34:56.023Z</time>
      </trkpt>
      <trkpt lat="44.87868" lon="3.73502">
        <ele>976.98</ele>
        <time>2025-04-15T19:35:06.252Z</time>
      </trkpt>
      <trkpt lat="44.87851" lon="3.73522">
        <ele>976.54</ele>
        <time>2025-04-15T19:35:16.484Z</time>
      </trkpt>
      <trkpt lat="44.87842" lon="3.73547">
        <ele>976.28</ele>
        <time>2025-04-15T19:35:26.719Z</time>
      </trkpt>
      <trkpt lat="44.87834" lon="3.73572">
        <ele>976.11</ele>
        <time>2025-04-15T19:35:36.958Z</time>
      </trkpt>
      <trkpt lat="44.87826" lon="3.73604">
        <ele>976.13</ele>
        <time>2025-04-15T19:35:47.200Z</time>
      </trkpt>
      <trkpt lat="44.87819" lon="3.73636">
        <ele>976.12</ele>
        <time>2025-04-15T19:35:57.446Z</time>
      </trkpt>
      <trkpt lat="44.8781" lon="3.73659">
        <ele>975.99</ele>
        <time>2025-04-15T19:36:07.695Z</time>
      </trkpt>
      <trkpt lat="44.87801" lon="3.73681">
        <ele>975.89</ele>
        <time>2025-04-15T19:36:17.947Z</time>
      </trkpt>
      <trkpt lat="44.878" lon="3.73714">
        <ele>975.99</ele>
        <time>2025-04-15T19:36:28.203Z</time>
      </trkpt>
      <trkpt lat="44.87799" lon="3.73748">
        <ele>976.06</ele>
        <time>2025-04-15T19:36:38.463Z</time>
      </trkpt>
      <trkpt lat="44.87812" lon="3.73773">
        <ele>976.37</ele>
        <time>2025-04-15T19:36:48.726Z</time>
      </trkpt>
      <trkpt lat="44.87831" lon="3.73801">
        <ele>976.7</ele>
        <time>2025-04-15T19:36:58.994Z</time>
      </trkpt>
      <trkpt lat="44.87851" lon="3.73828">
        <ele>977.02</ele>
        <time>2025-04-15T19:37:09.266Z</time>
      </trkpt>
      <trkpt lat="44.8787" lon="3.73855">
        <ele>977.33</ele>
        <time>2025-04-15T19:37:19.542Z</time>
      </trkpt>
      <trkpt lat="44.87874" lon="3.73885">
        <ele>977.46</ele>
        <time>2025-04-15T19:37:29.822Z</time>
      </trkpt>
      <trkpt lat="44.87866" lon="3.73911">
        <ele>977.67</ele>
        <time>2025-04-15T19:37:40.105Z</time>
      </trkpt>
      <trkpt lat="44.87842" lon="3.73917">
        <ele>977.97</ele>
        <time>2025-04-15T19:37:50.392Z</time>
      </trkpt>
      <trkpt lat="44.87815" lon="3.73907">
        <ele>978.31</ele>
        <time>2025-04-15T19:38:00.683Z</time>
      </trkpt>
      <trkpt lat="44.87789" lon="3.73897">
        <ele>978.62</ele>
        <time>2025-04-15T19:38:10.979Z</time>
      </trkpt>
      <trkpt lat="44.87762" lon="3.73887">
        <ele>978.99</ele>
        <time>2025-04-15T19:38:21.279Z</time>
      </trkpt>
      <trkpt lat="44.87735" lon="3.73876">
        <ele>979.44</ele>
        <time>2025-04-15T19:38:31.584Z</time>
      </trkpt>
      <trkpt lat="44.87707" lon="3.7387">
        <ele>980.07</ele>
        <time>2025-04-15T19:38:41.893Z</time>
      </trkpt>
      <trkpt lat="44.87679" lon="3.73864">
        <ele>980.74</ele>
        <time>2025-04-15T19:38:52.207Z</time>
      </trkpt>
      <trkpt lat="44.87661" lon="3.73841">
        <ele>981.3</ele>
        <time>2025-04-15T19:39:02.525Z</time>
      </trkpt>
      <trkpt lat="44.87643" lon="3.73818">
        <ele>981.93</ele>
        <time>2025-04-15T19:39:12.847Z</time>
      </trkpt>
      <trkpt lat="44.87625" lon="3.73795">
        <ele>982.47</ele>
        <time>2025-04-15T19:39:23.172Z</time>
      </trkpt>
      <trkpt lat="44.87603" lon="3.73777">
        <ele>983.05</ele>
        <time>2025-04-15T19:39:33.501Z</time>
      </trkpt>
      <trkpt lat="44.87581" lon="3.73759">
        <ele>983.65</ele>
        <time>2025-04-15T19:39:43.835Z</time>
      </trkpt>
      <trkpt lat="44.87559" lon="3.73741">
        <ele>984.33</ele>
        <time>2025-04-15T19:39:54.173Z</time>
      </trkpt>
      <trkpt lat="44.87539" lon="3.73717">
        <ele>985</ele>
        <time>2025-04-15T19:40:04.515Z</time>
      </trkpt>
      <trkpt lat="44.87519" lon="3.73693">
        <ele>985.7</ele>
        <time>2025-04-15T19:40:14.861Z</time>
      </trkpt>
      <trkpt lat="44.87499" lon="3.73668">
        <ele>986.37</ele>
        <time>2025-04-15T19:40:25.211Z</time>
      </trkpt>
      <trkpt lat="44.87478" lon="3.73637">
        <ele>987.13</ele>
        <time>2025-04-15T19:40:35.566Z</time>
      </trkpt>
      <trkpt lat="44.87457" lon="3.73605">
        <ele>987.96</ele>
        <time>2025-04-15T19:40:45.926Z</time>
      </trkpt>
      <trkpt lat="44.87436" lon="3.73573">
        <ele>988.73</ele>
        <time>2025-04-15T19:40:56.291Z</time>
      </trkpt>
      <trkpt lat="44.87415" lon="3.73542">
        <ele>989.56</ele>
        <time>2025-04-15T19:41:06.661Z</time>
      </trkpt>
      <trkpt lat="44.87389" lon="3.73524">
        <ele>990.49</ele>
        <time>2025-04-15T19:41:17.036Z</time>
      </trkpt>
      <trkpt lat="44.87373" lon="3.73521">
        <ele>991.41</ele>
        <time>2025-04-15T19:41:27.413Z</time>
      </trkpt>
      <trkpt lat="44.87357" lon="3.73518">
        <ele>992.36</ele>
        <time>2025-04-15T19:41:37.793Z</time>
      </trkpt>
      <trkpt lat="44.87344" lon="3.73527">
        <ele>993.37</ele>
        <time>2025-04-15T19:41:48.175Z</time>
      </trkpt>
      <trkpt lat="44.87338" lon="3.73533">
        <ele>994.43</ele>
        <time>2025-04-15T19:41:58.558Z</time>
      </trkpt>
      <trkpt lat="44.87316" lon="3.73565">
        <ele>995.55</ele>
        <time>2025-04-15T19:42:08.946Z</time>
      </trkpt>
      <trkpt lat="44.87312" lon="3.73602">
        <ele>996.78</ele>
        <time>2025-04-15T19:42:19.339Z</time>
      </trkpt>
      <trkpt lat="44.87318" lon="3.73634">
        <ele>998.05</ele>
        <time>2025-04-15T19:42:29.735Z</time>
      </trkpt>
      <trkpt lat="44.87324" lon="3.73666">
        <ele>999.32</ele>
        <time>2025-04-15T19:42:40.135Z</time>
      </trkpt>
      <trkpt lat="44.8733" lon="3.73699">
        <ele>1000.64</ele>
        <time>2025-04-15T19:42:50.539Z</time>
      </trkpt>
      <trkpt lat="44.87336" lon="3.7373">
        <ele>1002.06</ele>
        <time>2025-04-15T19:43:00.947Z</time>
      </trkpt>
      <trkpt lat="44.87335" lon="3.73761">
        <ele>1003.53</ele>
        <time>2025-04-15T19:43:11.358Z</time>
      </trkpt>
      <trkpt lat="44.87334" lon="3.73791">
        <ele>1005.09</ele>
        <time>2025-04-15T19:43:21.773Z</time>
      </trkpt>
      <trkpt lat="44.87332" lon="3.73829">
        <ele>1006.62</ele>
        <time>2025-04-15T19:43:32.192Z</time>
      </trkpt>
      <trkpt lat="44.87331" lon="3.73868">
        <ele>1008.2</ele>
        <time>2025-04-15T19:43:42.615Z</time>
      </trkpt>
      <trkpt lat="44.87329" lon="3.73906">
        <ele>1009.79</ele>
        <time>2025-04-15T19:43:53.043Z</time>
      </trkpt>
      <trkpt lat="44.87329" lon="3.73936">
        <ele>1011.39</ele>
        <time>2025-04-15T19:44:03.474Z</time>
      </trkpt>
      <trkpt lat="44.87336" lon="3.73964">
        <ele>1013.04</ele>
        <time>2025-04-15T19:44:13.909Z</time>
      </trkpt>
      <trkpt lat="44.87346" lon="3.73982">
        <ele>1014.76</ele>
        <time>2025-04-15T19:44:24.346Z</time>
      </trkpt>
      <trkpt lat="44.87357" lon="3.73999">
        <ele>1016.59</ele>
        <time>2025-04-15T19:44:34.786Z</time>
      </trkpt>
      <trkpt lat="44.87364" lon="3.74022">
        <ele>1018.39</ele>
        <time>2025-04-15T19:44:45.229Z</time>
      </trkpt>
      <trkpt lat="44.87365" lon="3.74046">
        <ele>1020.19</ele>
        <time>2025-04-15T19:44:55.674Z</time>
      </trkpt>
      <trkpt lat="44.87366" lon="3.7407">
        <ele>1022</ele>
        <time>2025-04-15T19:45:06.122Z</time>
      </trkpt>
      <trkpt lat="44.87372" lon="3.741">
        <ele>1023.86</ele>
        <time>2025-04-15T19:45:16.574Z</time>
      </trkpt>
      <trkpt lat="44.87384" lon="3.7413">
        <ele>1025.78</ele>
        <time>2025-04-15T19:45:27.029Z</time>
      </trkpt>
      <trkpt lat="44.87396" lon="3.7416">
        <ele>1027.77</ele>
        <time>2025-04-15T19:45:37.488Z</time>
      </trkpt>
      <trkpt lat="44.87394" lon="3.7419">
        <ele>1029.75</ele>
        <time>2025-04-15T19:45:47.951Z</time>
      </trkpt>
      <trkpt lat="44.87383" lon="3.74213">
        <ele>1031.69</ele>
        <time>2025-04-15T19:45:58.417Z</time>
      </trkpt>
      <trkpt lat="44.87367" lon="3.7423">
        <ele>1033.68</ele>
        <time>2025-04-15T19:46:08.886Z</time>
      </trkpt>
      <trkpt lat="44.87351" lon="3.74248">
        <ele>1035.71</ele>
        <time>2025-04-15T19:46:19.358Z</time>
      </trkpt>
      <trkpt lat="44.87331" lon="3.74252">
        <ele>1037.71</ele>
        <time>2025-04-15T19:46:29.834Z</time>
      </trkpt>
      <trkpt lat="44.8731" lon="3.7424">
        <ele>1039.63</ele>
        <time>2025-04-15T19:46:40.313Z</time>
      </trkpt>
      <trkpt lat="44.87289" lon="3.74229">
        <ele>1041.57</ele>
        <time>2025-04-15T19:46:50.796Z</time>
      </trkpt>
      <trkpt lat="44.87267" lon="3.74218">
        <ele>1043.51</ele>
        <time>2025-04-15T19:47:01.283Z</time>
      </trkpt>
      <trkpt lat="44.87236" lon="3.74218">
        <ele>1045.59</ele>
        <time>2025-04-15T19:47:11.775Z</time>
      </trkpt>
      <trkpt lat="44.87206" lon="3.74218">
        <ele>1047.68</ele>
        <time>2025-04-15T19:47:22.271Z</time>
      </trkpt>
      <trkpt lat="44.87175" lon="3.74218">
        <ele>1049.78</ele>
        <time>2025-04-15T19:47:32.772Z</time>
      </trkpt>
      <trkpt lat="44.87157" lon="3.74208">
        <ele>1051.71</ele>
        <time>2025-04-15T19:47:43.276Z</time>
      </trkpt>
      <trkpt lat="44.87138" lon="3.74198">
        <ele>1053.59</ele>
        <time>2025-04-15T19:47:53.784Z</time>
      </trkpt>
      <trkpt lat="44.87119" lon="3.74209">
        <ele>1055.5</ele>
        <time>2025-04-15T19:48:04.295Z</time>
      </trkpt>
      <trkpt lat="44.87117" lon="3.74239">
        <ele>1057.4</ele>
        <time>2025-04-15T19:48:14.809Z</time>
      </trkpt>
      <trkpt lat="44.87137" lon="3.7427">
        <ele>1059.26</ele>
        <time>2025-04-15T19:48:25.328Z</time>
      </trkpt>
      <trkpt lat="44.87157" lon="3.74301">
        <ele>1061.05</ele>
        <time>2025-04-15T19:48:35.852Z</time>
      </trkpt>
      <trkpt lat="44.87177" lon="3.74331">
        <ele>1062.76</ele>
        <time>2025-04-15T19:48:46.381Z</time>
      </trkpt>
      <trkpt lat="44.87191" lon="3.74365">
        <ele>1064.43</ele>
        <time>2025-04-15T19:48:56.914Z</time>
      </trkpt>
      <trkpt lat="44.87204" lon="3.74398">
        <ele>1066.16</ele>
        <time>2025-04-15T19:49:07.451Z</time>
      </trkpt>
      <trkpt lat="44.87218" lon="3.74432">
        <ele>1067.78</ele>
        <time>2025-04-15T19:49:17.993Z</time>
      </trkpt>
      <trkpt lat="44.87232" lon="3.74465">
        <ele>1069.41</ele>
        <time>2025-04-15T19:49:28.539Z</time>
      </trkpt>
      <trkpt lat="44.87246" lon="3.74499">
        <ele>1070.97</ele>
        <time>2025-04-15T19:49:39.090Z</time>
      </trkpt>
      <trkpt lat="44.87267" lon="3.74518">
        <ele>1072.39</ele>
        <time>2025-04-15T19:49:49.645Z</time>
      </trkpt>
      <trkpt lat="44.87289" lon="3.74537">
        <ele>1073.81</ele>
        <time>2025-04-15T19:50:00.204Z</time>
      </trkpt>
      <trkpt lat="44.8731" lon="3.74557">
        <ele>1075.17</ele>
        <time>2025-04-15T19:50:10.767Z</time>
      </trkpt>
      <trkpt lat="44.87331" lon="3.74576">
        <ele>1076.56</ele>
        <time>2025-04-15T19:50:21.334Z</time>
      </trkpt>
      <trkpt lat="44.87348" lon="3.74584">
        <ele>1077.87</ele>
        <time>2025-04-15T19:50:31.904Z</time>
      </trkpt>
      <trkpt lat="44.87364" lon="3.74593">
        <ele>1079.15</ele>
        <time>2025-04-15T19:50:42.476Z</time>
      </trkpt>
      <trkpt lat="44.87372" lon="3.74617">
        <ele>1080.44</ele>
        <time>2025-04-15T19:50:53.051Z</time>
      </trkpt>
      <trkpt lat="44.87368" lon="3.74636">
        <ele>1081.68</ele>
        <time>2025-04-15T19:51:03.629Z</time>
      </trkpt>
      <trkpt lat="44.87355" lon="3.74653">
        <ele>1082.86</ele>
        <time>2025-04-15T19:51:14.210Z</time>
      </trkpt>
      <trkpt lat="44.87328" lon="3.74661">
        <ele>1083.95</ele>
        <time>2025-04-15T19:51:24.795Z</time>
      </trkpt>
      <trkpt lat="44.87301" lon="3.7467">
        <ele>1085.07</ele>
        <time>2025-04-15T19:51:35.384Z</time>
      </trkpt>
      <trkpt lat="44.87274" lon="3.74678">
        <ele>1086.16</ele>
        <time>2025-04-15T19:51:45.978Z</time>
      </trkpt>
      <trkpt lat="44.87247" lon="3.74686">
        <ele>1087.2</ele>
        <time>2025-04-15T19:51:56.576Z</time>
      </trkpt>
      <trkpt lat="44.8722" lon="3.74694">
        <ele>1088.22</ele>
        <time>2025-04-15T19:52:07.179Z</time>
      </trkpt>
      <trkpt lat="44.87193" lon="3.74703">
        <ele>1089.25</ele>
        <time>2025-04-15T19:52:17.786Z</time>
      </trkpt>
      <trkpt lat="44.87166" lon="3.74711">
        <ele>1090.2</ele>
        <time>2025-04-15T19:52:28.397Z</time>
      </trkpt>
      <trkpt lat="44.87147" lon="3.74732">
        <ele>1091.07</ele>
        <time>2025-04-15T19:52:39.012Z</time>
      </trkpt>
      <trkpt lat="44.87128" lon="3.74753">
        <ele>1091.89</ele>
        <time>2025-04-15T19:52:49.631Z</time>
      </trkpt>
      <trkpt lat="44.87108" lon="3.74773">
        <ele>1092.62</ele>
        <time>2025-04-15T19:53:00.254Z</time>
      </trkpt>
      <trkpt lat="44.87095" lon="3.748">
        <ele>1093.33</ele>
        <time>2025-04-15T19:53:10.881Z</time>
      </trkpt>
      <trkpt lat="44.87083" lon="3.74827">
        <ele>1093.97</ele>
        <time>2025-04-15T19:53:21.512Z</time>
      </trkpt>
      <trkpt lat="44.87074" lon="3.74855">
        <ele>1094.66</ele>
        <time>2025-04-15T19:53:32.146Z</time>
      </trkpt>
      <trkpt lat="44.87065" lon="3.74883">
        <ele>1095.31</ele>
        <time>2025-04-15T19:53:42.783Z</time>
      </trkpt>
      <trkpt lat="44.8706" lon="3.74916">
        <ele>1095.86</ele>
        <time>2025-04-15T19:53:53.424Z</time>
      </trkpt>
      <trkpt lat="44.87054" lon="3.7495">
        <ele>1096.38</ele>
        <time>2025-04-15T19:54:04.069Z</time>
      </trkpt>
      <trkpt lat="44.87048" lon="3.74984">
        <ele>1097.01</ele>
        <time>2025-04-15T19:54:14.718Z</time>
      </trkpt>
      <trkpt lat="44.87047" lon="3.75014">
        <ele>1097.66</ele>
        <time>2025-04-15T19:54:25.371Z</time>
      </trkpt>
      <trkpt lat="44.87045" lon="3.75045">
        <ele>1098.29</ele>
        <time>2025-04-15T19:54:36.027Z</time>
      </trkpt>
      <trkpt lat="44.87044" lon="3.75076">
        <ele>1098.91</ele>
        <time>2025-04-15T19:54:46.687Z</time>
      </trkpt>
      <trkpt lat="44.8704" lon="3.75109">
        <ele>1099.52</ele>
        <time>2025-04-15T19:54:57.351Z</time>
      </trkpt>
      <trkpt lat="44.87035" lon="3.75141">
        <ele>1100.17</ele>
        <time>2025-04-15T19:55:08.018Z</time>
      </trkpt>
      <trkpt lat="44.87031" lon="3.75174">
        <ele>1100.78</ele>
        <time>2025-04-15T19:55:18.689Z</time>
      </trkpt>
      <trkpt lat="44.87027" lon="3.75207">
        <ele>1101.37</ele>
        <time>2025-04-15T19:55:29.364Z</time>
      </trkpt>
      <trkpt lat="44.87025" lon="3.75233">
        <ele>1101.97</ele>
        <time>2025-04-15T19:55:40.042Z</time>
      </trkpt>
      <trkpt lat="44.87022" lon="3.75258">
        <ele>1102.54</ele>
        <time>2025-04-15T19:55:50.723Z</time>
      </trkpt>
      <trkpt lat="44.87018" lon="3.75275">
        <ele>1103.1</ele>
        <time>2025-04-15T19:56:01.406Z</time>
      </trkpt>
      <trkpt lat="44.86999" lon="3.75299">
        <ele>1103.64</ele>
        <time>2025-04-15T19:56:12.093Z</time>
      </trkpt>
      <trkpt lat="44.86977" lon="3.75316">
        <ele>1104.3</ele>
        <time>2025-04-15T19:56:22.784Z</time>
      </trkpt>
      <trkpt lat="44.86969" lon="3.75318">
        <ele>1104.95</ele>
        <time>2025-04-15T19:56:33.476Z</time>
      </trkpt>
      <trkpt lat="44.86954" lon="3.7531">
        <ele>1105.58</ele>
        <time>2025-04-15T19:56:44.171Z</time>
      </trkpt>
      <trkpt lat="44.8694" lon="3.7529">
        <ele>1106.2</ele>
        <time>2025-04-15T19:56:54.869Z</time>
      </trkpt>
      <trkpt lat="44.86926" lon="3.75271">
        <ele>1106.83</ele>
        <time>2025-04-15T19:57:05.570Z</time>
      </trkpt>
      <trkpt lat="44.86906" lon="3.75254">
        <ele>1107.54</ele>
        <time>2025-04-15T19:57:16.275Z</time>
      </trkpt>
      <trkpt lat="44.86886" lon="3.75237">
        <ele>1108.19</ele>
        <time>2025-04-15T19:57:26.984Z</time>
      </trkpt>
      <trkpt lat="44.86866" lon="3.7522">
        <ele>1108.79</ele>
        <time>2025-04-15T19:57:37.696Z</time>
      </trkpt>
      <trkpt lat="44.86849" lon="3.75217">
        <ele>1109.38</ele>
        <time>2025-04-15T19:57:48.411Z</time>
      </trkpt>
      <trkpt lat="44.86834" lon="3.75222">
        <ele>1109.9</ele>
        <time>2025-04-15T19:57:59.129Z</time>
      </trkpt>
      <trkpt lat="44.86829" lon="3.75222">
        <ele>1110.38</ele>
        <time>2025-04-15T19:58:09.847Z</time>
      </trkpt>
      <trkpt lat="44.86807" lon="3.75249">
        <ele>1110.85</ele>
        <time>2025-04-15T19:58:20.570Z</time>
      </trkpt>
      <trkpt lat="44.86784" lon="3.75275">
        <ele>1111.23</ele>
        <time>2025-04-15T19:58:31.298Z</time>
      </trkpt>
      <trkpt lat="44.86761" lon="3.75303">
        <ele>1111.6</ele>
        <time>2025-04-15T19:58:42.031Z</time>
      </trkpt>
      <trkpt lat="44.86738" lon="3.75331">
        <ele>1111.93</ele>
        <time>2025-04-15T19:58:52.768Z</time>
      </trkpt>
      <trkpt lat="44.86716" lon="3.75359">
        <ele>1112.22</ele>
        <time>2025-04-15T19:59:03.510Z</time>
      </trkpt>
      <trkpt lat="44.86693" lon="3.75387">
        <ele>1112.4</ele>
        <time>2025-04-15T19:59:14.257Z</time>
      </trkpt>
      <trkpt lat="44.8667" lon="3.75415">
        <ele>1112.51</ele>
        <time>2025-04-15T19:59:25.009Z</time>
      </trkpt>
      <trkpt lat="44.86647" lon="3.75443">
        <ele>1112.63</ele>
        <time>2025-04-15T19:59:35.766Z</time>
      </trkpt>
      <trkpt lat="44.86627" lon="3.75467">
        <ele>1112.7</ele>
        <time>2025-04-15T19:59:46.527Z</time>
      </trkpt>
      <trkpt lat="44.86606" lon="3.75492">
        <ele>1112.62</ele>
        <time>2025-04-15T19:59:57.292Z</time>
      </trkpt>
      <trkpt lat="44.86587" lon="3.75511">
        <ele>1112.39</ele>
        <time>2025-04-15T20:00:08.061Z</time>
      </trkpt>
      <trkpt lat="44.86568" lon="3.75531">
        <ele>1112.12</ele>
        <time>2025-04-15T20:00:18.834Z</time>
      </trkpt>
      <trkpt lat="44.86542" lon="3.75553">
        <ele>1111.77</ele>
        <time>2025-04-15T20:00:29.612Z</time>
      </trkpt>
      <trkpt lat="44.86516" lon="3.75575">
        <ele>1111.32</ele>
        <time>2025-04-15T20:00:40.395Z</time>
      </trkpt>
      <trkpt lat="44.8649" lon="3.75597">
        <ele>1110.72</ele>
        <time>2025-04-15T20:00:51.183Z</time>
      </trkpt>
      <trkpt lat="44.86465" lon="3.75619">
        <ele>1109.98</ele>
        <time>2025-04-15T20:01:01.975Z</time>
      </trkpt>
      <trkpt lat="44.86439" lon="3.75641">
        <ele>1109.17</ele>
        <time>2025-04-15T20:01:12.772Z</time>
      </trkpt>
      <trkpt lat="44.86413" lon="3.75663">
        <ele>1108.32</ele>
        <time>2025-04-15T20:01:23.574Z</time>
      </trkpt>
      <trkpt lat="44.86387" lon="3.75685">
        <ele>1107.38</ele>
        <time>2025-04-15T20:01:34.381Z</time>
      </trkpt>
      <trkpt lat="44.86366" lon="3.75698">
        <ele>1106.37</ele>
        <time>2025-04-15T20:01:45.192Z</time>
      </trkpt>
      <trkpt lat="44.86337" lon="3.75695">
        <ele>1105.22</ele>
        <time>2025-04-15T20:01:56.007Z</time>
      </trkpt>
      <trkpt lat="44.86308" lon="3.75692">
        <ele>1103.92</ele>
        <time>2025-04-15T20:02:06.827Z</time>
      </trkpt>
      <trkpt lat="44.86295" lon="3.75694">
        <ele>1102.57</ele>
        <time>2025-04-15T20:02:17.649Z</time>
      </trkpt>
      <trkpt lat="44.86267" lon="3.7571">
        <ele>1101.11</ele>
        <time>2025-04-15T20:02:28.476Z</time>
      </trkpt>
      <trkpt lat="44.86239" lon="3.75725">
        <ele>1099.52</ele>
        <time>2025-04-15T20:02:39.308Z</time>
      </trkpt>
      <trkpt lat="44.86211" lon="3.75741">
        <ele>1097.84</ele>
        <time>2025-04-15T20:02:50.144Z</time>
      </trkpt>
      <trkpt lat="44.86198" lon="3.75754">
        <ele>1096.12</ele>
        <time>2025-04-15T20:03:00.983Z</time>
      </trkpt>
      <trkpt lat="44.86172" lon="3.7576">
        <ele>1094.26</ele>
        <time>2025-04-15T20:03:11.826Z</time>
      </trkpt>
      <trkpt lat="44.86146" lon="3.75765">
        <ele>1092.33</ele>
        <time>2025-04-15T20:03:22.673Z</time>
      </trkpt>
      <trkpt lat="44.86119" lon="3.75771">
        <ele>1090.3</ele>
        <time>2025-04-15T20:03:33.525Z</time>
      </trkpt>
      <trkpt lat="44.8609" lon="3.75773">
        <ele>1088.25</ele>
        <time>2025-04-15T20:03:44.381Z</time>
      </trkpt>
      <trkpt lat="44.8606" lon="3.75775">
        <ele>1086.11</ele>
        <time>2025-04-15T20:03:55.242Z</time>
      </trkpt>
      <trkpt lat="44.8603" lon="3.75777">
        <ele>1083.89</ele>
        <time>2025-04-15T20:04:06.108Z</time>
      </trkpt>
      <trkpt lat="44.86001" lon="3.75779">
        <ele>1081.62</ele>
        <time>2025-04-15T20:04:16.979Z</time>
      </trkpt>
      <trkpt lat="44.85971" lon="3.75781">
        <ele>1079.32</ele>
        <time>2025-04-15T20:04:27.854Z</time>
      </trkpt>
      <trkpt lat="44.85942" lon="3.75783">
        <ele>1076.96</ele>
        <time>2025-04-15T20:04:38.734Z</time>
      </trkpt>
      <trkpt lat="44.85912" lon="3.75784">
        <ele>1074.57</ele>
        <time>2025-04-15T20:04:49.619Z</time>
      </trkpt>
      <trkpt lat="44.85883" lon="3.75786">
        <ele>1072.16</ele>
        <time>2025-04-15T20:05:00.509Z</time>
      </trkpt>
      <trkpt lat="44.85853" lon="3.75788">
        <ele>1069.76</ele>
        <time>2025-04-15T20:05:11.403Z</time>
      </trkpt>
      <trkpt lat="44.85836" lon="3.75785">
        <ele>1067.34</ele>
        <time>2025-04-15T20:05:22.300Z</time>
      </trkpt>
      <trkpt lat="44.85819" lon="3.75782">
        <ele>1064.91</ele>
        <time>2025-04-15T20:05:33.200Z</time>
      </trkpt>
      <trkpt lat="44.85797" lon="3.7577">
        <ele>1062.45</ele>
        <time>2025-04-15T20:05:44.104Z</time>
      </trkpt>
      <trkpt lat="44.85776" lon="3.75759">
        <ele>1059.95</ele>
        <time>2025-04-15T20:05:55.011Z</time>
      </trkpt>
      <trkpt lat="44.85754" lon="3.75747">
        <ele>1057.41</ele>
        <time>2025-04-15T20:06:05.922Z</time>
      </trkpt>
      <trkpt lat="44.85724" lon="3.75737">
        <ele>1054.94</ele>
        <time>2025-04-15T20:06:16.838Z</time>
      </trkpt>
      <trkpt lat="44.85694" lon="3.75726">
        <ele>1052.51</ele>
        <time>2025-04-15T20:06:27.759Z</time>
      </trkpt>
      <trkpt lat="44.85664" lon="3.75715">
        <ele>1050.05</ele>
        <time>2025-04-15T20:06:38.685Z</time>
      </trkpt>
      <trkpt lat="44.85634" lon="3.75704">
        <ele>1047.55</ele>
        <time>2025-04-15T20:06:49.616Z</time>
      </trkpt>
      <trkpt lat="44.85604" lon="3.75693">
        <ele>1045.02</ele>
        <time>2025-04-15T20:07:00.552Z</time>
      </trkpt>
      <trkpt lat="44.85574" lon="3.75682">
        <ele>1042.6</ele>
        <time>2025-04-15T20:07:11.493Z</time>
      </trkpt>
      <trkpt lat="44.85544" lon="3.75672">
        <ele>1040.24</ele>
        <time>2025-04-15T20:07:22.439Z</time>
      </trkpt>
      <trkpt lat="44.85514" lon="3.75661">
        <ele>1037.88</ele>
        <time>2025-04-15T20:07:33.390Z</time>
      </trkpt>
      <trkpt lat="44.85484" lon="3.7565">
        <ele>1035.54</ele>
        <time>2025-04-15T20:07:44.346Z</time>
      </trkpt>
      <trkpt lat="44.85454" lon="3.75639">
        <ele>1033.22</ele>
        <time>2025-04-15T20:07:55.307Z</time>
      </trkpt>
      <trkpt lat="44.85424" lon="3.75628">
        <ele>1030.93</ele>
        <time>2025-04-15T20:08:06.272Z</time>
      </trkpt>
      <trkpt lat="44.85394" lon="3.75617">
        <ele>1028.73</ele>
        <time>2025-04-15T20:08:17.242Z</time>
      </trkpt>
      <trkpt lat="44.85364" lon="3.75606">
        <ele>1026.59</ele>
        <time>2025-04-15T20:08:28.217Z</time>
      </trkpt>
      <trkpt lat="44.85334" lon="3.75596">
        <ele>1024.44</ele>
        <time>2025-04-15T20:08:39.197Z</time>
      </trkpt>
      <trkpt lat="44.85304" lon="3.75585">
        <ele>1022.34</ele>
        <time>2025-04-15T20:08:50.182Z</time>
      </trkpt>
      <trkpt lat="44.85274" lon="3.75574">
        <ele>1020.37</ele>
        <time>2025-04-15T20:09:01.172Z</time>
      </trkpt>
      <trkpt lat="44.85244" lon="3.75563">
        <ele>1018.47</ele>
        <time>2025-04-15T20:09:12.167Z</time>
      </trkpt>
      <trkpt lat="44.85223" lon="3.75559">
        <ele>1016.63</ele>
        <time>2025-04-15T20:09:23.166Z</time>
      </trkpt>
      <trkpt lat="44.85203" lon="3.75554">
        <ele>1014.82</ele>
        <time>2025-04-15T20:09:34.168Z</time>
      </trkpt>
      <trkpt lat="44.85186" lon="3.75555">
        <ele>1013.13</ele>
        <time>2025-04-15T20:09:45.173Z</time>
      </trkpt>
      <trkpt lat="44.85169" lon="3.75557">
        <ele>1011.49</ele>
        <time>2025-04-15T20:09:56.180Z</time>
      </trkpt>
      <trkpt lat="44.85138" lon="3.75569">
        <ele>1009.86</ele>
        <time>2025-04-15T20:10:07.192Z</time>
      </trkpt>
      <trkpt lat="44.85112" lon="3.75591">
        <ele>1008.29</ele>
        <time>2025-04-15T20:10:18.209Z</time>
      </trkpt>
      <trkpt lat="44.85085" lon="3.75613">
        <ele>1006.81</ele>
        <time>2025-04-15T20:10:29.231Z</time>
      </trkpt>
      <trkpt lat="44.85058" lon="3.75635">
        <ele>1005.46</ele>
        <time>2025-04-15T20:10:40.258Z</time>
      </trkpt>
      <trkpt lat="44.85031" lon="3.75657">
        <ele>1004.19</ele>
        <time>2025-04-15T20:10:51.290Z</time>
      </trkpt>
      <trkpt lat="44.85004" lon="3.75678">
        <ele>1002.93</ele>
        <time>2025-04-15T20:11:02.327Z</time>
      </trkpt>
      <trkpt lat="44.84978" lon="3.757">
        <ele>1001.72</ele>
        <time>2025-04-15T20:11:13.369Z</time>
      </trkpt>
      <trkpt lat="44.8496" lon="3.7572">
        <ele>1000.54</ele>
        <time>2025-04-15T20:11:24.415Z</time>
      </trkpt>
      <trkpt lat="44.84956" lon="3.75728">
        <ele>999.41</ele>
        <time>2025-04-15T20:11:35.462Z</time>
      </trkpt>
      <trkpt lat="44.84945" lon="3.75747">
        <ele>998.28</ele>
        <time>2025-04-15T20:11:46.512Z</time>
      </trkpt>
      <trkpt lat="44.84939" lon="3.7578">
        <ele>997.17</ele>
        <time>2025-04-15T20:11:57.565Z</time>
      </trkpt>
      <trkpt lat="44.84939" lon="3.7582">
        <ele>996.17</ele>
        <time>2025-04-15T20:12:08.623Z</time>
      </trkpt>
      <trkpt lat="44.84941" lon="3.7586">
        <ele>995.2</ele>
        <time>2025-04-15T20:12:19.686Z</time>
      </trkpt>
      <trkpt lat="44.84942" lon="3.759">
        <ele>994.18</ele>
        <time>2025-04-15T20:12:30.753Z</time>
      </trkpt>
      <trkpt lat="44.84944" lon="3.7594">
        <ele>993.15</ele>
        <time>2025-04-15T20:12:41.825Z</time>
      </trkpt>
      <trkpt lat="44.84945" lon="3.75979">
        <ele>992.14</ele>
        <time>2025-04-15T20:12:52.901Z</time>
      </trkpt>
      <trkpt lat="44.8495" lon="3.76016">
        <ele>991.22</ele>
        <time>2025-04-15T20:13:03.981Z</time>
      </trkpt>
      <trkpt lat="44.84941" lon="3.76035">
        <ele>990.32</ele>
        <time>2025-04-15T20:13:15.064Z</time>
      </trkpt>
      <trkpt lat="44.84917" lon="3.76044">
        <ele>989.46</ele>
        <time>2025-04-15T20:13:26.151Z</time>
      </trkpt>
      <trkpt lat="44.84902" lon="3.76041">
        <ele>988.56</ele>
        <time>2025-04-15T20:13:37.240Z</time>
      </trkpt>
      <trkpt lat="44.84887" lon="3.76035">
        <ele>987.7</ele>
        <time>2025-04-15T20:13:48.332Z</time>
      </trkpt>
      <trkpt lat="44.84876" lon="3.7602">
        <ele>986.79</ele>
        <time>2025-04-15T20:13:59.426Z</time>
      </trkpt>
      <trkpt lat="44.84864" lon="3.76005">
        <ele>985.89</ele>
        <time>2025-04-15T20:14:10.523Z</time>
      </trkpt>
      <trkpt lat="44.8485" lon="3.75974">
        <ele>984.9</ele>
        <time>2025-04-15T20:14:21.624Z</time>
      </trkpt>
      <trkpt lat="44.84836" lon="3.75943">
        <ele>983.83</ele>
        <time>2025-04-15T20:14:32.729Z</time>
      </trkpt>
      <trkpt lat="44.84825" lon="3.75905">
        <ele>982.64</ele>
        <time>2025-04-15T20:14:43.839Z</time>
      </trkpt>
      <trkpt lat="44.84814" lon="3.75868">
        <ele>981.46</ele>
        <time>2025-04-15T20:14:54.954Z</time>
      </trkpt>
      <trkpt lat="44.84802" lon="3.75835">
        <ele>980.42</ele>
        <time>2025-04-15T20:15:06.073Z</time>
      </trkpt>
      <trkpt lat="44.8479" lon="3.75803">
        <ele>979.39</ele>
        <time>2025-04-15T20:15:17.196Z</time>
      </trkpt>
      <trkpt lat="44.84778" lon="3.75771">
        <ele>978.28</ele>
        <time>2025-04-15T20:15:28.323Z</time>
      </trkpt>
      <trkpt lat="44.84766" lon="3.75739">
        <ele>977</ele>
        <time>2025-04-15T20:15:39.454Z</time>
      </trkpt>
      <trkpt lat="44.84754" lon="3.75707">
        <ele>975.68</ele>
        <time>2025-04-15T20:15:50.589Z</time>
      </trkpt>
      <trkpt lat="44.84749" lon="3.75684">
        <ele>974.38</ele>
        <time>2025-04-15T20:16:01.727Z</time>
      </trkpt>
      <trkpt lat="44.84744" lon="3.75662">
        <ele>973.06</ele>
        <time>2025-04-15T20:16:12.868Z</time>
      </trkpt>
      <trkpt lat="44.84747" lon="3.75626">
        <ele>971.58</ele>
        <time>2025-04-15T20:16:24.013Z</time>
      </trkpt>
      <trkpt lat="44.8475" lon="3.75591">
        <ele>970.15</ele>
        <time>2025-04-15T20:16:35.162Z</time>
      </trkpt>
      <trkpt lat="44.84755" lon="3.75564">
        <ele>968.67</ele>
        <time>2025-04-15T20:16:46.314Z</time>
      </trkpt>
      <trkpt lat="44.84761" lon="3.75537">
        <ele>967.13</ele>
        <time>2025-04-15T20:16:57.469Z</time>
      </trkpt>
      <trkpt lat="44.84763" lon="3.75511">
        <ele>965.52</ele>
        <time>2025-04-15T20:17:08.627Z</time>
      </trkpt>
      <trkpt lat="44.84754" lon="3.7549">
        <ele>963.9</ele>
        <time>2025-04-15T20:17:19.788Z</time>
      </trkpt>
      <trkpt lat="44.84731" lon="3.75475">
        <ele>962.32</ele>
        <time>2025-04-15T20:17:30.953Z</time>
      </trkpt>
      <trkpt lat="44.84707" lon="3.75477">
        <ele>960.68</ele>
        <time>2025-04-15T20:17:42.122Z</time>
      </trkpt>
      <trkpt lat="44.84684" lon="3.75479">
        <ele>959.05</ele>
        <time>2025-04-15T20:17:53.295Z</time>
      </trkpt>
      <trkpt lat="44.84654" lon="3.75491">
        <ele>957.54</ele>
        <time>2025-04-15T20:18:04.473Z</time>
      </trkpt>
      <trkpt lat="44.84624" lon="3.75504">
        <ele>955.93</ele>
        <time>2025-04-15T20:18:15.656Z</time>
      </trkpt>
      <trkpt lat="44.84593" lon="3.75516">
        <ele>954.31</ele>
        <time>2025-04-15T20:18:26.844Z</time>
      </trkpt>
      <trkpt lat="44.84578" lon="3.7552">
        <ele>952.73</ele>
        <time>2025-04-15T20:18:38.034Z</time>
      </trkpt>
      <trkpt lat="44.84559" lon="3.75518">
        <ele>951.13</ele>
        <time>2025-04-15T20:18:49.227Z</time>
      </trkpt>
      <trkpt lat="44.84532" lon="3.75504">
        <ele>949.49</ele>
        <time>2025-04-15T20:19:00.425Z</time>
      </trkpt>
      <trkpt lat="44.84505" lon="3.7549">
        <ele>947.8</ele>
        <time>2025-04-15T20:19:11.627Z</time>
      </trkpt>
      <trkpt lat="44.84488" lon="3.75494">
        <ele>946.26</ele>
        <time>2025-04-15T20:19:22.832Z</time>
      </trkpt>
      <trkpt lat="44.84471" lon="3.75499">
        <ele>944.75</ele>
        <time>2025-04-15T20:19:34.040Z</time>
      </trkpt>
      <trkpt lat="44.84456" lon="3.75494">
        <ele>943.22</ele>
        <time>2025-04-15T20:19:45.250Z</time>
      </trkpt>
      <trkpt lat="44.84439" lon="3.75484">
        <ele>941.64</ele>
        <time>2025-04-15T20:19:56.463Z</time>
      </trkpt>
      <trkpt lat="44.84422" lon="3.75473">
        <ele>940.11</ele>
        <time>2025-04-15T20:20:07.679Z</time>
      </trkpt>
      <trkpt lat="44.84396" lon="3.75469">
        <ele>938.6</ele>
        <time>2025-04-15T20:20:18.899Z</time>
      </trkpt>
      <trkpt lat="44.8437" lon="3.75464">
        <ele>937.12</ele>
        <time>2025-04-15T20:20:30.124Z</time>
      </trkpt>
      <trkpt lat="44.84347" lon="3.75447">
        <ele>935.54</ele>
        <time>2025-04-15T20:20:41.353Z</time>
      </trkpt>
      <trkpt lat="44.84325" lon="3.7543">
        <ele>933.97</ele>
        <time>2025-04-15T20:20:52.586Z</time>
      </trkpt>
      <trkpt lat="44.84302" lon="3.75413">
        <ele>932.4</ele>
        <time>2025-04-15T20:21:03.823Z</time>
      </trkpt>
      <trkpt lat="44.84284" lon="3.75389">
        <ele>930.89</ele>
        <time>2025-04-15T20:21:15.064Z</time>
      </trkpt>
      <trkpt lat="44.84274" lon="3.75374">
        <ele>929.44</ele>
        <time>2025-04-15T20:21:26.307Z</time>
      </trkpt>
      <trkpt lat="44.84244" lon="3.75366">
        <ele>927.96</ele>
        <time>2025-04-15T20:21:37.555Z</time>
      </trkpt>
      <trkpt lat="44.84244" lon="3.75366">
        <ele>926.49</ele>
        <time>2025-04-15T20:21:48.803Z</time>
      </trkpt>
      <trkpt lat="44.84222" lon="3.75366">
        <ele>925.02</ele>
        <time>2025-04-15T20:22:00.055Z</time>
      </trkpt>
      <trkpt lat="44.84199" lon="3.75367">
        <ele>923.58</ele>
        <time>2025-04-15T20:22:11.310Z</time>
      </trkpt>
      <trkpt lat="44.84177" lon="3.75368">
        <ele>922.03</ele>
        <time>2025-04-15T20:22:22.569Z</time>
      </trkpt>
      <trkpt lat="44.84152" lon="3.75379">
        <ele>920.39</ele>
        <time>2025-04-15T20:22:33.832Z</time>
      </trkpt>
      <trkpt lat="44.84128" lon="3.75391">
        <ele>918.81</ele>
        <time>2025-04-15T20:22:45.099Z</time>
      </trkpt>
      <trkpt lat="44.84102" lon="3.75393">
        <ele>917.22</ele>
        <time>2025-04-15T20:22:56.370Z</time>
      </trkpt>
      <trkpt lat="44.84087" lon="3.75387">
        <ele>915.7</ele>
        <time>2025-04-15T20:23:07.644Z</time>
      </trkpt>
      <trkpt lat="44.84064" lon="3.75363">
        <ele>914.23</ele>
        <time>2025-04-15T20:23:18.922Z</time>
      </trkpt>
      <trkpt lat="44.84041" lon="3.7534">
        <ele>912.67</ele>
        <time>2025-04-15T20:23:30.205Z</time>
      </trkpt>
      <trkpt lat="44.84018" lon="3.75316">
        <ele>911.06</ele>
        <time>2025-04-15T20:23:41.493Z</time>
      </trkpt>
      <trkpt lat="44.8399" lon="3.75308">
        <ele>909.27</ele>
        <time>2025-04-15T20:23:52.785Z</time>
      </trkpt>
      <trkpt lat="44.83963" lon="3.75299">
        <ele>907.48</ele>
        <time>2025-04-15T20:24:04.082Z</time>
      </trkpt>
      <trkpt lat="44.83935" lon="3.75284">
        <ele>905.71</ele>
        <time>2025-04-15T20:24:15.383Z</time>
      </trkpt>
      <trkpt lat="44.83911" lon="3.7526">
        <ele>904.02</ele>
        <time>2025-04-15T20:24:26.689Z</time>
      </trkpt>
      <trkpt lat="44.83886" lon="3.75244">
        <ele>902.26</ele>
        <time>2025-04-15T20:24:38.000Z</time>
      </trkpt>
      <trkpt lat="44.83861" lon="3.75228">
        <ele>900.52</ele>
        <time>2025-04-15T20:24:49.315Z</time>
      </trkpt>
      <trkpt lat="44.83836" lon="3.75211">
        <ele>898.72</ele>
        <time>2025-04-15T20:25:00.634Z</time>
      </trkpt>
      <trkpt lat="44.83809" lon="3.75199">
        <ele>896.82</ele>
        <time>2025-04-15T20:25:11.958Z</time>
      </trkpt>
      <trkpt lat="44.83782" lon="3.75187">
        <ele>894.87</ele>
        <time>2025-04-15T20:25:23.286Z</time>
      </trkpt>
      <trkpt lat="44.83759" lon="3.75172">
        <ele>892.99</ele>
        <time>2025-04-15T20:25:34.619Z</time>
      </trkpt>
      <trkpt lat="44.83735" lon="3.75157">
        <ele>891.09</ele>
        <time>2025-04-15T20:25:45.956Z</time>
      </trkpt>
      <trkpt lat="44.83718" lon="3.75145">
        <ele>889.15</ele>
        <time>2025-04-15T20:25:57.296Z</time>
      </trkpt>
      <trkpt lat="44.83694" lon="3.75119">
        <ele>887.2</ele>
        <time>2025-04-15T20:26:08.641Z</time>
      </trkpt>
      <trkpt lat="44.83671" lon="3.75093">
        <ele>885.25</ele>
        <time>2025-04-15T20:26:19.990Z</time>
      </trkpt>
      <trkpt lat="44.83651" lon="3.75067">
        <ele>883.31</ele>
        <time>2025-04-15T20:26:31.344Z</time>
      </trkpt>
      <trkpt lat="44.83639" lon="3.75057">
        <ele>881.33</ele>
        <time>2025-04-15T20:26:42.700Z</time>
      </trkpt>
      <trkpt lat="44.83617" lon="3.7505">
        <ele>879.23</ele>
        <time>2025-04-15T20:26:54.059Z</time>
      </trkpt>
      <trkpt lat="44.83596" lon="3.75044">
        <ele>877.09</ele>
        <time>2025-04-15T20:27:05.422Z</time>
      </trkpt>
      <trkpt lat="44.83587" lon="3.75033">
        <ele>875.01</ele>
        <time>2025-04-15T20:27:16.787Z</time>
      </trkpt>
      <trkpt lat="44.83585" lon="3.75016">
        <ele>872.97</ele>
        <time>2025-04-15T20:27:28.154Z</time>
      </trkpt>
      <trkpt lat="44.83589" lon="3.74985">
        <ele>870.92</ele>
        <time>2025-04-15T20:27:39.524Z</time>
      </trkpt>
      <trkpt lat="44.83594" lon="3.74954">
        <ele>868.79</ele>
        <time>2025-04-15T20:27:50.898Z</time>
      </trkpt>
      <trkpt lat="44.83598" lon="3.74924">
        <ele>866.68</ele>
        <time>2025-04-15T20:28:02.276Z</time>
      </trkpt>
      <trkpt lat="44.83604" lon="3.74902">
        <ele>864.7</ele>
        <time>2025-04-15T20:28:13.656Z</time>
      </trkpt>
      <trkpt lat="44.8362" lon="3.74871">
        <ele>862.91</ele>
        <time>2025-04-15T20:28:25.040Z</time>
      </trkpt>
      <trkpt lat="44.83635" lon="3.74841">
        <ele>860.89</ele>
        <time>2025-04-15T20:28:36.429Z</time>
      </trkpt>
      <trkpt lat="44.83651" lon="3.7481">
        <ele>858.75</ele>
        <time>2025-04-15T20:28:47.822Z</time>
      </trkpt>
      <trkpt lat="44.83666" lon="3.7478">
        <ele>856.57</ele>
        <time>2025-04-15T20:28:59.219Z</time>
      </trkpt>
      <trkpt lat="44.83679" lon="3.74767">
        <ele>854.5</ele>
        <time>2025-04-15T20:29:10.619Z</time>
      </trkpt>
      <trkpt lat="44.83694" lon="3.74756">
        <ele>852.43</ele>
        <time>2025-04-15T20:29:22.022Z</time>
      </trkpt>
      <trkpt lat="44.83718" lon="3.74752">
        <ele>850.38</ele>
        <time>2025-04-15T20:29:33.428Z</time>
      </trkpt>
      <trkpt lat="44.83742" lon="3.74748">
        <ele>848.16</ele>
        <time>2025-04-15T20:29:44.838Z</time>
      </trkpt>
      <trkpt lat="44.83765" lon="3.74743">
        <ele>845.97</ele>
        <time>2025-04-15T20:29:56.252Z</time>
      </trkpt>
      <trkpt lat="44.83792" lon="3.74745">
        <ele>843.89</ele>
        <time>2025-04-15T20:30:07.670Z</time>
      </trkpt>
      <trkpt lat="44.83819" lon="3.74748">
        <ele>841.89</ele>
        <time>2025-04-15T20:30:19.093Z</time>
      </trkpt>
      <trkpt lat="44.83849" lon="3.74743">
        <ele>839.72</ele>
        <time>2025-04-15T20:30:30.520Z</time>
      </trkpt>
      <trkpt lat="44.83876" lon="3.7473">
        <ele>837.48</ele>
        <time>2025-04-15T20:30:41.952Z</time>
      </trkpt>
      <trkpt lat="44.83903" lon="3.74718">
        <ele>835.31</ele>
        <time>2025-04-15T20:30:53.388Z</time>
      </trkpt>
      <trkpt lat="44.83922" lon="3.74698">
        <ele>833.03</ele>
        <time>2025-04-15T20:31:04.828Z</time>
      </trkpt>
      <trkpt lat="44.83939" lon="3.74672">
        <ele>830.75</ele>
        <time>2025-04-15T20:31:16.272Z</time>
      </trkpt>
      <trkpt lat="44.83952" lon="3.74647">
        <ele>828.55</ele>
        <time>2025-04-15T20:31:27.720Z</time>
      </trkpt>
      <trkpt lat="44.83962" lon="3.74618">
        <ele>826.31</ele>
        <time>2025-04-15T20:31:39.171Z</time>
      </trkpt>
      <trkpt lat="44.83971" lon="3.74589">
        <ele>824.13</ele>
        <time>2025-04-15T20:31:50.626Z</time>
      </trkpt>
      <trkpt lat="44.83971" lon="3.74561">
        <ele>821.91</ele>
        <time>2025-04-15T20:32:02.084Z</time>
      </trkpt>
      <trkpt lat="44.83971" lon="3.74533">
        <ele>819.67</ele>
        <time>2025-04-15T20:32:13.545Z</time>
      </trkpt>
      <trkpt lat="44.83975" lon="3.74518">
        <ele>817.52</ele>
        <time>2025-04-15T20:32:25.008Z</time>
      </trkpt>
      <trkpt lat="44.83986" lon="3.74501">
        <ele>815.4</ele>
        <time>2025-04-15T20:32:36.474Z</time>
      </trkpt>
      <trkpt lat="44.8399" lon="3.74486">
        <ele>813.26</ele>
        <time>2025-04-15T20:32:47.942Z</time>
      </trkpt>
      <trkpt lat="44.83992" lon="3.74457">
        <ele>811.04</ele>
        <time>2025-04-15T20:32:59.413Z</time>
      </trkpt>
      <trkpt lat="44.83993" lon="3.74428">
        <ele>808.89</ele>
        <time>2025-04-15T20:33:10.887Z</time>
      </trkpt>
      <trkpt lat="44.83999" lon="3.74406">
        <ele>806.85</ele>
        <time>2025-04-15T20:33:22.364Z</time>
      </trkpt>
      <trkpt lat="44.84009" lon="3.74386">
        <ele>804.87</ele>
        <time>2025-04-15T20:33:33.844Z</time>
      </trkpt>
      <trkpt lat="44.84018" lon="3.74366">
        <ele>802.9</ele>
        <time>2025-04-15T20:33:45.327Z</time>
      </trkpt>
      <trkpt lat="44.84038" lon="3.74333">
        <ele>801.04</ele>
        <time>2025-04-15T20:33:56.814Z</time>
      </trkpt>
      <trkpt lat="44.84057" lon="3.743">
        <ele>798.9</ele>
        <time>2025-04-15T20:34:08.306Z</time>
      </trkpt>
      <trkpt lat="44.84076" lon="3.74267">
        <ele>796.82</ele>
        <time>2025-04-15T20:34:19.803Z</time>
      </trkpt>
      <trkpt lat="44.84083" lon="3.7425">
        <ele>794.86</ele>
        <time>2025-04-15T20:34:31.302Z</time>
      </trkpt>
      <trkpt lat="44.84087" lon="3.74235">
        <ele>792.98</ele>
        <time>2025-04-15T20:34:42.803Z</time>
      </trkpt>
      <trkpt lat="44.84086" lon="3.74206">
        <ele>791.01</ele>
        <time>2025-04-15T20:34:54.308Z</time>
      </trkpt>
      <trkpt lat="44.84085" lon="3.74177">
        <ele>789.05</ele>
        <time>2025-04-15T20:35:05.816Z</time>
      </trkpt>
      <trkpt lat="44.84088" lon="3.74145">
        <ele>787.2</ele>
        <time>2025-04-15T20:35:17.328Z</time>
      </trkpt>
      <trkpt lat="44.84092" lon="3.74112">
        <ele>785.4</ele>
        <time>2025-04-15T20:35:28.843Z</time>
      </trkpt>
      <trkpt lat="44.84096" lon="3.7408">
        <ele>783.57</ele>
        <time>2025-04-15T20:35:40.362Z</time>
      </trkpt>
      <trkpt lat="44.84091" lon="3.74061">
        <ele>781.74</ele>
        <time>2025-04-15T20:35:51.883Z</time>
      </trkpt>
      <trkpt lat="44.84091" lon="3.74061">
        <ele>780.13</ele>
        <time>2025-04-15T20:36:03.404Z</time>
      </trkpt>
      <trkpt lat="44.84085" lon="3.74027">
        <ele>778.38</ele>
        <time>2025-04-15T20:36:14.929Z</time>
      </trkpt>
      <trkpt lat="44.84078" lon="3.73992">
        <ele>776.72</ele>
        <time>2025-04-15T20:36:26.458Z</time>
      </trkpt>
      <trkpt lat="44.84078" lon="3.73979">
        <ele>775.23</ele>
        <time>2025-04-15T20:36:37.989Z</time>
      </trkpt>
      <trkpt lat="44.84087" lon="3.73975">
        <ele>773.93</ele>
        <time>2025-04-15T20:36:49.521Z</time>
      </trkpt>
      <trkpt lat="44.84096" lon="3.73979">
        <ele>772.62</ele>
        <time>2025-04-15T20:37:01.055Z</time>
      </trkpt>
      <trkpt lat="44.84115" lon="3.74014">
        <ele>771.4</ele>
        <time>2025-04-15T20:37:12.594Z</time>
      </trkpt>
      <trkpt lat="44.8413" lon="3.74029">
        <ele>770.1</ele>
        <time>2025-04-15T20:37:24.136Z</time>
      </trkpt>
      <trkpt lat="44.84145" lon="3.74044">
        <ele>768.79</ele>
        <time>2025-04-15T20:37:35.681Z</time>
      </trkpt>
      <trkpt lat="44.84167" lon="3.74056">
        <ele>767.45</ele>
        <time>2025-04-15T20:37:47.229Z</time>
      </trkpt>
      <trkpt lat="44.8419" lon="3.74067">
        <ele>766.14</ele>
        <time>2025-04-15T20:37:58.781Z</time>
      </trkpt>
      <trkpt lat="44.84213" lon="3.74079">
        <ele>764.88</ele>
        <time>2025-04-15T20:38:10.337Z</time>
      </trkpt>
      <trkpt lat="44.84235" lon="3.74091">
        <ele>763.59</ele>
        <time>2025-04-15T20:38:21.897Z</time>
      </trkpt>
      <trkpt lat="44.84246" lon="3.74108">
        <ele>762.32</ele>
        <time>2025-04-15T20:38:33.460Z</time>
      </trkpt>
      <trkpt lat="44.84252" lon="3.74112">
        <ele>761.02</ele>
        <time>2025-04-15T20:38:45.024Z</time>
      </trkpt>
      <trkpt lat="44.84259" lon="3.74112">
        <ele>759.72</ele>
        <time>2025-04-15T20:38:56.589Z</time>
      </trkpt>
      <trkpt lat="44.84263" lon="3.74104">
        <ele>758.45</ele>
        <time>2025-04-15T20:39:08.155Z</time>
      </trkpt>
      <trkpt lat="44.84265" lon="3.74093">
        <ele>757.18</ele>
        <time>2025-04-15T20:39:19.722Z</time>
      </trkpt>
      <trkpt lat="44.84261" lon="3.74085">
        <ele>755.96</ele>
        <time>2025-04-15T20:39:31.290Z</time>
      </trkpt>
      <trkpt lat="44.84244" lon="3.74074">
        <ele>754.86</ele>
        <time>2025-04-15T20:39:42.861Z</time>
      </trkpt>
      <trkpt lat="44.84224" lon="3.74054">
        <ele>753.61</ele>
        <time>2025-04-15T20:39:54.436Z</time>
      </trkpt>
      <trkpt lat="44.84204" lon="3.74034">
        <ele>752.21</ele>
        <time>2025-04-15T20:40:06.015Z</time>
      </trkpt>
      <trkpt lat="44.84184" lon="3.74014">
        <ele>751.06</ele>
        <time>2025-04-15T20:40:17.598Z</time>
      </trkpt>
      <trkpt lat="44.84166" lon="3.73984">
        <ele>749.88</ele>
        <time>2025-04-15T20:40:29.186Z</time>
      </trkpt>
      <trkpt lat="44.84155" lon="3.7395">
        <ele>748.73</ele>
        <time>2025-04-15T20:40:40.778Z</time>
      </trkpt>
      <trkpt lat="44.84143" lon="3.73917">
        <ele>747.6</ele>
        <time>2025-04-15T20:40:52.374Z</time>
      </trkpt>
      <trkpt lat="44.84132" lon="3.73878">
        <ele>746.47</ele>
        <time>2025-04-15T20:41:03.975Z</time>
      </trkpt>
      <trkpt lat="44.84121" lon="3.7384">
        <ele>745.32</ele>
        <time>2025-04-15T20:41:15.581Z</time>
      </trkpt>
      <trkpt lat="44.84111" lon="3.73822">
        <ele>744.34</ele>
        <time>2025-04-15T20:41:27.189Z</time>
      </trkpt>
      <trkpt lat="44.841" lon="3.73803">
        <ele>743.4</ele>
        <time>2025-04-15T20:41:38.800Z</time>
      </trkpt>
      <trkpt lat="44.84093" lon="3.73801">
        <ele>742.54</ele>
        <time>2025-04-15T20:41:50.412Z</time>
      </trkpt>
      <trkpt lat="44.84093" lon="3.73801">
        <ele>741.73</ele>
        <time>2025-04-15T20:42:02.024Z</time>
      </trkpt>
      <trkpt lat="44.84081" lon="3.73808">
        <ele>740.94</ele>
        <time>2025-04-15T20:42:13.638Z</time>
      </trkpt>
      <trkpt lat="44.84081" lon="3.73808">
        <ele>740.22</ele>
        <time>2025-04-15T20:42:25.252Z</time>
      </trkpt>
      <trkpt lat="44.84056" lon="3.73833">
        <ele>739.55</ele>
        <time>2025-04-15T20:42:36.871Z</time>
      </trkpt>
      <trkpt lat="44.84031" lon="3.73859">
        <ele>738.87</ele>
        <time>2025-04-15T20:42:48.495Z</time>
      </trkpt>
      <trkpt lat="44.84021" lon="3.73876">
        <ele>738.34</ele>
        <time>2025-04-15T20:43:00.122Z</time>
      </trkpt>
      <trkpt lat="44.8401" lon="3.73908">
        <ele>737.86</ele>
        <time>2025-04-15T20:43:11.753Z</time>
      </trkpt>
      <trkpt lat="44.83999" lon="3.73939">
        <ele>737.3</ele>
        <time>2025-04-15T20:43:23.387Z</time>
      </trkpt>
      <trkpt lat="44.83993" lon="3.73934">
        <ele>736.88</ele>
        <time>2025-04-15T20:43:35.023Z</time>
      </trkpt>
      <trkpt lat="44.83993" lon="3.73934">
        <ele>736.54</ele>
        <time>2025-04-15T20:43:46.659Z</time>
      </trkpt>
      <trkpt lat="44.83966" lon="3.73918">
        <ele>736.16</ele>
        <time>2025-04-15T20:43:58.299Z</time>
      </trkpt>
      <trkpt lat="44.83939" lon="3.73902">
        <ele>735.85</ele>
        <time>2025-04-15T20:44:09.944Z</time>
      </trkpt>
      <trkpt lat="44.83912" lon="3.73886">
        <ele>735.6</ele>
        <time>2025-04-15T20:44:21.594Z</time>
      </trkpt>
      <trkpt lat="44.83885" lon="3.7387">
        <ele>735.46</ele>
        <time>2025-04-15T20:44:33.248Z</time>
      </trkpt>
      <trkpt lat="44.83876" lon="3.73864">
        <ele>735.44</ele>
        <time>2025-04-15T20:44:44.904Z</time>
      </trkpt>
      <trkpt lat="44.83876" lon="3.73864">
        <ele>735.45</ele>
        <time>2025-04-15T20:44:56.560Z</time>
      </trkpt>
      <trkpt lat="44.83875" lon="3.73863">
        <ele>735.52</ele>
        <time>2025-04-15T20:45:08.216Z</time>
      </trkpt>
      <trkpt lat="44.83847" lon="3.73846">
        <ele>735.83</ele>
        <time>2025-04-15T20:45:19.877Z</time>
      </trkpt>
      <trkpt lat="44.83832" lon="3.73838">
        <ele>736.13</ele>
        <time>2025-04-15T20:45:31.541Z</time>
      </trkpt>
      <trkpt lat="44.83817" lon="3.73829">
        <ele>736.46</ele>
        <time>2025-04-15T20:45:43.207Z</time>
      </trkpt>
      <trkpt lat="44.83828" lon="3.73808">
        <ele>736.64</ele>
        <time>2025-04-15T20:45:54.876Z</time>
      </trkpt>
      <trkpt lat="44.8384" lon="3.73786">
        <ele>736.83</ele>
        <time>2025-04-15T20:46:06.548Z</time>
      </trkpt>
      <trkpt lat="44.8385" lon="3.73775">
        <ele>737.14</ele>
        <time>2025-04-15T20:46:18.222Z</time>
      </trkpt>
      <trkpt lat="44.8385" lon="3.73775">
        <ele>737.56</ele>
        <time>2025-04-15T20:46:29.896Z</time>
      </trkpt>
      <trkpt lat="44.83851" lon="3.73774">
        <ele>738.02</ele>
        <time>2025-04-15T20:46:41.571Z</time>
      </trkpt>
      <trkpt lat="44.8384" lon="3.73786">
        <ele>736.83</ele>
        <time>2025-04-15T20:46:53.248Z</time>
      </trkpt>
      <trkpt lat="44.83828" lon="3.73808">
        <ele>739.28</ele>
        <time>2025-04-15T20:47:04.928Z</time>
      </trkpt>
      <trkpt lat="44.83817" lon="3.73829">
        <ele>736.46</ele>
        <time>2025-04-15T20:47:16.611Z</time>
      </trkpt>
      <trkpt lat="44.83791" lon="3.73814">
        <ele>740.7</ele>
        <time>2025-04-15T20:47:28.298Z</time>
      </trkpt>
      <trkpt lat="44.83773" lon="3.73804">
        <ele>741.39</ele>
        <time>2025-04-15T20:47:39.989Z</time>
      </trkpt>
      <trkpt lat="44.83773" lon="3.73804">
        <ele>742.06</ele>
        <time>2025-04-15T20:47:51.680Z</time>
      </trkpt>
      <trkpt lat="44.83772" lon="3.73803">
        <ele>742.75</ele>
        <time>2025-04-15T20:48:03.371Z</time>
      </trkpt>
      <trkpt lat="44.83772" lon="3.73803">
        <ele>743.46</ele>
        <time>2025-04-15T20:48:15.062Z</time>
      </trkpt>
      <trkpt lat="44.83772" lon="3.73803">
        <ele>742.75</ele>
        <time>2025-04-15T20:48:26.753Z</time>
      </trkpt>
      <trkpt lat="44.83758" lon="3.73787">
        <ele>744.89</ele>
        <time>2025-04-15T20:48:38.447Z</time>
      </trkpt>
      <trkpt lat="44.83744" lon="3.73771">
        <ele>745.62</ele>
        <time>2025-04-15T20:48:50.144Z</time>
      </trkpt>
      <trkpt lat="44.83733" lon="3.73763">
        <ele>746.41</ele>
        <time>2025-04-15T20:49:01.843Z</time>
      </trkpt>
      <trkpt lat="44.83733" lon="3.73763">
        <ele>747.2</ele>
        <time>2025-04-15T20:49:13.542Z</time>
      </trkpt>
      <trkpt lat="44.8371" lon="3.73753">
        <ele>748.04</ele>
        <time>2025-04-15T20:49:25.244Z</time>
      </trkpt>
      <trkpt lat="44.83688" lon="3.73743">
        <ele>748.85</ele>
        <time>2025-04-15T20:49:36.950Z</time>
      </trkpt>
      <trkpt lat="44.83661" lon="3.73741">
        <ele>749.78</ele>
        <time>2025-04-15T20:49:48.660Z</time>
      </trkpt>
      <trkpt lat="44.83634" lon="3.73739">
        <ele>750.64</ele>
        <time>2025-04-15T20:50:00.375Z</time>
      </trkpt>
      <trkpt lat="44.83606" lon="3.73737">
        <ele>751.41</ele>
        <time>2025-04-15T20:50:12.094Z</time>
      </trkpt>
      <trkpt lat="44.83579" lon="3.73735">
        <ele>752.24</ele>
        <time>2025-04-15T20:50:23.817Z</time>
      </trkpt>
      <trkpt lat="44.83552" lon="3.73733">
        <ele>753.19</ele>
        <time>2025-04-15T20:50:35.545Z</time>
      </trkpt>
      <trkpt lat="44.83525" lon="3.7373">
        <ele>754.14</ele>
        <time>2025-04-15T20:50:47.277Z</time>
      </trkpt>
      <trkpt lat="44.835" lon="3.73726">
        <ele>754.98</ele>
        <time>2025-04-15T20:50:59.013Z</time>
      </trkpt>
      <trkpt lat="44.83475" lon="3.73722">
        <ele>755.89</ele>
        <time>2025-04-15T20:51:10.753Z</time>
      </trkpt>
      <trkpt lat="44.8345" lon="3.73711">
        <ele>756.75</ele>
        <time>2025-04-15T20:51:22.497Z</time>
      </trkpt>
      <trkpt lat="44.83424" lon="3.737">
        <ele>757.69</ele>
        <time>2025-04-15T20:51:34.246Z</time>
      </trkpt>
      <trkpt lat="44.83409" lon="3.73685">
        <ele>758.38</ele>
        <time>2025-04-15T20:51:45.998Z</time>
      </trkpt>
      <trkpt lat="44.83394" lon="3.7367">
        <ele>759.08</ele>
        <time>2025-04-15T20:51:57.753Z</time>
      </trkpt>
      <trkpt lat="44.83379" lon="3.73663">
        <ele>759.96</ele>
        <time>2025-04-15T20:52:09.510Z</time>
      </trkpt>
      <trkpt lat="44.83364" lon="3.73655">
        <ele>760.85</ele>
        <time>2025-04-15T20:52:21.270Z</time>
      </trkpt>
      <trkpt lat="44.83348" lon="3.7363">
        <ele>761.46</ele>
        <time>2025-04-15T20:52:33.034Z</time>
      </trkpt>
      <trkpt lat="44.83332" lon="3.73604">
        <ele>762.11</ele>
        <time>2025-04-15T20:52:44.802Z</time>
      </trkpt>
      <trkpt lat="44.83306" lon="3.73581">
        <ele>762.92</ele>
        <time>2025-04-15T20:52:56.574Z</time>
      </trkpt>
      <trkpt lat="44.8328" lon="3.73559">
        <ele>763.69</ele>
        <time>2025-04-15T20:53:08.351Z</time>
      </trkpt>
      <trkpt lat="44.8326" lon="3.7355">
        <ele>764.52</ele>
        <time>2025-04-15T20:53:20.132Z</time>
      </trkpt>
      <trkpt lat="44.8324" lon="3.7354">
        <ele>765.34</ele>
        <time>2025-04-15T20:53:31.916Z</time>
      </trkpt>
      <trkpt lat="44.8322" lon="3.73531">
        <ele>766.14</ele>
        <time>2025-04-15T20:53:43.703Z</time>
      </trkpt>
      <trkpt lat="44.83198" lon="3.73512">
        <ele>766.79</ele>
        <time>2025-04-15T20:53:55.495Z</time>
      </trkpt>
      <trkpt lat="44.83175" lon="3.73492">
        <ele>767.37</ele>
        <time>2025-04-15T20:54:07.291Z</time>
      </trkpt>
      <trkpt lat="44.83158" lon="3.73494">
        <ele>768.12</ele>
        <time>2025-04-15T20:54:19.090Z</time>
      </trkpt>
      <trkpt lat="44.83131" lon="3.73505">
        <ele>768.89</ele>
        <time>2025-04-15T20:54:30.893Z</time>
      </trkpt>
      <trkpt lat="44.83104" lon="3.73516">
        <ele>769.61</ele>
        <time>2025-04-15T20:54:42.701Z</time>
      </trkpt>
      <trkpt lat="44.83081" lon="3.73528">
        <ele>770.2</ele>
        <time>2025-04-15T20:54:54.513Z</time>
      </trkpt>
      <trkpt lat="44.83057" lon="3.73539">
        <ele>770.84</ele>
        <time>2025-04-15T20:55:06.329Z</time>
      </trkpt>
      <trkpt lat="44.83039" lon="3.73562">
        <ele>771.75</ele>
        <time>2025-04-15T20:55:18.148Z</time>
      </trkpt>
      <trkpt lat="44.83021" lon="3.73585">
        <ele>772.75</ele>
        <time>2025-04-15T20:55:29.971Z</time>
      </trkpt>
      <trkpt lat="44.83003" lon="3.73602">
        <ele>773.47</ele>
        <time>2025-04-15T20:55:41.798Z</time>
      </trkpt>
      <trkpt lat="44.82986" lon="3.73619">
        <ele>774</ele>
        <time>2025-04-15T20:55:53.628Z</time>
      </trkpt>
      <trkpt lat="44.82956" lon="3.73632">
        <ele>774.4</ele>
        <time>2025-04-15T20:56:05.463Z</time>
      </trkpt>
      <trkpt lat="44.82933" lon="3.73658">
        <ele>775.34</ele>
        <time>2025-04-15T20:56:17.303Z</time>
      </trkpt>
      <trkpt lat="44.8291" lon="3.73663">
        <ele>775.99</ele>
        <time>2025-04-15T20:56:29.147Z</time>
      </trkpt>
      <trkpt lat="44.82887" lon="3.73669">
        <ele>776.73</ele>
        <time>2025-04-15T20:56:40.994Z</time>
      </trkpt>
      <trkpt lat="44.82864" lon="3.73675">
        <ele>777.54</ele>
        <time>2025-04-15T20:56:52.845Z</time>
      </trkpt>
      <trkpt lat="44.82851" lon="3.73675">
        <ele>778.17</ele>
        <time>2025-04-15T20:57:04.698Z</time>
      </trkpt>
      <trkpt lat="44.82845" lon="3.73668">
        <ele>778.64</ele>
        <time>2025-04-15T20:57:16.552Z</time>
      </trkpt>
      <trkpt lat="44.82825" lon="3.73638">
        <ele>778.99</ele>
        <time>2025-04-15T20:57:28.411Z</time>
      </trkpt>
      <trkpt lat="44.82809" lon="3.73626">
        <ele>779.63</ele>
        <time>2025-04-15T20:57:40.273Z</time>
      </trkpt>
      <trkpt lat="44.82793" lon="3.73615">
        <ele>780.34</ele>
        <time>2025-04-15T20:57:52.138Z</time>
      </trkpt>
      <trkpt lat="44.82776" lon="3.73597">
        <ele>780.85</ele>
        <time>2025-04-15T20:58:04.006Z</time>
      </trkpt>
      <trkpt lat="44.82766" lon="3.73578">
        <ele>781.24</ele>
        <time>2025-04-15T20:58:15.877Z</time>
      </trkpt>
      <trkpt lat="44.82757" lon="3.73559">
        <ele>781.66</ele>
        <time>2025-04-15T20:58:27.751Z</time>
      </trkpt>
      <trkpt lat="44.8275" lon="3.73533">
        <ele>781.91</ele>
        <time>2025-04-15T20:58:39.628Z</time>
      </trkpt>
      <trkpt lat="44.82744" lon="3.73507">
        <ele>782.11</ele>
        <time>2025-04-15T20:58:51.508Z</time>
      </trkpt>
      <trkpt lat="44.82737" lon="3.73499">
        <ele>782.47</ele>
        <time>2025-04-15T20:59:03.389Z</time>
      </trkpt>
      <trkpt lat="44.8272" lon="3.73492">
        <ele>782.87</ele>
        <time>2025-04-15T20:59:15.273Z</time>
      </trkpt>
      <trkpt lat="44.82705" lon="3.73499">
        <ele>783.21</ele>
        <time>2025-04-15T20:59:27.160Z</time>
      </trkpt>
      <trkpt lat="44.82694" lon="3.73516">
        <ele>783.66</ele>
        <time>2025-04-15T20:59:39.049Z</time>
      </trkpt>
      <trkpt lat="44.82679" lon="3.73537">
        <ele>784.04</ele>
        <time>2025-04-15T20:59:50.942Z</time>
      </trkpt>
      <trkpt lat="44.8267" lon="3.73561">
        <ele>784.51</ele>
        <time>2025-04-15T21:00:02.838Z</time>
      </trkpt>
      <trkpt lat="44.8266" lon="3.73585">
        <ele>785.04</ele>
        <time>2025-04-15T21:00:14.737Z</time>
      </trkpt>
      <trkpt lat="44.82643" lon="3.73608">
        <ele>785.41</ele>
        <time>2025-04-15T21:00:26.640Z</time>
      </trkpt>
      <trkpt lat="44.82632" lon="3.7363">
        <ele>785.8</ele>
        <time>2025-04-15T21:00:38.546Z</time>
      </trkpt>
      <trkpt lat="44.82621" lon="3.73651">
        <ele>786.19</ele>
        <time>2025-04-15T21:00:50.455Z</time>
      </trkpt>
      <trkpt lat="44.82606" lon="3.7367">
        <ele>786.59</ele>
        <time>2025-04-15T21:01:02.367Z</time>
      </trkpt>
      <trkpt lat="44.82591" lon="3.7369">
        <ele>787.08</ele>
        <time>2025-04-15T21:01:14.282Z</time>
      </trkpt>
      <trkpt lat="44.82583" lon="3.73694">
        <ele>787.49</ele>
        <time>2025-04-15T21:01:26.199Z</time>
      </trkpt>
      <trkpt lat="44.82553" lon="3.7369">
        <ele>787.62</ele>
        <time>2025-04-15T21:01:38.120Z</time>
      </trkpt>
      <trkpt lat="44.82525" lon="3.737">
        <ele>787.79</ele>
        <time>2025-04-15T21:01:50.046Z</time>
      </trkpt>
      <trkpt lat="44.82508" lon="3.73713">
        <ele>788.18</ele>
        <time>2025-04-15T21:02:01.975Z</time>
      </trkpt>
      <trkpt lat="44.82491" lon="3.73726">
        <ele>788.53</ele>
        <time>2025-04-15T21:02:13.907Z</time>
      </trkpt>
      <trkpt lat="44.82466" lon="3.73736">
        <ele>788.91</ele>
        <time>2025-04-15T21:02:25.843Z</time>
      </trkpt>
      <trkpt lat="44.82441" lon="3.73745">
        <ele>789.28</ele>
        <time>2025-04-15T21:02:37.783Z</time>
      </trkpt>
      <trkpt lat="44.82411" lon="3.73747">
        <ele>789.68</ele>
        <time>2025-04-15T21:02:49.728Z</time>
      </trkpt>
      <trkpt lat="44.82381" lon="3.73748">
        <ele>790</ele>
        <time>2025-04-15T21:03:01.678Z</time>
      </trkpt>
      <trkpt lat="44.82356" lon="3.7374">
        <ele>790.24</ele>
        <time>2025-04-15T21:03:13.632Z</time>
      </trkpt>
      <trkpt lat="44.82332" lon="3.73733">
        <ele>790.44</ele>
        <time>2025-04-15T21:03:25.590Z</time>
      </trkpt>
      <trkpt lat="44.82312" lon="3.73737">
        <ele>790.73</ele>
        <time>2025-04-15T21:03:37.551Z</time>
      </trkpt>
      <trkpt lat="44.82293" lon="3.73741">
        <ele>791.04</ele>
        <time>2025-04-15T21:03:49.515Z</time>
      </trkpt>
      <trkpt lat="44.82278" lon="3.73739">
        <ele>791.29</ele>
        <time>2025-04-15T21:04:01.482Z</time>
      </trkpt>
      <trkpt lat="44.82259" lon="3.73741">
        <ele>791.61</ele>
        <time>2025-04-15T21:04:13.452Z</time>
      </trkpt>
      <trkpt lat="44.82244" lon="3.73758">
        <ele>792.11</ele>
        <time>2025-04-15T21:04:25.425Z</time>
      </trkpt>
      <trkpt lat="44.82229" lon="3.73776">
        <ele>792.58</ele>
        <time>2025-04-15T21:04:37.401Z</time>
      </trkpt>
      <trkpt lat="44.82205" lon="3.73786">
        <ele>792.96</ele>
        <time>2025-04-15T21:04:49.381Z</time>
      </trkpt>
      <trkpt lat="44.82179" lon="3.73788">
        <ele>793.3</ele>
        <time>2025-04-15T21:05:01.365Z</time>
      </trkpt>
      <trkpt lat="44.82153" lon="3.73789">
        <ele>793.65</ele>
        <time>2025-04-15T21:05:13.353Z</time>
      </trkpt>
      <trkpt lat="44.82127" lon="3.7379">
        <ele>794.03</ele>
        <time>2025-04-15T21:05:25.346Z</time>
      </trkpt>
      <trkpt lat="44.82101" lon="3.73791">
        <ele>794.47</ele>
        <time>2025-04-15T21:05:37.343Z</time>
      </trkpt>
      <trkpt lat="44.82074" lon="3.73793">
        <ele>794.88</ele>
        <time>2025-04-15T21:05:49.344Z</time>
      </trkpt>
      <trkpt lat="44.82057" lon="3.73788">
        <ele>795.25</ele>
        <time>2025-04-15T21:06:01.348Z</time>
      </trkpt>
      <trkpt lat="44.8204" lon="3.73784">
        <ele>795.6</ele>
        <time>2025-04-15T21:06:13.355Z</time>
      </trkpt>
      <trkpt lat="44.82014" lon="3.73782">
        <ele>796.03</ele>
        <time>2025-04-15T21:06:25.366Z</time>
      </trkpt>
      <trkpt lat="44.82013" lon="3.73782">
        <ele>796.49</ele>
        <time>2025-04-15T21:06:37.377Z</time>
      </trkpt>
      <trkpt lat="44.82013" lon="3.73782">
        <ele>796.96</ele>
        <time>2025-04-15T21:06:49.388Z</time>
      </trkpt>
      <trkpt lat="44.82013" lon="3.73782">
        <ele>797.45</ele>
        <time>2025-04-15T21:07:01.399Z</time>
      </trkpt>
      <trkpt lat="44.81997" lon="3.73786">
        <ele>797.98</ele>
        <time>2025-04-15T21:07:13.413Z</time>
      </trkpt>
      <trkpt lat="44.8198" lon="3.73791">
        <ele>798.51</ele>
        <time>2025-04-15T21:07:25.429Z</time>
      </trkpt>
      <trkpt lat="44.81964" lon="3.73802">
        <ele>799.15</ele>
        <time>2025-04-15T21:07:37.448Z</time>
      </trkpt>
      <trkpt lat="44.81948" lon="3.73814">
        <ele>799.79</ele>
        <time>2025-04-15T21:07:49.470Z</time>
      </trkpt>
      <trkpt lat="44.81927" lon="3.73816">
        <ele>800.34</ele>
        <time>2025-04-15T21:08:01.495Z</time>
      </trkpt>
      <trkpt lat="44.81907" lon="3.73818">
        <ele>800.89</ele>
        <time>2025-04-15T21:08:13.524Z</time>
      </trkpt>
      <trkpt lat="44.81877" lon="3.73815">
        <ele>801.52</ele>
        <time>2025-04-15T21:08:25.557Z</time>
      </trkpt>
      <trkpt lat="44.81847" lon="3.73812">
        <ele>802.23</ele>
        <time>2025-04-15T21:08:37.595Z</time>
      </trkpt>
      <trkpt lat="44.81831" lon="3.73803">
        <ele>802.73</ele>
        <time>2025-04-15T21:08:49.636Z</time>
      </trkpt>
      <trkpt lat="44.81815" lon="3.73795">
        <ele>803.23</ele>
        <time>2025-04-15T21:09:01.680Z</time>
      </trkpt>
      <trkpt lat="44.81793" lon="3.73778">
        <ele>803.78</ele>
        <time>2025-04-15T21:09:13.728Z</time>
      </trkpt>
      <trkpt lat="44.81772" lon="3.73761">
        <ele>804.4</ele>
        <time>2025-04-15T21:09:25.780Z</time>
      </trkpt>
      <trkpt lat="44.8175" lon="3.73743">
        <ele>805.01</ele>
        <time>2025-04-15T21:09:37.836Z</time>
      </trkpt>
      <trkpt lat="44.8175" lon="3.73743">
        <ele>805.55</ele>
        <time>2025-04-15T21:09:49.892Z</time>
      </trkpt>
      <trkpt lat="44.81734" lon="3.73729">
        <ele>806.04</ele>
        <time>2025-04-15T21:10:01.951Z</time>
      </trkpt>
      <trkpt lat="44.81718" lon="3.73715">
        <ele>806.49</ele>
        <time>2025-04-15T21:10:14.013Z</time>
      </trkpt>
      <trkpt lat="44.81701" lon="3.73709">
        <ele>806.99</ele>
        <time>2025-04-15T21:10:26.078Z</time>
      </trkpt>
      <trkpt lat="44.81684" lon="3.73703">
        <ele>807.62</ele>
        <time>2025-04-15T21:10:38.145Z</time>
      </trkpt>
      <trkpt lat="44.81669" lon="3.73685">
        <ele>808.29</ele>
        <time>2025-04-15T21:10:50.216Z</time>
      </trkpt>
      <trkpt lat="44.81664" lon="3.73666">
        <ele>808.84</ele>
        <time>2025-04-15T21:11:02.289Z</time>
      </trkpt>
      <trkpt lat="44.81662" lon="3.73642">
        <ele>809.28</ele>
        <time>2025-04-15T21:11:14.365Z</time>
      </trkpt>
      <trkpt lat="44.8166" lon="3.73619">
        <ele>809.74</ele>
        <time>2025-04-15T21:11:26.443Z</time>
      </trkpt>
      <trkpt lat="44.81663" lon="3.73576">
        <ele>809.99</ele>
        <time>2025-04-15T21:11:38.526Z</time>
      </trkpt>
      <trkpt lat="44.81667" lon="3.73533">
        <ele>810.45</ele>
        <time>2025-04-15T21:11:50.614Z</time>
      </trkpt>
      <trkpt lat="44.81671" lon="3.73506">
        <ele>810.84</ele>
        <time>2025-04-15T21:12:02.705Z</time>
      </trkpt>
      <trkpt lat="44.81675" lon="3.73479">
        <ele>811.08</ele>
        <time>2025-04-15T21:12:14.799Z</time>
      </trkpt>
      <trkpt lat="44.81684" lon="3.73459">
        <ele>811.33</ele>
        <time>2025-04-15T21:12:26.896Z</time>
      </trkpt>
      <trkpt lat="44.81692" lon="3.73439">
        <ele>811.64</ele>
        <time>2025-04-15T21:12:38.996Z</time>
      </trkpt>
      <trkpt lat="44.81711" lon="3.73417">
        <ele>811.89</ele>
        <time>2025-04-15T21:12:51.100Z</time>
      </trkpt>
      <trkpt lat="44.81729" lon="3.73396">
        <ele>812.02</ele>
        <time>2025-04-15T21:13:03.207Z</time>
      </trkpt>
      <trkpt lat="44.81751" lon="3.73382">
        <ele>812.17</ele>
        <time>2025-04-15T21:13:15.318Z</time>
      </trkpt>
      <trkpt lat="44.81774" lon="3.73369">
        <ele>812.37</ele>
        <time>2025-04-15T21:13:27.433Z</time>
      </trkpt>
      <trkpt lat="44.81796" lon="3.73356">
        <ele>812.61</ele>
        <time>2025-04-15T21:13:39.552Z</time>
      </trkpt>
      <trkpt lat="44.81819" lon="3.73342">
        <ele>812.84</ele>
        <time>2025-04-15T21:13:51.675Z</time>
      </trkpt>
      <trkpt lat="44.81835" lon="3.73337">
        <ele>812.96</ele>
        <time>2025-04-15T21:14:03.801Z</time>
      </trkpt>
      <trkpt lat="44.81851" lon="3.73331">
        <ele>813.05</ele>
        <time>2025-04-15T21:14:15.929Z</time>
      </trkpt>
      <trkpt lat="44.81865" lon="3.73316">
        <ele>813.16</ele>
        <time>2025-04-15T21:14:28.060Z</time>
      </trkpt>
      <trkpt lat="44.81879" lon="3.73301">
        <ele>813.22</ele>
        <time>2025-04-15T21:14:40.194Z</time>
      </trkpt>
      <trkpt lat="44.8189" lon="3.73284">
        <ele>813.22</ele>
        <time>2025-04-15T21:14:52.331Z</time>
      </trkpt>
      <trkpt lat="44.81892" lon="3.73261">
        <ele>813.34</ele>
        <time>2025-04-15T21:15:04.470Z</time>
      </trkpt>
      <trkpt lat="44.81888" lon="3.73234">
        <ele>813.49</ele>
        <time>2025-04-15T21:15:16.612Z</time>
      </trkpt>
      <trkpt lat="44.81883" lon="3.73207">
        <ele>813.58</ele>
        <time>2025-04-15T21:15:28.757Z</time>
      </trkpt>
      <trkpt lat="44.81881" lon="3.73176">
        <ele>813.54</ele>
        <time>2025-04-15T21:15:40.906Z</time>
      </trkpt>
      <trkpt lat="44.81879" lon="3.73145">
        <ele>813.48</ele>
        <time>2025-04-15T21:15:53.059Z</time>
      </trkpt>
      <trkpt lat="44.81868" lon="3.73104">
        <ele>813.34</ele>
        <time>2025-04-15T21:16:05.217Z</time>
      </trkpt>
      <trkpt lat="44.81849" lon="3.73078">
        <ele>813.32</ele>
        <time>2025-04-15T21:16:17.379Z</time>
      </trkpt>
      <trkpt lat="44.8183" lon="3.73051">
        <ele>813.22</ele>
        <time>2025-04-15T21:16:29.545Z</time>
      </trkpt>
      <trkpt lat="44.8181" lon="3.73025">
        <ele>813.09</ele>
        <time>2025-04-15T21:16:41.715Z</time>
      </trkpt>
      <trkpt lat="44.81791" lon="3.72999">
        <ele>812.97</ele>
        <time>2025-04-15T21:16:53.890Z</time>
      </trkpt>
      <trkpt lat="44.81773" lon="3.72986">
        <ele>812.92</ele>
        <time>2025-04-15T21:17:06.068Z</time>
      </trkpt>
      <trkpt lat="44.81755" lon="3.72973">
        <ele>812.83</ele>
        <time>2025-04-15T21:17:18.249Z</time>
      </trkpt>
      <trkpt lat="44.81725" lon="3.72966">
        <ele>812.77</ele>
        <time>2025-04-15T21:17:30.435Z</time>
      </trkpt>
      <trkpt lat="44.81695" lon="3.72959">
        <ele>812.69</ele>
        <time>2025-04-15T21:17:42.626Z</time>
      </trkpt>
      <trkpt lat="44.81665" lon="3.72952">
        <ele>812.53</ele>
        <time>2025-04-15T21:17:54.822Z</time>
      </trkpt>
      <trkpt lat="44.81635" lon="3.72946">
        <ele>812.33</ele>
        <time>2025-04-15T21:18:07.023Z</time>
      </trkpt>
      <trkpt lat="44.81604" lon="3.72939">
        <ele>812.25</ele>
        <time>2025-04-15T21:18:19.229Z</time>
      </trkpt>
      <trkpt lat="44.81587" lon="3.72928">
        <ele>812.09</ele>
        <time>2025-04-15T21:18:31.438Z</time>
      </trkpt>
      <trkpt lat="44.8157" lon="3.72917">
        <ele>811.94</ele>
        <time>2025-04-15T21:18:43.650Z</time>
      </trkpt>
      <trkpt lat="44.81551" lon="3.72909">
        <ele>811.87</ele>
        <time>2025-04-15T21:18:55.865Z</time>
      </trkpt>
      <trkpt lat="44.81531" lon="3.729">
        <ele>811.81</ele>
        <time>2025-04-15T21:19:08.083Z</time>
      </trkpt>
      <trkpt lat="44.81514" lon="3.72887">
        <ele>811.74</ele>
        <time>2025-04-15T21:19:20.304Z</time>
      </trkpt>
      <trkpt lat="44.81506" lon="3.7287">
        <ele>811.64</ele>
        <time>2025-04-15T21:19:32.528Z</time>
      </trkpt>
      <trkpt lat="44.81506" lon="3.72846">
        <ele>811.5</ele>
        <time>2025-04-15T21:19:44.754Z</time>
      </trkpt>
      <trkpt lat="44.8151" lon="3.72827">
        <ele>811.4</ele>
        <time>2025-04-15T21:19:56.983Z</time>
      </trkpt>
      <trkpt lat="44.81525" lon="3.7281">
        <ele>811.3</ele>
        <time>2025-04-15T21:20:09.215Z</time>
      </trkpt>
      <trkpt lat="44.81544" lon="3.72793">
        <ele>811.32</ele>
        <time>2025-04-15T21:20:21.450Z</time>
      </trkpt>
      <trkpt lat="44.81564" lon="3.72776">
        <ele>811.49</ele>
        <time>2025-04-15T21:20:33.689Z</time>
      </trkpt>
      <trkpt lat="44.81564" lon="3.72776">
        <ele>811.59</ele>
        <time>2025-04-15T21:20:45.928Z</time>
      </trkpt>
      <trkpt lat="44.81572" lon="3.72761">
        <ele>811.87</ele>
        <time>2025-04-15T21:20:58.169Z</time>
      </trkpt>
      <trkpt lat="44.81572" lon="3.72746">
        <ele>812.1</ele>
        <time>2025-04-15T21:21:10.412Z</time>
      </trkpt>
      <trkpt lat="44.81559" lon="3.7272">
        <ele>812.29</ele>
        <time>2025-04-15T21:21:22.659Z</time>
      </trkpt>
      <trkpt lat="44.81545" lon="3.72702">
        <ele>812.49</ele>
        <time>2025-04-15T21:21:34.909Z</time>
      </trkpt>
      <trkpt lat="44.81531" lon="3.72683">
        <ele>812.75</ele>
        <time>2025-04-15T21:21:47.162Z</time>
      </trkpt>
      <trkpt lat="44.81512" lon="3.72653">
        <ele>813.04</ele>
        <time>2025-04-15T21:21:59.419Z</time>
      </trkpt>
      <trkpt lat="44.81492" lon="3.72624">
        <ele>813.45</ele>
        <time>2025-04-15T21:22:11.681Z</time>
      </trkpt>
      <trkpt lat="44.81473" lon="3.72594">
        <ele>813.83</ele>
        <time>2025-04-15T21:22:23.948Z</time>
      </trkpt>
      <trkpt lat="44.81453" lon="3.72564">
        <ele>814.12</ele>
        <time>2025-04-15T21:22:36.219Z</time>
      </trkpt>
      <trkpt lat="44.81434" lon="3.72534">
        <ele>814.51</ele>
        <time>2025-04-15T21:22:48.495Z</time>
      </trkpt>
      <trkpt lat="44.81414" lon="3.72504">
        <ele>814.87</ele>
        <time>2025-04-15T21:23:00.775Z</time>
      </trkpt>
      <trkpt lat="44.81394" lon="3.72475">
        <ele>815.24</ele>
        <time>2025-04-15T21:23:13.060Z</time>
      </trkpt>
      <trkpt lat="44.81375" lon="3.72445">
        <ele>815.73</ele>
        <time>2025-04-15T21:23:25.350Z</time>
      </trkpt>
      <trkpt lat="44.81355" lon="3.72415">
        <ele>816.16</ele>
        <time>2025-04-15T21:23:37.644Z</time>
      </trkpt>
      <trkpt lat="44.81335" lon="3.72391">
        <ele>816.54</ele>
        <time>2025-04-15T21:23:49.942Z</time>
      </trkpt>
      <trkpt lat="44.81315" lon="3.72367">
        <ele>816.95</ele>
        <time>2025-04-15T21:24:02.245Z</time>
      </trkpt>
      <trkpt lat="44.81294" lon="3.72343">
        <ele>817.37</ele>
        <time>2025-04-15T21:24:14.552Z</time>
      </trkpt>
      <trkpt lat="44.81274" lon="3.72319">
        <ele>817.8</ele>
        <time>2025-04-15T21:24:26.863Z</time>
      </trkpt>
      <trkpt lat="44.81254" lon="3.72292">
        <ele>818.19</ele>
        <time>2025-04-15T21:24:39.179Z</time>
      </trkpt>
      <trkpt lat="44.81233" lon="3.72266">
        <ele>818.52</ele>
        <time>2025-04-15T21:24:51.499Z</time>
      </trkpt>
      <trkpt lat="44.81213" lon="3.7224">
        <ele>818.94</ele>
        <time>2025-04-15T21:25:03.824Z</time>
      </trkpt>
      <trkpt lat="44.81192" lon="3.72214">
        <ele>819.38</ele>
        <time>2025-04-15T21:25:16.153Z</time>
      </trkpt>
      <trkpt lat="44.81172" lon="3.72188">
        <ele>819.78</ele>
        <time>2025-04-15T21:25:28.486Z</time>
      </trkpt>
      <trkpt lat="44.81152" lon="3.72162">
        <ele>820.11</ele>
        <time>2025-04-15T21:25:40.824Z</time>
      </trkpt>
      <trkpt lat="44.81132" lon="3.7213">
        <ele>820.42</ele>
        <time>2025-04-15T21:25:53.167Z</time>
      </trkpt>
      <trkpt lat="44.81126" lon="3.72095">
        <ele>820.76</ele>
        <time>2025-04-15T21:26:05.514Z</time>
      </trkpt>
      <trkpt lat="44.81124" lon="3.72078">
        <ele>821.04</ele>
        <time>2025-04-15T21:26:17.863Z</time>
      </trkpt>
      <trkpt lat="44.8113" lon="3.72057">
        <ele>821.34</ele>
        <time>2025-04-15T21:26:30.214Z</time>
      </trkpt>
      <trkpt lat="44.81147" lon="3.72037">
        <ele>821.65</ele>
        <time>2025-04-15T21:26:42.569Z</time>
      </trkpt>
      <trkpt lat="44.81171" lon="3.72027">
        <ele>822.03</ele>
        <time>2025-04-15T21:26:54.928Z</time>
      </trkpt>
      <trkpt lat="44.81198" lon="3.72028">
        <ele>822.49</ele>
        <time>2025-04-15T21:27:07.291Z</time>
      </trkpt>
      <trkpt lat="44.81225" lon="3.7203">
        <ele>822.88</ele>
        <time>2025-04-15T21:27:19.658Z</time>
      </trkpt>
      <trkpt lat="44.81252" lon="3.72031">
        <ele>823.19</ele>
        <time>2025-04-15T21:27:32.030Z</time>
      </trkpt>
      <trkpt lat="44.81276" lon="3.72037">
        <ele>823.48</ele>
        <time>2025-04-15T21:27:44.406Z</time>
      </trkpt>
      <trkpt lat="44.81301" lon="3.7205">
        <ele>823.78</ele>
        <time>2025-04-15T21:27:56.786Z</time>
      </trkpt>
      <trkpt lat="44.81327" lon="3.72062">
        <ele>824.1</ele>
        <time>2025-04-15T21:28:09.170Z</time>
      </trkpt>
      <trkpt lat="44.81352" lon="3.72075">
        <ele>824.5</ele>
        <time>2025-04-15T21:28:21.558Z</time>
      </trkpt>
      <trkpt lat="44.81377" lon="3.72087">
        <ele>824.82</ele>
        <time>2025-04-15T21:28:33.951Z</time>
      </trkpt>
      <trkpt lat="44.81403" lon="3.721">
        <ele>825.08</ele>
        <time>2025-04-15T21:28:46.348Z</time>
      </trkpt>
      <trkpt lat="44.81426" lon="3.72104">
        <ele>825.37</ele>
        <time>2025-04-15T21:28:58.749Z</time>
      </trkpt>
      <trkpt lat="44.81442" lon="3.72103">
        <ele>825.6</ele>
        <time>2025-04-15T21:29:11.152Z</time>
      </trkpt>
      <trkpt lat="44.81458" lon="3.72102">
        <ele>825.8</ele>
        <time>2025-04-15T21:29:23.558Z</time>
      </trkpt>
      <trkpt lat="44.81478" lon="3.7209">
        <ele>825.83</ele>
        <time>2025-04-15T21:29:35.968Z</time>
      </trkpt>
      <trkpt lat="44.81499" lon="3.72078">
        <ele>825.89</ele>
        <time>2025-04-15T21:29:48.381Z</time>
      </trkpt>
      <trkpt lat="44.81519" lon="3.72065">
        <ele>826.07</ele>
        <time>2025-04-15T21:30:00.798Z</time>
      </trkpt>
      <trkpt lat="44.81531" lon="3.72055">
        <ele>826.29</ele>
        <time>2025-04-15T21:30:13.217Z</time>
      </trkpt>
      <trkpt lat="44.8154" lon="3.72044">
        <ele>826.51</ele>
        <time>2025-04-15T21:30:25.638Z</time>
      </trkpt>
      <trkpt lat="44.81546" lon="3.72016">
        <ele>826.77</ele>
        <time>2025-04-15T21:30:38.062Z</time>
      </trkpt>
      <trkpt lat="44.81545" lon="3.71976">
        <ele>826.95</ele>
        <time>2025-04-15T21:30:50.491Z</time>
      </trkpt>
      <trkpt lat="44.81544" lon="3.71937">
        <ele>827.2</ele>
        <time>2025-04-15T21:31:02.924Z</time>
      </trkpt>
      <trkpt lat="44.81544" lon="3.71937">
        <ele>827.44</ele>
        <time>2025-04-15T21:31:15.357Z</time>
      </trkpt>
      <trkpt lat="44.81544" lon="3.71909">
        <ele>827.71</ele>
        <time>2025-04-15T21:31:27.793Z</time>
      </trkpt>
      <trkpt lat="44.81544" lon="3.71881">
        <ele>828</ele>
        <time>2025-04-15T21:31:40.233Z</time>
      </trkpt>
      <trkpt lat="44.81544" lon="3.71881">
        <ele>828.26</ele>
        <time>2025-04-15T21:31:52.673Z</time>
      </trkpt>
      <trkpt lat="44.81544" lon="3.71839">
        <ele>828.58</ele>
        <time>2025-04-15T21:32:05.117Z</time>
      </trkpt>
      <trkpt lat="44.81543" lon="3.71798">
        <ele>828.93</ele>
        <time>2025-04-15T21:32:17.566Z</time>
      </trkpt>
      <trkpt lat="44.81542" lon="3.71756">
        <ele>829.22</ele>
        <time>2025-04-15T21:32:30.020Z</time>
      </trkpt>
      <trkpt lat="44.81542" lon="3.71756">
        <ele>829.5</ele>
        <time>2025-04-15T21:32:42.474Z</time>
      </trkpt>
      <trkpt lat="44.81542" lon="3.71725">
        <ele>829.81</ele>
        <time>2025-04-15T21:32:54.931Z</time>
      </trkpt>
      <trkpt lat="44.81542" lon="3.71694">
        <ele>830.1</ele>
        <time>2025-04-15T21:33:07.392Z</time>
      </trkpt>
      <trkpt lat="44.81549" lon="3.71662">
        <ele>830.45</ele>
        <time>2025-04-15T21:33:19.857Z</time>
      </trkpt>
      <trkpt lat="44.81549" lon="3.71662">
        <ele>830.76</ele>
        <time>2025-04-15T21:33:32.322Z</time>
      </trkpt>
      <trkpt lat="44.81566" lon="3.71625">
        <ele>831.13</ele>
        <time>2025-04-15T21:33:44.792Z</time>
      </trkpt>
      <trkpt lat="44.81581" lon="3.71612">
        <ele>831.47</ele>
        <time>2025-04-15T21:33:57.264Z</time>
      </trkpt>
      <trkpt lat="44.81596" lon="3.71598">
        <ele>831.77</ele>
        <time>2025-04-15T21:34:09.739Z</time>
      </trkpt>
      <trkpt lat="44.81622" lon="3.71591">
        <ele>832.15</ele>
        <time>2025-04-15T21:34:22.219Z</time>
      </trkpt>
      <trkpt lat="44.81641" lon="3.71589">
        <ele>832.49</ele>
        <time>2025-04-15T21:34:34.702Z</time>
      </trkpt>
      <trkpt lat="44.8166" lon="3.71587">
        <ele>832.83</ele>
        <time>2025-04-15T21:34:47.188Z</time>
      </trkpt>
      <trkpt lat="44.8169" lon="3.71588">
        <ele>833.22</ele>
        <time>2025-04-15T21:34:59.679Z</time>
      </trkpt>
      <trkpt lat="44.8172" lon="3.71589">
        <ele>833.53</ele>
        <time>2025-04-15T21:35:12.174Z</time>
      </trkpt>
      <trkpt lat="44.81737" lon="3.71585">
        <ele>833.86</ele>
        <time>2025-04-15T21:35:24.672Z</time>
      </trkpt>
      <trkpt lat="44.81765" lon="3.71565">
        <ele>834.19</ele>
        <time>2025-04-15T21:35:37.175Z</time>
      </trkpt>
      <trkpt lat="44.81793" lon="3.71546">
        <ele>834.71</ele>
        <time>2025-04-15T21:35:49.683Z</time>
      </trkpt>
      <trkpt lat="44.81808" lon="3.71525">
        <ele>835.08</ele>
        <time>2025-04-15T21:36:02.194Z</time>
      </trkpt>
      <trkpt lat="44.81824" lon="3.71487">
        <ele>835.33</ele>
        <time>2025-04-15T21:36:14.711Z</time>
      </trkpt>
      <trkpt lat="44.8184" lon="3.71449">
        <ele>835.61</ele>
        <time>2025-04-15T21:36:27.233Z</time>
      </trkpt>
      <trkpt lat="44.81855" lon="3.71411">
        <ele>836.24</ele>
        <time>2025-04-15T21:36:39.759Z</time>
      </trkpt>
      <trkpt lat="44.81855" lon="3.71411">
        <ele>836.63</ele>
        <time>2025-04-15T21:36:52.285Z</time>
      </trkpt>
      <trkpt lat="44.81858" lon="3.71383">
        <ele>837.07</ele>
        <time>2025-04-15T21:37:04.815Z</time>
      </trkpt>
      <trkpt lat="44.81852" lon="3.71342">
        <ele>837.38</ele>
        <time>2025-04-15T21:37:17.349Z</time>
      </trkpt>
      <trkpt lat="44.81846" lon="3.71301">
        <ele>837.76</ele>
        <time>2025-04-15T21:37:29.888Z</time>
      </trkpt>
      <trkpt lat="44.8184" lon="3.71261">
        <ele>838.19</ele>
        <time>2025-04-15T21:37:42.432Z</time>
      </trkpt>
      <trkpt lat="44.81828" lon="3.71233">
        <ele>838.57</ele>
        <time>2025-04-15T21:37:54.980Z</time>
      </trkpt>
      <trkpt lat="44.81813" lon="3.71224">
        <ele>838.94</ele>
        <time>2025-04-15T21:38:07.530Z</time>
      </trkpt>
      <trkpt lat="44.81798" lon="3.71216">
        <ele>839.44</ele>
        <time>2025-04-15T21:38:20.083Z</time>
      </trkpt>
      <trkpt lat="44.81798" lon="3.71216">
        <ele>839.89</ele>
        <time>2025-04-15T21:38:32.636Z</time>
      </trkpt>
      <trkpt lat="44.81767" lon="3.71203">
        <ele>840.72</ele>
        <time>2025-04-15T21:38:45.194Z</time>
      </trkpt>
      <trkpt lat="44.81767" lon="3.71203">
        <ele>841.18</ele>
        <time>2025-04-15T21:38:57.752Z</time>
      </trkpt>
      <trkpt lat="44.81757" lon="3.71201">
        <ele>841.84</ele>
        <time>2025-04-15T21:39:10.312Z</time>
      </trkpt>
      <trkpt lat="44.81757" lon="3.71201">
        <ele>842.3</ele>
        <time>2025-04-15T21:39:22.872Z</time>
      </trkpt>
      <trkpt lat="44.81752" lon="3.71188">
        <ele>842.84</ele>
        <time>2025-04-15T21:39:35.433Z</time>
      </trkpt>
      <trkpt lat="44.81754" lon="3.71148">
        <ele>843.15</ele>
        <time>2025-04-15T21:39:47.999Z</time>
      </trkpt>
      <trkpt lat="44.81755" lon="3.71108">
        <ele>843.58</ele>
        <time>2025-04-15T21:40:00.569Z</time>
      </trkpt>
      <trkpt lat="44.81756" lon="3.71068">
        <ele>844.07</ele>
        <time>2025-04-15T21:40:13.144Z</time>
      </trkpt>
      <trkpt lat="44.81757" lon="3.71029">
        <ele>844.43</ele>
        <time>2025-04-15T21:40:25.723Z</time>
      </trkpt>
      <trkpt lat="44.8175" lon="3.71009">
        <ele>844.88</ele>
        <time>2025-04-15T21:40:38.305Z</time>
      </trkpt>
      <trkpt lat="44.81744" lon="3.70988">
        <ele>845.4</ele>
        <time>2025-04-15T21:40:50.889Z</time>
      </trkpt>
      <trkpt lat="44.81749" lon="3.70949">
        <ele>845.81</ele>
        <time>2025-04-15T21:41:03.478Z</time>
      </trkpt>
      <trkpt lat="44.81754" lon="3.70911">
        <ele>846.32</ele>
        <time>2025-04-15T21:41:16.071Z</time>
      </trkpt>
      <trkpt lat="44.81759" lon="3.70872">
        <ele>846.71</ele>
        <time>2025-04-15T21:41:28.669Z</time>
      </trkpt>
      <trkpt lat="44.81759" lon="3.70836">
        <ele>847.11</ele>
        <time>2025-04-15T21:41:41.271Z</time>
      </trkpt>
      <trkpt lat="44.81751" lon="3.70814">
        <ele>847.59</ele>
        <time>2025-04-15T21:41:53.876Z</time>
      </trkpt>
      <trkpt lat="44.81744" lon="3.70793">
        <ele>848.02</ele>
        <time>2025-04-15T21:42:06.483Z</time>
      </trkpt>
      <trkpt lat="44.8172" lon="3.70773">
        <ele>848.59</ele>
        <time>2025-04-15T21:42:19.095Z</time>
      </trkpt>
      <trkpt lat="44.81697" lon="3.70753">
        <ele>849.09</ele>
        <time>2025-04-15T21:42:31.711Z</time>
      </trkpt>
      <trkpt lat="44.81673" lon="3.70733">
        <ele>849.62</ele>
        <time>2025-04-15T21:42:44.332Z</time>
      </trkpt>
      <trkpt lat="44.81649" lon="3.70714">
        <ele>850.15</ele>
        <time>2025-04-15T21:42:56.957Z</time>
      </trkpt>
      <trkpt lat="44.81635" lon="3.707">
        <ele>850.67</ele>
        <time>2025-04-15T21:43:09.585Z</time>
      </trkpt>
      <trkpt lat="44.81622" lon="3.70686">
        <ele>851.18</ele>
        <time>2025-04-15T21:43:22.216Z</time>
      </trkpt>
      <trkpt lat="44.81607" lon="3.70677">
        <ele>851.71</ele>
        <time>2025-04-15T21:43:34.849Z</time>
      </trkpt>
      <trkpt lat="44.81592" lon="3.70668">
        <ele>852.23</ele>
        <time>2025-04-15T21:43:47.485Z</time>
      </trkpt>
      <trkpt lat="44.81568" lon="3.70664">
        <ele>853.02</ele>
        <time>2025-04-15T21:44:00.125Z</time>
      </trkpt>
      <trkpt lat="44.81549" lon="3.70641">
        <ele>853.4</ele>
        <time>2025-04-15T21:44:12.769Z</time>
      </trkpt>
      <trkpt lat="44.81537" lon="3.70619">
        <ele>853.75</ele>
        <time>2025-04-15T21:44:25.416Z</time>
      </trkpt>
      <trkpt lat="44.81525" lon="3.70598">
        <ele>854.18</ele>
        <time>2025-04-15T21:44:38.066Z</time>
      </trkpt>
      <trkpt lat="44.81512" lon="3.7057">
        <ele>854.6</ele>
        <time>2025-04-15T21:44:50.720Z</time>
      </trkpt>
      <trkpt lat="44.81499" lon="3.70542">
        <ele>854.98</ele>
        <time>2025-04-15T21:45:03.377Z</time>
      </trkpt>
      <trkpt lat="44.81486" lon="3.70527">
        <ele>855.42</ele>
        <time>2025-04-15T21:45:16.037Z</time>
      </trkpt>
      <trkpt lat="44.81476" lon="3.70527">
        <ele>855.89</ele>
        <time>2025-04-15T21:45:28.699Z</time>
      </trkpt>
      <trkpt lat="44.8145" lon="3.70542">
        <ele>856.34</ele>
        <time>2025-04-15T21:45:41.365Z</time>
      </trkpt>
      <trkpt lat="44.81428" lon="3.7057">
        <ele>856.84</ele>
        <time>2025-04-15T21:45:54.036Z</time>
      </trkpt>
      <trkpt lat="44.81406" lon="3.70599">
        <ele>857.25</ele>
        <time>2025-04-15T21:46:06.712Z</time>
      </trkpt>
      <trkpt lat="44.81383" lon="3.70628">
        <ele>857.59</ele>
        <time>2025-04-15T21:46:19.393Z</time>
      </trkpt>
      <trkpt lat="44.81375" lon="3.70653">
        <ele>858.15</ele>
        <time>2025-04-15T21:46:32.077Z</time>
      </trkpt>
      <trkpt lat="44.8137" lon="3.70681">
        <ele>858.83</ele>
        <time>2025-04-15T21:46:44.764Z</time>
      </trkpt>
      <trkpt lat="44.81355" lon="3.70714">
        <ele>859.61</ele>
        <time>2025-04-15T21:46:57.456Z</time>
      </trkpt>
      <trkpt lat="44.81332" lon="3.70724">
        <ele>860.1</ele>
        <time>2025-04-15T21:47:10.152Z</time>
      </trkpt>
      <trkpt lat="44.81309" lon="3.70722">
        <ele>860.44</ele>
        <time>2025-04-15T21:47:22.851Z</time>
      </trkpt>
      <trkpt lat="44.81286" lon="3.7072">
        <ele>860.85</ele>
        <time>2025-04-15T21:47:35.554Z</time>
      </trkpt>
      <trkpt lat="44.81263" lon="3.70718">
        <ele>861.43</ele>
        <time>2025-04-15T21:47:48.261Z</time>
      </trkpt>
      <trkpt lat="44.81245" lon="3.707">
        <ele>861.88</ele>
        <time>2025-04-15T21:48:00.971Z</time>
      </trkpt>
      <trkpt lat="44.81227" lon="3.70681">
        <ele>862.34</ele>
        <time>2025-04-15T21:48:13.685Z</time>
      </trkpt>
      <trkpt lat="44.8121" lon="3.7066">
        <ele>862.66</ele>
        <time>2025-04-15T21:48:26.402Z</time>
      </trkpt>
      <trkpt lat="44.81192" lon="3.70638">
        <ele>862.94</ele>
        <time>2025-04-15T21:48:39.123Z</time>
      </trkpt>
      <trkpt lat="44.81171" lon="3.70621">
        <ele>863.32</ele>
        <time>2025-04-15T21:48:51.848Z</time>
      </trkpt>
      <trkpt lat="44.81149" lon="3.70604">
        <ele>863.69</ele>
        <time>2025-04-15T21:49:04.577Z</time>
      </trkpt>
      <trkpt lat="44.81128" lon="3.70587">
        <ele>864.06</ele>
        <time>2025-04-15T21:49:17.310Z</time>
      </trkpt>
      <trkpt lat="44.8111" lon="3.70557">
        <ele>864.37</ele>
        <time>2025-04-15T21:49:30.047Z</time>
      </trkpt>
      <trkpt lat="44.81092" lon="3.70528">
        <ele>864.76</ele>
        <time>2025-04-15T21:49:42.789Z</time>
      </trkpt>
      <trkpt lat="44.81073" lon="3.70498">
        <ele>865.17</ele>
        <time>2025-04-15T21:49:55.535Z</time>
      </trkpt>
      <trkpt lat="44.81055" lon="3.70469">
        <ele>865.6</ele>
        <time>2025-04-15T21:50:08.286Z</time>
      </trkpt>
      <trkpt lat="44.81039" lon="3.70438">
        <ele>866.01</ele>
        <time>2025-04-15T21:50:21.041Z</time>
      </trkpt>
      <trkpt lat="44.81023" lon="3.70407">
        <ele>866.37</ele>
        <time>2025-04-15T21:50:33.800Z</time>
      </trkpt>
      <trkpt lat="44.81027" lon="3.70377">
        <ele>866.68</ele>
        <time>2025-04-15T21:50:46.563Z</time>
      </trkpt>
      <trkpt lat="44.81049" lon="3.70344">
        <ele>866.93</ele>
        <time>2025-04-15T21:50:59.331Z</time>
      </trkpt>
      <trkpt lat="44.8107" lon="3.70312">
        <ele>867.2</ele>
        <time>2025-04-15T21:51:12.104Z</time>
      </trkpt>
      <trkpt lat="44.81092" lon="3.7028">
        <ele>867.46</ele>
        <time>2025-04-15T21:51:24.882Z</time>
      </trkpt>
      <trkpt lat="44.81092" lon="3.7028">
        <ele>867.72</ele>
        <time>2025-04-15T21:51:37.660Z</time>
      </trkpt>
      <trkpt lat="44.81102" lon="3.70259">
        <ele>867.93</ele>
        <time>2025-04-15T21:51:50.441Z</time>
      </trkpt>
      <trkpt lat="44.81102" lon="3.70241">
        <ele>868.16</ele>
        <time>2025-04-15T21:52:03.224Z</time>
      </trkpt>
      <trkpt lat="44.81102" lon="3.70241">
        <ele>868.39</ele>
        <time>2025-04-15T21:52:16.007Z</time>
      </trkpt>
      <trkpt lat="44.81096" lon="3.70222">
        <ele>868.6</ele>
        <time>2025-04-15T21:52:28.792Z</time>
      </trkpt>
      <trkpt lat="44.81071" lon="3.70201">
        <ele>868.81</ele>
        <time>2025-04-15T21:52:41.582Z</time>
      </trkpt>
      <trkpt lat="44.81046" lon="3.70179">
        <ele>869.04</ele>
        <time>2025-04-15T21:52:54.377Z</time>
      </trkpt>
      <trkpt lat="44.81021" lon="3.70158">
        <ele>869.27</ele>
        <time>2025-04-15T21:53:07.177Z</time>
      </trkpt>
      <trkpt lat="44.80996" lon="3.70151">
        <ele>869.54</ele>
        <time>2025-04-15T21:53:19.981Z</time>
      </trkpt>
      <trkpt lat="44.80971" lon="3.70145">
        <ele>869.79</ele>
        <time>2025-04-15T21:53:32.789Z</time>
      </trkpt>
      <trkpt lat="44.8095" lon="3.7013">
        <ele>870.01</ele>
        <time>2025-04-15T21:53:45.600Z</time>
      </trkpt>
      <trkpt lat="44.80934" lon="3.70109">
        <ele>870.22</ele>
        <time>2025-04-15T21:53:58.415Z</time>
      </trkpt>
      <trkpt lat="44.80918" lon="3.70089">
        <ele>870.39</ele>
        <time>2025-04-15T21:54:11.233Z</time>
      </trkpt>
      <trkpt lat="44.80895" lon="3.70067">
        <ele>870.59</ele>
        <time>2025-04-15T21:54:24.056Z</time>
      </trkpt>
      <trkpt lat="44.80873" lon="3.70044">
        <ele>870.87</ele>
        <time>2025-04-15T21:54:36.883Z</time>
      </trkpt>
      <trkpt lat="44.80859" lon="3.70021">
        <ele>871.06</ele>
        <time>2025-04-15T21:54:49.714Z</time>
      </trkpt>
      <trkpt lat="44.80845" lon="3.69999">
        <ele>871.23</ele>
        <time>2025-04-15T21:55:02.548Z</time>
      </trkpt>
      <trkpt lat="44.80832" lon="3.69963">
        <ele>871.28</ele>
        <time>2025-04-15T21:55:15.387Z</time>
      </trkpt>
      <trkpt lat="44.8082" lon="3.69927">
        <ele>871.4</ele>
        <time>2025-04-15T21:55:28.230Z</time>
      </trkpt>
      <trkpt lat="44.80808" lon="3.69891">
        <ele>871.68</ele>
        <time>2025-04-15T21:55:41.078Z</time>
      </trkpt>
      <trkpt lat="44.80795" lon="3.69855">
        <ele>871.8</ele>
        <time>2025-04-15T21:55:53.930Z</time>
      </trkpt>
      <trkpt lat="44.80789" lon="3.6983">
        <ele>871.87</ele>
        <time>2025-04-15T21:56:06.785Z</time>
      </trkpt>
      <trkpt lat="44.80783" lon="3.69806">
        <ele>871.91</ele>
        <time>2025-04-15T21:56:19.643Z</time>
      </trkpt>
      <trkpt lat="44.8078" lon="3.69762">
        <ele>871.71</ele>
        <time>2025-04-15T21:56:32.506Z</time>
      </trkpt>
      <trkpt lat="44.80778" lon="3.69718">
        <ele>871.76</ele>
        <time>2025-04-15T21:56:45.374Z</time>
      </trkpt>
      <trkpt lat="44.80779" lon="3.69681">
        <ele>871.76</ele>
        <time>2025-04-15T21:56:58.246Z</time>
      </trkpt>
      <trkpt lat="44.8078" lon="3.69645">
        <ele>871.72</ele>
        <time>2025-04-15T21:57:11.122Z</time>
      </trkpt>
      <trkpt lat="44.80785" lon="3.69611">
        <ele>871.78</ele>
        <time>2025-04-15T21:57:24.002Z</time>
      </trkpt>
      <trkpt lat="44.80774" lon="3.69613">
        <ele>871.94</ele>
        <time>2025-04-15T21:57:36.884Z</time>
      </trkpt>
      <trkpt lat="44.80748" lon="3.69613">
        <ele>872.13</ele>
        <time>2025-04-15T21:57:49.770Z</time>
      </trkpt>
      <trkpt lat="44.80722" lon="3.69618">
        <ele>872.34</ele>
        <time>2025-04-15T21:58:02.660Z</time>
      </trkpt>
      <trkpt lat="44.80697" lon="3.69623">
        <ele>872.54</ele>
        <time>2025-04-15T21:58:15.555Z</time>
      </trkpt>
      <trkpt lat="44.80671" lon="3.69628">
        <ele>872.74</ele>
        <time>2025-04-15T21:58:28.454Z</time>
      </trkpt>
      <trkpt lat="44.80652" lon="3.69641">
        <ele>872.99</ele>
        <time>2025-04-15T21:58:41.356Z</time>
      </trkpt>
      <trkpt lat="44.80632" lon="3.69654">
        <ele>873.21</ele>
        <time>2025-04-15T21:58:54.262Z</time>
      </trkpt>
      <trkpt lat="44.80613" lon="3.69671">
        <ele>873.44</ele>
        <time>2025-04-15T21:59:07.171Z</time>
      </trkpt>
      <trkpt lat="44.80594" lon="3.69688">
        <ele>873.63</ele>
        <time>2025-04-15T21:59:20.084Z</time>
      </trkpt>
      <trkpt lat="44.80574" lon="3.69718">
        <ele>873.94</ele>
        <time>2025-04-15T21:59:33.002Z</time>
      </trkpt>
      <trkpt lat="44.80555" lon="3.69748">
        <ele>874.33</ele>
        <time>2025-04-15T21:59:45.924Z</time>
      </trkpt>
      <trkpt lat="44.80534" lon="3.69767">
        <ele>874.68</ele>
        <time>2025-04-15T21:59:58.850Z</time>
      </trkpt>
      <trkpt lat="44.80511" lon="3.69784">
        <ele>875.12</ele>
        <time>2025-04-15T22:00:11.780Z</time>
      </trkpt>
      <trkpt lat="44.80489" lon="3.69802">
        <ele>875.46</ele>
        <time>2025-04-15T22:00:24.714Z</time>
      </trkpt>
      <trkpt lat="44.80476" lon="3.69808">
        <ele>875.77</ele>
        <time>2025-04-15T22:00:37.651Z</time>
      </trkpt>
      <trkpt lat="44.80461" lon="3.69812">
        <ele>876.09</ele>
        <time>2025-04-15T22:00:50.590Z</time>
      </trkpt>
      <trkpt lat="44.80436" lon="3.69811">
        <ele>876.45</ele>
        <time>2025-04-15T22:01:03.533Z</time>
      </trkpt>
      <trkpt lat="44.80412" lon="3.69809">
        <ele>876.83</ele>
        <time>2025-04-15T22:01:16.480Z</time>
      </trkpt>
      <trkpt lat="44.80388" lon="3.69808">
        <ele>877.18</ele>
        <time>2025-04-15T22:01:29.431Z</time>
      </trkpt>
      <trkpt lat="44.80359" lon="3.69802">
        <ele>877.54</ele>
        <time>2025-04-15T22:01:42.386Z</time>
      </trkpt>
      <trkpt lat="44.8033" lon="3.69795">
        <ele>877.95</ele>
        <time>2025-04-15T22:01:55.346Z</time>
      </trkpt>
      <trkpt lat="44.80313" lon="3.69799">
        <ele>878.35</ele>
        <time>2025-04-15T22:02:08.309Z</time>
      </trkpt>
      <trkpt lat="44.80313" lon="3.69799">
        <ele>878.65</ele>
        <time>2025-04-15T22:02:21.272Z</time>
      </trkpt>
      <trkpt lat="44.80306" lon="3.69804">
        <ele>878.96</ele>
        <time>2025-04-15T22:02:34.236Z</time>
      </trkpt>
      <trkpt lat="44.80291" lon="3.69818">
        <ele>879.29</ele>
        <time>2025-04-15T22:02:47.203Z</time>
      </trkpt>
      <trkpt lat="44.80276" lon="3.69832">
        <ele>879.54</ele>
        <time>2025-04-15T22:03:00.173Z</time>
      </trkpt>
      <trkpt lat="44.80258" lon="3.69854">
        <ele>879.74</ele>
        <time>2025-04-15T22:03:13.147Z</time>
      </trkpt>
      <trkpt lat="44.8024" lon="3.69877">
        <ele>879.88</ele>
        <time>2025-04-15T22:03:26.125Z</time>
      </trkpt>
      <trkpt lat="44.80226" lon="3.69905">
        <ele>880.08</ele>
        <time>2025-04-15T22:03:39.107Z</time>
      </trkpt>
      <trkpt lat="44.80212" lon="3.69933">
        <ele>880.25</ele>
        <time>2025-04-15T22:03:52.092Z</time>
      </trkpt>
      <trkpt lat="44.80198" lon="3.6996">
        <ele>880.42</ele>
        <time>2025-04-15T22:04:05.081Z</time>
      </trkpt>
      <trkpt lat="44.80184" lon="3.69988">
        <ele>880.58</ele>
        <time>2025-04-15T22:04:18.074Z</time>
      </trkpt>
      <trkpt lat="44.80184" lon="3.69988">
        <ele>880.78</ele>
        <time>2025-04-15T22:04:31.067Z</time>
      </trkpt>
      <trkpt lat="44.80165" lon="3.70022">
        <ele>880.98</ele>
        <time>2025-04-15T22:04:44.065Z</time>
      </trkpt>
      <trkpt lat="44.80145" lon="3.70055">
        <ele>881.37</ele>
        <time>2025-04-15T22:04:57.068Z</time>
      </trkpt>
      <trkpt lat="44.80129" lon="3.70072">
        <ele>881.46</ele>
        <time>2025-04-15T22:05:10.074Z</time>
      </trkpt>
      <trkpt lat="44.80113" lon="3.70089">
        <ele>881.69</ele>
        <time>2025-04-15T22:05:23.083Z</time>
      </trkpt>
      <trkpt lat="44.80087" lon="3.70111">
        <ele>881.88</ele>
        <time>2025-04-15T22:05:36.097Z</time>
      </trkpt>
      <trkpt lat="44.80062" lon="3.70132">
        <ele>882.15</ele>
        <time>2025-04-15T22:05:49.116Z</time>
      </trkpt>
      <trkpt lat="44.80034" lon="3.70144">
        <ele>882.38</ele>
        <time>2025-04-15T22:06:02.140Z</time>
      </trkpt>
      <trkpt lat="44.80006" lon="3.70156">
        <ele>882.46</ele>
        <time>2025-04-15T22:06:15.168Z</time>
      </trkpt>
      <trkpt lat="44.79978" lon="3.70168">
        <ele>882.54</ele>
        <time>2025-04-15T22:06:28.201Z</time>
      </trkpt>
      <trkpt lat="44.7995" lon="3.7018">
        <ele>882.68</ele>
        <time>2025-04-15T22:06:41.239Z</time>
      </trkpt>
      <trkpt lat="44.79922" lon="3.70192">
        <ele>882.72</ele>
        <time>2025-04-15T22:06:54.281Z</time>
      </trkpt>
      <trkpt lat="44.79898" lon="3.70204">
        <ele>882.78</ele>
        <time>2025-04-15T22:07:07.327Z</time>
      </trkpt>
      <trkpt lat="44.79873" lon="3.70216">
        <ele>882.92</ele>
        <time>2025-04-15T22:07:20.378Z</time>
      </trkpt>
      <trkpt lat="44.79849" lon="3.70229">
        <ele>883.02</ele>
        <time>2025-04-15T22:07:33.433Z</time>
      </trkpt>
      <trkpt lat="44.79825" lon="3.70248">
        <ele>883.17</ele>
        <time>2025-04-15T22:07:46.492Z</time>
      </trkpt>
      <trkpt lat="44.79801" lon="3.70268">
        <ele>883.22</ele>
        <time>2025-04-15T22:07:59.556Z</time>
      </trkpt>
      <trkpt lat="44.79777" lon="3.70288">
        <ele>883.35</ele>
        <time>2025-04-15T22:08:12.624Z</time>
      </trkpt>
      <trkpt lat="44.79753" lon="3.70308">
        <ele>883.51</ele>
        <time>2025-04-15T22:08:25.697Z</time>
      </trkpt>
      <trkpt lat="44.79729" lon="3.70327">
        <ele>883.61</ele>
        <time>2025-04-15T22:08:38.774Z</time>
      </trkpt>
      <trkpt lat="44.79716" lon="3.70342">
        <ele>883.71</ele>
        <time>2025-04-15T22:08:51.854Z</time>
      </trkpt>
      <trkpt lat="44.79703" lon="3.70364">
        <ele>883.73</ele>
        <time>2025-04-15T22:09:04.937Z</time>
      </trkpt>
      <trkpt lat="44.79695" lon="3.70388">
        <ele>883.84</ele>
        <time>2025-04-15T22:09:18.023Z</time>
      </trkpt>
      <trkpt lat="44.79686" lon="3.70413">
        <ele>884</ele>
        <time>2025-04-15T22:09:31.112Z</time>
      </trkpt>
      <trkpt lat="44.79678" lon="3.70454">
        <ele>884.2</ele>
        <time>2025-04-15T22:09:44.206Z</time>
      </trkpt>
      <trkpt lat="44.7967" lon="3.70495">
        <ele>884.45</ele>
        <time>2025-04-15T22:09:57.305Z</time>
      </trkpt>
      <trkpt lat="44.79662" lon="3.70536">
        <ele>884.68</ele>
        <time>2025-04-15T22:10:10.409Z</time>
      </trkpt>
      <trkpt lat="44.79654" lon="3.70577">
        <ele>884.84</ele>
        <time>2025-04-15T22:10:23.517Z</time>
      </trkpt>
      <trkpt lat="44.79646" lon="3.70617">
        <ele>885.07</ele>
        <time>2025-04-15T22:10:36.630Z</time>
      </trkpt>
      <trkpt lat="44.79638" lon="3.70658">
        <ele>885.31</ele>
        <time>2025-04-15T22:10:49.748Z</time>
      </trkpt>
      <trkpt lat="44.7963" lon="3.70699">
        <ele>885.48</ele>
        <time>2025-04-15T22:11:02.871Z</time>
      </trkpt>
      <trkpt lat="44.79622" lon="3.70739">
        <ele>885.64</ele>
        <time>2025-04-15T22:11:15.999Z</time>
      </trkpt>
      <trkpt lat="44.79613" lon="3.70765">
        <ele>885.97</ele>
        <time>2025-04-15T22:11:29.130Z</time>
      </trkpt>
      <trkpt lat="44.79602" lon="3.70789">
        <ele>886.28</ele>
        <time>2025-04-15T22:11:42.264Z</time>
      </trkpt>
      <trkpt lat="44.7958" lon="3.70814">
        <ele>886.48</ele>
        <time>2025-04-15T22:11:55.403Z</time>
      </trkpt>
      <trkpt lat="44.79557" lon="3.7084">
        <ele>886.71</ele>
        <time>2025-04-15T22:12:08.546Z</time>
      </trkpt>
      <trkpt lat="44.79544" lon="3.70868">
        <ele>887.13</ele>
        <time>2025-04-15T22:12:21.693Z</time>
      </trkpt>
      <trkpt lat="44.7953" lon="3.70896">
        <ele>887.56</ele>
        <time>2025-04-15T22:12:34.844Z</time>
      </trkpt>
      <trkpt lat="44.79517" lon="3.70924">
        <ele>888</ele>
        <time>2025-04-15T22:12:47.999Z</time>
      </trkpt>
      <trkpt lat="44.79503" lon="3.7094">
        <ele>888.36</ele>
        <time>2025-04-15T22:13:01.157Z</time>
      </trkpt>
      <trkpt lat="44.79489" lon="3.70956">
        <ele>888.8</ele>
        <time>2025-04-15T22:13:14.318Z</time>
      </trkpt>
      <trkpt lat="44.79465" lon="3.70967">
        <ele>889.17</ele>
        <time>2025-04-15T22:13:27.483Z</time>
      </trkpt>
      <trkpt lat="44.79439" lon="3.70977">
        <ele>889.48</ele>
        <time>2025-04-15T22:13:40.652Z</time>
      </trkpt>
      <trkpt lat="44.79414" lon="3.70988">
        <ele>889.89</ele>
        <time>2025-04-15T22:13:53.825Z</time>
      </trkpt>
      <trkpt lat="44.79392" lon="3.70992">
        <ele>890.24</ele>
        <time>2025-04-15T22:14:07.002Z</time>
      </trkpt>
      <trkpt lat="44.79375" lon="3.7099">
        <ele>890.65</ele>
        <time>2025-04-15T22:14:20.182Z</time>
      </trkpt>
      <trkpt lat="44.79358" lon="3.70982">
        <ele>891.05</ele>
        <time>2025-04-15T22:14:33.364Z</time>
      </trkpt>
      <trkpt lat="44.79335" lon="3.70957">
        <ele>891.42</ele>
        <time>2025-04-15T22:14:46.551Z</time>
      </trkpt>
      <trkpt lat="44.79312" lon="3.70932">
        <ele>891.87</ele>
        <time>2025-04-15T22:14:59.743Z</time>
      </trkpt>
      <trkpt lat="44.79289" lon="3.70908">
        <ele>892.46</ele>
        <time>2025-04-15T22:15:12.939Z</time>
      </trkpt>
      <trkpt lat="44.79266" lon="3.70883">
        <ele>892.88</ele>
        <time>2025-04-15T22:15:26.140Z</time>
      </trkpt>
      <trkpt lat="44.79245" lon="3.70867">
        <ele>893.37</ele>
        <time>2025-04-15T22:15:39.345Z</time>
      </trkpt>
      <trkpt lat="44.79224" lon="3.70852">
        <ele>893.78</ele>
        <time>2025-04-15T22:15:52.554Z</time>
      </trkpt>
      <trkpt lat="44.79203" lon="3.70836">
        <ele>894.08</ele>
        <time>2025-04-15T22:16:05.766Z</time>
      </trkpt>
      <trkpt lat="44.79179" lon="3.70811">
        <ele>894.39</ele>
        <time>2025-04-15T22:16:18.983Z</time>
      </trkpt>
      <trkpt lat="44.79154" lon="3.70786">
        <ele>894.84</ele>
        <time>2025-04-15T22:16:32.205Z</time>
      </trkpt>
      <trkpt lat="44.79141" lon="3.7078">
        <ele>895.25</ele>
        <time>2025-04-15T22:16:45.429Z</time>
      </trkpt>
      <trkpt lat="44.79124" lon="3.70775">
        <ele>895.59</ele>
        <time>2025-04-15T22:16:58.656Z</time>
      </trkpt>
      <trkpt lat="44.79107" lon="3.70769">
        <ele>895.89</ele>
        <time>2025-04-15T22:17:11.886Z</time>
      </trkpt>
      <trkpt lat="44.79091" lon="3.7077">
        <ele>896.17</ele>
        <time>2025-04-15T22:17:25.118Z</time>
      </trkpt>
      <trkpt lat="44.79075" lon="3.70771">
        <ele>896.48</ele>
        <time>2025-04-15T22:17:38.353Z</time>
      </trkpt>
      <trkpt lat="44.7906" lon="3.70776">
        <ele>896.77</ele>
        <time>2025-04-15T22:17:51.590Z</time>
      </trkpt>
      <trkpt lat="44.79049" lon="3.70782">
        <ele>897.12</ele>
        <time>2025-04-15T22:18:04.829Z</time>
      </trkpt>
      <trkpt lat="44.79029" lon="3.70812">
        <ele>897.56</ele>
        <time>2025-04-15T22:18:18.073Z</time>
      </trkpt>
      <trkpt lat="44.79021" lon="3.70834">
        <ele>897.88</ele>
        <time>2025-04-15T22:18:31.320Z</time>
      </trkpt>
      <trkpt lat="44.79017" lon="3.70857">
        <ele>898.25</ele>
        <time>2025-04-15T22:18:44.570Z</time>
      </trkpt>
      <trkpt lat="44.79017" lon="3.70877">
        <ele>898.65</ele>
        <time>2025-04-15T22:18:57.822Z</time>
      </trkpt>
      <trkpt lat="44.7902" lon="3.70905">
        <ele>899.09</ele>
        <time>2025-04-15T22:19:11.077Z</time>
      </trkpt>
      <trkpt lat="44.79023" lon="3.70932">
        <ele>899.51</ele>
        <time>2025-04-15T22:19:24.335Z</time>
      </trkpt>
      <trkpt lat="44.79021" lon="3.70956">
        <ele>899.84</ele>
        <time>2025-04-15T22:19:37.596Z</time>
      </trkpt>
      <trkpt lat="44.79017" lon="3.70977">
        <ele>900.08</ele>
        <time>2025-04-15T22:19:50.859Z</time>
      </trkpt>
      <trkpt lat="44.79" lon="3.71011">
        <ele>900.28</ele>
        <time>2025-04-15T22:20:04.127Z</time>
      </trkpt>
      <trkpt lat="44.78984" lon="3.71044">
        <ele>900.59</ele>
        <time>2025-04-15T22:20:17.400Z</time>
      </trkpt>
      <trkpt lat="44.78969" lon="3.71061">
        <ele>900.89</ele>
        <time>2025-04-15T22:20:30.676Z</time>
      </trkpt>
      <trkpt lat="44.78954" lon="3.71072">
        <ele>901.22</ele>
        <time>2025-04-15T22:20:43.954Z</time>
      </trkpt>
      <trkpt lat="44.78931" lon="3.71082">
        <ele>901.69</ele>
        <time>2025-04-15T22:20:57.236Z</time>
      </trkpt>
      <trkpt lat="44.78907" lon="3.71091">
        <ele>902.11</ele>
        <time>2025-04-15T22:21:10.522Z</time>
      </trkpt>
      <trkpt lat="44.7889" lon="3.71087">
        <ele>902.36</ele>
        <time>2025-04-15T22:21:23.811Z</time>
      </trkpt>
      <trkpt lat="44.78864" lon="3.71074">
        <ele>902.59</ele>
        <time>2025-04-15T22:21:37.104Z</time>
      </trkpt>
      <trkpt lat="44.78848" lon="3.71053">
        <ele>902.64</ele>
        <time>2025-04-15T22:21:50.401Z</time>
      </trkpt>
      <trkpt lat="44.78833" lon="3.71031">
        <ele>902.75</ele>
        <time>2025-04-15T22:22:03.701Z</time>
      </trkpt>
      <trkpt lat="44.78817" lon="3.7101">
        <ele>902.97</ele>
        <time>2025-04-15T22:22:17.005Z</time>
      </trkpt>
      <trkpt lat="44.78805" lon="3.70989">
        <ele>903.19</ele>
        <time>2025-04-15T22:22:30.312Z</time>
      </trkpt>
      <trkpt lat="44.78793" lon="3.70969">
        <ele>903.39</ele>
        <time>2025-04-15T22:22:43.622Z</time>
      </trkpt>
      <trkpt lat="44.78778" lon="3.70937">
        <ele>903.54</ele>
        <time>2025-04-15T22:22:56.936Z</time>
      </trkpt>
      <trkpt lat="44.78763" lon="3.70904">
        <ele>903.74</ele>
        <time>2025-04-15T22:23:10.255Z</time>
      </trkpt>
      <trkpt lat="44.78748" lon="3.70875">
        <ele>903.9</ele>
        <time>2025-04-15T22:23:23.578Z</time>
      </trkpt>
      <trkpt lat="44.78732" lon="3.70846">
        <ele>903.99</ele>
        <time>2025-04-15T22:23:36.905Z</time>
      </trkpt>
      <trkpt lat="44.78716" lon="3.70817">
        <ele>904.13</ele>
        <time>2025-04-15T22:23:50.236Z</time>
      </trkpt>
      <trkpt lat="44.78712" lon="3.70797">
        <ele>904.2</ele>
        <time>2025-04-15T22:24:03.570Z</time>
      </trkpt>
      <trkpt lat="44.78709" lon="3.70774">
        <ele>904.25</ele>
        <time>2025-04-15T22:24:16.906Z</time>
      </trkpt>
      <trkpt lat="44.78705" lon="3.7075">
        <ele>904.31</ele>
        <time>2025-04-15T22:24:30.245Z</time>
      </trkpt>
      <trkpt lat="44.78693" lon="3.70726">
        <ele>904.41</ele>
        <time>2025-04-15T22:24:43.587Z</time>
      </trkpt>
      <trkpt lat="44.78684" lon="3.70718">
        <ele>904.51</ele>
        <time>2025-04-15T22:24:56.931Z</time>
      </trkpt>
      <trkpt lat="44.78665" lon="3.70716">
        <ele>904.63</ele>
        <time>2025-04-15T22:25:10.278Z</time>
      </trkpt>
      <trkpt lat="44.78643" lon="3.70729">
        <ele>904.84</ele>
        <time>2025-04-15T22:25:23.629Z</time>
      </trkpt>
      <trkpt lat="44.7862" lon="3.70741">
        <ele>905.03</ele>
        <time>2025-04-15T22:25:36.984Z</time>
      </trkpt>
      <trkpt lat="44.78598" lon="3.70754">
        <ele>905.22</ele>
        <time>2025-04-15T22:25:50.343Z</time>
      </trkpt>
      <trkpt lat="44.78598" lon="3.70754">
        <ele>905.37</ele>
        <time>2025-04-15T22:26:03.702Z</time>
      </trkpt>
      <trkpt lat="44.78575" lon="3.70768">
        <ele>905.6</ele>
        <time>2025-04-15T22:26:17.065Z</time>
      </trkpt>
      <trkpt lat="44.78551" lon="3.70781">
        <ele>905.77</ele>
        <time>2025-04-15T22:26:30.432Z</time>
      </trkpt>
      <trkpt lat="44.78527" lon="3.70795">
        <ele>905.83</ele>
        <time>2025-04-15T22:26:43.803Z</time>
      </trkpt>
      <trkpt lat="44.78519" lon="3.70789">
        <ele>905.93</ele>
        <time>2025-04-15T22:26:57.176Z</time>
      </trkpt>
      <trkpt lat="44.78512" lon="3.70793">
        <ele>906.12</ele>
        <time>2025-04-15T22:27:10.550Z</time>
      </trkpt>
      <trkpt lat="44.78508" lon="3.70804">
        <ele>906.34</ele>
        <time>2025-04-15T22:27:23.925Z</time>
      </trkpt>
      <trkpt lat="44.78484" lon="3.7083">
        <ele>906.63</ele>
        <time>2025-04-15T22:27:37.305Z</time>
      </trkpt>
      <trkpt lat="44.78461" lon="3.70857">
        <ele>906.99</ele>
        <time>2025-04-15T22:27:50.690Z</time>
      </trkpt>
      <trkpt lat="44.78448" lon="3.70879">
        <ele>907.35</ele>
        <time>2025-04-15T22:28:04.078Z</time>
      </trkpt>
      <trkpt lat="44.78435" lon="3.709">
        <ele>907.71</ele>
        <time>2025-04-15T22:28:17.469Z</time>
      </trkpt>
      <trkpt lat="44.78423" lon="3.70935">
        <ele>908.1</ele>
        <time>2025-04-15T22:28:30.865Z</time>
      </trkpt>
      <trkpt lat="44.7841" lon="3.70969">
        <ele>908.51</ele>
        <time>2025-04-15T22:28:44.265Z</time>
      </trkpt>
      <trkpt lat="44.78398" lon="3.71003">
        <ele>908.86</ele>
        <time>2025-04-15T22:28:57.669Z</time>
      </trkpt>
      <trkpt lat="44.78385" lon="3.71038">
        <ele>909.3</ele>
        <time>2025-04-15T22:29:11.078Z</time>
      </trkpt>
      <trkpt lat="44.78373" lon="3.71072">
        <ele>909.76</ele>
        <time>2025-04-15T22:29:24.491Z</time>
      </trkpt>
      <trkpt lat="44.78364" lon="3.71104">
        <ele>910.25</ele>
        <time>2025-04-15T22:29:37.908Z</time>
      </trkpt>
      <trkpt lat="44.78354" lon="3.71136">
        <ele>910.87</ele>
        <time>2025-04-15T22:29:51.329Z</time>
      </trkpt>
      <trkpt lat="44.78345" lon="3.71168">
        <ele>911.6</ele>
        <time>2025-04-15T22:30:04.754Z</time>
      </trkpt>
      <trkpt lat="44.78326" lon="3.71203">
        <ele>912.32</ele>
        <time>2025-04-15T22:30:18.184Z</time>
      </trkpt>
      <trkpt lat="44.78301" lon="3.71227">
        <ele>912.85</ele>
        <time>2025-04-15T22:30:31.619Z</time>
      </trkpt>
      <trkpt lat="44.78276" lon="3.71252">
        <ele>913.46</ele>
        <time>2025-04-15T22:30:45.059Z</time>
      </trkpt>
      <trkpt lat="44.78255" lon="3.71277">
        <ele>914.2</ele>
        <time>2025-04-15T22:30:58.503Z</time>
      </trkpt>
      <trkpt lat="44.78233" lon="3.71301">
        <ele>914.96</ele>
        <time>2025-04-15T22:31:11.952Z</time>
      </trkpt>
      <trkpt lat="44.78214" lon="3.71316">
        <ele>915.73</ele>
        <time>2025-04-15T22:31:25.404Z</time>
      </trkpt>
      <trkpt lat="44.78201" lon="3.71321">
        <ele>916.49</ele>
        <time>2025-04-15T22:31:38.858Z</time>
      </trkpt>
      <trkpt lat="44.78184" lon="3.71321">
        <ele>917.29</ele>
        <time>2025-04-15T22:31:52.315Z</time>
      </trkpt>
      <trkpt lat="44.78163" lon="3.7131">
        <ele>918.09</ele>
        <time>2025-04-15T22:32:05.776Z</time>
      </trkpt>
      <trkpt lat="44.78148" lon="3.71293">
        <ele>918.81</ele>
        <time>2025-04-15T22:32:19.240Z</time>
      </trkpt>
      <trkpt lat="44.78133" lon="3.71276">
        <ele>919.63</ele>
        <time>2025-04-15T22:32:32.707Z</time>
      </trkpt>
      <trkpt lat="44.78113" lon="3.71263">
        <ele>920.59</ele>
        <time>2025-04-15T22:32:46.177Z</time>
      </trkpt>
      <trkpt lat="44.78096" lon="3.71245">
        <ele>921.45</ele>
        <time>2025-04-15T22:32:59.651Z</time>
      </trkpt>
      <trkpt lat="44.78079" lon="3.71226">
        <ele>922.29</ele>
        <time>2025-04-15T22:33:13.128Z</time>
      </trkpt>
      <trkpt lat="44.78061" lon="3.71197">
        <ele>922.98</ele>
        <time>2025-04-15T22:33:26.610Z</time>
      </trkpt>
      <trkpt lat="44.78042" lon="3.71168">
        <ele>923.63</ele>
        <time>2025-04-15T22:33:40.096Z</time>
      </trkpt>
      <trkpt lat="44.78019" lon="3.71156">
        <ele>924.39</ele>
        <time>2025-04-15T22:33:53.586Z</time>
      </trkpt>
      <trkpt lat="44.77995" lon="3.71143">
        <ele>925.09</ele>
        <time>2025-04-15T22:34:07.080Z</time>
      </trkpt>
      <trkpt lat="44.7798" lon="3.71141">
        <ele>925.85</ele>
        <time>2025-04-15T22:34:20.576Z</time>
      </trkpt>
      <trkpt lat="44.77963" lon="3.71156">
        <ele>926.58</ele>
        <time>2025-04-15T22:34:34.076Z</time>
      </trkpt>
      <trkpt lat="44.77964" lon="3.71181">
        <ele>927.4</ele>
        <time>2025-04-15T22:34:47.579Z</time>
      </trkpt>
      <trkpt lat="44.77965" lon="3.71207">
        <ele>928.26</ele>
        <time>2025-04-15T22:35:01.085Z</time>
      </trkpt>
      <trkpt lat="44.77963" lon="3.71231">
        <ele>929.1</ele>
        <time>2025-04-15T22:35:14.593Z</time>
      </trkpt>
      <trkpt lat="44.77952" lon="3.71256">
        <ele>929.86</ele>
        <time>2025-04-15T22:35:28.105Z</time>
      </trkpt>
      <trkpt lat="44.77937" lon="3.71277">
        <ele>930.58</ele>
        <time>2025-04-15T22:35:41.620Z</time>
      </trkpt>
      <trkpt lat="44.77922" lon="3.71297">
        <ele>931.32</ele>
        <time>2025-04-15T22:35:55.138Z</time>
      </trkpt>
      <trkpt lat="44.77905" lon="3.7131">
        <ele>932.05</ele>
        <time>2025-04-15T22:36:08.659Z</time>
      </trkpt>
      <trkpt lat="44.77885" lon="3.71316">
        <ele>932.79</ele>
        <time>2025-04-15T22:36:22.184Z</time>
      </trkpt>
      <trkpt lat="44.77864" lon="3.71323">
        <ele>933.56</ele>
        <time>2025-04-15T22:36:35.712Z</time>
      </trkpt>
      <trkpt lat="44.77842" lon="3.71324">
        <ele>934.04</ele>
        <time>2025-04-15T22:36:49.244Z</time>
      </trkpt>
      <trkpt lat="44.7782" lon="3.71324">
        <ele>934.77</ele>
        <time>2025-04-15T22:37:02.779Z</time>
      </trkpt>
      <trkpt lat="44.77798" lon="3.71325">
        <ele>935.4</ele>
        <time>2025-04-15T22:37:16.318Z</time>
      </trkpt>
      <trkpt lat="44.77772" lon="3.71321">
        <ele>935.88</ele>
        <time>2025-04-15T22:37:29.861Z</time>
      </trkpt>
      <trkpt lat="44.77746" lon="3.71316">
        <ele>936.4</ele>
        <time>2025-04-15T22:37:43.408Z</time>
      </trkpt>
      <trkpt lat="44.77721" lon="3.71312">
        <ele>937.06</ele>
        <time>2025-04-15T22:37:56.959Z</time>
      </trkpt>
      <trkpt lat="44.77695" lon="3.71308">
        <ele>937.77</ele>
        <time>2025-04-15T22:38:10.514Z</time>
      </trkpt>
      <trkpt lat="44.7768" lon="3.71297">
        <ele>938.29</ele>
        <time>2025-04-15T22:38:24.072Z</time>
      </trkpt>
      <trkpt lat="44.77668" lon="3.71279">
        <ele>938.67</ele>
        <time>2025-04-15T22:38:37.633Z</time>
      </trkpt>
      <trkpt lat="44.77656" lon="3.71261">
        <ele>939.12</ele>
        <time>2025-04-15T22:38:51.197Z</time>
      </trkpt>
      <trkpt lat="44.77645" lon="3.71241">
        <ele>939.48</ele>
        <time>2025-04-15T22:39:04.764Z</time>
      </trkpt>
      <trkpt lat="44.77635" lon="3.71222">
        <ele>939.68</ele>
        <time>2025-04-15T22:39:18.333Z</time>
      </trkpt>
      <trkpt lat="44.77622" lon="3.7119">
        <ele>939.75</ele>
        <time>2025-04-15T22:39:31.907Z</time>
      </trkpt>
      <trkpt lat="44.77607" lon="3.71171">
        <ele>939.9</ele>
        <time>2025-04-15T22:39:45.484Z</time>
      </trkpt>
      <trkpt lat="44.77594" lon="3.71166">
        <ele>940.19</ele>
        <time>2025-04-15T22:39:59.063Z</time>
      </trkpt>
      <trkpt lat="44.77575" lon="3.71183">
        <ele>940.54</ele>
        <time>2025-04-15T22:40:12.646Z</time>
      </trkpt>
      <trkpt lat="44.77553" lon="3.71213">
        <ele>940.9</ele>
        <time>2025-04-15T22:40:26.233Z</time>
      </trkpt>
      <trkpt lat="44.77528" lon="3.71238">
        <ele>941.23</ele>
        <time>2025-04-15T22:40:39.825Z</time>
      </trkpt>
      <trkpt lat="44.77504" lon="3.71263">
        <ele>941.54</ele>
        <time>2025-04-15T22:40:53.422Z</time>
      </trkpt>
      <trkpt lat="44.77478" lon="3.71281">
        <ele>941.83</ele>
        <time>2025-04-15T22:41:07.024Z</time>
      </trkpt>
      <trkpt lat="44.77452" lon="3.71299">
        <ele>942.19</ele>
        <time>2025-04-15T22:41:20.630Z</time>
      </trkpt>
      <trkpt lat="44.77431" lon="3.71309">
        <ele>942.51</ele>
        <time>2025-04-15T22:41:34.240Z</time>
      </trkpt>
      <trkpt lat="44.77409" lon="3.71319">
        <ele>942.76</ele>
        <time>2025-04-15T22:41:47.854Z</time>
      </trkpt>
      <trkpt lat="44.77387" lon="3.71333">
        <ele>943</ele>
        <time>2025-04-15T22:42:01.471Z</time>
      </trkpt>
      <trkpt lat="44.77365" lon="3.71347">
        <ele>943.37</ele>
        <time>2025-04-15T22:42:15.092Z</time>
      </trkpt>
      <trkpt lat="44.77343" lon="3.71362">
        <ele>943.89</ele>
        <time>2025-04-15T22:42:28.717Z</time>
      </trkpt>
      <trkpt lat="44.77328" lon="3.71357">
        <ele>944.12</ele>
        <time>2025-04-15T22:42:42.345Z</time>
      </trkpt>
      <trkpt lat="44.77317" lon="3.7134">
        <ele>944.16</ele>
        <time>2025-04-15T22:42:55.975Z</time>
      </trkpt>
      <trkpt lat="44.77296" lon="3.71323">
        <ele>944.16</ele>
        <time>2025-04-15T22:43:09.609Z</time>
      </trkpt>
      <trkpt lat="44.77272" lon="3.71322">
        <ele>944.39</ele>
        <time>2025-04-15T22:43:23.247Z</time>
      </trkpt>
      <trkpt lat="44.77248" lon="3.71321">
        <ele>944.63</ele>
        <time>2025-04-15T22:43:36.889Z</time>
      </trkpt>
      <trkpt lat="44.77223" lon="3.71325">
        <ele>944.88</ele>
        <time>2025-04-15T22:43:50.535Z</time>
      </trkpt>
      <trkpt lat="44.77223" lon="3.71325">
        <ele>945.12</ele>
        <time>2025-04-15T22:44:04.181Z</time>
      </trkpt>
      <trkpt lat="44.77205" lon="3.71329">
        <ele>945.38</ele>
        <time>2025-04-15T22:44:17.830Z</time>
      </trkpt>
      <trkpt lat="44.77186" lon="3.71334">
        <ele>945.56</ele>
        <time>2025-04-15T22:44:31.482Z</time>
      </trkpt>
      <trkpt lat="44.77167" lon="3.71344">
        <ele>945.74</ele>
        <time>2025-04-15T22:44:45.137Z</time>
      </trkpt>
      <trkpt lat="44.77152" lon="3.71362">
        <ele>945.92</ele>
        <time>2025-04-15T22:44:58.795Z</time>
      </trkpt>
      <trkpt lat="44.77143" lon="3.71374">
        <ele>946.19</ele>
        <time>2025-04-15T22:45:12.455Z</time>
      </trkpt>
      <trkpt lat="44.77134" lon="3.71409">
        <ele>946.64</ele>
        <time>2025-04-15T22:45:26.120Z</time>
      </trkpt>
      <trkpt lat="44.77124" lon="3.71443">
        <ele>947</ele>
        <time>2025-04-15T22:45:39.789Z</time>
      </trkpt>
      <trkpt lat="44.77109" lon="3.71467">
        <ele>947.32</ele>
        <time>2025-04-15T22:45:53.461Z</time>
      </trkpt>
      <trkpt lat="44.77094" lon="3.7148">
        <ele>947.72</ele>
        <time>2025-04-15T22:46:07.136Z</time>
      </trkpt>
      <trkpt lat="44.77068" lon="3.7149">
        <ele>948.09</ele>
        <time>2025-04-15T22:46:20.815Z</time>
      </trkpt>
      <trkpt lat="44.77042" lon="3.71501">
        <ele>948.54</ele>
        <time>2025-04-15T22:46:34.499Z</time>
      </trkpt>
      <trkpt lat="44.77025" lon="3.71514">
        <ele>949.01</ele>
        <time>2025-04-15T22:46:48.186Z</time>
      </trkpt>
      <trkpt lat="44.77008" lon="3.71527">
        <ele>949.47</ele>
        <time>2025-04-15T22:47:01.876Z</time>
      </trkpt>
      <trkpt lat="44.76992" lon="3.71532">
        <ele>949.82</ele>
        <time>2025-04-15T22:47:15.569Z</time>
      </trkpt>
      <trkpt lat="44.76976" lon="3.71537">
        <ele>950.2</ele>
        <time>2025-04-15T22:47:29.264Z</time>
      </trkpt>
      <trkpt lat="44.76952" lon="3.71542">
        <ele>950.63</ele>
        <time>2025-04-15T22:47:42.963Z</time>
      </trkpt>
      <trkpt lat="44.76923" lon="3.71542">
        <ele>951.15</ele>
        <time>2025-04-15T22:47:56.667Z</time>
      </trkpt>
      <trkpt lat="44.76894" lon="3.71542">
        <ele>951.76</ele>
        <time>2025-04-15T22:48:10.375Z</time>
      </trkpt>
      <trkpt lat="44.76869" lon="3.71537">
        <ele>952.19</ele>
        <time>2025-04-15T22:48:24.088Z</time>
      </trkpt>
      <trkpt lat="44.76843" lon="3.71533">
        <ele>952.64</ele>
        <time>2025-04-15T22:48:37.805Z</time>
      </trkpt>
      <trkpt lat="44.76825" lon="3.71526">
        <ele>952.99</ele>
        <time>2025-04-15T22:48:51.525Z</time>
      </trkpt>
      <trkpt lat="44.76806" lon="3.71518">
        <ele>953.31</ele>
        <time>2025-04-15T22:49:05.248Z</time>
      </trkpt>
      <trkpt lat="44.76781" lon="3.71529">
        <ele>953.78</ele>
        <time>2025-04-15T22:49:18.975Z</time>
      </trkpt>
      <trkpt lat="44.76761" lon="3.71545">
        <ele>954.26</ele>
        <time>2025-04-15T22:49:32.706Z</time>
      </trkpt>
      <trkpt lat="44.76742" lon="3.7156">
        <ele>954.75</ele>
        <time>2025-04-15T22:49:46.440Z</time>
      </trkpt>
      <trkpt lat="44.76723" lon="3.71576">
        <ele>955.33</ele>
        <time>2025-04-15T22:50:00.178Z</time>
      </trkpt>
      <trkpt lat="44.76706" lon="3.71583">
        <ele>955.9</ele>
        <time>2025-04-15T22:50:13.919Z</time>
      </trkpt>
      <trkpt lat="44.76678" lon="3.71583">
        <ele>956.44</ele>
        <time>2025-04-15T22:50:27.664Z</time>
      </trkpt>
      <trkpt lat="44.76654" lon="3.71574">
        <ele>956.92</ele>
        <time>2025-04-15T22:50:41.413Z</time>
      </trkpt>
      <trkpt lat="44.76628" lon="3.7155">
        <ele>957.21</ele>
        <time>2025-04-15T22:50:55.167Z</time>
      </trkpt>
      <trkpt lat="44.76609" lon="3.71535">
        <ele>957.55</ele>
        <time>2025-04-15T22:51:08.924Z</time>
      </trkpt>
      <trkpt lat="44.76585" lon="3.71533">
        <ele>958.02</ele>
        <time>2025-04-15T22:51:22.685Z</time>
      </trkpt>
      <trkpt lat="44.76562" lon="3.7154">
        <ele>958.48</ele>
        <time>2025-04-15T22:51:36.450Z</time>
      </trkpt>
      <trkpt lat="44.76545" lon="3.71559">
        <ele>959.1</ele>
        <time>2025-04-15T22:51:50.219Z</time>
      </trkpt>
      <trkpt lat="44.7653" lon="3.7159">
        <ele>959.76</ele>
        <time>2025-04-15T22:52:03.992Z</time>
      </trkpt>
      <trkpt lat="44.76515" lon="3.71621">
        <ele>960.44</ele>
        <time>2025-04-15T22:52:17.769Z</time>
      </trkpt>
      <trkpt lat="44.76502" lon="3.71642">
        <ele>961.04</ele>
        <time>2025-04-15T22:52:31.549Z</time>
      </trkpt>
      <trkpt lat="44.76489" lon="3.71662">
        <ele>961.59</ele>
        <time>2025-04-15T22:52:45.332Z</time>
      </trkpt>
      <trkpt lat="44.76465" lon="3.71681">
        <ele>962.06</ele>
        <time>2025-04-15T22:52:59.120Z</time>
      </trkpt>
      <trkpt lat="44.76446" lon="3.71688">
        <ele>962.48</ele>
        <time>2025-04-15T22:53:12.911Z</time>
      </trkpt>
      <trkpt lat="44.76427" lon="3.71694">
        <ele>962.91</ele>
        <time>2025-04-15T22:53:26.705Z</time>
      </trkpt>
      <trkpt lat="44.76402" lon="3.71721">
        <ele>963.46</ele>
        <time>2025-04-15T22:53:40.504Z</time>
      </trkpt>
      <trkpt lat="44.76378" lon="3.71749">
        <ele>963.96</ele>
        <time>2025-04-15T22:53:54.308Z</time>
      </trkpt>
      <trkpt lat="44.76354" lon="3.71776">
        <ele>964.52</ele>
        <time>2025-04-15T22:54:08.117Z</time>
      </trkpt>
      <trkpt lat="44.76337" lon="3.71799">
        <ele>964.99</ele>
        <time>2025-04-15T22:54:21.930Z</time>
      </trkpt>
      <trkpt lat="44.76321" lon="3.71821">
        <ele>965.58</ele>
        <time>2025-04-15T22:54:35.746Z</time>
      </trkpt>
      <trkpt lat="44.76304" lon="3.71844">
        <ele>966.08</ele>
        <time>2025-04-15T22:54:49.566Z</time>
      </trkpt>
      <trkpt lat="44.76293" lon="3.71874">
        <ele>966.75</ele>
        <time>2025-04-15T22:55:03.390Z</time>
      </trkpt>
      <trkpt lat="44.76281" lon="3.71904">
        <ele>967.33</ele>
        <time>2025-04-15T22:55:17.218Z</time>
      </trkpt>
      <trkpt lat="44.76268" lon="3.71924">
        <ele>967.81</ele>
        <time>2025-04-15T22:55:31.049Z</time>
      </trkpt>
      <trkpt lat="44.76253" lon="3.71932">
        <ele>968.22</ele>
        <time>2025-04-15T22:55:44.883Z</time>
      </trkpt>
      <trkpt lat="44.7623" lon="3.71938">
        <ele>968.63</ele>
        <time>2025-04-15T22:55:58.720Z</time>
      </trkpt>
      <trkpt lat="44.76208" lon="3.71943">
        <ele>969.14</ele>
        <time>2025-04-15T22:56:12.561Z</time>
      </trkpt>
      <trkpt lat="44.76191" lon="3.71941">
        <ele>969.63</ele>
        <time>2025-04-15T22:56:26.405Z</time>
      </trkpt>
      <trkpt lat="44.76173" lon="3.71939">
        <ele>970.15</ele>
        <time>2025-04-15T22:56:40.251Z</time>
      </trkpt>
      <trkpt lat="44.76152" lon="3.71945">
        <ele>970.76</ele>
        <time>2025-04-15T22:56:54.101Z</time>
      </trkpt>
      <trkpt lat="44.76131" lon="3.71952">
        <ele>971.32</ele>
        <time>2025-04-15T22:57:07.954Z</time>
      </trkpt>
      <trkpt lat="44.76101" lon="3.71962">
        <ele>971.88</ele>
        <time>2025-04-15T22:57:21.812Z</time>
      </trkpt>
      <trkpt lat="44.7607" lon="3.71973">
        <ele>972.4</ele>
        <time>2025-04-15T22:57:35.675Z</time>
      </trkpt>
      <trkpt lat="44.7604" lon="3.71984">
        <ele>972.84</ele>
        <time>2025-04-15T22:57:49.543Z</time>
      </trkpt>
      <trkpt lat="44.7601" lon="3.71995">
        <ele>973.41</ele>
        <time>2025-04-15T22:58:03.416Z</time>
      </trkpt>
      <trkpt lat="44.75985" lon="3.72">
        <ele>973.8</ele>
        <time>2025-04-15T22:58:17.293Z</time>
      </trkpt>
      <trkpt lat="44.75959" lon="3.72005">
        <ele>974.18</ele>
        <time>2025-04-15T22:58:31.175Z</time>
      </trkpt>
      <trkpt lat="44.75933" lon="3.7201">
        <ele>974.64</ele>
        <time>2025-04-15T22:58:45.061Z</time>
      </trkpt>
      <trkpt lat="44.75918" lon="3.7201">
        <ele>975.07</ele>
        <time>2025-04-15T22:58:58.949Z</time>
      </trkpt>
      <trkpt lat="44.75895" lon="3.72006">
        <ele>975.48</ele>
        <time>2025-04-15T22:59:12.841Z</time>
      </trkpt>
      <trkpt lat="44.75871" lon="3.72002">
        <ele>975.9</ele>
        <time>2025-04-15T22:59:26.737Z</time>
      </trkpt>
      <trkpt lat="44.75847" lon="3.71999">
        <ele>976.29</ele>
        <time>2025-04-15T22:59:40.637Z</time>
      </trkpt>
      <trkpt lat="44.7583" lon="3.71992">
        <ele>976.58</ele>
        <time>2025-04-15T22:59:54.539Z</time>
      </trkpt>
      <trkpt lat="44.75809" lon="3.7198">
        <ele>976.8</ele>
        <time>2025-04-15T23:00:08.445Z</time>
      </trkpt>
      <trkpt lat="44.75789" lon="3.71967">
        <ele>977.04</ele>
        <time>2025-04-15T23:00:22.355Z</time>
      </trkpt>
      <trkpt lat="44.75768" lon="3.71954">
        <ele>977.33</ele>
        <time>2025-04-15T23:00:36.268Z</time>
      </trkpt>
      <trkpt lat="44.75746" lon="3.71944">
        <ele>977.57</ele>
        <time>2025-04-15T23:00:50.185Z</time>
      </trkpt>
      <trkpt lat="44.75725" lon="3.71934">
        <ele>977.68</ele>
        <time>2025-04-15T23:01:04.105Z</time>
      </trkpt>
      <trkpt lat="44.75704" lon="3.71933">
        <ele>977.8</ele>
        <time>2025-04-15T23:01:18.029Z</time>
      </trkpt>
      <trkpt lat="44.75682" lon="3.71932">
        <ele>978.01</ele>
        <time>2025-04-15T23:01:31.956Z</time>
      </trkpt>
      <trkpt lat="44.75661" lon="3.7193">
        <ele>978.24</ele>
        <time>2025-04-15T23:01:45.887Z</time>
      </trkpt>
      <trkpt lat="44.7564" lon="3.71934">
        <ele>978.55</ele>
        <time>2025-04-15T23:01:59.821Z</time>
      </trkpt>
      <trkpt lat="44.7562" lon="3.71939">
        <ele>978.82</ele>
        <time>2025-04-15T23:02:13.758Z</time>
      </trkpt>
      <trkpt lat="44.75598" lon="3.71954">
        <ele>979.05</ele>
        <time>2025-04-15T23:02:27.699Z</time>
      </trkpt>
      <trkpt lat="44.75586" lon="3.71977">
        <ele>979.2</ele>
        <time>2025-04-15T23:02:41.644Z</time>
      </trkpt>
      <trkpt lat="44.75579" lon="3.72014">
        <ele>979.33</ele>
        <time>2025-04-15T23:02:55.593Z</time>
      </trkpt>
      <trkpt lat="44.75573" lon="3.72051">
        <ele>979.5</ele>
        <time>2025-04-15T23:03:09.546Z</time>
      </trkpt>
      <trkpt lat="44.75566" lon="3.72087">
        <ele>979.67</ele>
        <time>2025-04-15T23:03:23.504Z</time>
      </trkpt>
      <trkpt lat="44.7556" lon="3.72123">
        <ele>979.77</ele>
        <time>2025-04-15T23:03:37.466Z</time>
      </trkpt>
      <trkpt lat="44.7556" lon="3.72149">
        <ele>979.87</ele>
        <time>2025-04-15T23:03:51.431Z</time>
      </trkpt>
      <trkpt lat="44.75564" lon="3.72168">
        <ele>979.99</ele>
        <time>2025-04-15T23:04:05.398Z</time>
      </trkpt>
      <trkpt lat="44.75577" lon="3.72205">
        <ele>980.18</ele>
        <time>2025-04-15T23:04:19.370Z</time>
      </trkpt>
      <trkpt lat="44.7559" lon="3.72241">
        <ele>980.36</ele>
        <time>2025-04-15T23:04:33.346Z</time>
      </trkpt>
      <trkpt lat="44.75603" lon="3.72278">
        <ele>980.52</ele>
        <time>2025-04-15T23:04:47.327Z</time>
      </trkpt>
      <trkpt lat="44.75609" lon="3.72299">
        <ele>980.61</ele>
        <time>2025-04-15T23:05:01.311Z</time>
      </trkpt>
      <trkpt lat="44.75607" lon="3.72329">
        <ele>980.64</ele>
        <time>2025-04-15T23:05:15.298Z</time>
      </trkpt>
      <trkpt lat="44.75601" lon="3.72346">
        <ele>980.76</ele>
        <time>2025-04-15T23:05:29.287Z</time>
      </trkpt>
      <trkpt lat="44.75579" lon="3.7237">
        <ele>980.81</ele>
        <time>2025-04-15T23:05:43.281Z</time>
      </trkpt>
      <trkpt lat="44.75558" lon="3.72394">
        <ele>980.84</ele>
        <time>2025-04-15T23:05:57.279Z</time>
      </trkpt>
      <trkpt lat="44.75536" lon="3.72417">
        <ele>980.85</ele>
        <time>2025-04-15T23:06:11.281Z</time>
      </trkpt>
      <trkpt lat="44.7552" lon="3.72428">
        <ele>980.99</ele>
        <time>2025-04-15T23:06:25.286Z</time>
      </trkpt>
      <trkpt lat="44.75504" lon="3.72439">
        <ele>981.16</ele>
        <time>2025-04-15T23:06:39.294Z</time>
      </trkpt>
      <trkpt lat="44.75487" lon="3.72445">
        <ele>981.36</ele>
        <time>2025-04-15T23:06:53.305Z</time>
      </trkpt>
      <trkpt lat="44.7547" lon="3.72443">
        <ele>981.58</ele>
        <time>2025-04-15T23:07:07.319Z</time>
      </trkpt>
      <trkpt lat="44.7547" lon="3.72443">
        <ele>981.78</ele>
        <time>2025-04-15T23:07:21.333Z</time>
      </trkpt>
      <trkpt lat="44.75446" lon="3.72437">
        <ele>982.07</ele>
        <time>2025-04-15T23:07:35.350Z</time>
      </trkpt>
      <trkpt lat="44.75428" lon="3.72432">
        <ele>982.37</ele>
        <time>2025-04-15T23:07:49.370Z</time>
      </trkpt>
      <trkpt lat="44.7541" lon="3.72428">
        <ele>982.63</ele>
        <time>2025-04-15T23:08:03.393Z</time>
      </trkpt>
      <trkpt lat="44.75384" lon="3.72426">
        <ele>982.87</ele>
        <time>2025-04-15T23:08:17.421Z</time>
      </trkpt>
      <trkpt lat="44.75358" lon="3.72432">
        <ele>983.11</ele>
        <time>2025-04-15T23:08:31.453Z</time>
      </trkpt>
      <trkpt lat="44.75338" lon="3.72443">
        <ele>983.38</ele>
        <time>2025-04-15T23:08:45.488Z</time>
      </trkpt>
      <trkpt lat="44.75317" lon="3.72454">
        <ele>983.7</ele>
        <time>2025-04-15T23:08:59.527Z</time>
      </trkpt>
      <trkpt lat="44.75297" lon="3.72464">
        <ele>984.12</ele>
        <time>2025-04-15T23:09:13.569Z</time>
      </trkpt>
      <trkpt lat="44.75277" lon="3.72475">
        <ele>984.58</ele>
        <time>2025-04-15T23:09:27.615Z</time>
      </trkpt>
      <trkpt lat="44.75264" lon="3.72488">
        <ele>985.02</ele>
        <time>2025-04-15T23:09:41.663Z</time>
      </trkpt>
      <trkpt lat="44.75255" lon="3.72503">
        <ele>985.52</ele>
        <time>2025-04-15T23:09:55.713Z</time>
      </trkpt>
      <trkpt lat="44.75253" lon="3.72527">
        <ele>985.99</ele>
        <time>2025-04-15T23:10:09.766Z</time>
      </trkpt>
      <trkpt lat="44.75257" lon="3.72546">
        <ele>986.47</ele>
        <time>2025-04-15T23:10:23.821Z</time>
      </trkpt>
      <trkpt lat="44.75268" lon="3.72571">
        <ele>986.99</ele>
        <time>2025-04-15T23:10:37.880Z</time>
      </trkpt>
      <trkpt lat="44.75279" lon="3.72595">
        <ele>987.54</ele>
        <time>2025-04-15T23:10:51.942Z</time>
      </trkpt>
      <trkpt lat="44.75285" lon="3.7263">
        <ele>988.09</ele>
        <time>2025-04-15T23:11:06.008Z</time>
      </trkpt>
      <trkpt lat="44.75279" lon="3.72664">
        <ele>988.56</ele>
        <time>2025-04-15T23:11:20.078Z</time>
      </trkpt>
      <trkpt lat="44.75268" lon="3.72701">
        <ele>989.09</ele>
        <time>2025-04-15T23:11:34.153Z</time>
      </trkpt>
      <trkpt lat="44.75257" lon="3.72722">
        <ele>989.58</ele>
        <time>2025-04-15T23:11:48.231Z</time>
      </trkpt>
      <trkpt lat="44.75246" lon="3.72743">
        <ele>990.14</ele>
        <time>2025-04-15T23:12:02.312Z</time>
      </trkpt>
      <trkpt lat="44.7524" lon="3.72754">
        <ele>990.68</ele>
        <time>2025-04-15T23:12:16.394Z</time>
      </trkpt>
      <trkpt lat="44.75227" lon="3.7278">
        <ele>991.32</ele>
        <time>2025-04-15T23:12:30.480Z</time>
      </trkpt>
      <trkpt lat="44.75227" lon="3.7278">
        <ele>991.89</ele>
        <time>2025-04-15T23:12:44.566Z</time>
      </trkpt>
      <trkpt lat="44.7521" lon="3.72803">
        <ele>992.55</ele>
        <time>2025-04-15T23:12:58.656Z</time>
      </trkpt>
      <trkpt lat="44.75187" lon="3.72827">
        <ele>993.16</ele>
        <time>2025-04-15T23:13:12.750Z</time>
      </trkpt>
      <trkpt lat="44.75165" lon="3.72851">
        <ele>993.73</ele>
        <time>2025-04-15T23:13:26.849Z</time>
      </trkpt>
      <trkpt lat="44.75149" lon="3.7287">
        <ele>994.33</ele>
        <time>2025-04-15T23:13:40.951Z</time>
      </trkpt>
      <trkpt lat="44.75133" lon="3.72889">
        <ele>994.98</ele>
        <time>2025-04-15T23:13:55.056Z</time>
      </trkpt>
      <trkpt lat="44.75118" lon="3.729">
        <ele>995.59</ele>
        <time>2025-04-15T23:14:09.164Z</time>
      </trkpt>
      <trkpt lat="44.75093" lon="3.72908">
        <ele>996.14</ele>
        <time>2025-04-15T23:14:23.276Z</time>
      </trkpt>
      <trkpt lat="44.75068" lon="3.72915">
        <ele>996.71</ele>
        <time>2025-04-15T23:14:37.392Z</time>
      </trkpt>
      <trkpt lat="44.75037" lon="3.72918">
        <ele>997.35</ele>
        <time>2025-04-15T23:14:51.513Z</time>
      </trkpt>
      <trkpt lat="44.75006" lon="3.72922">
        <ele>998.12</ele>
        <time>2025-04-15T23:15:05.639Z</time>
      </trkpt>
      <trkpt lat="44.74978" lon="3.72913">
        <ele>998.81</ele>
        <time>2025-04-15T23:15:19.770Z</time>
      </trkpt>
      <trkpt lat="44.7495" lon="3.72904">
        <ele>999.4</ele>
        <time>2025-04-15T23:15:33.905Z</time>
      </trkpt>
      <trkpt lat="44.74927" lon="3.72889">
        <ele>999.83</ele>
        <time>2025-04-15T23:15:48.044Z</time>
      </trkpt>
      <trkpt lat="44.74911" lon="3.72875">
        <ele>1000.34</ele>
        <time>2025-04-15T23:16:02.186Z</time>
      </trkpt>
      <trkpt lat="44.74895" lon="3.72861">
        <ele>1000.86</ele>
        <time>2025-04-15T23:16:16.331Z</time>
      </trkpt>
      <trkpt lat="44.74876" lon="3.72859">
        <ele>1001.5</ele>
        <time>2025-04-15T23:16:30.479Z</time>
      </trkpt>
      <trkpt lat="44.74858" lon="3.72857">
        <ele>1002.14</ele>
        <time>2025-04-15T23:16:44.630Z</time>
      </trkpt>
      <trkpt lat="44.74834" lon="3.72849">
        <ele>1002.76</ele>
        <time>2025-04-15T23:16:58.785Z</time>
      </trkpt>
      <trkpt lat="44.74813" lon="3.72829">
        <ele>1003.12</ele>
        <time>2025-04-15T23:17:12.944Z</time>
      </trkpt>
      <trkpt lat="44.74789" lon="3.72817">
        <ele>1003.51</ele>
        <time>2025-04-15T23:17:27.107Z</time>
      </trkpt>
      <trkpt lat="44.74766" lon="3.72806">
        <ele>1003.92</ele>
        <time>2025-04-15T23:17:41.274Z</time>
      </trkpt>
      <trkpt lat="44.74739" lon="3.7279">
        <ele>1004.36</ele>
        <time>2025-04-15T23:17:55.446Z</time>
      </trkpt>
      <trkpt lat="44.74712" lon="3.72773">
        <ele>1004.77</ele>
        <time>2025-04-15T23:18:09.623Z</time>
      </trkpt>
      <trkpt lat="44.74694" lon="3.72767">
        <ele>1005.15</ele>
        <time>2025-04-15T23:18:23.803Z</time>
      </trkpt>
      <trkpt lat="44.74676" lon="3.72761">
        <ele>1005.51</ele>
        <time>2025-04-15T23:18:37.986Z</time>
      </trkpt>
      <trkpt lat="44.74656" lon="3.72765">
        <ele>1005.89</ele>
        <time>2025-04-15T23:18:52.172Z</time>
      </trkpt>
      <trkpt lat="44.74641" lon="3.7278">
        <ele>1006.25</ele>
        <time>2025-04-15T23:19:06.361Z</time>
      </trkpt>
      <trkpt lat="44.74626" lon="3.72811">
        <ele>1006.5</ele>
        <time>2025-04-15T23:19:20.554Z</time>
      </trkpt>
      <trkpt lat="44.74611" lon="3.72841">
        <ele>1006.81</ele>
        <time>2025-04-15T23:19:34.751Z</time>
      </trkpt>
      <trkpt lat="44.74596" lon="3.72872">
        <ele>1007.15</ele>
        <time>2025-04-15T23:19:48.952Z</time>
      </trkpt>
      <trkpt lat="44.74581" lon="3.72902">
        <ele>1007.45</ele>
        <time>2025-04-15T23:20:03.158Z</time>
      </trkpt>
      <trkpt lat="44.74563" lon="3.72931">
        <ele>1007.72</ele>
        <time>2025-04-15T23:20:17.368Z</time>
      </trkpt>
      <trkpt lat="44.74545" lon="3.7296">
        <ele>1008</ele>
        <time>2025-04-15T23:20:31.583Z</time>
      </trkpt>
      <trkpt lat="44.74538" lon="3.72965">
        <ele>1008.26</ele>
        <time>2025-04-15T23:20:45.799Z</time>
      </trkpt>
      <trkpt lat="44.74538" lon="3.72966">
        <ele>1008.51</ele>
        <time>2025-04-15T23:21:00.015Z</time>
      </trkpt>
      <trkpt lat="44.74538" lon="3.72966">
        <ele>1008.75</ele>
        <time>2025-04-15T23:21:14.231Z</time>
      </trkpt>
      <trkpt lat="44.74526" lon="3.72975">
        <ele>1008.98</ele>
        <time>2025-04-15T23:21:28.449Z</time>
      </trkpt>
      <trkpt lat="44.74503" lon="3.72987">
        <ele>1009.17</ele>
        <time>2025-04-15T23:21:42.671Z</time>
      </trkpt>
      <trkpt lat="44.7448" lon="3.72998">
        <ele>1009.49</ele>
        <time>2025-04-15T23:21:56.897Z</time>
      </trkpt>
      <trkpt lat="44.74457" lon="3.73009">
        <ele>1009.72</ele>
        <time>2025-04-15T23:22:11.127Z</time>
      </trkpt>
      <trkpt lat="44.74435" lon="3.73022">
        <ele>1010.02</ele>
        <time>2025-04-15T23:22:25.360Z</time>
      </trkpt>
      <trkpt lat="44.74414" lon="3.73035">
        <ele>1010.31</ele>
        <time>2025-04-15T23:22:39.597Z</time>
      </trkpt>
      <trkpt lat="44.74392" lon="3.73048">
        <ele>1010.62</ele>
        <time>2025-04-15T23:22:53.838Z</time>
      </trkpt>
      <trkpt lat="44.74364" lon="3.7306">
        <ele>1010.73</ele>
        <time>2025-04-15T23:23:08.084Z</time>
      </trkpt>
      <trkpt lat="44.74335" lon="3.73072">
        <ele>1010.95</ele>
        <time>2025-04-15T23:23:22.334Z</time>
      </trkpt>
      <trkpt lat="44.74307" lon="3.73085">
        <ele>1011.14</ele>
        <time>2025-04-15T23:23:36.589Z</time>
      </trkpt>
      <trkpt lat="44.74307" lon="3.73085">
        <ele>1011.36</ele>
        <time>2025-04-15T23:23:50.844Z</time>
      </trkpt>
      <trkpt lat="44.74289" lon="3.73091">
        <ele>1011.55</ele>
        <time>2025-04-15T23:24:05.102Z</time>
      </trkpt>
      <trkpt lat="44.74262" lon="3.73087">
        <ele>1011.77</ele>
        <time>2025-04-15T23:24:19.365Z</time>
      </trkpt>
      <trkpt lat="44.74232" lon="3.73074">
        <ele>1011.98</ele>
        <time>2025-04-15T23:24:33.633Z</time>
      </trkpt>
      <trkpt lat="44.74202" lon="3.73062">
        <ele>1012.3</ele>
        <time>2025-04-15T23:24:47.905Z</time>
      </trkpt>
      <trkpt lat="44.74173" lon="3.73049">
        <ele>1012.54</ele>
        <time>2025-04-15T23:25:02.182Z</time>
      </trkpt>
      <trkpt lat="44.74143" lon="3.73037">
        <ele>1012.76</ele>
        <time>2025-04-15T23:25:16.464Z</time>
      </trkpt>
      <trkpt lat="44.74114" lon="3.73025">
        <ele>1013.04</ele>
        <time>2025-04-15T23:25:30.751Z</time>
      </trkpt>
      <trkpt lat="44.74097" lon="3.73023">
        <ele>1013.29</ele>
        <time>2025-04-15T23:25:45.041Z</time>
      </trkpt>
      <trkpt lat="44.74081" lon="3.73022">
        <ele>1013.54</ele>
        <time>2025-04-15T23:25:59.334Z</time>
      </trkpt>
      <trkpt lat="44.74068" lon="3.73027">
        <ele>1013.78</ele>
        <time>2025-04-15T23:26:13.629Z</time>
      </trkpt>
      <trkpt lat="44.74058" lon="3.73037">
        <ele>1014.04</ele>
        <time>2025-04-15T23:26:27.926Z</time>
      </trkpt>
      <trkpt lat="44.74053" lon="3.73055">
        <ele>1014.38</ele>
        <time>2025-04-15T23:26:42.225Z</time>
      </trkpt>
      <trkpt lat="44.74051" lon="3.73076">
        <ele>1014.71</ele>
        <time>2025-04-15T23:26:56.526Z</time>
      </trkpt>
      <trkpt lat="44.74051" lon="3.73097">
        <ele>1015.06</ele>
        <time>2025-04-15T23:27:10.830Z</time>
      </trkpt>
      <trkpt lat="44.74058" lon="3.73126">
        <ele>1015.45</ele>
        <time>2025-04-15T23:27:25.137Z</time>
      </trkpt>
      <trkpt lat="44.74064" lon="3.73155">
        <ele>1015.86</ele>
        <time>2025-04-15T23:27:39.448Z</time>
      </trkpt>
      <trkpt lat="44.74071" lon="3.73195">
        <ele>1016.26</ele>
        <time>2025-04-15T23:27:53.763Z</time>
      </trkpt>
      <trkpt lat="44.74077" lon="3.73235">
        <ele>1016.73</ele>
        <time>2025-04-15T23:28:08.083Z</time>
      </trkpt>
      <trkpt lat="44.74086" lon="3.73266">
        <ele>1017.15</ele>
        <time>2025-04-15T23:28:22.407Z</time>
      </trkpt>
      <trkpt lat="44.74096" lon="3.73296">
        <ele>1017.54</ele>
        <time>2025-04-15T23:28:36.735Z</time>
      </trkpt>
      <trkpt lat="44.74105" lon="3.73327">
        <ele>1017.96</ele>
        <time>2025-04-15T23:28:51.066Z</time>
      </trkpt>
      <trkpt lat="44.74111" lon="3.73359">
        <ele>1018.33</ele>
        <time>2025-04-15T23:29:05.401Z</time>
      </trkpt>
      <trkpt lat="44.74118" lon="3.7339">
        <ele>1018.75</ele>
        <time>2025-04-15T23:29:19.740Z</time>
      </trkpt>
      <trkpt lat="44.74124" lon="3.73421">
        <ele>1019.19</ele>
        <time>2025-04-15T23:29:34.083Z</time>
      </trkpt>
      <trkpt lat="44.74118" lon="3.73452">
        <ele>1019.57</ele>
        <time>2025-04-15T23:29:48.429Z</time>
      </trkpt>
      <trkpt lat="44.74103" lon="3.73486">
        <ele>1019.93</ele>
        <time>2025-04-15T23:30:02.780Z</time>
      </trkpt>
      <trkpt lat="44.74083" lon="3.73503">
        <ele>1020.33</ele>
        <time>2025-04-15T23:30:17.134Z</time>
      </trkpt>
      <trkpt lat="44.74058" lon="3.73511">
        <ele>1020.74</ele>
        <time>2025-04-15T23:30:31.493Z</time>
      </trkpt>
      <trkpt lat="44.74033" lon="3.73518">
        <ele>1021.18</ele>
        <time>2025-04-15T23:30:45.856Z</time>
      </trkpt>
      <trkpt lat="44.74008" lon="3.73526">
        <ele>1021.65</ele>
        <time>2025-04-15T23:31:00.223Z</time>
      </trkpt>
      <trkpt lat="44.73982" lon="3.73534">
        <ele>1022.04</ele>
        <time>2025-04-15T23:31:14.594Z</time>
      </trkpt>
      <trkpt lat="44.73957" lon="3.73542">
        <ele>1022.49</ele>
        <time>2025-04-15T23:31:28.969Z</time>
      </trkpt>
      <trkpt lat="44.73934" lon="3.73546">
        <ele>1022.88</ele>
        <time>2025-04-15T23:31:43.348Z</time>
      </trkpt>
      <trkpt lat="44.73911" lon="3.7355">
        <ele>1023.27</ele>
        <time>2025-04-15T23:31:57.731Z</time>
      </trkpt>
      <trkpt lat="44.73888" lon="3.73555">
        <ele>1023.59</ele>
        <time>2025-04-15T23:32:12.117Z</time>
      </trkpt>
      <trkpt lat="44.73861" lon="3.73565">
        <ele>1024.01</ele>
        <time>2025-04-15T23:32:26.508Z</time>
      </trkpt>
      <trkpt lat="44.73834" lon="3.73576">
        <ele>1024.41</ele>
        <time>2025-04-15T23:32:40.903Z</time>
      </trkpt>
      <trkpt lat="44.73807" lon="3.73587">
        <ele>1024.93</ele>
        <time>2025-04-15T23:32:55.303Z</time>
      </trkpt>
      <trkpt lat="44.73787" lon="3.73589">
        <ele>1025.5</ele>
        <time>2025-04-15T23:33:09.706Z</time>
      </trkpt>
      <trkpt lat="44.73764" lon="3.73587">
        <ele>1026.01</ele>
        <time>2025-04-15T23:33:24.113Z</time>
      </trkpt>
      <trkpt lat="44.73747" lon="3.73578">
        <ele>1026.37</ele>
        <time>2025-04-15T23:33:38.523Z</time>
      </trkpt>
      <trkpt lat="44.73729" lon="3.7357">
        <ele>1026.69</ele>
        <time>2025-04-15T23:33:52.935Z</time>
      </trkpt>
      <trkpt lat="44.73708" lon="3.73565">
        <ele>1027.05</ele>
        <time>2025-04-15T23:34:07.351Z</time>
      </trkpt>
      <trkpt lat="44.73687" lon="3.73561">
        <ele>1027.39</ele>
        <time>2025-04-15T23:34:21.770Z</time>
      </trkpt>
      <trkpt lat="44.73664" lon="3.7357">
        <ele>1027.84</ele>
        <time>2025-04-15T23:34:36.193Z</time>
      </trkpt>
      <trkpt lat="44.73642" lon="3.73578">
        <ele>1028.2</ele>
        <time>2025-04-15T23:34:50.620Z</time>
      </trkpt>
      <trkpt lat="44.7362" lon="3.73587">
        <ele>1028.61</ele>
        <time>2025-04-15T23:35:05.050Z</time>
      </trkpt>
      <trkpt lat="44.73599" lon="3.73601">
        <ele>1029.04</ele>
        <time>2025-04-15T23:35:19.484Z</time>
      </trkpt>
      <trkpt lat="44.73577" lon="3.73615">
        <ele>1029.37</ele>
        <time>2025-04-15T23:35:33.922Z</time>
      </trkpt>
      <trkpt lat="44.73556" lon="3.73632">
        <ele>1029.75</ele>
        <time>2025-04-15T23:35:48.364Z</time>
      </trkpt>
      <trkpt lat="44.73535" lon="3.73658">
        <ele>1030.18</ele>
        <time>2025-04-15T23:36:02.810Z</time>
      </trkpt>
      <trkpt lat="44.73514" lon="3.73685">
        <ele>1030.72</ele>
        <time>2025-04-15T23:36:17.261Z</time>
      </trkpt>
      <trkpt lat="44.73493" lon="3.73711">
        <ele>1031.24</ele>
        <time>2025-04-15T23:36:31.716Z</time>
      </trkpt>
      <trkpt lat="44.73472" lon="3.73722">
        <ele>1031.63</ele>
        <time>2025-04-15T23:36:46.175Z</time>
      </trkpt>
      <trkpt lat="44.7345" lon="3.73733">
        <ele>1032.06</ele>
        <time>2025-04-15T23:37:00.638Z</time>
      </trkpt>
      <trkpt lat="44.73422" lon="3.7374">
        <ele>1032.48</ele>
        <time>2025-04-15T23:37:15.105Z</time>
      </trkpt>
      <trkpt lat="44.73393" lon="3.73748">
        <ele>1032.86</ele>
        <time>2025-04-15T23:37:29.577Z</time>
      </trkpt>
      <trkpt lat="44.73361" lon="3.73749">
        <ele>1033.17</ele>
        <time>2025-04-15T23:37:44.054Z</time>
      </trkpt>
      <trkpt lat="44.7333" lon="3.7375">
        <ele>1033.52</ele>
        <time>2025-04-15T23:37:58.536Z</time>
      </trkpt>
      <trkpt lat="44.73299" lon="3.73751">
        <ele>1033.9</ele>
        <time>2025-04-15T23:38:13.023Z</time>
      </trkpt>
      <trkpt lat="44.73268" lon="3.73752">
        <ele>1034.25</ele>
        <time>2025-04-15T23:38:27.515Z</time>
      </trkpt>
      <trkpt lat="44.73242" lon="3.73758">
        <ele>1034.57</ele>
        <time>2025-04-15T23:38:42.011Z</time>
      </trkpt>
      <trkpt lat="44.73229" lon="3.73773">
        <ele>1034.94</ele>
        <time>2025-04-15T23:38:56.510Z</time>
      </trkpt>
      <trkpt lat="44.73221" lon="3.73799">
        <ele>1035.38</ele>
        <time>2025-04-15T23:39:11.012Z</time>
      </trkpt>
      <trkpt lat="44.73224" lon="3.73829">
        <ele>1035.91</ele>
        <time>2025-04-15T23:39:25.518Z</time>
      </trkpt>
      <trkpt lat="44.73228" lon="3.73859">
        <ele>1036.43</ele>
        <time>2025-04-15T23:39:40.027Z</time>
      </trkpt>
      <trkpt lat="44.73232" lon="3.73889">
        <ele>1036.91</ele>
        <time>2025-04-15T23:39:54.540Z</time>
      </trkpt>
      <trkpt lat="44.7323" lon="3.73932">
        <ele>1037.35</ele>
        <time>2025-04-15T23:40:09.057Z</time>
      </trkpt>
      <trkpt lat="44.73229" lon="3.73974">
        <ele>1037.82</ele>
        <time>2025-04-15T23:40:23.579Z</time>
      </trkpt>
      <trkpt lat="44.73227" lon="3.74016">
        <ele>1038.24</ele>
        <time>2025-04-15T23:40:38.106Z</time>
      </trkpt>
      <trkpt lat="44.73225" lon="3.74055">
        <ele>1038.69</ele>
        <time>2025-04-15T23:40:52.638Z</time>
      </trkpt>
      <trkpt lat="44.73223" lon="3.74095">
        <ele>1039.15</ele>
        <time>2025-04-15T23:41:07.174Z</time>
      </trkpt>
      <trkpt lat="44.73221" lon="3.74134">
        <ele>1039.49</ele>
        <time>2025-04-15T23:41:21.715Z</time>
      </trkpt>
      <trkpt lat="44.73223" lon="3.7416">
        <ele>1039.85</ele>
        <time>2025-04-15T23:41:36.259Z</time>
      </trkpt>
      <trkpt lat="44.73234" lon="3.74194">
        <ele>1040.28</ele>
        <time>2025-04-15T23:41:50.807Z</time>
      </trkpt>
      <trkpt lat="44.73249" lon="3.7422">
        <ele>1040.78</ele>
        <time>2025-04-15T23:42:05.359Z</time>
      </trkpt>
      <trkpt lat="44.73264" lon="3.74245">
        <ele>1041.27</ele>
        <time>2025-04-15T23:42:19.914Z</time>
      </trkpt>
      <trkpt lat="44.7328" lon="3.74264">
        <ele>1041.77</ele>
        <time>2025-04-15T23:42:34.473Z</time>
      </trkpt>
      <trkpt lat="44.73296" lon="3.74282">
        <ele>1042.26</ele>
        <time>2025-04-15T23:42:49.035Z</time>
      </trkpt>
      <trkpt lat="44.73309" lon="3.74318">
        <ele>1042.69</ele>
        <time>2025-04-15T23:43:03.602Z</time>
      </trkpt>
      <trkpt lat="44.73311" lon="3.74336">
        <ele>1043.12</ele>
        <time>2025-04-15T23:43:18.171Z</time>
      </trkpt>
      <trkpt lat="44.73309" lon="3.74359">
        <ele>1043.5</ele>
        <time>2025-04-15T23:43:32.742Z</time>
      </trkpt>
      <trkpt lat="44.73307" lon="3.74383">
        <ele>1043.9</ele>
        <time>2025-04-15T23:43:47.316Z</time>
      </trkpt>
      <trkpt lat="44.73292" lon="3.74417">
        <ele>1044.27</ele>
        <time>2025-04-15T23:44:01.895Z</time>
      </trkpt>
      <trkpt lat="44.73279" lon="3.74432">
        <ele>1044.71</ele>
        <time>2025-04-15T23:44:16.476Z</time>
      </trkpt>
      <trkpt lat="44.73253" lon="3.74456">
        <ele>1045.12</ele>
        <time>2025-04-15T23:44:31.062Z</time>
      </trkpt>
      <trkpt lat="44.73225" lon="3.74466">
        <ele>1045.63</ele>
        <time>2025-04-15T23:44:45.653Z</time>
      </trkpt>
      <trkpt lat="44.73202" lon="3.74465">
        <ele>1046.1</ele>
        <time>2025-04-15T23:45:00.248Z</time>
      </trkpt>
      <trkpt lat="44.73178" lon="3.74464">
        <ele>1046.61</ele>
        <time>2025-04-15T23:45:14.846Z</time>
      </trkpt>
      <trkpt lat="44.73151" lon="3.74449">
        <ele>1047.07</ele>
        <time>2025-04-15T23:45:29.449Z</time>
      </trkpt>
      <trkpt lat="44.73123" lon="3.74434">
        <ele>1047.61</ele>
        <time>2025-04-15T23:45:44.057Z</time>
      </trkpt>
      <trkpt lat="44.73096" lon="3.74419">
        <ele>1048.04</ele>
        <time>2025-04-15T23:45:58.670Z</time>
      </trkpt>
      <trkpt lat="44.73068" lon="3.74404">
        <ele>1048.47</ele>
        <time>2025-04-15T23:46:13.287Z</time>
      </trkpt>
      <trkpt lat="44.73041" lon="3.74389">
        <ele>1048.96</ele>
        <time>2025-04-15T23:46:27.909Z</time>
      </trkpt>
      <trkpt lat="44.73014" lon="3.74374">
        <ele>1049.4</ele>
        <time>2025-04-15T23:46:42.536Z</time>
      </trkpt>
      <trkpt lat="44.72986" lon="3.74359">
        <ele>1049.78</ele>
        <time>2025-04-15T23:46:57.167Z</time>
      </trkpt>
      <trkpt lat="44.72959" lon="3.74344">
        <ele>1050.07</ele>
        <time>2025-04-15T23:47:11.803Z</time>
      </trkpt>
      <trkpt lat="44.72931" lon="3.74329">
        <ele>1050.42</ele>
        <time>2025-04-15T23:47:26.444Z</time>
      </trkpt>
      <trkpt lat="44.7292" lon="3.74329">
        <ele>1050.84</ele>
        <time>2025-04-15T23:47:41.087Z</time>
      </trkpt>
      <trkpt lat="44.7291" lon="3.74333">
        <ele>1051.22</ele>
        <time>2025-04-15T23:47:55.731Z</time>
      </trkpt>
      <trkpt lat="44.72901" lon="3.74344">
        <ele>1051.59</ele>
        <time>2025-04-15T23:48:10.377Z</time>
      </trkpt>
      <trkpt lat="44.72897" lon="3.74359">
        <ele>1051.94</ele>
        <time>2025-04-15T23:48:25.025Z</time>
      </trkpt>
      <trkpt lat="44.72898" lon="3.744">
        <ele>1052.34</ele>
        <time>2025-04-15T23:48:39.678Z</time>
      </trkpt>
      <trkpt lat="44.72899" lon="3.74441">
        <ele>1052.72</ele>
        <time>2025-04-15T23:48:54.335Z</time>
      </trkpt>
      <trkpt lat="44.72902" lon="3.74471">
        <ele>1053.09</ele>
        <time>2025-04-15T23:49:08.996Z</time>
      </trkpt>
      <trkpt lat="44.72905" lon="3.74501">
        <ele>1053.47</ele>
        <time>2025-04-15T23:49:23.660Z</time>
      </trkpt>
      <trkpt lat="44.72908" lon="3.74531">
        <ele>1053.92</ele>
        <time>2025-04-15T23:49:38.328Z</time>
      </trkpt>
      <trkpt lat="44.72905" lon="3.74561">
        <ele>1054.32</ele>
        <time>2025-04-15T23:49:52.999Z</time>
      </trkpt>
      <trkpt lat="44.72895" lon="3.74589">
        <ele>1054.62</ele>
        <time>2025-04-15T23:50:07.674Z</time>
      </trkpt>
      <trkpt lat="44.72885" lon="3.74617">
        <ele>1055.05</ele>
        <time>2025-04-15T23:50:22.352Z</time>
      </trkpt>
      <trkpt lat="44.72875" lon="3.74645">
        <ele>1055.48</ele>
        <time>2025-04-15T23:50:37.034Z</time>
      </trkpt>
      <trkpt lat="44.72863" lon="3.74666">
        <ele>1055.84</ele>
        <time>2025-04-15T23:50:51.719Z</time>
      </trkpt>
      <trkpt lat="44.7285" lon="3.74687">
        <ele>1056.21</ele>
        <time>2025-04-15T23:51:06.407Z</time>
      </trkpt>
      <trkpt lat="44.72822" lon="3.74707">
        <ele>1056.55</ele>
        <time>2025-04-15T23:51:21.100Z</time>
      </trkpt>
      <trkpt lat="44.72794" lon="3.74728">
        <ele>1056.87</ele>
        <time>2025-04-15T23:51:35.798Z</time>
      </trkpt>
      <trkpt lat="44.72766" lon="3.74748">
        <ele>1057.18</ele>
        <time>2025-04-15T23:51:50.501Z</time>
      </trkpt>
      <trkpt lat="44.72742" lon="3.74757">
        <ele>1057.42</ele>
        <time>2025-04-15T23:52:05.208Z</time>
      </trkpt>
      <trkpt lat="44.72719" lon="3.74767">
        <ele>1057.73</ele>
        <time>2025-04-15T23:52:19.919Z</time>
      </trkpt>
      <trkpt lat="44.7269" lon="3.74772">
        <ele>1058.04</ele>
        <time>2025-04-15T23:52:34.635Z</time>
      </trkpt>
      <trkpt lat="44.72661" lon="3.74778">
        <ele>1058.38</ele>
        <time>2025-04-15T23:52:49.356Z</time>
      </trkpt>
      <trkpt lat="44.72637" lon="3.74777">
        <ele>1058.61</ele>
        <time>2025-04-15T23:53:04.080Z</time>
      </trkpt>
      <trkpt lat="44.72613" lon="3.74776">
        <ele>1058.8</ele>
        <time>2025-04-15T23:53:18.808Z</time>
      </trkpt>
      <trkpt lat="44.72612" lon="3.74776">
        <ele>1059.02</ele>
        <time>2025-04-15T23:53:33.536Z</time>
      </trkpt>
      <trkpt lat="44.72612" lon="3.74776">
        <ele>1059.23</ele>
        <time>2025-04-15T23:53:48.264Z</time>
      </trkpt>
      <trkpt lat="44.72592" lon="3.74776">
        <ele>1059.39</ele>
        <time>2025-04-15T23:54:02.996Z</time>
      </trkpt>
      <trkpt lat="44.72571" lon="3.74775">
        <ele>1059.57</ele>
        <time>2025-04-15T23:54:17.731Z</time>
      </trkpt>
      <trkpt lat="44.72558" lon="3.74767">
        <ele>1059.66</ele>
        <time>2025-04-15T23:54:32.468Z</time>
      </trkpt>
      <trkpt lat="44.72541" lon="3.7475">
        <ele>1059.69</ele>
        <time>2025-04-15T23:54:47.209Z</time>
      </trkpt>
      <trkpt lat="44.72539" lon="3.74735">
        <ele>1059.78</ele>
        <time>2025-04-15T23:55:01.951Z</time>
      </trkpt>
      <trkpt lat="44.72534" lon="3.74698">
        <ele>1059.93</ele>
        <time>2025-04-15T23:55:16.698Z</time>
      </trkpt>
      <trkpt lat="44.7253" lon="3.74662">
        <ele>1060.35</ele>
        <time>2025-04-15T23:55:31.449Z</time>
      </trkpt>
      <trkpt lat="44.72519" lon="3.74645">
        <ele>1060.64</ele>
        <time>2025-04-15T23:55:46.202Z</time>
      </trkpt>
      <trkpt lat="44.72502" lon="3.74637">
        <ele>1060.79</ele>
        <time>2025-04-15T23:56:00.958Z</time>
      </trkpt>
      <trkpt lat="44.72485" lon="3.7463">
        <ele>1060.93</ele>
        <time>2025-04-15T23:56:15.717Z</time>
      </trkpt>
      <trkpt lat="44.72485" lon="3.7463">
        <ele>1061.06</ele>
        <time>2025-04-15T23:56:30.476Z</time>
      </trkpt>
      <trkpt lat="44.72467" lon="3.74622">
        <ele>1061.16</ele>
        <time>2025-04-15T23:56:45.238Z</time>
      </trkpt>
      <trkpt lat="44.7245" lon="3.74614">
        <ele>1061.24</ele>
        <time>2025-04-15T23:57:00.003Z</time>
      </trkpt>
      <trkpt lat="44.7245" lon="3.74613">
        <ele>1061.34</ele>
        <time>2025-04-15T23:57:14.768Z</time>
      </trkpt>
      <trkpt lat="44.7245" lon="3.74613">
        <ele>1061.44</ele>
        <time>2025-04-15T23:57:29.533Z</time>
      </trkpt>
      <trkpt lat="44.72444" lon="3.74612">
        <ele>1061.53</ele>
        <time>2025-04-15T23:57:44.299Z</time>
      </trkpt>
      <trkpt lat="44.72416" lon="3.74599">
        <ele>1061.66</ele>
        <time>2025-04-15T23:57:59.070Z</time>
      </trkpt>
      <trkpt lat="44.72388" lon="3.74586">
        <ele>1061.72</ele>
        <time>2025-04-15T23:58:13.845Z</time>
      </trkpt>
      <trkpt lat="44.72359" lon="3.74573">
        <ele>1061.76</ele>
        <time>2025-04-15T23:58:28.625Z</time>
      </trkpt>
      <trkpt lat="44.72351" lon="3.74563">
        <ele>1061.85</ele>
        <time>2025-04-15T23:58:43.407Z</time>
      </trkpt>
      <trkpt lat="44.72336" lon="3.74539">
        <ele>1061.93</ele>
        <time>2025-04-15T23:58:58.193Z</time>
      </trkpt>
      <trkpt lat="44.72322" lon="3.74516">
        <ele>1062.01</ele>
        <time>2025-04-15T23:59:12.982Z</time>
      </trkpt>
      <trkpt lat="44.72308" lon="3.74502">
        <ele>1062.06</ele>
        <time>2025-04-15T23:59:27.774Z</time>
      </trkpt>
      <trkpt lat="44.72284" lon="3.74494">
        <ele>1062.08</ele>
        <time>2025-04-15T23:59:42.570Z</time>
      </trkpt>
      <trkpt lat="44.72275" lon="3.74492">
        <ele>1062.15</ele>
        <time>2025-04-15T23:59:57.367Z</time>
      </trkpt>
      <trkpt lat="44.72275" lon="3.74492">
        <ele>1062.2</ele>
        <time>2025-04-16T00:00:12.164Z</time>
      </trkpt>
      <trkpt lat="44.72245" lon="3.74489">
        <ele>1062.27</ele>
        <time>2025-04-16T00:00:26.966Z</time>
      </trkpt>
      <trkpt lat="44.72231" lon="3.74485">
        <ele>1062.32</ele>
        <time>2025-04-16T00:00:41.770Z</time>
      </trkpt>
      <trkpt lat="44.72227" lon="3.74483">
        <ele>1062.37</ele>
        <time>2025-04-16T00:00:56.575Z</time>
      </trkpt>
      <trkpt lat="44.72208" lon="3.74466">
        <ele>1062.39</ele>
        <time>2025-04-16T00:01:11.384Z</time>
      </trkpt>
      <trkpt lat="44.72197" lon="3.7445">
        <ele>1062.44</ele>
        <time>2025-04-16T00:01:26.195Z</time>
      </trkpt>
      <trkpt lat="44.72188" lon="3.7443">
        <ele>1062.48</ele>
        <time>2025-04-16T00:01:41.009Z</time>
      </trkpt>
      <trkpt lat="44.72184" lon="3.74415">
        <ele>1062.54</ele>
        <time>2025-04-16T00:01:55.825Z</time>
      </trkpt>
      <trkpt lat="44.72182" lon="3.74399">
        <ele>1062.61</ele>
        <time>2025-04-16T00:02:10.643Z</time>
      </trkpt>
      <trkpt lat="44.72184" lon="3.74364">
        <ele>1062.64</ele>
        <time>2025-04-16T00:02:25.465Z</time>
      </trkpt>
      <trkpt lat="44.72187" lon="3.7433">
        <ele>1062.68</ele>
        <time>2025-04-16T00:02:40.290Z</time>
      </trkpt>
      <trkpt lat="44.72189" lon="3.74295">
        <ele>1062.73</ele>
        <time>2025-04-16T00:02:55.119Z</time>
      </trkpt>
      <trkpt lat="44.72191" lon="3.7426">
        <ele>1062.83</ele>
        <time>2025-04-16T00:03:09.952Z</time>
      </trkpt>
      <trkpt lat="44.72192" lon="3.74229">
        <ele>1062.98</ele>
        <time>2025-04-16T00:03:24.789Z</time>
      </trkpt>
      <trkpt lat="44.72193" lon="3.74197">
        <ele>1063.11</ele>
        <time>2025-04-16T00:03:39.630Z</time>
      </trkpt>
      <trkpt lat="44.72191" lon="3.74165">
        <ele>1063.24</ele>
        <time>2025-04-16T00:03:54.474Z</time>
      </trkpt>
      <trkpt lat="44.72184" lon="3.7414">
        <ele>1063.31</ele>
        <time>2025-04-16T00:04:09.321Z</time>
      </trkpt>
      <trkpt lat="44.72172" lon="3.74117">
        <ele>1063.37</ele>
        <time>2025-04-16T00:04:24.172Z</time>
      </trkpt>
      <trkpt lat="44.72152" lon="3.74095">
        <ele>1063.43</ele>
        <time>2025-04-16T00:04:39.027Z</time>
      </trkpt>
      <trkpt lat="44.72135" lon="3.74085">
        <ele>1063.53</ele>
        <time>2025-04-16T00:04:53.885Z</time>
      </trkpt>
      <trkpt lat="44.72117" lon="3.74074">
        <ele>1063.67</ele>
        <time>2025-04-16T00:05:08.746Z</time>
      </trkpt>
      <trkpt lat="44.72087" lon="3.74067">
        <ele>1063.75</ele>
        <time>2025-04-16T00:05:23.612Z</time>
      </trkpt>
      <trkpt lat="44.72071" lon="3.74065">
        <ele>1063.85</ele>
        <time>2025-04-16T00:05:38.480Z</time>
      </trkpt>
      <trkpt lat="44.72055" lon="3.74063">
        <ele>1063.98</ele>
        <time>2025-04-16T00:05:53.351Z</time>
      </trkpt>
      <trkpt lat="44.72036" lon="3.74064">
        <ele>1064.14</ele>
        <time>2025-04-16T00:06:08.225Z</time>
      </trkpt>
      <trkpt lat="44.72016" lon="3.7407">
        <ele>1064.24</ele>
        <time>2025-04-16T00:06:23.102Z</time>
      </trkpt>
      <trkpt lat="44.7199" lon="3.74078">
        <ele>1064.33</ele>
        <time>2025-04-16T00:06:37.983Z</time>
      </trkpt>
      <trkpt lat="44.71967" lon="3.74087">
        <ele>1064.41</ele>
        <time>2025-04-16T00:06:52.868Z</time>
      </trkpt>
      <trkpt lat="44.71945" lon="3.74097">
        <ele>1064.53</ele>
        <time>2025-04-16T00:07:07.757Z</time>
      </trkpt>
      <trkpt lat="44.71922" lon="3.74106">
        <ele>1064.65</ele>
        <time>2025-04-16T00:07:22.650Z</time>
      </trkpt>
      <trkpt lat="44.71908" lon="3.7411">
        <ele>1064.79</ele>
        <time>2025-04-16T00:07:37.545Z</time>
      </trkpt>
      <trkpt lat="44.71895" lon="3.74107">
        <ele>1064.96</ele>
        <time>2025-04-16T00:07:52.442Z</time>
      </trkpt>
      <trkpt lat="44.71886" lon="3.74102">
        <ele>1065.14</ele>
        <time>2025-04-16T00:08:07.341Z</time>
      </trkpt>
      <trkpt lat="44.71881" lon="3.74094">
        <ele>1065.33</ele>
        <time>2025-04-16T00:08:22.241Z</time>
      </trkpt>
      <trkpt lat="44.71866" lon="3.74064">
        <ele>1065.56</ele>
        <time>2025-04-16T00:08:37.145Z</time>
      </trkpt>
      <trkpt lat="44.71851" lon="3.74034">
        <ele>1065.82</ele>
        <time>2025-04-16T00:08:52.053Z</time>
      </trkpt>
      <trkpt lat="44.71845" lon="3.74027">
        <ele>1066.05</ele>
        <time>2025-04-16T00:09:06.962Z</time>
      </trkpt>
      <trkpt lat="44.71839" lon="3.74024">
        <ele>1066.27</ele>
        <time>2025-04-16T00:09:21.872Z</time>
      </trkpt>
      <trkpt lat="44.71825" lon="3.74027">
        <ele>1066.52</ele>
        <time>2025-04-16T00:09:36.785Z</time>
      </trkpt>
      <trkpt lat="44.71798" lon="3.74038">
        <ele>1066.72</ele>
        <time>2025-04-16T00:09:51.702Z</time>
      </trkpt>
      <trkpt lat="44.71774" lon="3.74051">
        <ele>1066.94</ele>
        <time>2025-04-16T00:10:06.623Z</time>
      </trkpt>
      <trkpt lat="44.71749" lon="3.74063">
        <ele>1067.2</ele>
        <time>2025-04-16T00:10:21.549Z</time>
      </trkpt>
      <trkpt lat="44.71724" lon="3.74076">
        <ele>1067.48</ele>
        <time>2025-04-16T00:10:36.479Z</time>
      </trkpt>
      <trkpt lat="44.71703" lon="3.7409">
        <ele>1067.69</ele>
        <time>2025-04-16T00:10:51.413Z</time>
      </trkpt>
      <trkpt lat="44.71679" lon="3.74119">
        <ele>1067.85</ele>
        <time>2025-04-16T00:11:06.352Z</time>
      </trkpt>
      <trkpt lat="44.71668" lon="3.74136">
        <ele>1068.05</ele>
        <time>2025-04-16T00:11:21.293Z</time>
      </trkpt>
      <trkpt lat="44.71657" lon="3.74162">
        <ele>1068.28</ele>
        <time>2025-04-16T00:11:36.238Z</time>
      </trkpt>
      <trkpt lat="44.71645" lon="3.74188">
        <ele>1068.51</ele>
        <time>2025-04-16T00:11:51.186Z</time>
      </trkpt>
      <trkpt lat="44.71634" lon="3.74214">
        <ele>1068.72</ele>
        <time>2025-04-16T00:12:06.138Z</time>
      </trkpt>
      <trkpt lat="44.71624" lon="3.74234">
        <ele>1068.94</ele>
        <time>2025-04-16T00:12:21.092Z</time>
      </trkpt>
      <trkpt lat="44.71615" lon="3.74253">
        <ele>1069.1</ele>
        <time>2025-04-16T00:12:36.049Z</time>
      </trkpt>
      <trkpt lat="44.71601" lon="3.74274">
        <ele>1069.3</ele>
        <time>2025-04-16T00:12:51.009Z</time>
      </trkpt>
      <trkpt lat="44.71588" lon="3.74296">
        <ele>1069.42</ele>
        <time>2025-04-16T00:13:05.973Z</time>
      </trkpt>
      <trkpt lat="44.7157" lon="3.74321">
        <ele>1069.62</ele>
        <time>2025-04-16T00:13:20.941Z</time>
      </trkpt>
      <trkpt lat="44.71555" lon="3.74336">
        <ele>1069.82</ele>
        <time>2025-04-16T00:13:35.912Z</time>
      </trkpt>
      <trkpt lat="44.71534" lon="3.74351">
        <ele>1070.08</ele>
        <time>2025-04-16T00:13:50.886Z</time>
      </trkpt>
      <trkpt lat="44.7153" lon="3.74354">
        <ele>1070.22</ele>
        <time>2025-04-16T00:14:05.861Z</time>
      </trkpt>
      <trkpt lat="44.71502" lon="3.74373">
        <ele>1070.23</ele>
        <time>2025-04-16T00:14:20.841Z</time>
      </trkpt>
      <trkpt lat="44.71492" lon="3.74378">
        <ele>1070.27</ele>
        <time>2025-04-16T00:14:35.823Z</time>
      </trkpt>
      <trkpt lat="44.71483" lon="3.74378">
        <ele>1070.36</ele>
        <time>2025-04-16T00:14:50.806Z</time>
      </trkpt>
      <trkpt lat="44.7147" lon="3.74372">
        <ele>1070.48</ele>
        <time>2025-04-16T00:15:05.791Z</time>
      </trkpt>
      <trkpt lat="44.71461" lon="3.7436">
        <ele>1070.62</ele>
        <time>2025-04-16T00:15:20.778Z</time>
      </trkpt>
      <trkpt lat="44.71452" lon="3.74341">
        <ele>1070.81</ele>
        <time>2025-04-16T00:15:35.768Z</time>
      </trkpt>
      <trkpt lat="44.71446" lon="3.7433">
        <ele>1070.95</ele>
        <time>2025-04-16T00:15:50.760Z</time>
      </trkpt>
      <trkpt lat="44.71441" lon="3.74319">
        <ele>1071.09</ele>
        <time>2025-04-16T00:16:05.753Z</time>
      </trkpt>
      <trkpt lat="44.71424" lon="3.74301">
        <ele>1071.17</ele>
        <time>2025-04-16T00:16:20.750Z</time>
      </trkpt>
      <trkpt lat="44.71398" lon="3.7428">
        <ele>1071.21</ele>
        <time>2025-04-16T00:16:35.751Z</time>
      </trkpt>
      <trkpt lat="44.71371" lon="3.74259">
        <ele>1071.25</ele>
        <time>2025-04-16T00:16:50.757Z</time>
      </trkpt>
      <trkpt lat="44.71356" lon="3.74243">
        <ele>1071.29</ele>
        <time>2025-04-16T00:17:05.766Z</time>
      </trkpt>
      <trkpt lat="44.71349" lon="3.74233">
        <ele>1071.34</ele>
        <time>2025-04-16T00:17:20.777Z</time>
      </trkpt>
      <trkpt lat="44.71344" lon="3.74216">
        <ele>1071.42</ele>
        <time>2025-04-16T00:17:35.790Z</time>
      </trkpt>
      <trkpt lat="44.71342" lon="3.7418">
        <ele>1071.56</ele>
        <time>2025-04-16T00:17:50.807Z</time>
      </trkpt>
      <trkpt lat="44.71339" lon="3.74145">
        <ele>1071.68</ele>
        <time>2025-04-16T00:18:05.828Z</time>
      </trkpt>
      <trkpt lat="44.71335" lon="3.74119">
        <ele>1071.76</ele>
        <time>2025-04-16T00:18:20.852Z</time>
      </trkpt>
      <trkpt lat="44.71327" lon="3.74095">
        <ele>1071.77</ele>
        <time>2025-04-16T00:18:35.879Z</time>
      </trkpt>
      <trkpt lat="44.71315" lon="3.74073">
        <ele>1071.74</ele>
        <time>2025-04-16T00:18:50.909Z</time>
      </trkpt>
      <trkpt lat="44.71296" lon="3.7404">
        <ele>1071.73</ele>
        <time>2025-04-16T00:19:05.944Z</time>
      </trkpt>
      <trkpt lat="44.71276" lon="3.74008">
        <ele>1071.76</ele>
        <time>2025-04-16T00:19:20.984Z</time>
      </trkpt>
      <trkpt lat="44.71261" lon="3.73983">
        <ele>1071.75</ele>
        <time>2025-04-16T00:19:36.028Z</time>
      </trkpt>
      <trkpt lat="44.71247" lon="3.73957">
        <ele>1071.77</ele>
        <time>2025-04-16T00:19:51.075Z</time>
      </trkpt>
      <trkpt lat="44.71233" lon="3.73931">
        <ele>1071.84</ele>
        <time>2025-04-16T00:20:06.126Z</time>
      </trkpt>
      <trkpt lat="44.71222" lon="3.73921">
        <ele>1071.89</ele>
        <time>2025-04-16T00:20:21.179Z</time>
      </trkpt>
      <trkpt lat="44.71211" lon="3.73917">
        <ele>1071.93</ele>
        <time>2025-04-16T00:20:36.234Z</time>
      </trkpt>
      <trkpt lat="44.71181" lon="3.73917">
        <ele>1071.93</ele>
        <time>2025-04-16T00:20:51.294Z</time>
      </trkpt>
      <trkpt lat="44.71151" lon="3.73916">
        <ele>1071.9</ele>
        <time>2025-04-16T00:21:06.359Z</time>
      </trkpt>
      <trkpt lat="44.7112" lon="3.73916">
        <ele>1071.84</ele>
        <time>2025-04-16T00:21:21.429Z</time>
      </trkpt>
      <trkpt lat="44.71107" lon="3.73912">
        <ele>1071.83</ele>
        <time>2025-04-16T00:21:36.501Z</time>
      </trkpt>
      <trkpt lat="44.71092" lon="3.73904">
        <ele>1071.85</ele>
        <time>2025-04-16T00:21:51.575Z</time>
      </trkpt>
      <trkpt lat="44.71076" lon="3.73896">
        <ele>1071.9</ele>
        <time>2025-04-16T00:22:06.652Z</time>
      </trkpt>
      <trkpt lat="44.71067" lon="3.73895">
        <ele>1071.95</ele>
        <time>2025-04-16T00:22:21.731Z</time>
      </trkpt>
      <trkpt lat="44.71043" lon="3.73903">
        <ele>1072.05</ele>
        <time>2025-04-16T00:22:36.813Z</time>
      </trkpt>
      <trkpt lat="44.71031" lon="3.73912">
        <ele>1072.12</ele>
        <time>2025-04-16T00:22:51.898Z</time>
      </trkpt>
      <trkpt lat="44.71018" lon="3.73925">
        <ele>1072.19</ele>
        <time>2025-04-16T00:23:06.985Z</time>
      </trkpt>
      <trkpt lat="44.70996" lon="3.73955">
        <ele>1072.22</ele>
        <time>2025-04-16T00:23:22.077Z</time>
      </trkpt>
      <trkpt lat="44.70975" lon="3.73985">
        <ele>1072.25</ele>
        <time>2025-04-16T00:23:37.174Z</time>
      </trkpt>
      <trkpt lat="44.70954" lon="3.74016">
        <ele>1072.29</ele>
        <time>2025-04-16T00:23:52.276Z</time>
      </trkpt>
      <trkpt lat="44.70943" lon="3.74038">
        <ele>1072.33</ele>
        <time>2025-04-16T00:24:07.381Z</time>
      </trkpt>
      <trkpt lat="44.70937" lon="3.74066">
        <ele>1072.37</ele>
        <time>2025-04-16T00:24:22.489Z</time>
      </trkpt>
      <trkpt lat="44.7093" lon="3.741">
        <ele>1072.46</ele>
        <time>2025-04-16T00:24:37.601Z</time>
      </trkpt>
      <trkpt lat="44.70923" lon="3.74134">
        <ele>1072.58</ele>
        <time>2025-04-16T00:24:52.717Z</time>
      </trkpt>
      <trkpt lat="44.70918" lon="3.74144">
        <ele>1072.67</ele>
        <time>2025-04-16T00:25:07.835Z</time>
      </trkpt>
      <trkpt lat="44.70906" lon="3.74169">
        <ele>1072.77</ele>
        <time>2025-04-16T00:25:22.956Z</time>
      </trkpt>
      <trkpt lat="44.70882" lon="3.74195">
        <ele>1072.85</ele>
        <time>2025-04-16T00:25:38.082Z</time>
      </trkpt>
      <trkpt lat="44.70869" lon="3.74201">
        <ele>1072.95</ele>
        <time>2025-04-16T00:25:53.210Z</time>
      </trkpt>
      <trkpt lat="44.70853" lon="3.74201">
        <ele>1073.12</ele>
        <time>2025-04-16T00:26:08.341Z</time>
      </trkpt>
      <trkpt lat="44.70837" lon="3.74199">
        <ele>1073.3</ele>
        <time>2025-04-16T00:26:23.474Z</time>
      </trkpt>
      <trkpt lat="44.70837" lon="3.74199">
        <ele>1073.48</ele>
        <time>2025-04-16T00:26:38.607Z</time>
      </trkpt>
      <trkpt lat="44.70817" lon="3.74192">
        <ele>1073.65</ele>
        <time>2025-04-16T00:26:53.744Z</time>
      </trkpt>
      <trkpt lat="44.708" lon="3.74181">
        <ele>1073.86</ele>
        <time>2025-04-16T00:27:08.883Z</time>
      </trkpt>
      <trkpt lat="44.70784" lon="3.74165">
        <ele>1074.1</ele>
        <time>2025-04-16T00:27:24.026Z</time>
      </trkpt>
      <trkpt lat="44.70763" lon="3.7414">
        <ele>1074.39</ele>
        <time>2025-04-16T00:27:39.173Z</time>
      </trkpt>
      <trkpt lat="44.70742" lon="3.74115">
        <ele>1074.67</ele>
        <time>2025-04-16T00:27:54.325Z</time>
      </trkpt>
      <trkpt lat="44.70721" lon="3.74089">
        <ele>1074.97</ele>
        <time>2025-04-16T00:28:09.481Z</time>
      </trkpt>
      <trkpt lat="44.707" lon="3.74064">
        <ele>1075.34</ele>
        <time>2025-04-16T00:28:24.641Z</time>
      </trkpt>
      <trkpt lat="44.70679" lon="3.74039">
        <ele>1075.7</ele>
        <time>2025-04-16T00:28:39.806Z</time>
      </trkpt>
      <trkpt lat="44.70658" lon="3.74014">
        <ele>1076.04</ele>
        <time>2025-04-16T00:28:54.975Z</time>
      </trkpt>
      <trkpt lat="44.70637" lon="3.73988">
        <ele>1076.34</ele>
        <time>2025-04-16T00:29:10.149Z</time>
      </trkpt>
      <trkpt lat="44.70616" lon="3.73963">
        <ele>1076.61</ele>
        <time>2025-04-16T00:29:25.327Z</time>
      </trkpt>
      <trkpt lat="44.70598" lon="3.73942">
        <ele>1076.96</ele>
        <time>2025-04-16T00:29:40.509Z</time>
      </trkpt>
      <trkpt lat="44.70579" lon="3.73921">
        <ele>1077.34</ele>
        <time>2025-04-16T00:29:55.695Z</time>
      </trkpt>
      <trkpt lat="44.70561" lon="3.739">
        <ele>1077.71</ele>
        <time>2025-04-16T00:30:10.884Z</time>
      </trkpt>
      <trkpt lat="44.70543" lon="3.73879">
        <ele>1078.07</ele>
        <time>2025-04-16T00:30:26.077Z</time>
      </trkpt>
      <trkpt lat="44.70526" lon="3.73866">
        <ele>1078.44</ele>
        <time>2025-04-16T00:30:41.273Z</time>
      </trkpt>
      <trkpt lat="44.70513" lon="3.7386">
        <ele>1078.82</ele>
        <time>2025-04-16T00:30:56.472Z</time>
      </trkpt>
      <trkpt lat="44.70502" lon="3.73861">
        <ele>1079.23</ele>
        <time>2025-04-16T00:31:11.672Z</time>
      </trkpt>
      <trkpt lat="44.70476" lon="3.73873">
        <ele>1079.71</ele>
        <time>2025-04-16T00:31:26.877Z</time>
      </trkpt>
      <trkpt lat="44.7045" lon="3.73884">
        <ele>1080.29</ele>
        <time>2025-04-16T00:31:42.086Z</time>
      </trkpt>
      <trkpt lat="44.70424" lon="3.73895">
        <ele>1080.9</ele>
        <time>2025-04-16T00:31:57.299Z</time>
      </trkpt>
      <trkpt lat="44.70398" lon="3.73907">
        <ele>1081.46</ele>
        <time>2025-04-16T00:32:12.517Z</time>
      </trkpt>
      <trkpt lat="44.70371" lon="3.73918">
        <ele>1081.91</ele>
        <time>2025-04-16T00:32:27.739Z</time>
      </trkpt>
      <trkpt lat="44.70349" lon="3.73929">
        <ele>1082.3</ele>
        <time>2025-04-16T00:32:42.965Z</time>
      </trkpt>
      <trkpt lat="44.70326" lon="3.7394">
        <ele>1082.78</ele>
        <time>2025-04-16T00:32:58.195Z</time>
      </trkpt>
      <trkpt lat="44.70303" lon="3.73957">
        <ele>1083.27</ele>
        <time>2025-04-16T00:33:13.429Z</time>
      </trkpt>
      <trkpt lat="44.70281" lon="3.73977">
        <ele>1083.78</ele>
        <time>2025-04-16T00:33:28.667Z</time>
      </trkpt>
      <trkpt lat="44.70258" lon="3.73996">
        <ele>1084.25</ele>
        <time>2025-04-16T00:33:43.909Z</time>
      </trkpt>
      <trkpt lat="44.70236" lon="3.74016">
        <ele>1084.69</ele>
        <time>2025-04-16T00:33:59.156Z</time>
      </trkpt>
      <trkpt lat="44.70214" lon="3.74036">
        <ele>1085.06</ele>
        <time>2025-04-16T00:34:14.407Z</time>
      </trkpt>
      <trkpt lat="44.70192" lon="3.74056">
        <ele>1085.43</ele>
        <time>2025-04-16T00:34:29.662Z</time>
      </trkpt>
      <trkpt lat="44.70186" lon="3.7405">
        <ele>1085.91</ele>
        <time>2025-04-16T00:34:44.918Z</time>
      </trkpt>
      <trkpt lat="44.70159" lon="3.74052">
        <ele>1086.48</ele>
        <time>2025-04-16T00:35:00.179Z</time>
      </trkpt>
      <trkpt lat="44.7014" lon="3.74061">
        <ele>1087.01</ele>
        <time>2025-04-16T00:35:15.443Z</time>
      </trkpt>
      <trkpt lat="44.70115" lon="3.74069">
        <ele>1087.56</ele>
        <time>2025-04-16T00:35:30.711Z</time>
      </trkpt>
      <trkpt lat="44.7009" lon="3.74078">
        <ele>1087.97</ele>
        <time>2025-04-16T00:35:45.983Z</time>
      </trkpt>
      <trkpt lat="44.70067" lon="3.7409">
        <ele>1088.27</ele>
        <time>2025-04-16T00:36:01.259Z</time>
      </trkpt>
      <trkpt lat="44.70041" lon="3.74104">
        <ele>1088.54</ele>
        <time>2025-04-16T00:36:16.539Z</time>
      </trkpt>
      <trkpt lat="44.70016" lon="3.74119">
        <ele>1088.78</ele>
        <time>2025-04-16T00:36:31.824Z</time>
      </trkpt>
      <trkpt lat="44.69997" lon="3.74132">
        <ele>1088.88</ele>
        <time>2025-04-16T00:36:47.112Z</time>
      </trkpt>
      <trkpt lat="44.69978" lon="3.74146">
        <ele>1088.96</ele>
        <time>2025-04-16T00:37:02.404Z</time>
      </trkpt>
      <trkpt lat="44.69979" lon="3.7415">
        <ele>1089.09</ele>
        <time>2025-04-16T00:37:17.696Z</time>
      </trkpt>
      <trkpt lat="44.69974" lon="3.74155">
        <ele>1089.17</ele>
        <time>2025-04-16T00:37:32.989Z</time>
      </trkpt>
      <trkpt lat="44.69957" lon="3.74166">
        <ele>1089.2</ele>
        <time>2025-04-16T00:37:48.285Z</time>
      </trkpt>
      <trkpt lat="44.69939" lon="3.74176">
        <ele>1089.21</ele>
        <time>2025-04-16T00:38:03.584Z</time>
      </trkpt>
      <trkpt lat="44.69937" lon="3.74174">
        <ele>1089.27</ele>
        <time>2025-04-16T00:38:18.884Z</time>
      </trkpt>
      <trkpt lat="44.69935" lon="3.74149">
        <ele>1089.31</ele>
        <time>2025-04-16T00:38:34.186Z</time>
      </trkpt>
      <trkpt lat="44.6993" lon="3.74136">
        <ele>1089.33</ele>
        <time>2025-04-16T00:38:49.490Z</time>
      </trkpt>
      <trkpt lat="44.69927" lon="3.74127">
        <ele>1089.33</ele>
        <time>2025-04-16T00:39:04.795Z</time>
      </trkpt>
      <trkpt lat="44.69912" lon="3.74107">
        <ele>1089.23</ele>
        <time>2025-04-16T00:39:20.103Z</time>
      </trkpt>
      <trkpt lat="44.69911" lon="3.74104">
        <ele>1089.22</ele>
        <time>2025-04-16T00:39:35.412Z</time>
      </trkpt>
      <trkpt lat="44.69908" lon="3.74089">
        <ele>1089.19</ele>
        <time>2025-04-16T00:39:50.723Z</time>
      </trkpt>
      <trkpt lat="44.699" lon="3.7407">
        <ele>1089.15</ele>
        <time>2025-04-16T00:40:06.036Z</time>
      </trkpt>
      <trkpt lat="44.69897" lon="3.74046">
        <ele>1089.15</ele>
        <time>2025-04-16T00:40:21.352Z</time>
      </trkpt>
      <trkpt lat="44.69893" lon="3.7403">
        <ele>1089.12</ele>
        <time>2025-04-16T00:40:36.670Z</time>
      </trkpt>
      <trkpt lat="44.69886" lon="3.74015">
        <ele>1089.08</ele>
        <time>2025-04-16T00:40:51.990Z</time>
      </trkpt>
      <trkpt lat="44.69875" lon="3.73999">
        <ele>1089.01</ele>
        <time>2025-04-16T00:41:07.312Z</time>
      </trkpt>
      <trkpt lat="44.69854" lon="3.73977">
        <ele>1088.96</ele>
        <time>2025-04-16T00:41:22.639Z</time>
      </trkpt>
      <trkpt lat="44.69833" lon="3.73956">
        <ele>1088.95</ele>
        <time>2025-04-16T00:41:37.970Z</time>
      </trkpt>
      <trkpt lat="44.69807" lon="3.73935">
        <ele>1088.96</ele>
        <time>2025-04-16T00:41:53.305Z</time>
      </trkpt>
      <trkpt lat="44.69789" lon="3.73928">
        <ele>1088.93</ele>
        <time>2025-04-16T00:42:08.644Z</time>
      </trkpt>
      <trkpt lat="44.6977" lon="3.7392">
        <ele>1088.89</ele>
        <time>2025-04-16T00:42:23.986Z</time>
      </trkpt>
      <trkpt lat="44.69745" lon="3.73917">
        <ele>1088.82</ele>
        <time>2025-04-16T00:42:39.332Z</time>
      </trkpt>
      <trkpt lat="44.69723" lon="3.7392">
        <ele>1088.76</ele>
        <time>2025-04-16T00:42:54.681Z</time>
      </trkpt>
      <trkpt lat="44.69704" lon="3.73929">
        <ele>1088.72</ele>
        <time>2025-04-16T00:43:10.033Z</time>
      </trkpt>
      <trkpt lat="44.69677" lon="3.73947">
        <ele>1088.74</ele>
        <time>2025-04-16T00:43:25.390Z</time>
      </trkpt>
      <trkpt lat="44.69653" lon="3.73966">
        <ele>1088.67</ele>
        <time>2025-04-16T00:43:40.752Z</time>
      </trkpt>
      <trkpt lat="44.69629" lon="3.73986">
        <ele>1088.63</ele>
        <time>2025-04-16T00:43:56.118Z</time>
      </trkpt>
      <trkpt lat="44.69608" lon="3.74001">
        <ele>1088.63</ele>
        <time>2025-04-16T00:44:11.488Z</time>
      </trkpt>
      <trkpt lat="44.69586" lon="3.74016">
        <ele>1088.52</ele>
        <time>2025-04-16T00:44:26.862Z</time>
      </trkpt>
      <trkpt lat="44.69586" lon="3.74015">
        <ele>1088.45</ele>
        <time>2025-04-16T00:44:42.236Z</time>
      </trkpt>
      <trkpt lat="44.69586" lon="3.74015">
        <ele>1088.36</ele>
        <time>2025-04-16T00:44:57.610Z</time>
      </trkpt>
      <trkpt lat="44.69586" lon="3.74015">
        <ele>1088.27</ele>
        <time>2025-04-16T00:45:12.984Z</time>
      </trkpt>
      <trkpt lat="44.69586" lon="3.74015">
        <ele>1088.17</ele>
        <time>2025-04-16T00:45:28.358Z</time>
      </trkpt>
      <trkpt lat="44.69586" lon="3.74015">
        <ele>1088.07</ele>
        <time>2025-04-16T00:45:43.732Z</time>
      </trkpt>
      <trkpt lat="44.69586" lon="3.74016">
        <ele>1088.52</ele>
        <time>2025-04-16T00:45:59.106Z</time>
      </trkpt>
      <trkpt lat="44.69562" lon="3.74033">
        <ele>1087.73</ele>
        <time>2025-04-16T00:46:14.484Z</time>
      </trkpt>
      <trkpt lat="44.69546" lon="3.74041">
        <ele>1087.58</ele>
        <time>2025-04-16T00:46:29.865Z</time>
      </trkpt>
      <trkpt lat="44.6953" lon="3.74043">
        <ele>1087.46</ele>
        <time>2025-04-16T00:46:45.249Z</time>
      </trkpt>
      <trkpt lat="44.69511" lon="3.74039">
        <ele>1087.32</ele>
        <time>2025-04-16T00:47:00.636Z</time>
      </trkpt>
      <trkpt lat="44.69498" lon="3.74035">
        <ele>1087.21</ele>
        <time>2025-04-16T00:47:16.025Z</time>
      </trkpt>
      <trkpt lat="44.69485" lon="3.74027">
        <ele>1087.09</ele>
        <time>2025-04-16T00:47:31.416Z</time>
      </trkpt>
      <trkpt lat="44.69475" lon="3.74014">
        <ele>1087.01</ele>
        <time>2025-04-16T00:47:46.809Z</time>
      </trkpt>
      <trkpt lat="44.69458" lon="3.73987">
        <ele>1086.93</ele>
        <time>2025-04-16T00:48:02.206Z</time>
      </trkpt>
      <trkpt lat="44.69441" lon="3.73961">
        <ele>1086.85</ele>
        <time>2025-04-16T00:48:17.607Z</time>
      </trkpt>
      <trkpt lat="44.69424" lon="3.73939">
        <ele>1086.75</ele>
        <time>2025-04-16T00:48:33.012Z</time>
      </trkpt>
      <trkpt lat="44.69407" lon="3.73917">
        <ele>1086.64</ele>
        <time>2025-04-16T00:48:48.421Z</time>
      </trkpt>
      <trkpt lat="44.69391" lon="3.73896">
        <ele>1086.53</ele>
        <time>2025-04-16T00:49:03.833Z</time>
      </trkpt>
      <trkpt lat="44.69373" lon="3.73878">
        <ele>1086.46</ele>
        <time>2025-04-16T00:49:19.249Z</time>
      </trkpt>
      <trkpt lat="44.69355" lon="3.7386">
        <ele>1086.39</ele>
        <time>2025-04-16T00:49:34.668Z</time>
      </trkpt>
      <trkpt lat="44.69332" lon="3.73844">
        <ele>1086.29</ele>
        <time>2025-04-16T00:49:50.091Z</time>
      </trkpt>
      <trkpt lat="44.6933" lon="3.73842">
        <ele>1086.2</ele>
        <time>2025-04-16T00:50:05.515Z</time>
      </trkpt>
      <trkpt lat="44.69309" lon="3.73831">
        <ele>1086.12</ele>
        <time>2025-04-16T00:50:20.942Z</time>
      </trkpt>
      <trkpt lat="44.69289" lon="3.73828">
        <ele>1086.03</ele>
        <time>2025-04-16T00:50:36.373Z</time>
      </trkpt>
      <trkpt lat="44.69269" lon="3.73824">
        <ele>1085.92</ele>
        <time>2025-04-16T00:50:51.807Z</time>
      </trkpt>
      <trkpt lat="44.69245" lon="3.73816">
        <ele>1085.77</ele>
        <time>2025-04-16T00:51:07.245Z</time>
      </trkpt>
      <trkpt lat="44.69235" lon="3.73808">
        <ele>1085.69</ele>
        <time>2025-04-16T00:51:22.685Z</time>
      </trkpt>
      <trkpt lat="44.69225" lon="3.73796">
        <ele>1085.63</ele>
        <time>2025-04-16T00:51:38.127Z</time>
      </trkpt>
      <trkpt lat="44.69214" lon="3.73769">
        <ele>1085.64</ele>
        <time>2025-04-16T00:51:53.572Z</time>
      </trkpt>
      <trkpt lat="44.69202" lon="3.73741">
        <ele>1085.62</ele>
        <time>2025-04-16T00:52:09.021Z</time>
      </trkpt>
      <trkpt lat="44.6919" lon="3.73714">
        <ele>1085.62</ele>
        <time>2025-04-16T00:52:24.474Z</time>
      </trkpt>
      <trkpt lat="44.69178" lon="3.73696">
        <ele>1085.6</ele>
        <time>2025-04-16T00:52:39.929Z</time>
      </trkpt>
      <trkpt lat="44.69165" lon="3.73678">
        <ele>1085.57</ele>
        <time>2025-04-16T00:52:55.387Z</time>
      </trkpt>
      <trkpt lat="44.6915" lon="3.73668">
        <ele>1085.49</ele>
        <time>2025-04-16T00:53:10.848Z</time>
      </trkpt>
      <trkpt lat="44.69135" lon="3.73658">
        <ele>1085.43</ele>
        <time>2025-04-16T00:53:26.312Z</time>
      </trkpt>
      <trkpt lat="44.69121" lon="3.73646">
        <ele>1085.38</ele>
        <time>2025-04-16T00:53:41.778Z</time>
      </trkpt>
      <trkpt lat="44.69113" lon="3.73635">
        <ele>1085.36</ele>
        <time>2025-04-16T00:53:57.246Z</time>
      </trkpt>
      <trkpt lat="44.69103" lon="3.7362">
        <ele>1085.36</ele>
        <time>2025-04-16T00:54:12.716Z</time>
      </trkpt>
      <trkpt lat="44.69091" lon="3.73589">
        <ele>1085.4</ele>
        <time>2025-04-16T00:54:28.190Z</time>
      </trkpt>
      <trkpt lat="44.6908" lon="3.73559">
        <ele>1085.45</ele>
        <time>2025-04-16T00:54:43.668Z</time>
      </trkpt>
      <trkpt lat="44.69073" lon="3.73534">
        <ele>1085.54</ele>
        <time>2025-04-16T00:54:59.149Z</time>
      </trkpt>
      <trkpt lat="44.69066" lon="3.73509">
        <ele>1085.54</ele>
        <time>2025-04-16T00:55:14.633Z</time>
      </trkpt>
      <trkpt lat="44.69065" lon="3.73501">
        <ele>1085.6</ele>
        <time>2025-04-16T00:55:30.118Z</time>
      </trkpt>
      <trkpt lat="44.6906" lon="3.73473">
        <ele>1085.64</ele>
        <time>2025-04-16T00:55:45.607Z</time>
      </trkpt>
      <trkpt lat="44.69055" lon="3.73445">
        <ele>1085.68</ele>
        <time>2025-04-16T00:56:01.099Z</time>
      </trkpt>
      <trkpt lat="44.69052" lon="3.73415">
        <ele>1085.75</ele>
        <time>2025-04-16T00:56:16.595Z</time>
      </trkpt>
      <trkpt lat="44.69048" lon="3.73384">
        <ele>1085.85</ele>
        <time>2025-04-16T00:56:32.094Z</time>
      </trkpt>
      <trkpt lat="44.69045" lon="3.73354">
        <ele>1085.97</ele>
        <time>2025-04-16T00:56:47.597Z</time>
      </trkpt>
      <trkpt lat="44.69044" lon="3.73328">
        <ele>1086.07</ele>
        <time>2025-04-16T00:57:03.103Z</time>
      </trkpt>
      <trkpt lat="44.69043" lon="3.73301">
        <ele>1086.16</ele>
        <time>2025-04-16T00:57:18.612Z</time>
      </trkpt>
      <trkpt lat="44.69044" lon="3.73272">
        <ele>1086.23</ele>
        <time>2025-04-16T00:57:34.124Z</time>
      </trkpt>
      <trkpt lat="44.69044" lon="3.73265">
        <ele>1086.3</ele>
        <time>2025-04-16T00:57:49.637Z</time>
      </trkpt>
      <trkpt lat="44.69048" lon="3.73224">
        <ele>1086.38</ele>
        <time>2025-04-16T00:58:05.154Z</time>
      </trkpt>
      <trkpt lat="44.69052" lon="3.73183">
        <ele>1086.43</ele>
        <time>2025-04-16T00:58:20.676Z</time>
      </trkpt>
      <trkpt lat="44.69057" lon="3.73158">
        <ele>1086.48</ele>
        <time>2025-04-16T00:58:36.201Z</time>
      </trkpt>
      <trkpt lat="44.69064" lon="3.73132">
        <ele>1086.55</ele>
        <time>2025-04-16T00:58:51.729Z</time>
      </trkpt>
      <trkpt lat="44.69071" lon="3.73106">
        <ele>1086.61</ele>
        <time>2025-04-16T00:59:07.260Z</time>
      </trkpt>
      <trkpt lat="44.69084" lon="3.73068">
        <ele>1086.69</ele>
        <time>2025-04-16T00:59:22.796Z</time>
      </trkpt>
      <trkpt lat="44.69097" lon="3.73031">
        <ele>1086.76</ele>
        <time>2025-04-16T00:59:38.337Z</time>
      </trkpt>
      <trkpt lat="44.69111" lon="3.72993">
        <ele>1086.84</ele>
        <time>2025-04-16T00:59:53.883Z</time>
      </trkpt>
      <trkpt lat="44.6912" lon="3.72977">
        <ele>1086.89</ele>
        <time>2025-04-16T01:00:09.431Z</time>
      </trkpt>
      <trkpt lat="44.69134" lon="3.72958">
        <ele>1086.93</ele>
        <time>2025-04-16T01:00:24.982Z</time>
      </trkpt>
      <trkpt lat="44.69155" lon="3.72933">
        <ele>1087.03</ele>
        <time>2025-04-16T01:00:40.538Z</time>
      </trkpt>
      <trkpt lat="44.69166" lon="3.72923">
        <ele>1087.12</ele>
        <time>2025-04-16T01:00:56.096Z</time>
      </trkpt>
      <trkpt lat="44.69166" lon="3.72923">
        <ele>1087.16</ele>
        <time>2025-04-16T01:01:11.654Z</time>
      </trkpt>
      <trkpt lat="44.69192" lon="3.72905">
        <ele>1087.26</ele>
        <time>2025-04-16T01:01:27.216Z</time>
      </trkpt>
      <trkpt lat="44.69218" lon="3.72888">
        <ele>1087.27</ele>
        <time>2025-04-16T01:01:42.783Z</time>
      </trkpt>
      <trkpt lat="44.69241" lon="3.72865">
        <ele>1087.26</ele>
        <time>2025-04-16T01:01:58.355Z</time>
      </trkpt>
      <trkpt lat="44.69264" lon="3.72841">
        <ele>1087.26</ele>
        <time>2025-04-16T01:02:13.931Z</time>
      </trkpt>
      <trkpt lat="44.69264" lon="3.72841">
        <ele>1087.29</ele>
        <time>2025-04-16T01:02:29.507Z</time>
      </trkpt>
      <trkpt lat="44.69287" lon="3.72812">
        <ele>1087.32</ele>
        <time>2025-04-16T01:02:45.088Z</time>
      </trkpt>
      <trkpt lat="44.6931" lon="3.72784">
        <ele>1087.38</ele>
        <time>2025-04-16T01:03:00.674Z</time>
      </trkpt>
      <trkpt lat="44.69333" lon="3.72755">
        <ele>1087.41</ele>
        <time>2025-04-16T01:03:16.265Z</time>
      </trkpt>
      <trkpt lat="44.69356" lon="3.72727">
        <ele>1087.37</ele>
        <time>2025-04-16T01:03:31.861Z</time>
      </trkpt>
      <trkpt lat="44.69379" lon="3.72698">
        <ele>1087.38</ele>
        <time>2025-04-16T01:03:47.462Z</time>
      </trkpt>
      <trkpt lat="44.69402" lon="3.72669">
        <ele>1087.36</ele>
        <time>2025-04-16T01:04:03.068Z</time>
      </trkpt>
      <trkpt lat="44.69428" lon="3.72645">
        <ele>1087.34</ele>
        <time>2025-04-16T01:04:18.679Z</time>
      </trkpt>
      <trkpt lat="44.69453" lon="3.72621">
        <ele>1087.34</ele>
        <time>2025-04-16T01:04:34.294Z</time>
      </trkpt>
      <trkpt lat="44.69478" lon="3.72596">
        <ele>1087.37</ele>
        <time>2025-04-16T01:04:49.914Z</time>
      </trkpt>
      <trkpt lat="44.69496" lon="3.72565">
        <ele>1087.36</ele>
        <time>2025-04-16T01:05:05.539Z</time>
      </trkpt>
      <trkpt lat="44.69515" lon="3.72534">
        <ele>1087.41</ele>
        <time>2025-04-16T01:05:21.169Z</time>
      </trkpt>
      <trkpt lat="44.69526" lon="3.72505">
        <ele>1087.47</ele>
        <time>2025-04-16T01:05:36.802Z</time>
      </trkpt>
      <trkpt lat="44.69538" lon="3.72476">
        <ele>1087.55</ele>
        <time>2025-04-16T01:05:52.439Z</time>
      </trkpt>
      <trkpt lat="44.69543" lon="3.72436">
        <ele>1087.66</ele>
        <time>2025-04-16T01:06:08.081Z</time>
      </trkpt>
      <trkpt lat="44.69542" lon="3.72396">
        <ele>1087.74</ele>
        <time>2025-04-16T01:06:23.727Z</time>
      </trkpt>
      <trkpt lat="44.6954" lon="3.72363">
        <ele>1087.77</ele>
        <time>2025-04-16T01:06:39.377Z</time>
      </trkpt>
      <trkpt lat="44.69538" lon="3.7233">
        <ele>1087.83</ele>
        <time>2025-04-16T01:06:55.031Z</time>
      </trkpt>
      <trkpt lat="44.69537" lon="3.72297">
        <ele>1087.92</ele>
        <time>2025-04-16T01:07:10.689Z</time>
      </trkpt>
      <trkpt lat="44.69532" lon="3.72269">
        <ele>1088</ele>
        <time>2025-04-16T01:07:26.350Z</time>
      </trkpt>
      <trkpt lat="44.69527" lon="3.72242">
        <ele>1088.1</ele>
        <time>2025-04-16T01:07:42.014Z</time>
      </trkpt>
      <trkpt lat="44.69518" lon="3.72213">
        <ele>1088.2</ele>
        <time>2025-04-16T01:07:57.682Z</time>
      </trkpt>
      <trkpt lat="44.69501" lon="3.72179">
        <ele>1088.31</ele>
        <time>2025-04-16T01:08:13.355Z</time>
      </trkpt>
      <trkpt lat="44.69493" lon="3.72151">
        <ele>1088.46</ele>
        <time>2025-04-16T01:08:29.031Z</time>
      </trkpt>
      <trkpt lat="44.6949" lon="3.72131">
        <ele>1088.58</ele>
        <time>2025-04-16T01:08:44.709Z</time>
      </trkpt>
      <trkpt lat="44.69489" lon="3.72109">
        <ele>1088.73</ele>
        <time>2025-04-16T01:09:00.390Z</time>
      </trkpt>
      <trkpt lat="44.6949" lon="3.7207">
        <ele>1088.87</ele>
        <time>2025-04-16T01:09:16.075Z</time>
      </trkpt>
      <trkpt lat="44.69494" lon="3.72039">
        <ele>1089.02</ele>
        <time>2025-04-16T01:09:31.764Z</time>
      </trkpt>
      <trkpt lat="44.69497" lon="3.72008">
        <ele>1089.19</ele>
        <time>2025-04-16T01:09:47.456Z</time>
      </trkpt>
      <trkpt lat="44.69497" lon="3.72008">
        <ele>1089.35</ele>
        <time>2025-04-16T01:10:03.148Z</time>
      </trkpt>
      <trkpt lat="44.69497" lon="3.71984">
        <ele>1089.53</ele>
        <time>2025-04-16T01:10:18.843Z</time>
      </trkpt>
      <trkpt lat="44.69498" lon="3.7196">
        <ele>1089.72</ele>
        <time>2025-04-16T01:10:34.541Z</time>
      </trkpt>
      <trkpt lat="44.69496" lon="3.71929">
        <ele>1089.94</ele>
        <time>2025-04-16T01:10:50.242Z</time>
      </trkpt>
      <trkpt lat="44.69494" lon="3.71898">
        <ele>1090.18</ele>
        <time>2025-04-16T01:11:05.947Z</time>
      </trkpt>
      <trkpt lat="44.69488" lon="3.71877">
        <ele>1090.38</ele>
        <time>2025-04-16T01:11:21.655Z</time>
      </trkpt>
      <trkpt lat="44.69483" lon="3.71856">
        <ele>1090.57</ele>
        <time>2025-04-16T01:11:37.365Z</time>
      </trkpt>
      <trkpt lat="44.69469" lon="3.7182">
        <ele>1090.75</ele>
        <time>2025-04-16T01:11:53.080Z</time>
      </trkpt>
      <trkpt lat="44.69456" lon="3.71794">
        <ele>1090.95</ele>
        <time>2025-04-16T01:12:08.799Z</time>
      </trkpt>
      <trkpt lat="44.69442" lon="3.71768">
        <ele>1091.15</ele>
        <time>2025-04-16T01:12:24.521Z</time>
      </trkpt>
      <trkpt lat="44.69431" lon="3.71752">
        <ele>1091.36</ele>
        <time>2025-04-16T01:12:40.246Z</time>
      </trkpt>
      <trkpt lat="44.69413" lon="3.7173">
        <ele>1091.58</ele>
        <time>2025-04-16T01:12:55.975Z</time>
      </trkpt>
      <trkpt lat="44.69394" lon="3.71707">
        <ele>1091.87</ele>
        <time>2025-04-16T01:13:11.708Z</time>
      </trkpt>
      <trkpt lat="44.69375" lon="3.71688">
        <ele>1092.14</ele>
        <time>2025-04-16T01:13:27.444Z</time>
      </trkpt>
      <trkpt lat="44.69351" lon="3.71672">
        <ele>1092.42</ele>
        <time>2025-04-16T01:13:43.185Z</time>
      </trkpt>
      <trkpt lat="44.69341" lon="3.71663">
        <ele>1092.7</ele>
        <time>2025-04-16T01:13:58.927Z</time>
      </trkpt>
      <trkpt lat="44.69321" lon="3.71653">
        <ele>1092.98</ele>
        <time>2025-04-16T01:14:14.673Z</time>
      </trkpt>
      <trkpt lat="44.69321" lon="3.71653">
        <ele>1093.24</ele>
        <time>2025-04-16T01:14:30.419Z</time>
      </trkpt>
      <trkpt lat="44.69294" lon="3.71649">
        <ele>1093.53</ele>
        <time>2025-04-16T01:14:46.169Z</time>
      </trkpt>
      <trkpt lat="44.69271" lon="3.71652">
        <ele>1093.77</ele>
        <time>2025-04-16T01:15:01.923Z</time>
      </trkpt>
      <trkpt lat="44.69246" lon="3.7165">
        <ele>1093.99</ele>
        <time>2025-04-16T01:15:17.681Z</time>
      </trkpt>
      <trkpt lat="44.6923" lon="3.71646">
        <ele>1094.22</ele>
        <time>2025-04-16T01:15:33.442Z</time>
      </trkpt>
      <trkpt lat="44.69206" lon="3.71634">
        <ele>1094.48</ele>
        <time>2025-04-16T01:15:49.207Z</time>
      </trkpt>
      <trkpt lat="44.69194" lon="3.71618">
        <ele>1094.78</ele>
        <time>2025-04-16T01:16:04.974Z</time>
      </trkpt>
      <trkpt lat="44.69176" lon="3.71585">
        <ele>1095.08</ele>
        <time>2025-04-16T01:16:20.746Z</time>
      </trkpt>
      <trkpt lat="44.69166" lon="3.71561">
        <ele>1095.41</ele>
        <time>2025-04-16T01:16:36.521Z</time>
      </trkpt>
      <trkpt lat="44.69157" lon="3.71537">
        <ele>1095.71</ele>
        <time>2025-04-16T01:16:52.299Z</time>
      </trkpt>
      <trkpt lat="44.69145" lon="3.71501">
        <ele>1096</ele>
        <time>2025-04-16T01:17:08.082Z</time>
      </trkpt>
      <trkpt lat="44.69142" lon="3.71476">
        <ele>1096.29</ele>
        <time>2025-04-16T01:17:23.868Z</time>
      </trkpt>
      <trkpt lat="44.69139" lon="3.71452">
        <ele>1096.57</ele>
        <time>2025-04-16T01:17:39.656Z</time>
      </trkpt>
      <trkpt lat="44.69137" lon="3.7141">
        <ele>1096.89</ele>
        <time>2025-04-16T01:17:55.449Z</time>
      </trkpt>
      <trkpt lat="44.69135" lon="3.71368">
        <ele>1097.18</ele>
        <time>2025-04-16T01:18:11.247Z</time>
      </trkpt>
      <trkpt lat="44.69133" lon="3.71327">
        <ele>1097.49</ele>
        <time>2025-04-16T01:18:27.050Z</time>
      </trkpt>
      <trkpt lat="44.69132" lon="3.71285">
        <ele>1097.77</ele>
        <time>2025-04-16T01:18:42.858Z</time>
      </trkpt>
      <trkpt lat="44.6913" lon="3.71243">
        <ele>1098.01</ele>
        <time>2025-04-16T01:18:58.670Z</time>
      </trkpt>
      <trkpt lat="44.69128" lon="3.71202">
        <ele>1098.2</ele>
        <time>2025-04-16T01:19:14.487Z</time>
      </trkpt>
      <trkpt lat="44.69127" lon="3.71161">
        <ele>1098.46</ele>
        <time>2025-04-16T01:19:30.309Z</time>
      </trkpt>
      <trkpt lat="44.69123" lon="3.71138">
        <ele>1098.73</ele>
        <time>2025-04-16T01:19:46.133Z</time>
      </trkpt>
      <trkpt lat="44.69119" lon="3.71115">
        <ele>1098.99</ele>
        <time>2025-04-16T01:20:01.960Z</time>
      </trkpt>
      <trkpt lat="44.69113" lon="3.71087">
        <ele>1099.24</ele>
        <time>2025-04-16T01:20:17.790Z</time>
      </trkpt>
      <trkpt lat="44.69107" lon="3.7106">
        <ele>1099.42</ele>
        <time>2025-04-16T01:20:33.624Z</time>
      </trkpt>
      <trkpt lat="44.69098" lon="3.71024">
        <ele>1099.61</ele>
        <time>2025-04-16T01:20:49.462Z</time>
      </trkpt>
      <trkpt lat="44.69089" lon="3.70988">
        <ele>1099.77</ele>
        <time>2025-04-16T01:21:05.304Z</time>
      </trkpt>
      <trkpt lat="44.69074" lon="3.70957">
        <ele>1099.93</ele>
        <time>2025-04-16T01:21:21.151Z</time>
      </trkpt>
      <trkpt lat="44.69059" lon="3.70926">
        <ele>1100.14</ele>
        <time>2025-04-16T01:21:37.002Z</time>
      </trkpt>
      <trkpt lat="44.69039" lon="3.70896">
        <ele>1100.35</ele>
        <time>2025-04-16T01:21:52.858Z</time>
      </trkpt>
      <trkpt lat="44.69019" lon="3.70866">
        <ele>1100.55</ele>
        <time>2025-04-16T01:22:08.718Z</time>
      </trkpt>
      <trkpt lat="44.69002" lon="3.70843">
        <ele>1100.69</ele>
        <time>2025-04-16T01:22:24.582Z</time>
      </trkpt>
      <trkpt lat="44.68985" lon="3.70819">
        <ele>1100.79</ele>
        <time>2025-04-16T01:22:40.450Z</time>
      </trkpt>
      <trkpt lat="44.68968" lon="3.70796">
        <ele>1100.86</ele>
        <time>2025-04-16T01:22:56.322Z</time>
      </trkpt>
      <trkpt lat="44.68959" lon="3.70775">
        <ele>1100.95</ele>
        <time>2025-04-16T01:23:12.197Z</time>
      </trkpt>
      <trkpt lat="44.68954" lon="3.70752">
        <ele>1101.02</ele>
        <time>2025-04-16T01:23:28.074Z</time>
      </trkpt>
      <trkpt lat="44.68954" lon="3.70718">
        <ele>1101.15</ele>
        <time>2025-04-16T01:23:43.955Z</time>
      </trkpt>
      <trkpt lat="44.68955" lon="3.70685">
        <ele>1101.25</ele>
        <time>2025-04-16T01:23:59.840Z</time>
      </trkpt>
      <trkpt lat="44.68955" lon="3.70651">
        <ele>1101.33</ele>
        <time>2025-04-16T01:24:15.729Z</time>
      </trkpt>
      <trkpt lat="44.68953" lon="3.70626">
        <ele>1101.38</ele>
        <time>2025-04-16T01:24:31.621Z</time>
      </trkpt>
      <trkpt lat="44.6895" lon="3.70613">
        <ele>1101.45</ele>
        <time>2025-04-16T01:24:47.514Z</time>
      </trkpt>
      <trkpt lat="44.68943" lon="3.706">
        <ele>1101.56</ele>
        <time>2025-04-16T01:25:03.409Z</time>
      </trkpt>
      <trkpt lat="44.68933" lon="3.70589">
        <ele>1101.65</ele>
        <time>2025-04-16T01:25:19.306Z</time>
      </trkpt>
      <trkpt lat="44.68913" lon="3.70577">
        <ele>1101.77</ele>
        <time>2025-04-16T01:25:35.207Z</time>
      </trkpt>
      <trkpt lat="44.68894" lon="3.70564">
        <ele>1101.89</ele>
        <time>2025-04-16T01:25:51.111Z</time>
      </trkpt>
      <trkpt lat="44.68894" lon="3.70564">
        <ele>1101.95</ele>
        <time>2025-04-16T01:26:07.015Z</time>
      </trkpt>
      <trkpt lat="44.68866" lon="3.70552">
        <ele>1102.11</ele>
        <time>2025-04-16T01:26:22.924Z</time>
      </trkpt>
      <trkpt lat="44.68838" lon="3.7054">
        <ele>1102.17</ele>
        <time>2025-04-16T01:26:38.837Z</time>
      </trkpt>
      <trkpt lat="44.6881" lon="3.70528">
        <ele>1102.14</ele>
        <time>2025-04-16T01:26:54.755Z</time>
      </trkpt>
      <trkpt lat="44.68782" lon="3.70516">
        <ele>1102.16</ele>
        <time>2025-04-16T01:27:10.678Z</time>
      </trkpt>
      <trkpt lat="44.68754" lon="3.70504">
        <ele>1102.15</ele>
        <time>2025-04-16T01:27:26.605Z</time>
      </trkpt>
      <trkpt lat="44.68729" lon="3.70494">
        <ele>1102.14</ele>
        <time>2025-04-16T01:27:42.537Z</time>
      </trkpt>
      <trkpt lat="44.68704" lon="3.70483">
        <ele>1102.15</ele>
        <time>2025-04-16T01:27:58.473Z</time>
      </trkpt>
      <trkpt lat="44.68685" lon="3.70483">
        <ele>1102.16</ele>
        <time>2025-04-16T01:28:14.412Z</time>
      </trkpt>
      <trkpt lat="44.68666" lon="3.7049">
        <ele>1102.13</ele>
        <time>2025-04-16T01:28:30.354Z</time>
      </trkpt>
      <trkpt lat="44.68644" lon="3.70506">
        <ele>1102.09</ele>
        <time>2025-04-16T01:28:46.300Z</time>
      </trkpt>
      <trkpt lat="44.68623" lon="3.70524">
        <ele>1102.09</ele>
        <time>2025-04-16T01:29:02.250Z</time>
      </trkpt>
      <trkpt lat="44.68602" lon="3.70542">
        <ele>1102.15</ele>
        <time>2025-04-16T01:29:18.204Z</time>
      </trkpt>
      <trkpt lat="44.6858" lon="3.7056">
        <ele>1102.18</ele>
        <time>2025-04-16T01:29:34.162Z</time>
      </trkpt>
      <trkpt lat="44.68559" lon="3.70577">
        <ele>1102.17</ele>
        <time>2025-04-16T01:29:50.124Z</time>
      </trkpt>
      <trkpt lat="44.68537" lon="3.70594">
        <ele>1102.14</ele>
        <time>2025-04-16T01:30:06.090Z</time>
      </trkpt>
      <trkpt lat="44.68515" lon="3.70612">
        <ele>1102.1</ele>
        <time>2025-04-16T01:30:22.060Z</time>
      </trkpt>
      <trkpt lat="44.68493" lon="3.70629">
        <ele>1102.06</ele>
        <time>2025-04-16T01:30:38.034Z</time>
      </trkpt>
      <trkpt lat="44.68481" lon="3.70634">
        <ele>1102.03</ele>
        <time>2025-04-16T01:30:54.010Z</time>
      </trkpt>
      <trkpt lat="44.68466" lon="3.70637">
        <ele>1101.97</ele>
        <time>2025-04-16T01:31:09.988Z</time>
      </trkpt>
      <trkpt lat="44.68449" lon="3.70638">
        <ele>1101.9</ele>
        <time>2025-04-16T01:31:25.969Z</time>
      </trkpt>
      <trkpt lat="44.68433" lon="3.70638">
        <ele>1101.83</ele>
        <time>2025-04-16T01:31:41.953Z</time>
      </trkpt>
      <trkpt lat="44.68415" lon="3.70637">
        <ele>1101.75</ele>
        <time>2025-04-16T01:31:57.939Z</time>
      </trkpt>
      <trkpt lat="44.68397" lon="3.70635">
        <ele>1101.65</ele>
        <time>2025-04-16T01:32:13.928Z</time>
      </trkpt>
      <trkpt lat="44.68389" lon="3.70631">
        <ele>1101.59</ele>
        <time>2025-04-16T01:32:29.919Z</time>
      </trkpt>
      <trkpt lat="44.6838" lon="3.70622">
        <ele>1101.56</ele>
        <time>2025-04-16T01:32:45.911Z</time>
      </trkpt>
      <trkpt lat="44.68374" lon="3.70613">
        <ele>1101.54</ele>
        <time>2025-04-16T01:33:01.905Z</time>
      </trkpt>
      <trkpt lat="44.68365" lon="3.70581">
        <ele>1101.57</ele>
        <time>2025-04-16T01:33:17.903Z</time>
      </trkpt>
      <trkpt lat="44.68356" lon="3.7055">
        <ele>1101.61</ele>
        <time>2025-04-16T01:33:33.905Z</time>
      </trkpt>
      <trkpt lat="44.68349" lon="3.70531">
        <ele>1101.64</ele>
        <time>2025-04-16T01:33:49.909Z</time>
      </trkpt>
      <trkpt lat="44.68339" lon="3.70513">
        <ele>1101.62</ele>
        <time>2025-04-16T01:34:05.916Z</time>
      </trkpt>
      <trkpt lat="44.68329" lon="3.70496">
        <ele>1101.6</ele>
        <time>2025-04-16T01:34:21.925Z</time>
      </trkpt>
      <trkpt lat="44.68329" lon="3.70496">
        <ele>1101.58</ele>
        <time>2025-04-16T01:34:37.934Z</time>
      </trkpt>
      <trkpt lat="44.68318" lon="3.70481">
        <ele>1101.55</ele>
        <time>2025-04-16T01:34:53.946Z</time>
      </trkpt>
      <trkpt lat="44.68302" lon="3.70467">
        <ele>1101.53</ele>
        <time>2025-04-16T01:35:09.961Z</time>
      </trkpt>
      <trkpt lat="44.68287" lon="3.70453">
        <ele>1101.56</ele>
        <time>2025-04-16T01:35:25.979Z</time>
      </trkpt>
      <trkpt lat="44.68271" lon="3.70441">
        <ele>1101.56</ele>
        <time>2025-04-16T01:35:41.999Z</time>
      </trkpt>
      <trkpt lat="44.68256" lon="3.70429">
        <ele>1101.57</ele>
        <time>2025-04-16T01:35:58.022Z</time>
      </trkpt>
      <trkpt lat="44.68238" lon="3.7042">
        <ele>1101.58</ele>
        <time>2025-04-16T01:36:14.048Z</time>
      </trkpt>
      <trkpt lat="44.68218" lon="3.7041">
        <ele>1101.62</ele>
        <time>2025-04-16T01:36:30.078Z</time>
      </trkpt>
      <trkpt lat="44.68191" lon="3.704">
        <ele>1101.66</ele>
        <time>2025-04-16T01:36:46.112Z</time>
      </trkpt>
      <trkpt lat="44.68164" lon="3.7039">
        <ele>1101.65</ele>
        <time>2025-04-16T01:37:02.151Z</time>
      </trkpt>
      <trkpt lat="44.68136" lon="3.7038">
        <ele>1101.71</ele>
        <time>2025-04-16T01:37:18.194Z</time>
      </trkpt>
      <trkpt lat="44.68111" lon="3.70377">
        <ele>1101.71</ele>
        <time>2025-04-16T01:37:34.241Z</time>
      </trkpt>
      <trkpt lat="44.68084" lon="3.70379">
        <ele>1101.73</ele>
        <time>2025-04-16T01:37:50.293Z</time>
      </trkpt>
      <trkpt lat="44.68067" lon="3.70383">
        <ele>1101.77</ele>
        <time>2025-04-16T01:38:06.347Z</time>
      </trkpt>
      <trkpt lat="44.6805" lon="3.70386">
        <ele>1101.87</ele>
        <time>2025-04-16T01:38:22.404Z</time>
      </trkpt>
      <trkpt lat="44.68026" lon="3.70396">
        <ele>1102.05</ele>
        <time>2025-04-16T01:38:38.465Z</time>
      </trkpt>
      <trkpt lat="44.68" lon="3.7041">
        <ele>1102.25</ele>
        <time>2025-04-16T01:38:54.531Z</time>
      </trkpt>
      <trkpt lat="44.67974" lon="3.70425">
        <ele>1102.45</ele>
        <time>2025-04-16T01:39:10.601Z</time>
      </trkpt>
      <trkpt lat="44.6795" lon="3.70435">
        <ele>1102.7</ele>
        <time>2025-04-16T01:39:26.675Z</time>
      </trkpt>
      <trkpt lat="44.67925" lon="3.70445">
        <ele>1102.88</ele>
        <time>2025-04-16T01:39:42.753Z</time>
      </trkpt>
      <trkpt lat="44.679" lon="3.70455">
        <ele>1103.1</ele>
        <time>2025-04-16T01:39:58.835Z</time>
      </trkpt>
      <trkpt lat="44.67876" lon="3.70465">
        <ele>1103.3</ele>
        <time>2025-04-16T01:40:14.921Z</time>
      </trkpt>
      <trkpt lat="44.67851" lon="3.70475">
        <ele>1103.52</ele>
        <time>2025-04-16T01:40:31.012Z</time>
      </trkpt>
      <trkpt lat="44.67826" lon="3.70484">
        <ele>1103.75</ele>
        <time>2025-04-16T01:40:47.107Z</time>
      </trkpt>
      <trkpt lat="44.67802" lon="3.70492">
        <ele>1103.94</ele>
        <time>2025-04-16T01:41:03.206Z</time>
      </trkpt>
      <trkpt lat="44.67777" lon="3.70501">
        <ele>1104.09</ele>
        <time>2025-04-16T01:41:19.309Z</time>
      </trkpt>
      <trkpt lat="44.67765" lon="3.70502">
        <ele>1104.39</ele>
        <time>2025-04-16T01:41:35.414Z</time>
      </trkpt>
      <trkpt lat="44.67744" lon="3.70505">
        <ele>1104.66</ele>
        <time>2025-04-16T01:41:51.522Z</time>
      </trkpt>
      <trkpt lat="44.67732" lon="3.70506">
        <ele>1104.95</ele>
        <time>2025-04-16T01:42:07.632Z</time>
      </trkpt>
      <trkpt lat="44.67715" lon="3.70501">
        <ele>1105.25</ele>
        <time>2025-04-16T01:42:23.745Z</time>
      </trkpt>
      <trkpt lat="44.67706" lon="3.70493">
        <ele>1105.6</ele>
        <time>2025-04-16T01:42:39.859Z</time>
      </trkpt>
      <trkpt lat="44.67701" lon="3.70484">
        <ele>1106</ele>
        <time>2025-04-16T01:42:55.975Z</time>
      </trkpt>
      <trkpt lat="44.67698" lon="3.70474">
        <ele>1106.42</ele>
        <time>2025-04-16T01:43:12.092Z</time>
      </trkpt>
      <trkpt lat="44.67697" lon="3.7046">
        <ele>1106.91</ele>
        <time>2025-04-16T01:43:28.211Z</time>
      </trkpt>
      <trkpt lat="44.67698" lon="3.70441">
        <ele>1107.43</ele>
        <time>2025-04-16T01:43:44.332Z</time>
      </trkpt>
      <trkpt lat="44.67707" lon="3.70406">
        <ele>1108.04</ele>
        <time>2025-04-16T01:44:00.457Z</time>
      </trkpt>
      <trkpt lat="44.67709" lon="3.70385">
        <ele>1108.62</ele>
        <time>2025-04-16T01:44:16.585Z</time>
      </trkpt>
      <trkpt lat="44.67708" lon="3.70364">
        <ele>1109.19</ele>
        <time>2025-04-16T01:44:32.715Z</time>
      </trkpt>
      <trkpt lat="44.67702" lon="3.70346">
        <ele>1109.79</ele>
        <time>2025-04-16T01:44:48.847Z</time>
      </trkpt>
      <trkpt lat="44.6769" lon="3.70331">
        <ele>1110.44</ele>
        <time>2025-04-16T01:45:04.982Z</time>
      </trkpt>
      <trkpt lat="44.67679" lon="3.70321">
        <ele>1111.1</ele>
        <time>2025-04-16T01:45:21.119Z</time>
      </trkpt>
      <trkpt lat="44.67668" lon="3.70318">
        <ele>1111.73</ele>
        <time>2025-04-16T01:45:37.258Z</time>
      </trkpt>
      <trkpt lat="44.67647" lon="3.7032">
        <ele>1112.31</ele>
        <time>2025-04-16T01:45:53.400Z</time>
      </trkpt>
      <trkpt lat="44.67627" lon="3.70322">
        <ele>1112.9</ele>
        <time>2025-04-16T01:46:09.545Z</time>
      </trkpt>
      <trkpt lat="44.67611" lon="3.7032">
        <ele>1113.54</ele>
        <time>2025-04-16T01:46:25.693Z</time>
      </trkpt>
      <trkpt lat="44.67598" lon="3.70314">
        <ele>1114.19</ele>
        <time>2025-04-16T01:46:41.843Z</time>
      </trkpt>
      <trkpt lat="44.67591" lon="3.70308">
        <ele>1114.87</ele>
        <time>2025-04-16T01:46:57.994Z</time>
      </trkpt>
      <trkpt lat="44.67573" lon="3.70276">
        <ele>1115.64</ele>
        <time>2025-04-16T01:47:14.150Z</time>
      </trkpt>
      <trkpt lat="44.67566" lon="3.70245">
        <ele>1116.41</ele>
        <time>2025-04-16T01:47:30.310Z</time>
      </trkpt>
      <trkpt lat="44.67558" lon="3.70212">
        <ele>1117.08</ele>
        <time>2025-04-16T01:47:46.474Z</time>
      </trkpt>
      <trkpt lat="44.6755" lon="3.7018">
        <ele>1117.73</ele>
        <time>2025-04-16T01:48:02.642Z</time>
      </trkpt>
      <trkpt lat="44.67542" lon="3.70147">
        <ele>1118.46</ele>
        <time>2025-04-16T01:48:18.814Z</time>
      </trkpt>
      <trkpt lat="44.67535" lon="3.70115">
        <ele>1119.2</ele>
        <time>2025-04-16T01:48:34.989Z</time>
      </trkpt>
      <trkpt lat="44.67523" lon="3.70079">
        <ele>1119.92</ele>
        <time>2025-04-16T01:48:51.169Z</time>
      </trkpt>
      <trkpt lat="44.67509" lon="3.70049">
        <ele>1120.61</ele>
        <time>2025-04-16T01:49:07.353Z</time>
      </trkpt>
      <trkpt lat="44.67495" lon="3.70026">
        <ele>1121.29</ele>
        <time>2025-04-16T01:49:23.540Z</time>
      </trkpt>
      <trkpt lat="44.6748" lon="3.70003">
        <ele>1122</ele>
        <time>2025-04-16T01:49:39.731Z</time>
      </trkpt>
      <trkpt lat="44.67466" lon="3.6998">
        <ele>1122.85</ele>
        <time>2025-04-16T01:49:55.925Z</time>
      </trkpt>
      <trkpt lat="44.67449" lon="3.69967">
        <ele>1123.57</ele>
        <time>2025-04-16T01:50:12.123Z</time>
      </trkpt>
      <trkpt lat="44.67433" lon="3.69959">
        <ele>1124.21</ele>
        <time>2025-04-16T01:50:28.323Z</time>
      </trkpt>
      <trkpt lat="44.67418" lon="3.69952">
        <ele>1124.82</ele>
        <time>2025-04-16T01:50:44.526Z</time>
      </trkpt>
      <trkpt lat="44.67403" lon="3.69949">
        <ele>1125.34</ele>
        <time>2025-04-16T01:51:00.731Z</time>
      </trkpt>
      <trkpt lat="44.67375" lon="3.6995">
        <ele>1125.77</ele>
        <time>2025-04-16T01:51:16.941Z</time>
      </trkpt>
      <trkpt lat="44.67347" lon="3.69951">
        <ele>1126.19</ele>
        <time>2025-04-16T01:51:33.155Z</time>
      </trkpt>
      <trkpt lat="44.67319" lon="3.69952">
        <ele>1126.6</ele>
        <time>2025-04-16T01:51:49.374Z</time>
      </trkpt>
      <trkpt lat="44.67307" lon="3.69945">
        <ele>1127.07</ele>
        <time>2025-04-16T01:52:05.595Z</time>
      </trkpt>
      <trkpt lat="44.67297" lon="3.69932">
        <ele>1127.52</ele>
        <time>2025-04-16T01:52:21.818Z</time>
      </trkpt>
      <trkpt lat="44.67284" lon="3.69895">
        <ele>1128.03</ele>
        <time>2025-04-16T01:52:38.046Z</time>
      </trkpt>
      <trkpt lat="44.67271" lon="3.69858">
        <ele>1128.5</ele>
        <time>2025-04-16T01:52:54.278Z</time>
      </trkpt>
      <trkpt lat="44.6726" lon="3.6982">
        <ele>1128.9</ele>
        <time>2025-04-16T01:53:10.515Z</time>
      </trkpt>
      <trkpt lat="44.6725" lon="3.69781">
        <ele>1129.21</ele>
        <time>2025-04-16T01:53:26.757Z</time>
      </trkpt>
      <trkpt lat="44.6724" lon="3.69751">
        <ele>1129.51</ele>
        <time>2025-04-16T01:53:43.003Z</time>
      </trkpt>
      <trkpt lat="44.67225" lon="3.69728">
        <ele>1129.83</ele>
        <time>2025-04-16T01:53:59.252Z</time>
      </trkpt>
      <trkpt lat="44.67206" lon="3.6971">
        <ele>1130.25</ele>
        <time>2025-04-16T01:54:15.505Z</time>
      </trkpt>
      <trkpt lat="44.67191" lon="3.69704">
        <ele>1130.63</ele>
        <time>2025-04-16T01:54:31.760Z</time>
      </trkpt>
      <trkpt lat="44.67174" lon="3.69701">
        <ele>1130.99</ele>
        <time>2025-04-16T01:54:48.018Z</time>
      </trkpt>
      <trkpt lat="44.67144" lon="3.69704">
        <ele>1131.32</ele>
        <time>2025-04-16T01:55:04.281Z</time>
      </trkpt>
      <trkpt lat="44.67115" lon="3.69704">
        <ele>1131.61</ele>
        <time>2025-04-16T01:55:20.548Z</time>
      </trkpt>
      <trkpt lat="44.67086" lon="3.69704">
        <ele>1131.76</ele>
        <time>2025-04-16T01:55:36.820Z</time>
      </trkpt>
      <trkpt lat="44.67068" lon="3.69696">
        <ele>1131.96</ele>
        <time>2025-04-16T01:55:53.095Z</time>
      </trkpt>
      <trkpt lat="44.67052" lon="3.69682">
        <ele>1132.18</ele>
        <time>2025-04-16T01:56:09.373Z</time>
      </trkpt>
      <trkpt lat="44.67035" lon="3.69663">
        <ele>1132.37</ele>
        <time>2025-04-16T01:56:25.655Z</time>
      </trkpt>
      <trkpt lat="44.67017" lon="3.69643">
        <ele>1132.56</ele>
        <time>2025-04-16T01:56:41.940Z</time>
      </trkpt>
      <trkpt lat="44.67" lon="3.69623">
        <ele>1132.72</ele>
        <time>2025-04-16T01:56:58.229Z</time>
      </trkpt>
      <trkpt lat="44.66978" lon="3.69598">
        <ele>1132.91</ele>
        <time>2025-04-16T01:57:14.522Z</time>
      </trkpt>
      <trkpt lat="44.66963" lon="3.69588">
        <ele>1133.11</ele>
        <time>2025-04-16T01:57:30.818Z</time>
      </trkpt>
      <trkpt lat="44.66947" lon="3.69581">
        <ele>1133.31</ele>
        <time>2025-04-16T01:57:47.117Z</time>
      </trkpt>
      <trkpt lat="44.66925" lon="3.69576">
        <ele>1133.53</ele>
        <time>2025-04-16T01:58:03.419Z</time>
      </trkpt>
      <trkpt lat="44.66909" lon="3.69574">
        <ele>1133.72</ele>
        <time>2025-04-16T01:58:19.724Z</time>
      </trkpt>
      <trkpt lat="44.66885" lon="3.69576">
        <ele>1133.92</ele>
        <time>2025-04-16T01:58:36.033Z</time>
      </trkpt>
      <trkpt lat="44.66861" lon="3.69578">
        <ele>1134.07</ele>
        <time>2025-04-16T01:58:52.346Z</time>
      </trkpt>
      <trkpt lat="44.66845" lon="3.69584">
        <ele>1134.19</ele>
        <time>2025-04-16T01:59:08.661Z</time>
      </trkpt>
      <trkpt lat="44.6683" lon="3.69589">
        <ele>1134.35</ele>
        <time>2025-04-16T01:59:24.979Z</time>
      </trkpt>
      <trkpt lat="44.66811" lon="3.69603">
        <ele>1134.53</ele>
        <time>2025-04-16T01:59:41.300Z</time>
      </trkpt>
      <trkpt lat="44.66793" lon="3.69626">
        <ele>1134.76</ele>
        <time>2025-04-16T01:59:57.625Z</time>
      </trkpt>
      <trkpt lat="44.66775" lon="3.69648">
        <ele>1134.92</ele>
        <time>2025-04-16T02:00:13.954Z</time>
      </trkpt>
      <trkpt lat="44.66757" lon="3.69671">
        <ele>1135.04</ele>
        <time>2025-04-16T02:00:30.287Z</time>
      </trkpt>
      <trkpt lat="44.66742" lon="3.69687">
        <ele>1135.15</ele>
        <time>2025-04-16T02:00:46.623Z</time>
      </trkpt>
      <trkpt lat="44.66729" lon="3.69692">
        <ele>1135.33</ele>
        <time>2025-04-16T02:01:02.961Z</time>
      </trkpt>
      <trkpt lat="44.66713" lon="3.69694">
        <ele>1135.51</ele>
        <time>2025-04-16T02:01:19.301Z</time>
      </trkpt>
      <trkpt lat="44.66682" lon="3.69688">
        <ele>1135.68</ele>
        <time>2025-04-16T02:01:35.646Z</time>
      </trkpt>
      <trkpt lat="44.66652" lon="3.69681">
        <ele>1135.77</ele>
        <time>2025-04-16T02:01:51.996Z</time>
      </trkpt>
      <trkpt lat="44.66622" lon="3.69675">
        <ele>1135.94</ele>
        <time>2025-04-16T02:02:08.351Z</time>
      </trkpt>
      <trkpt lat="44.66591" lon="3.69669">
        <ele>1136.18</ele>
        <time>2025-04-16T02:02:24.711Z</time>
      </trkpt>
      <trkpt lat="44.66561" lon="3.69662">
        <ele>1136.37</ele>
        <time>2025-04-16T02:02:41.076Z</time>
      </trkpt>
      <trkpt lat="44.66531" lon="3.69656">
        <ele>1136.51</ele>
        <time>2025-04-16T02:02:57.446Z</time>
      </trkpt>
      <trkpt lat="44.665" lon="3.69649">
        <ele>1136.68</ele>
        <time>2025-04-16T02:03:13.821Z</time>
      </trkpt>
      <trkpt lat="44.66478" lon="3.6965">
        <ele>1136.82</ele>
        <time>2025-04-16T02:03:30.199Z</time>
      </trkpt>
      <trkpt lat="44.66463" lon="3.69657">
        <ele>1137.03</ele>
        <time>2025-04-16T02:03:46.580Z</time>
      </trkpt>
      <trkpt lat="44.66442" lon="3.69673">
        <ele>1137.12</ele>
        <time>2025-04-16T02:04:02.965Z</time>
      </trkpt>
      <trkpt lat="44.66422" lon="3.69689">
        <ele>1137.24</ele>
        <time>2025-04-16T02:04:19.353Z</time>
      </trkpt>
      <trkpt lat="44.66404" lon="3.69699">
        <ele>1137.33</ele>
        <time>2025-04-16T02:04:35.745Z</time>
      </trkpt>
      <trkpt lat="44.66386" lon="3.69708">
        <ele>1137.44</ele>
        <time>2025-04-16T02:04:52.140Z</time>
      </trkpt>
      <trkpt lat="44.66359" lon="3.69717">
        <ele>1137.61</ele>
        <time>2025-04-16T02:05:08.539Z</time>
      </trkpt>
      <trkpt lat="44.66333" lon="3.69726">
        <ele>1137.73</ele>
        <time>2025-04-16T02:05:24.942Z</time>
      </trkpt>
      <trkpt lat="44.66307" lon="3.69735">
        <ele>1137.85</ele>
        <time>2025-04-16T02:05:41.350Z</time>
      </trkpt>
      <trkpt lat="44.6628" lon="3.69744">
        <ele>1137.97</ele>
        <time>2025-04-16T02:05:57.762Z</time>
      </trkpt>
      <trkpt lat="44.66255" lon="3.69748">
        <ele>1138.05</ele>
        <time>2025-04-16T02:06:14.178Z</time>
      </trkpt>
      <trkpt lat="44.66229" lon="3.69747">
        <ele>1138.22</ele>
        <time>2025-04-16T02:06:30.598Z</time>
      </trkpt>
      <trkpt lat="44.66212" lon="3.6974">
        <ele>1138.41</ele>
        <time>2025-04-16T02:06:47.021Z</time>
      </trkpt>
      <trkpt lat="44.66196" lon="3.6973">
        <ele>1138.61</ele>
        <time>2025-04-16T02:07:03.447Z</time>
      </trkpt>
      <trkpt lat="44.66173" lon="3.69709">
        <ele>1138.81</ele>
        <time>2025-04-16T02:07:19.877Z</time>
      </trkpt>
      <trkpt lat="44.6615" lon="3.69688">
        <ele>1139</ele>
        <time>2025-04-16T02:07:36.312Z</time>
      </trkpt>
      <trkpt lat="44.66127" lon="3.69667">
        <ele>1139.13</ele>
        <time>2025-04-16T02:07:52.751Z</time>
      </trkpt>
      <trkpt lat="44.66127" lon="3.69667">
        <ele>1139.28</ele>
        <time>2025-04-16T02:08:09.190Z</time>
      </trkpt>
      <trkpt lat="44.66101" lon="3.69644">
        <ele>1139.38</ele>
        <time>2025-04-16T02:08:25.634Z</time>
      </trkpt>
      <trkpt lat="44.66074" lon="3.6962">
        <ele>1139.47</ele>
        <time>2025-04-16T02:08:42.083Z</time>
      </trkpt>
      <trkpt lat="44.66066" lon="3.69603">
        <ele>1139.64</ele>
        <time>2025-04-16T02:08:58.534Z</time>
      </trkpt>
      <trkpt lat="44.66058" lon="3.69582">
        <ele>1139.81</ele>
        <time>2025-04-16T02:09:14.988Z</time>
      </trkpt>
      <trkpt lat="44.6605" lon="3.69554">
        <ele>1140</ele>
        <time>2025-04-16T02:09:31.446Z</time>
      </trkpt>
      <trkpt lat="44.66037" lon="3.6953">
        <ele>1140.22</ele>
        <time>2025-04-16T02:09:47.907Z</time>
      </trkpt>
      <trkpt lat="44.66016" lon="3.69504">
        <ele>1140.4</ele>
        <time>2025-04-16T02:10:04.373Z</time>
      </trkpt>
      <trkpt lat="44.65995" lon="3.69479">
        <ele>1140.57</ele>
        <time>2025-04-16T02:10:20.843Z</time>
      </trkpt>
      <trkpt lat="44.65974" lon="3.69453">
        <ele>1140.75</ele>
        <time>2025-04-16T02:10:37.317Z</time>
      </trkpt>
      <trkpt lat="44.65959" lon="3.69437">
        <ele>1140.9</ele>
        <time>2025-04-16T02:10:53.794Z</time>
      </trkpt>
      <trkpt lat="44.65944" lon="3.69422">
        <ele>1141.07</ele>
        <time>2025-04-16T02:11:10.274Z</time>
      </trkpt>
      <trkpt lat="44.65917" lon="3.69407">
        <ele>1141.16</ele>
        <time>2025-04-16T02:11:26.759Z</time>
      </trkpt>
      <trkpt lat="44.6589" lon="3.69392">
        <ele>1141.31</ele>
        <time>2025-04-16T02:11:43.249Z</time>
      </trkpt>
      <trkpt lat="44.65863" lon="3.69377">
        <ele>1141.44</ele>
        <time>2025-04-16T02:11:59.743Z</time>
      </trkpt>
      <trkpt lat="44.65836" lon="3.69362">
        <ele>1141.5</ele>
        <time>2025-04-16T02:12:16.242Z</time>
      </trkpt>
      <trkpt lat="44.65815" lon="3.69341">
        <ele>1141.61</ele>
        <time>2025-04-16T02:12:32.745Z</time>
      </trkpt>
      <trkpt lat="44.65793" lon="3.69321">
        <ele>1141.71</ele>
        <time>2025-04-16T02:12:49.252Z</time>
      </trkpt>
      <trkpt lat="44.65775" lon="3.69288">
        <ele>1141.8</ele>
        <time>2025-04-16T02:13:05.764Z</time>
      </trkpt>
      <trkpt lat="44.65764" lon="3.69264">
        <ele>1141.87</ele>
        <time>2025-04-16T02:13:22.279Z</time>
      </trkpt>
      <trkpt lat="44.65754" lon="3.6924">
        <ele>1141.95</ele>
        <time>2025-04-16T02:13:38.797Z</time>
      </trkpt>
      <trkpt lat="44.65742" lon="3.69213">
        <ele>1142.04</ele>
        <time>2025-04-16T02:13:55.319Z</time>
      </trkpt>
      <trkpt lat="44.65731" lon="3.69185">
        <ele>1142.12</ele>
        <time>2025-04-16T02:14:11.845Z</time>
      </trkpt>
      <trkpt lat="44.6572" lon="3.69157">
        <ele>1142.2</ele>
        <time>2025-04-16T02:14:28.374Z</time>
      </trkpt>
      <trkpt lat="44.65705" lon="3.69131">
        <ele>1142.27</ele>
        <time>2025-04-16T02:14:44.907Z</time>
      </trkpt>
      <trkpt lat="44.65686" lon="3.69105">
        <ele>1142.36</ele>
        <time>2025-04-16T02:15:01.444Z</time>
      </trkpt>
      <trkpt lat="44.65669" lon="3.69086">
        <ele>1142.46</ele>
        <time>2025-04-16T02:15:17.985Z</time>
      </trkpt>
      <trkpt lat="44.65651" lon="3.69072">
        <ele>1142.58</ele>
        <time>2025-04-16T02:15:34.529Z</time>
      </trkpt>
      <trkpt lat="44.65627" lon="3.69058">
        <ele>1142.69</ele>
        <time>2025-04-16T02:15:51.077Z</time>
      </trkpt>
      <trkpt lat="44.65597" lon="3.69046">
        <ele>1142.78</ele>
        <time>2025-04-16T02:16:07.630Z</time>
      </trkpt>
      <trkpt lat="44.65574" lon="3.69041">
        <ele>1142.84</ele>
        <time>2025-04-16T02:16:24.187Z</time>
      </trkpt>
      <trkpt lat="44.65551" lon="3.69036">
        <ele>1142.85</ele>
        <time>2025-04-16T02:16:40.748Z</time>
      </trkpt>
      <trkpt lat="44.65527" lon="3.6903">
        <ele>1142.82</ele>
        <time>2025-04-16T02:16:57.313Z</time>
      </trkpt>
      <trkpt lat="44.65507" lon="3.69024">
        <ele>1142.86</ele>
        <time>2025-04-16T02:17:13.881Z</time>
      </trkpt>
      <trkpt lat="44.65486" lon="3.69018">
        <ele>1142.98</ele>
        <time>2025-04-16T02:17:30.452Z</time>
      </trkpt>
      <trkpt lat="44.65471" lon="3.69007">
        <ele>1143.08</ele>
        <time>2025-04-16T02:17:47.026Z</time>
      </trkpt>
      <trkpt lat="44.65465" lon="3.68994">
        <ele>1143.15</ele>
        <time>2025-04-16T02:18:03.602Z</time>
      </trkpt>
      <trkpt lat="44.6546" lon="3.68969">
        <ele>1143.16</ele>
        <time>2025-04-16T02:18:20.181Z</time>
      </trkpt>
      <trkpt lat="44.6546" lon="3.68927">
        <ele>1143.1</ele>
        <time>2025-04-16T02:18:36.765Z</time>
      </trkpt>
      <trkpt lat="44.6546" lon="3.68885">
        <ele>1143</ele>
        <time>2025-04-16T02:18:53.353Z</time>
      </trkpt>
      <trkpt lat="44.65454" lon="3.68862">
        <ele>1142.93</ele>
        <time>2025-04-16T02:19:09.944Z</time>
      </trkpt>
      <trkpt lat="44.65449" lon="3.68839">
        <ele>1142.81</ele>
        <time>2025-04-16T02:19:26.538Z</time>
      </trkpt>
      <trkpt lat="44.65435" lon="3.68803">
        <ele>1142.71</ele>
        <time>2025-04-16T02:19:43.137Z</time>
      </trkpt>
      <trkpt lat="44.65417" lon="3.68779">
        <ele>1142.63</ele>
        <time>2025-04-16T02:19:59.740Z</time>
      </trkpt>
      <trkpt lat="44.654" lon="3.68754">
        <ele>1142.48</ele>
        <time>2025-04-16T02:20:16.347Z</time>
      </trkpt>
      <trkpt lat="44.65376" lon="3.6874">
        <ele>1142.36</ele>
        <time>2025-04-16T02:20:32.958Z</time>
      </trkpt>
      <trkpt lat="44.65353" lon="3.68726">
        <ele>1142.26</ele>
        <time>2025-04-16T02:20:49.573Z</time>
      </trkpt>
      <trkpt lat="44.6533" lon="3.68712">
        <ele>1142.18</ele>
        <time>2025-04-16T02:21:06.192Z</time>
      </trkpt>
      <trkpt lat="44.65305" lon="3.68699">
        <ele>1142.08</ele>
        <time>2025-04-16T02:21:22.815Z</time>
      </trkpt>
      <trkpt lat="44.6528" lon="3.68687">
        <ele>1141.88</ele>
        <time>2025-04-16T02:21:39.442Z</time>
      </trkpt>
      <trkpt lat="44.65255" lon="3.68674">
        <ele>1141.66</ele>
        <time>2025-04-16T02:21:56.074Z</time>
      </trkpt>
      <trkpt lat="44.65229" lon="3.68662">
        <ele>1141.41</ele>
        <time>2025-04-16T02:22:12.710Z</time>
      </trkpt>
      <trkpt lat="44.65204" lon="3.68649">
        <ele>1141.22</ele>
        <time>2025-04-16T02:22:29.350Z</time>
      </trkpt>
      <trkpt lat="44.65195" lon="3.68642">
        <ele>1140.99</ele>
        <time>2025-04-16T02:22:45.992Z</time>
      </trkpt>
      <trkpt lat="44.65195" lon="3.68642">
        <ele>1140.74</ele>
        <time>2025-04-16T02:23:02.634Z</time>
      </trkpt>
      <trkpt lat="44.65175" lon="3.68627">
        <ele>1140.53</ele>
        <time>2025-04-16T02:23:19.279Z</time>
      </trkpt>
      <trkpt lat="44.65155" lon="3.68612">
        <ele>1140.23</ele>
        <time>2025-04-16T02:23:35.928Z</time>
      </trkpt>
      <trkpt lat="44.65135" lon="3.68597">
        <ele>1139.9</ele>
        <time>2025-04-16T02:23:52.581Z</time>
      </trkpt>
      <trkpt lat="44.65115" lon="3.68579">
        <ele>1139.58</ele>
        <time>2025-04-16T02:24:09.237Z</time>
      </trkpt>
      <trkpt lat="44.65095" lon="3.68562">
        <ele>1139.34</ele>
        <time>2025-04-16T02:24:25.897Z</time>
      </trkpt>
      <trkpt lat="44.65076" lon="3.68544">
        <ele>1139.06</ele>
        <time>2025-04-16T02:24:42.561Z</time>
      </trkpt>
      <trkpt lat="44.65056" lon="3.68517">
        <ele>1138.73</ele>
        <time>2025-04-16T02:24:59.229Z</time>
      </trkpt>
      <trkpt lat="44.65037" lon="3.68491">
        <ele>1138.4</ele>
        <time>2025-04-16T02:25:15.902Z</time>
      </trkpt>
      <trkpt lat="44.65021" lon="3.68457">
        <ele>1138.13</ele>
        <time>2025-04-16T02:25:32.579Z</time>
      </trkpt>
      <trkpt lat="44.65005" lon="3.68424">
        <ele>1137.9</ele>
        <time>2025-04-16T02:25:49.261Z</time>
      </trkpt>
      <trkpt lat="44.64997" lon="3.68386">
        <ele>1137.71</ele>
        <time>2025-04-16T02:26:05.947Z</time>
      </trkpt>
      <trkpt lat="44.64989" lon="3.68348">
        <ele>1137.52</ele>
        <time>2025-04-16T02:26:22.638Z</time>
      </trkpt>
      <trkpt lat="44.64981" lon="3.6831">
        <ele>1137.33</ele>
        <time>2025-04-16T02:26:39.333Z</time>
      </trkpt>
      <trkpt lat="44.64973" lon="3.68272">
        <ele>1137.16</ele>
        <time>2025-04-16T02:26:56.033Z</time>
      </trkpt>
      <trkpt lat="44.64965" lon="3.68234">
        <ele>1137.04</ele>
        <time>2025-04-16T02:27:12.737Z</time>
      </trkpt>
      <trkpt lat="44.64957" lon="3.68196">
        <ele>1136.93</ele>
        <time>2025-04-16T02:27:29.446Z</time>
      </trkpt>
      <trkpt lat="44.64949" lon="3.68158">
        <ele>1136.84</ele>
        <time>2025-04-16T02:27:46.160Z</time>
      </trkpt>
      <trkpt lat="44.64941" lon="3.6812">
        <ele>1136.8</ele>
        <time>2025-04-16T02:28:02.878Z</time>
      </trkpt>
      <trkpt lat="44.64933" lon="3.68081">
        <ele>1136.75</ele>
        <time>2025-04-16T02:28:19.601Z</time>
      </trkpt>
      <trkpt lat="44.64925" lon="3.68041">
        <ele>1136.77</ele>
        <time>2025-04-16T02:28:36.328Z</time>
      </trkpt>
      <trkpt lat="44.64917" lon="3.68002">
        <ele>1136.88</ele>
        <time>2025-04-16T02:28:53.060Z</time>
      </trkpt>
      <trkpt lat="44.64909" lon="3.67963">
        <ele>1137.05</ele>
        <time>2025-04-16T02:29:09.797Z</time>
      </trkpt>
      <trkpt lat="44.64903" lon="3.67924">
        <ele>1137.27</ele>
        <time>2025-04-16T02:29:26.538Z</time>
      </trkpt>
      <trkpt lat="44.64896" lon="3.67886">
        <ele>1137.54</ele>
        <time>2025-04-16T02:29:43.284Z</time>
      </trkpt>
      <trkpt lat="44.64895" lon="3.67856">
        <ele>1137.94</ele>
        <time>2025-04-16T02:30:00.033Z</time>
      </trkpt>
      <trkpt lat="44.64897" lon="3.67832">
        <ele>1138.42</ele>
        <time>2025-04-16T02:30:16.785Z</time>
      </trkpt>
      <trkpt lat="44.649" lon="3.67807">
        <ele>1138.97</ele>
        <time>2025-04-16T02:30:33.540Z</time>
      </trkpt>
      <trkpt lat="44.64907" lon="3.67779">
        <ele>1139.54</ele>
        <time>2025-04-16T02:30:50.298Z</time>
      </trkpt>
      <trkpt lat="44.64909" lon="3.67767">
        <ele>1140.21</ele>
        <time>2025-04-16T02:31:07.058Z</time>
      </trkpt>
      <trkpt lat="44.6491" lon="3.67767">
        <ele>1140.95</ele>
        <time>2025-04-16T02:31:23.818Z</time>
      </trkpt>
      <trkpt lat="44.6491" lon="3.67767">
        <ele>1141.78</ele>
        <time>2025-04-16T02:31:40.578Z</time>
      </trkpt>
      <trkpt lat="44.64912" lon="3.67752">
        <ele>1142.72</ele>
        <time>2025-04-16T02:31:57.339Z</time>
      </trkpt>
      <trkpt lat="44.6492" lon="3.67727">
        <ele>1143.75</ele>
        <time>2025-04-16T02:32:14.104Z</time>
      </trkpt>
      <trkpt lat="44.64927" lon="3.67701">
        <ele>1144.91</ele>
        <time>2025-04-16T02:32:30.872Z</time>
      </trkpt>
      <trkpt lat="44.6493" lon="3.67694">
        <ele>1146.11</ele>
        <time>2025-04-16T02:32:47.640Z</time>
      </trkpt>
      <trkpt lat="44.64927" lon="3.67673">
        <ele>1147.44</ele>
        <time>2025-04-16T02:33:04.411Z</time>
      </trkpt>
      <trkpt lat="44.64926" lon="3.67637">
        <ele>1148.84</ele>
        <time>2025-04-16T02:33:21.186Z</time>
      </trkpt>
      <trkpt lat="44.64925" lon="3.67602">
        <ele>1150.29</ele>
        <time>2025-04-16T02:33:37.965Z</time>
      </trkpt>
      <trkpt lat="44.64924" lon="3.67566">
        <ele>1151.85</ele>
        <time>2025-04-16T02:33:54.748Z</time>
      </trkpt>
      <trkpt lat="44.64923" lon="3.67531">
        <ele>1153.55</ele>
        <time>2025-04-16T02:34:11.535Z</time>
      </trkpt>
      <trkpt lat="44.64924" lon="3.67498">
        <ele>1155.28</ele>
        <time>2025-04-16T02:34:28.326Z</time>
      </trkpt>
      <trkpt lat="44.64925" lon="3.67464">
        <ele>1157.1</ele>
        <time>2025-04-16T02:34:45.121Z</time>
      </trkpt>
      <trkpt lat="44.64925" lon="3.6743">
        <ele>1159.03</ele>
        <time>2025-04-16T02:35:01.920Z</time>
      </trkpt>
      <trkpt lat="44.64935" lon="3.67403">
        <ele>1161.06</ele>
        <time>2025-04-16T02:35:18.722Z</time>
      </trkpt>
      <trkpt lat="44.64945" lon="3.67375">
        <ele>1163.13</ele>
        <time>2025-04-16T02:35:35.528Z</time>
      </trkpt>
      <trkpt lat="44.64959" lon="3.67342">
        <ele>1165.24</ele>
        <time>2025-04-16T02:35:52.338Z</time>
      </trkpt>
      <trkpt lat="44.64973" lon="3.67309">
        <ele>1167.32</ele>
        <time>2025-04-16T02:36:09.153Z</time>
      </trkpt>
      <trkpt lat="44.64988" lon="3.67276">
        <ele>1169.33</ele>
        <time>2025-04-16T02:36:25.972Z</time>
      </trkpt>
      <trkpt lat="44.64991" lon="3.6725">
        <ele>1171.41</ele>
        <time>2025-04-16T02:36:42.794Z</time>
      </trkpt>
      <trkpt lat="44.64994" lon="3.67225">
        <ele>1173.47</ele>
        <time>2025-04-16T02:36:59.619Z</time>
      </trkpt>
      <trkpt lat="44.64994" lon="3.67194">
        <ele>1175.59</ele>
        <time>2025-04-16T02:37:16.447Z</time>
      </trkpt>
      <trkpt lat="44.64989" lon="3.67167">
        <ele>1177.79</ele>
        <time>2025-04-16T02:37:33.279Z</time>
      </trkpt>
      <trkpt lat="44.64983" lon="3.67139">
        <ele>1179.88</ele>
        <time>2025-04-16T02:37:50.114Z</time>
      </trkpt>
      <trkpt lat="44.64968" lon="3.67104">
        <ele>1181.94</ele>
        <time>2025-04-16T02:38:06.954Z</time>
      </trkpt>
      <trkpt lat="44.64953" lon="3.67079">
        <ele>1183.98</ele>
        <time>2025-04-16T02:38:23.797Z</time>
      </trkpt>
      <trkpt lat="44.64933" lon="3.67055">
        <ele>1186.01</ele>
        <time>2025-04-16T02:38:40.645Z</time>
      </trkpt>
      <trkpt lat="44.64912" lon="3.67031">
        <ele>1188.02</ele>
        <time>2025-04-16T02:38:57.497Z</time>
      </trkpt>
      <trkpt lat="44.64893" lon="3.67021">
        <ele>1190.11</ele>
        <time>2025-04-16T02:39:14.352Z</time>
      </trkpt>
      <trkpt lat="44.64865" lon="3.67012">
        <ele>1192.22</ele>
        <time>2025-04-16T02:39:31.212Z</time>
      </trkpt>
      <trkpt lat="44.6484" lon="3.67019">
        <ele>1194.31</ele>
        <time>2025-04-16T02:39:48.076Z</time>
      </trkpt>
      <trkpt lat="44.64817" lon="3.67042">
        <ele>1196.34</ele>
        <time>2025-04-16T02:40:04.944Z</time>
      </trkpt>
      <trkpt lat="44.64795" lon="3.67066">
        <ele>1198.37</ele>
        <time>2025-04-16T02:40:21.817Z</time>
      </trkpt>
      <trkpt lat="44.64773" lon="3.67089">
        <ele>1200.42</ele>
        <time>2025-04-16T02:40:38.694Z</time>
      </trkpt>
      <trkpt lat="44.64753" lon="3.67102">
        <ele>1202.36</ele>
        <time>2025-04-16T02:40:55.575Z</time>
      </trkpt>
      <trkpt lat="44.64732" lon="3.67115">
        <ele>1204.34</ele>
        <time>2025-04-16T02:41:12.459Z</time>
      </trkpt>
      <trkpt lat="44.64712" lon="3.6714">
        <ele>1206.48</ele>
        <time>2025-04-16T02:41:29.348Z</time>
      </trkpt>
      <trkpt lat="44.64691" lon="3.67164">
        <ele>1208.64</ele>
        <time>2025-04-16T02:41:46.241Z</time>
      </trkpt>
      <trkpt lat="44.64668" lon="3.67178">
        <ele>1210.6</ele>
        <time>2025-04-16T02:42:03.138Z</time>
      </trkpt>
      <trkpt lat="44.64644" lon="3.67192">
        <ele>1212.63</ele>
        <time>2025-04-16T02:42:20.039Z</time>
      </trkpt>
      <trkpt lat="44.64628" lon="3.67212">
        <ele>1214.8</ele>
        <time>2025-04-16T02:42:36.944Z</time>
      </trkpt>
      <trkpt lat="44.64612" lon="3.67231">
        <ele>1216.98</ele>
        <time>2025-04-16T02:42:53.852Z</time>
      </trkpt>
      <trkpt lat="44.64593" lon="3.67246">
        <ele>1219.16</ele>
        <time>2025-04-16T02:43:10.764Z</time>
      </trkpt>
      <trkpt lat="44.64572" lon="3.67252">
        <ele>1221.3</ele>
        <time>2025-04-16T02:43:27.679Z</time>
      </trkpt>
      <trkpt lat="44.64552" lon="3.67259">
        <ele>1223.48</ele>
        <time>2025-04-16T02:43:44.597Z</time>
      </trkpt>
      <trkpt lat="44.64524" lon="3.67263">
        <ele>1225.64</ele>
        <time>2025-04-16T02:44:01.520Z</time>
      </trkpt>
      <trkpt lat="44.64496" lon="3.67267">
        <ele>1227.66</ele>
        <time>2025-04-16T02:44:18.447Z</time>
      </trkpt>
      <trkpt lat="44.64467" lon="3.67262">
        <ele>1229.7</ele>
        <time>2025-04-16T02:44:35.379Z</time>
      </trkpt>
      <trkpt lat="44.64438" lon="3.67256">
        <ele>1231.83</ele>
        <time>2025-04-16T02:44:52.316Z</time>
      </trkpt>
      <trkpt lat="44.64408" lon="3.6725">
        <ele>1233.87</ele>
        <time>2025-04-16T02:45:09.257Z</time>
      </trkpt>
      <trkpt lat="44.64393" lon="3.67252">
        <ele>1235.85</ele>
        <time>2025-04-16T02:45:26.201Z</time>
      </trkpt>
      <trkpt lat="44.64372" lon="3.6726">
        <ele>1237.98</ele>
        <time>2025-04-16T02:45:43.148Z</time>
      </trkpt>
      <trkpt lat="44.6435" lon="3.67267">
        <ele>1240.08</ele>
        <time>2025-04-16T02:46:00.099Z</time>
      </trkpt>
      <trkpt lat="44.64346" lon="3.67276">
        <ele>1242.21</ele>
        <time>2025-04-16T02:46:17.051Z</time>
      </trkpt>
      <trkpt lat="44.6435" lon="3.67287">
        <ele>1244.37</ele>
        <time>2025-04-16T02:46:34.005Z</time>
      </trkpt>
      <trkpt lat="44.64373" lon="3.67299">
        <ele>1246.49</ele>
        <time>2025-04-16T02:46:50.962Z</time>
      </trkpt>
      <trkpt lat="44.64395" lon="3.6731">
        <ele>1248.56</ele>
        <time>2025-04-16T02:47:07.923Z</time>
      </trkpt>
      <trkpt lat="44.64406" lon="3.67321">
        <ele>1250.67</ele>
        <time>2025-04-16T02:47:24.886Z</time>
      </trkpt>
      <trkpt lat="44.64423" lon="3.67351">
        <ele>1252.86</ele>
        <time>2025-04-16T02:47:41.854Z</time>
      </trkpt>
      <trkpt lat="44.6444" lon="3.67381">
        <ele>1255.04</ele>
        <time>2025-04-16T02:47:58.826Z</time>
      </trkpt>
      <trkpt lat="44.64447" lon="3.67403">
        <ele>1257.11</ele>
        <time>2025-04-16T02:48:15.801Z</time>
      </trkpt>
      <trkpt lat="44.64445" lon="3.67413">
        <ele>1259.08</ele>
        <time>2025-04-16T02:48:32.777Z</time>
      </trkpt>
      <trkpt lat="44.64438" lon="3.67433">
        <ele>1261.02</ele>
        <time>2025-04-16T02:48:49.756Z</time>
      </trkpt>
      <trkpt lat="44.64426" lon="3.67452">
        <ele>1262.99</ele>
        <time>2025-04-16T02:49:06.737Z</time>
      </trkpt>
      <trkpt lat="44.64415" lon="3.67471">
        <ele>1264.9</ele>
        <time>2025-04-16T02:49:23.721Z</time>
      </trkpt>
      <trkpt lat="44.64406" lon="3.67473">
        <ele>1266.94</ele>
        <time>2025-04-16T02:49:40.707Z</time>
      </trkpt>
      <trkpt lat="44.64389" lon="3.67471">
        <ele>1269.01</ele>
        <time>2025-04-16T02:49:57.695Z</time>
      </trkpt>
      <trkpt lat="44.64372" lon="3.67469">
        <ele>1271.1</ele>
        <time>2025-04-16T02:50:14.686Z</time>
      </trkpt>
      <trkpt lat="44.64361" lon="3.67463">
        <ele>1273.13</ele>
        <time>2025-04-16T02:50:31.679Z</time>
      </trkpt>
      <trkpt lat="44.64344" lon="3.67473">
        <ele>1275.17</ele>
        <time>2025-04-16T02:50:48.675Z</time>
      </trkpt>
      <trkpt lat="44.64323" lon="3.67473">
        <ele>1277.1</ele>
        <time>2025-04-16T02:51:05.674Z</time>
      </trkpt>
      <trkpt lat="44.64303" lon="3.67473">
        <ele>1278.91</ele>
        <time>2025-04-16T02:51:22.677Z</time>
      </trkpt>
      <trkpt lat="44.64297" lon="3.6748">
        <ele>1280.47</ele>
        <time>2025-04-16T02:51:39.681Z</time>
      </trkpt>
      <trkpt lat="44.64296" lon="3.6748">
        <ele>1281.95</ele>
        <time>2025-04-16T02:51:56.685Z</time>
      </trkpt>
      <trkpt lat="44.64296" lon="3.6748">
        <ele>1283.38</ele>
        <time>2025-04-16T02:52:13.689Z</time>
      </trkpt>
      <trkpt lat="44.64288" lon="3.67488">
        <ele>1284.74</ele>
        <time>2025-04-16T02:52:30.695Z</time>
      </trkpt>
      <trkpt lat="44.64271" lon="3.6751">
        <ele>1285.97</ele>
        <time>2025-04-16T02:52:47.704Z</time>
      </trkpt>
      <trkpt lat="44.64243" lon="3.67529">
        <ele>1287.16</ele>
        <time>2025-04-16T02:53:04.718Z</time>
      </trkpt>
      <trkpt lat="44.64217" lon="3.67538">
        <ele>1288.36</ele>
        <time>2025-04-16T02:53:21.736Z</time>
      </trkpt>
      <trkpt lat="44.64191" lon="3.67542">
        <ele>1289.46</ele>
        <time>2025-04-16T02:53:38.759Z</time>
      </trkpt>
      <trkpt lat="44.64164" lon="3.67546">
        <ele>1290.39</ele>
        <time>2025-04-16T02:53:55.786Z</time>
      </trkpt>
      <trkpt lat="44.64138" lon="3.67551">
        <ele>1291.09</ele>
        <time>2025-04-16T02:54:12.817Z</time>
      </trkpt>
      <trkpt lat="44.64119" lon="3.67553">
        <ele>1291.57</ele>
        <time>2025-04-16T02:54:29.851Z</time>
      </trkpt>
      <trkpt lat="44.64116" lon="3.67516">
        <ele>1291.83</ele>
        <time>2025-04-16T02:54:46.890Z</time>
      </trkpt>
      <trkpt lat="44.64106" lon="3.67503">
        <ele>1291.88</ele>
        <time>2025-04-16T02:55:03.931Z</time>
      </trkpt>
      <trkpt lat="44.64087" lon="3.67518">
        <ele>1291.73</ele>
        <time>2025-04-16T02:55:20.975Z</time>
      </trkpt>
      <trkpt lat="44.64069" lon="3.67533">
        <ele>1291.35</ele>
        <time>2025-04-16T02:55:38.023Z</time>
      </trkpt>
      <trkpt lat="44.64056" lon="3.67538">
        <ele>1290.73</ele>
        <time>2025-04-16T02:55:55.073Z</time>
      </trkpt>
      <trkpt lat="44.64052" lon="3.67529">
        <ele>1289.84</ele>
        <time>2025-04-16T02:56:12.124Z</time>
      </trkpt>
      <trkpt lat="44.64024" lon="3.67521">
        <ele>1288.65</ele>
        <time>2025-04-16T02:56:29.179Z</time>
      </trkpt>
      <trkpt lat="44.64003" lon="3.67521">
        <ele>1287.23</ele>
        <time>2025-04-16T02:56:46.238Z</time>
      </trkpt>
      <trkpt lat="44.63986" lon="3.67527">
        <ele>1285.61</ele>
        <time>2025-04-16T02:57:03.300Z</time>
      </trkpt>
      <trkpt lat="44.63968" lon="3.67533">
        <ele>1283.72</ele>
        <time>2025-04-16T02:57:20.365Z</time>
      </trkpt>
      <trkpt lat="44.63977" lon="3.67516">
        <ele>1281.68</ele>
        <time>2025-04-16T02:57:37.432Z</time>
      </trkpt>
      <trkpt lat="44.63979" lon="3.67495">
        <ele>1279.26</ele>
        <time>2025-04-16T02:57:54.501Z</time>
      </trkpt>
      <trkpt lat="44.63968" lon="3.67512">
        <ele>1276.59</ele>
        <time>2025-04-16T02:58:11.573Z</time>
      </trkpt>
      <trkpt lat="44.63945" lon="3.67524">
        <ele>1273.51</ele>
        <time>2025-04-16T02:58:28.649Z</time>
      </trkpt>
      <trkpt lat="44.63921" lon="3.67536">
        <ele>1270.28</ele>
        <time>2025-04-16T02:58:45.729Z</time>
      </trkpt>
      <trkpt lat="44.63898" lon="3.67549">
        <ele>1266.84</ele>
        <time>2025-04-16T02:59:02.813Z</time>
      </trkpt>
      <trkpt lat="44.63882" lon="3.67564">
        <ele>1263.41</ele>
        <time>2025-04-16T02:59:19.900Z</time>
      </trkpt>
      <trkpt lat="44.63857" lon="3.67573">
        <ele>1259.62</ele>
        <time>2025-04-16T02:59:36.991Z</time>
      </trkpt>
      <trkpt lat="44.63832" lon="3.67582">
        <ele>1255.7</ele>
        <time>2025-04-16T02:59:54.086Z</time>
      </trkpt>
      <trkpt lat="44.63807" lon="3.67591">
        <ele>1251.7</ele>
        <time>2025-04-16T03:00:11.186Z</time>
      </trkpt>
      <trkpt lat="44.6378" lon="3.67582">
        <ele>1247.47</ele>
        <time>2025-04-16T03:00:28.290Z</time>
      </trkpt>
      <trkpt lat="44.63752" lon="3.67573">
        <ele>1243.19</ele>
        <time>2025-04-16T03:00:45.399Z</time>
      </trkpt>
      <trkpt lat="44.63724" lon="3.67564">
        <ele>1238.97</ele>
        <time>2025-04-16T03:01:02.512Z</time>
      </trkpt>
      <trkpt lat="44.63704" lon="3.6756">
        <ele>1234.78</ele>
        <time>2025-04-16T03:01:19.628Z</time>
      </trkpt>
      <trkpt lat="44.63685" lon="3.67557">
        <ele>1230.45</ele>
        <time>2025-04-16T03:01:36.748Z</time>
      </trkpt>
      <trkpt lat="44.6366" lon="3.67558">
        <ele>1226.08</ele>
        <time>2025-04-16T03:01:53.872Z</time>
      </trkpt>
      <trkpt lat="44.63635" lon="3.67559">
        <ele>1221.79</ele>
        <time>2025-04-16T03:02:11.000Z</time>
      </trkpt>
      <trkpt lat="44.6361" lon="3.67559">
        <ele>1217.63</ele>
        <time>2025-04-16T03:02:28.132Z</time>
      </trkpt>
      <trkpt lat="44.63591" lon="3.67566">
        <ele>1213.63</ele>
        <time>2025-04-16T03:02:45.267Z</time>
      </trkpt>
      <trkpt lat="44.63571" lon="3.67572">
        <ele>1209.74</ele>
        <time>2025-04-16T03:03:02.405Z</time>
      </trkpt>
      <trkpt lat="44.63543" lon="3.67576">
        <ele>1205.82</ele>
        <time>2025-04-16T03:03:19.548Z</time>
      </trkpt>
      <trkpt lat="44.63514" lon="3.6758">
        <ele>1202.05</ele>
        <time>2025-04-16T03:03:36.695Z</time>
      </trkpt>
      <trkpt lat="44.63485" lon="3.67584">
        <ele>1198.59</ele>
        <time>2025-04-16T03:03:53.847Z</time>
      </trkpt>
      <trkpt lat="44.63456" lon="3.67588">
        <ele>1195.5</ele>
        <time>2025-04-16T03:04:11.003Z</time>
      </trkpt>
      <trkpt lat="44.63428" lon="3.67591">
        <ele>1192.66</ele>
        <time>2025-04-16T03:04:28.164Z</time>
      </trkpt>
      <trkpt lat="44.63417" lon="3.67598">
        <ele>1190.06</ele>
        <time>2025-04-16T03:04:45.327Z</time>
      </trkpt>
      <trkpt lat="44.63408" lon="3.67611">
        <ele>1187.65</ele>
        <time>2025-04-16T03:05:02.492Z</time>
      </trkpt>
      <trkpt lat="44.634" lon="3.67606">
        <ele>1185.38</ele>
        <time>2025-04-16T03:05:19.658Z</time>
      </trkpt>
      <trkpt lat="44.63394" lon="3.67606">
        <ele>1183.27</ele>
        <time>2025-04-16T03:05:36.825Z</time>
      </trkpt>
    </trkseg>
  </trk>
</gpx>